<?xml version="1.0" encoding="UTF-8" standalone="no" ?>
<gpx xmlns="http://www.topografix.com/GPX/1/1" xmlns:xsi="http://www.w3.org/2001/XMLSchema-instance" xsi:schemaLocation="http://www.topografix.com/GPX/1/1 http://www.topografix.com/GPX/1/1/gpx.xsd" version="1.1" creator="VisuGPX - https://www.visugpx.com">
  <metadata>
    <name>roquebrune sur argent</name>
    <desc><![CDATA[tracé modifié , départ du pont a droite du rond point direction la bouverie]]></desc>
  </metadata>
  <trk>
    <name><![CDATA[La forêt de Palaison - Roquebrune sur Argens]]></name>
    <trkseg>
      <trkpt lat="43.4476" lon="6.64274">
        <ele>19</ele>
        <time>2019-04-26T18:20:03.678Z</time>
      </trkpt>
      <trkpt lat="43.4476" lon="6.64268">
        <ele>18</ele>
        <time>2019-04-26T18:20:04.678Z</time>
      </trkpt>
      <trkpt lat="43.4476" lon="6.64262">
        <ele>18</ele>
        <time>2019-04-26T18:20:05.678Z</time>
      </trkpt>
      <trkpt lat="43.44758" lon="6.64244">
        <ele>17</ele>
        <time>2019-04-26T18:20:06.678Z</time>
      </trkpt>
      <trkpt lat="43.44756" lon="6.64237">
        <ele>17</ele>
        <time>2019-04-26T18:20:07.678Z</time>
      </trkpt>
      <trkpt lat="43.44754" lon="6.64231">
        <ele>17</ele>
        <time>2019-04-26T18:20:08.678Z</time>
      </trkpt>
      <trkpt lat="43.44752" lon="6.64224">
        <ele>17</ele>
        <time>2019-04-26T18:20:09.678Z</time>
      </trkpt>
      <trkpt lat="43.44749" lon="6.64218">
        <ele>17</ele>
        <time>2019-04-26T18:20:10.678Z</time>
      </trkpt>
      <trkpt lat="43.44744" lon="6.64204">
        <ele>17</ele>
        <time>2019-04-26T18:20:11.678Z</time>
      </trkpt>
      <trkpt lat="43.44738" lon="6.6419">
        <ele>17</ele>
        <time>2019-04-26T18:20:12.678Z</time>
      </trkpt>
      <trkpt lat="43.44734" lon="6.64173">
        <ele>17</ele>
        <time>2019-04-26T18:20:13.678Z</time>
      </trkpt>
      <trkpt lat="43.4473" lon="6.64157">
        <ele>17</ele>
        <time>2019-04-26T18:20:14.678Z</time>
      </trkpt>
      <trkpt lat="43.44726" lon="6.6414">
        <ele>17</ele>
        <time>2019-04-26T18:20:15.678Z</time>
      </trkpt>
      <trkpt lat="43.44722" lon="6.64123">
        <ele>16</ele>
        <time>2019-04-26T18:20:16.678Z</time>
      </trkpt>
      <trkpt lat="43.44719" lon="6.64116">
        <ele>16</ele>
        <time>2019-04-26T18:20:17.678Z</time>
      </trkpt>
      <trkpt lat="43.44715" lon="6.6411">
        <ele>16</ele>
        <time>2019-04-26T18:20:18.678Z</time>
      </trkpt>
      <trkpt lat="43.44708" lon="6.64097">
        <ele>16</ele>
        <time>2019-04-26T18:20:19.678Z</time>
      </trkpt>
      <trkpt lat="43.44704" lon="6.64084">
        <ele>15</ele>
        <time>2019-04-26T18:20:20.678Z</time>
      </trkpt>
      <trkpt lat="43.44704" lon="6.64069">
        <ele>15</ele>
        <time>2019-04-26T18:20:21.678Z</time>
      </trkpt>
      <trkpt lat="43.44704" lon="6.64055">
        <ele>14</ele>
        <time>2019-04-26T18:20:22.678Z</time>
      </trkpt>
      <trkpt lat="43.44705" lon="6.64048">
        <ele>14</ele>
        <time>2019-04-26T18:20:23.678Z</time>
      </trkpt>
      <trkpt lat="43.44705" lon="6.64041">
        <ele>14</ele>
        <time>2019-04-26T18:20:24.678Z</time>
      </trkpt>
      <trkpt lat="43.44705" lon="6.64028">
        <ele>13</ele>
        <time>2019-04-26T18:20:25.678Z</time>
      </trkpt>
      <trkpt lat="43.44706" lon="6.64014">
        <ele>13</ele>
        <time>2019-04-26T18:20:26.678Z</time>
      </trkpt>
      <trkpt lat="43.44706" lon="6.64008">
        <ele>12</ele>
        <time>2019-04-26T18:20:27.678Z</time>
      </trkpt>
      <trkpt lat="43.44704" lon="6.64003">
        <ele>12</ele>
        <time>2019-04-26T18:20:28.678Z</time>
      </trkpt>
      <trkpt lat="43.44697" lon="6.63997">
        <ele>12</ele>
        <time>2019-04-26T18:20:29.678Z</time>
      </trkpt>
      <trkpt lat="43.44693" lon="6.63996">
        <ele>12</ele>
        <time>2019-04-26T18:20:30.678Z</time>
      </trkpt>
      <trkpt lat="43.44688" lon="6.63996">
        <ele>12</ele>
        <time>2019-04-26T18:20:31.678Z</time>
      </trkpt>
      <trkpt lat="43.44684" lon="6.63997">
        <ele>12</ele>
        <time>2019-04-26T18:20:32.678Z</time>
      </trkpt>
      <trkpt lat="43.4468" lon="6.63997">
        <ele>12</ele>
        <time>2019-04-26T18:20:33.678Z</time>
      </trkpt>
      <trkpt lat="43.44672" lon="6.63997">
        <ele>12</ele>
        <time>2019-04-26T18:20:34.678Z</time>
      </trkpt>
      <trkpt lat="43.44665" lon="6.63997">
        <ele>12</ele>
        <time>2019-04-26T18:20:35.678Z</time>
      </trkpt>
      <trkpt lat="43.44658" lon="6.63996">
        <ele>12</ele>
        <time>2019-04-26T18:20:36.678Z</time>
      </trkpt>
      <trkpt lat="43.44652" lon="6.63996">
        <ele>12</ele>
        <time>2019-04-26T18:20:37.678Z</time>
      </trkpt>
      <trkpt lat="43.44648" lon="6.63995">
        <ele>13</ele>
        <time>2019-04-26T18:20:38.678Z</time>
      </trkpt>
      <trkpt lat="43.44645" lon="6.63995">
        <ele>13</ele>
        <time>2019-04-26T18:20:39.678Z</time>
      </trkpt>
      <trkpt lat="43.44638" lon="6.63994">
        <ele>13</ele>
        <time>2019-04-26T18:20:40.678Z</time>
      </trkpt>
      <trkpt lat="43.44631" lon="6.63993">
        <ele>13</ele>
        <time>2019-04-26T18:20:41.678Z</time>
      </trkpt>
      <trkpt lat="43.44624" lon="6.63992">
        <ele>13</ele>
        <time>2019-04-26T18:20:42.678Z</time>
      </trkpt>
      <trkpt lat="43.44621" lon="6.63991">
        <ele>13</ele>
        <time>2019-04-26T18:20:43.678Z</time>
      </trkpt>
      <trkpt lat="43.44617" lon="6.63991">
        <ele>13</ele>
        <time>2019-04-26T18:20:44.678Z</time>
      </trkpt>
      <trkpt lat="43.44611" lon="6.6399">
        <ele>14</ele>
        <time>2019-04-26T18:20:45.678Z</time>
      </trkpt>
      <trkpt lat="43.44604" lon="6.63988">
        <ele>14</ele>
        <time>2019-04-26T18:20:46.678Z</time>
      </trkpt>
      <trkpt lat="43.44597" lon="6.63987">
        <ele>14</ele>
        <time>2019-04-26T18:20:47.678Z</time>
      </trkpt>
      <trkpt lat="43.44594" lon="6.63986">
        <ele>14</ele>
        <time>2019-04-26T18:20:48.678Z</time>
      </trkpt>
      <trkpt lat="43.44591" lon="6.63985">
        <ele>14</ele>
        <time>2019-04-26T18:20:49.678Z</time>
      </trkpt>
      <trkpt lat="43.44584" lon="6.63984">
        <ele>14</ele>
        <time>2019-04-26T18:20:50.678Z</time>
      </trkpt>
      <trkpt lat="43.44577" lon="6.63981">
        <ele>15</ele>
        <time>2019-04-26T18:20:51.678Z</time>
      </trkpt>
      <trkpt lat="43.4457" lon="6.63979">
        <ele>15</ele>
        <time>2019-04-26T18:20:52.678Z</time>
      </trkpt>
      <trkpt lat="43.44563" lon="6.63979">
        <ele>15</ele>
        <time>2019-04-26T18:20:53.678Z</time>
      </trkpt>
      <trkpt lat="43.44556" lon="6.63978">
        <ele>15</ele>
        <time>2019-04-26T18:20:54.678Z</time>
      </trkpt>
      <trkpt lat="43.44548" lon="6.63979">
        <ele>15</ele>
        <time>2019-04-26T18:20:55.678Z</time>
      </trkpt>
      <trkpt lat="43.4454" lon="6.63982">
        <ele>16</ele>
        <time>2019-04-26T18:20:56.678Z</time>
      </trkpt>
      <trkpt lat="43.44533" lon="6.63988">
        <ele>16</ele>
        <time>2019-04-26T18:20:57.678Z</time>
      </trkpt>
      <trkpt lat="43.4453" lon="6.63991">
        <ele>16</ele>
        <time>2019-04-26T18:20:58.678Z</time>
      </trkpt>
      <trkpt lat="43.44527" lon="6.63995">
        <ele>16</ele>
        <time>2019-04-26T18:20:59.678Z</time>
      </trkpt>
      <trkpt lat="43.44521" lon="6.64004">
        <ele>15</ele>
        <time>2019-04-26T18:21:00.678Z</time>
      </trkpt>
      <trkpt lat="43.44516" lon="6.64013">
        <ele>16</ele>
        <time>2019-04-26T18:21:01.678Z</time>
      </trkpt>
      <trkpt lat="43.44514" lon="6.64018">
        <ele>16</ele>
        <time>2019-04-26T18:21:02.678Z</time>
      </trkpt>
      <trkpt lat="43.44511" lon="6.64023">
        <ele>16</ele>
        <time>2019-04-26T18:21:03.678Z</time>
      </trkpt>
      <trkpt lat="43.44505" lon="6.64033">
        <ele>16</ele>
        <time>2019-04-26T18:21:04.678Z</time>
      </trkpt>
      <trkpt lat="43.44499" lon="6.64042">
        <ele>16</ele>
        <time>2019-04-26T18:21:05.678Z</time>
      </trkpt>
      <trkpt lat="43.44492" lon="6.6405">
        <ele>16</ele>
        <time>2019-04-26T18:21:06.678Z</time>
      </trkpt>
      <trkpt lat="43.44484" lon="6.64054">
        <ele>17</ele>
        <time>2019-04-26T18:21:07.678Z</time>
      </trkpt>
      <trkpt lat="43.44475" lon="6.64054">
        <ele>17</ele>
        <time>2019-04-26T18:21:08.678Z</time>
      </trkpt>
      <trkpt lat="43.44468" lon="6.64051">
        <ele>17</ele>
        <time>2019-04-26T18:21:09.678Z</time>
      </trkpt>
      <trkpt lat="43.44461" lon="6.64049">
        <ele>17</ele>
        <time>2019-04-26T18:21:10.678Z</time>
      </trkpt>
      <trkpt lat="43.44455" lon="6.64045">
        <ele>18</ele>
        <time>2019-04-26T18:21:11.678Z</time>
      </trkpt>
      <trkpt lat="43.44453" lon="6.6404">
        <ele>18</ele>
        <time>2019-04-26T18:21:12.678Z</time>
      </trkpt>
      <trkpt lat="43.44453" lon="6.64035">
        <ele>18</ele>
        <time>2019-04-26T18:21:13.678Z</time>
      </trkpt>
      <trkpt lat="43.44454" lon="6.64031">
        <ele>18</ele>
        <time>2019-04-26T18:21:14.678Z</time>
      </trkpt>
      <trkpt lat="43.44456" lon="6.64021">
        <ele>17</ele>
        <time>2019-04-26T18:21:15.678Z</time>
      </trkpt>
      <trkpt lat="43.44457" lon="6.6401">
        <ele>17</ele>
        <time>2019-04-26T18:21:16.678Z</time>
      </trkpt>
      <trkpt lat="43.44459" lon="6.63999">
        <ele>17</ele>
        <time>2019-04-26T18:21:17.678Z</time>
      </trkpt>
      <trkpt lat="43.44462" lon="6.63988">
        <ele>17</ele>
        <time>2019-04-26T18:21:18.678Z</time>
      </trkpt>
      <trkpt lat="43.44465" lon="6.63978">
        <ele>17</ele>
        <time>2019-04-26T18:21:19.678Z</time>
      </trkpt>
      <trkpt lat="43.44468" lon="6.63968">
        <ele>18</ele>
        <time>2019-04-26T18:21:20.678Z</time>
      </trkpt>
      <trkpt lat="43.4447" lon="6.63962">
        <ele>18</ele>
        <time>2019-04-26T18:21:21.678Z</time>
      </trkpt>
      <trkpt lat="43.44472" lon="6.63957">
        <ele>18</ele>
        <time>2019-04-26T18:21:22.678Z</time>
      </trkpt>
      <trkpt lat="43.44475" lon="6.63952">
        <ele>18</ele>
        <time>2019-04-26T18:21:23.678Z</time>
      </trkpt>
      <trkpt lat="43.44477" lon="6.63946">
        <ele>18</ele>
        <time>2019-04-26T18:21:24.678Z</time>
      </trkpt>
      <trkpt lat="43.44483" lon="6.63937">
        <ele>18</ele>
        <time>2019-04-26T18:21:25.678Z</time>
      </trkpt>
      <trkpt lat="43.44486" lon="6.63932">
        <ele>19</ele>
        <time>2019-04-26T18:21:26.678Z</time>
      </trkpt>
      <trkpt lat="43.44489" lon="6.63928">
        <ele>19</ele>
        <time>2019-04-26T18:21:27.678Z</time>
      </trkpt>
      <trkpt lat="43.44491" lon="6.63923">
        <ele>19</ele>
        <time>2019-04-26T18:21:28.678Z</time>
      </trkpt>
      <trkpt lat="43.44493" lon="6.63918">
        <ele>19</ele>
        <time>2019-04-26T18:21:29.678Z</time>
      </trkpt>
      <trkpt lat="43.44496" lon="6.63908">
        <ele>19</ele>
        <time>2019-04-26T18:21:30.678Z</time>
      </trkpt>
      <trkpt lat="43.44499" lon="6.63898">
        <ele>20</ele>
        <time>2019-04-26T18:21:31.678Z</time>
      </trkpt>
      <trkpt lat="43.445" lon="6.63887">
        <ele>20</ele>
        <time>2019-04-26T18:21:32.678Z</time>
      </trkpt>
      <trkpt lat="43.44502" lon="6.63877">
        <ele>21</ele>
        <time>2019-04-26T18:21:33.678Z</time>
      </trkpt>
      <trkpt lat="43.44503" lon="6.63872">
        <ele>21</ele>
        <time>2019-04-26T18:21:34.678Z</time>
      </trkpt>
      <trkpt lat="43.44504" lon="6.63867">
        <ele>21</ele>
        <time>2019-04-26T18:21:35.678Z</time>
      </trkpt>
      <trkpt lat="43.44505" lon="6.63862">
        <ele>21</ele>
        <time>2019-04-26T18:21:36.678Z</time>
      </trkpt>
      <trkpt lat="43.44506" lon="6.63857">
        <ele>21</ele>
        <time>2019-04-26T18:21:37.678Z</time>
      </trkpt>
      <trkpt lat="43.44508" lon="6.63847">
        <ele>22</ele>
        <time>2019-04-26T18:21:38.678Z</time>
      </trkpt>
      <trkpt lat="43.4451" lon="6.63836">
        <ele>22</ele>
        <time>2019-04-26T18:21:39.678Z</time>
      </trkpt>
      <trkpt lat="43.44512" lon="6.63824">
        <ele>22</ele>
        <time>2019-04-26T18:21:40.678Z</time>
      </trkpt>
      <trkpt lat="43.44516" lon="6.63812">
        <ele>21</ele>
        <time>2019-04-26T18:21:41.678Z</time>
      </trkpt>
      <trkpt lat="43.44519" lon="6.63805">
        <ele>21</ele>
        <time>2019-04-26T18:21:42.678Z</time>
      </trkpt>
      <trkpt lat="43.44523" lon="6.63799">
        <ele>20</ele>
        <time>2019-04-26T18:21:43.678Z</time>
      </trkpt>
      <trkpt lat="43.44533" lon="6.63785">
        <ele>19</ele>
        <time>2019-04-26T18:21:44.678Z</time>
      </trkpt>
      <trkpt lat="43.44538" lon="6.63778">
        <ele>19</ele>
        <time>2019-04-26T18:21:45.678Z</time>
      </trkpt>
      <trkpt lat="43.44543" lon="6.63771">
        <ele>18</ele>
        <time>2019-04-26T18:21:46.678Z</time>
      </trkpt>
      <trkpt lat="43.44548" lon="6.63763">
        <ele>18</ele>
        <time>2019-04-26T18:21:47.678Z</time>
      </trkpt>
      <trkpt lat="43.44552" lon="6.63754">
        <ele>17</ele>
        <time>2019-04-26T18:21:48.678Z</time>
      </trkpt>
      <trkpt lat="43.44555" lon="6.63745">
        <ele>17</ele>
        <time>2019-04-26T18:21:49.678Z</time>
      </trkpt>
      <trkpt lat="43.44559" lon="6.63736">
        <ele>17</ele>
        <time>2019-04-26T18:21:50.678Z</time>
      </trkpt>
      <trkpt lat="43.44562" lon="6.63727">
        <ele>16</ele>
        <time>2019-04-26T18:21:51.678Z</time>
      </trkpt>
      <trkpt lat="43.44566" lon="6.63719">
        <ele>16</ele>
        <time>2019-04-26T18:21:52.678Z</time>
      </trkpt>
      <trkpt lat="43.44572" lon="6.63702">
        <ele>16</ele>
        <time>2019-04-26T18:21:53.678Z</time>
      </trkpt>
      <trkpt lat="43.44577" lon="6.63686">
        <ele>16</ele>
        <time>2019-04-26T18:21:54.678Z</time>
      </trkpt>
      <trkpt lat="43.44582" lon="6.6367">
        <ele>16</ele>
        <time>2019-04-26T18:21:55.678Z</time>
      </trkpt>
      <trkpt lat="43.44587" lon="6.63655">
        <ele>16</ele>
        <time>2019-04-26T18:21:56.678Z</time>
      </trkpt>
      <trkpt lat="43.44593" lon="6.6364">
        <ele>16</ele>
        <time>2019-04-26T18:21:57.678Z</time>
      </trkpt>
      <trkpt lat="43.44596" lon="6.63625">
        <ele>16</ele>
        <time>2019-04-26T18:21:58.678Z</time>
      </trkpt>
      <trkpt lat="43.44599" lon="6.63611">
        <ele>16</ele>
        <time>2019-04-26T18:21:59.678Z</time>
      </trkpt>
      <trkpt lat="43.446" lon="6.63605">
        <ele>16</ele>
        <time>2019-04-26T18:22:00.678Z</time>
      </trkpt>
      <trkpt lat="43.44602" lon="6.63598">
        <ele>16</ele>
        <time>2019-04-26T18:22:01.678Z</time>
      </trkpt>
      <trkpt lat="43.44606" lon="6.63586">
        <ele>16</ele>
        <time>2019-04-26T18:22:02.678Z</time>
      </trkpt>
      <trkpt lat="43.4461" lon="6.63573">
        <ele>16</ele>
        <time>2019-04-26T18:22:03.678Z</time>
      </trkpt>
      <trkpt lat="43.44615" lon="6.6356">
        <ele>16</ele>
        <time>2019-04-26T18:22:04.678Z</time>
      </trkpt>
      <trkpt lat="43.4462" lon="6.63547">
        <ele>16</ele>
        <time>2019-04-26T18:22:05.678Z</time>
      </trkpt>
      <trkpt lat="43.44624" lon="6.63533">
        <ele>16</ele>
        <time>2019-04-26T18:22:06.678Z</time>
      </trkpt>
      <trkpt lat="43.44627" lon="6.63526">
        <ele>16</ele>
        <time>2019-04-26T18:22:07.678Z</time>
      </trkpt>
      <trkpt lat="43.44629" lon="6.63519">
        <ele>16</ele>
        <time>2019-04-26T18:22:08.678Z</time>
      </trkpt>
      <trkpt lat="43.44631" lon="6.63512">
        <ele>16</ele>
        <time>2019-04-26T18:22:09.678Z</time>
      </trkpt>
      <trkpt lat="43.44635" lon="6.63506">
        <ele>16</ele>
        <time>2019-04-26T18:22:10.678Z</time>
      </trkpt>
      <trkpt lat="43.44641" lon="6.63494">
        <ele>15</ele>
        <time>2019-04-26T18:22:11.678Z</time>
      </trkpt>
      <trkpt lat="43.44648" lon="6.63482">
        <ele>15</ele>
        <time>2019-04-26T18:22:12.678Z</time>
      </trkpt>
      <trkpt lat="43.44655" lon="6.63471">
        <ele>14</ele>
        <time>2019-04-26T18:22:13.678Z</time>
      </trkpt>
      <trkpt lat="43.44662" lon="6.6346">
        <ele>14</ele>
        <time>2019-04-26T18:22:14.678Z</time>
      </trkpt>
      <trkpt lat="43.44669" lon="6.63449">
        <ele>14</ele>
        <time>2019-04-26T18:22:15.678Z</time>
      </trkpt>
      <trkpt lat="43.44677" lon="6.63438">
        <ele>14</ele>
        <time>2019-04-26T18:22:16.678Z</time>
      </trkpt>
      <trkpt lat="43.44683" lon="6.63428">
        <ele>14</ele>
        <time>2019-04-26T18:22:17.678Z</time>
      </trkpt>
      <trkpt lat="43.4469" lon="6.63417">
        <ele>14</ele>
        <time>2019-04-26T18:22:18.678Z</time>
      </trkpt>
      <trkpt lat="43.44696" lon="6.63406">
        <ele>14</ele>
        <time>2019-04-26T18:22:19.678Z</time>
      </trkpt>
      <trkpt lat="43.44703" lon="6.63394">
        <ele>14</ele>
        <time>2019-04-26T18:22:20.678Z</time>
      </trkpt>
      <trkpt lat="43.44712" lon="6.63381">
        <ele>14</ele>
        <time>2019-04-26T18:22:21.678Z</time>
      </trkpt>
      <trkpt lat="43.44715" lon="6.63375">
        <ele>14</ele>
        <time>2019-04-26T18:22:22.678Z</time>
      </trkpt>
      <trkpt lat="43.4472" lon="6.63368">
        <ele>14</ele>
        <time>2019-04-26T18:22:23.678Z</time>
      </trkpt>
      <trkpt lat="43.44724" lon="6.63362">
        <ele>14</ele>
        <time>2019-04-26T18:22:24.678Z</time>
      </trkpt>
      <trkpt lat="43.44728" lon="6.63356">
        <ele>14</ele>
        <time>2019-04-26T18:22:25.678Z</time>
      </trkpt>
      <trkpt lat="43.44737" lon="6.63343">
        <ele>14</ele>
        <time>2019-04-26T18:22:26.678Z</time>
      </trkpt>
      <trkpt lat="43.44743" lon="6.63337">
        <ele>13</ele>
        <time>2019-04-26T18:22:27.678Z</time>
      </trkpt>
      <trkpt lat="43.44748" lon="6.63332">
        <ele>13</ele>
        <time>2019-04-26T18:22:28.678Z</time>
      </trkpt>
      <trkpt lat="43.4476" lon="6.63326">
        <ele>13</ele>
        <time>2019-04-26T18:22:29.678Z</time>
      </trkpt>
      <trkpt lat="43.44772" lon="6.63324">
        <ele>13</ele>
        <time>2019-04-26T18:22:30.678Z</time>
      </trkpt>
      <trkpt lat="43.44778" lon="6.63324">
        <ele>13</ele>
        <time>2019-04-26T18:22:31.678Z</time>
      </trkpt>
      <trkpt lat="43.44784" lon="6.63324">
        <ele>13</ele>
        <time>2019-04-26T18:22:32.678Z</time>
      </trkpt>
      <trkpt lat="43.44797" lon="6.63324">
        <ele>13</ele>
        <time>2019-04-26T18:22:33.678Z</time>
      </trkpt>
      <trkpt lat="43.44809" lon="6.63324">
        <ele>12</ele>
        <time>2019-04-26T18:22:34.678Z</time>
      </trkpt>
      <trkpt lat="43.44814" lon="6.63325">
        <ele>12</ele>
        <time>2019-04-26T18:22:35.678Z</time>
      </trkpt>
      <trkpt lat="43.4482" lon="6.63324">
        <ele>12</ele>
        <time>2019-04-26T18:22:36.678Z</time>
      </trkpt>
      <trkpt lat="43.44831" lon="6.63323">
        <ele>12</ele>
        <time>2019-04-26T18:22:37.678Z</time>
      </trkpt>
      <trkpt lat="43.44841" lon="6.63322">
        <ele>12</ele>
        <time>2019-04-26T18:22:38.678Z</time>
      </trkpt>
      <trkpt lat="43.44846" lon="6.63322">
        <ele>12</ele>
        <time>2019-04-26T18:22:39.678Z</time>
      </trkpt>
      <trkpt lat="43.4485" lon="6.63321">
        <ele>12</ele>
        <time>2019-04-26T18:22:40.678Z</time>
      </trkpt>
      <trkpt lat="43.44859" lon="6.63319">
        <ele>12</ele>
        <time>2019-04-26T18:22:41.678Z</time>
      </trkpt>
      <trkpt lat="43.44867" lon="6.63318">
        <ele>12</ele>
        <time>2019-04-26T18:22:42.678Z</time>
      </trkpt>
      <trkpt lat="43.44871" lon="6.63317">
        <ele>12</ele>
        <time>2019-04-26T18:22:43.678Z</time>
      </trkpt>
      <trkpt lat="43.44875" lon="6.63317">
        <ele>12</ele>
        <time>2019-04-26T18:22:44.678Z</time>
      </trkpt>
      <trkpt lat="43.44883" lon="6.63316">
        <ele>12</ele>
        <time>2019-04-26T18:22:45.678Z</time>
      </trkpt>
      <trkpt lat="43.44892" lon="6.63314">
        <ele>12</ele>
        <time>2019-04-26T18:22:46.678Z</time>
      </trkpt>
      <trkpt lat="43.449" lon="6.63312">
        <ele>12</ele>
        <time>2019-04-26T18:22:47.678Z</time>
      </trkpt>
      <trkpt lat="43.44908" lon="6.6331">
        <ele>12</ele>
        <time>2019-04-26T18:22:48.678Z</time>
      </trkpt>
      <trkpt lat="43.44912" lon="6.63309">
        <ele>12</ele>
        <time>2019-04-26T18:22:49.678Z</time>
      </trkpt>
      <trkpt lat="43.44916" lon="6.63309">
        <ele>12</ele>
        <time>2019-04-26T18:22:50.678Z</time>
      </trkpt>
      <trkpt lat="43.44924" lon="6.63308">
        <ele>12</ele>
        <time>2019-04-26T18:22:51.678Z</time>
      </trkpt>
      <trkpt lat="43.44932" lon="6.63307">
        <ele>12</ele>
        <time>2019-04-26T18:22:52.678Z</time>
      </trkpt>
      <trkpt lat="43.44936" lon="6.63306">
        <ele>12</ele>
        <time>2019-04-26T18:22:53.678Z</time>
      </trkpt>
      <trkpt lat="43.4494" lon="6.63306">
        <ele>12</ele>
        <time>2019-04-26T18:22:54.678Z</time>
      </trkpt>
      <trkpt lat="43.44949" lon="6.63306">
        <ele>12</ele>
        <time>2019-04-26T18:22:55.678Z</time>
      </trkpt>
      <trkpt lat="43.44957" lon="6.63306">
        <ele>12</ele>
        <time>2019-04-26T18:22:56.678Z</time>
      </trkpt>
      <trkpt lat="43.44966" lon="6.63306">
        <ele>11</ele>
        <time>2019-04-26T18:22:57.678Z</time>
      </trkpt>
      <trkpt lat="43.44975" lon="6.63307">
        <ele>11</ele>
        <time>2019-04-26T18:22:58.678Z</time>
      </trkpt>
      <trkpt lat="43.44984" lon="6.63308">
        <ele>11</ele>
        <time>2019-04-26T18:22:59.678Z</time>
      </trkpt>
      <trkpt lat="43.44993" lon="6.63308">
        <ele>11</ele>
        <time>2019-04-26T18:23:00.678Z</time>
      </trkpt>
      <trkpt lat="43.45002" lon="6.63308">
        <ele>11</ele>
        <time>2019-04-26T18:23:01.678Z</time>
      </trkpt>
      <trkpt lat="43.45011" lon="6.63308">
        <ele>11</ele>
        <time>2019-04-26T18:23:02.678Z</time>
      </trkpt>
      <trkpt lat="43.45016" lon="6.63308">
        <ele>11</ele>
        <time>2019-04-26T18:23:03.678Z</time>
      </trkpt>
      <trkpt lat="43.4502" lon="6.63308">
        <ele>11</ele>
        <time>2019-04-26T18:23:04.678Z</time>
      </trkpt>
      <trkpt lat="43.45029" lon="6.63309">
        <ele>11</ele>
        <time>2019-04-26T18:23:05.678Z</time>
      </trkpt>
      <trkpt lat="43.45039" lon="6.63309">
        <ele>11</ele>
        <time>2019-04-26T18:23:06.678Z</time>
      </trkpt>
      <trkpt lat="43.45049" lon="6.6331">
        <ele>11</ele>
        <time>2019-04-26T18:23:07.678Z</time>
      </trkpt>
      <trkpt lat="43.4506" lon="6.6331">
        <ele>11</ele>
        <time>2019-04-26T18:23:08.678Z</time>
      </trkpt>
      <trkpt lat="43.4507" lon="6.63312">
        <ele>11</ele>
        <time>2019-04-26T18:23:09.678Z</time>
      </trkpt>
      <trkpt lat="43.45082" lon="6.63314">
        <ele>12</ele>
        <time>2019-04-26T18:23:10.678Z</time>
      </trkpt>
      <trkpt lat="43.45093" lon="6.63317">
        <ele>12</ele>
        <time>2019-04-26T18:23:11.678Z</time>
      </trkpt>
      <trkpt lat="43.45105" lon="6.6332">
        <ele>12</ele>
        <time>2019-04-26T18:23:12.678Z</time>
      </trkpt>
      <trkpt lat="43.45117" lon="6.63323">
        <ele>12</ele>
        <time>2019-04-26T18:23:13.678Z</time>
      </trkpt>
      <trkpt lat="43.45129" lon="6.63325">
        <ele>12</ele>
        <time>2019-04-26T18:23:14.678Z</time>
      </trkpt>
      <trkpt lat="43.45135" lon="6.63326">
        <ele>12</ele>
        <time>2019-04-26T18:23:15.678Z</time>
      </trkpt>
      <trkpt lat="43.45142" lon="6.63327">
        <ele>13</ele>
        <time>2019-04-26T18:23:16.678Z</time>
      </trkpt>
      <trkpt lat="43.45154" lon="6.6333">
        <ele>13</ele>
        <time>2019-04-26T18:23:17.678Z</time>
      </trkpt>
      <trkpt lat="43.45166" lon="6.63332">
        <ele>13</ele>
        <time>2019-04-26T18:23:18.678Z</time>
      </trkpt>
      <trkpt lat="43.45179" lon="6.63334">
        <ele>13</ele>
        <time>2019-04-26T18:23:19.678Z</time>
      </trkpt>
      <trkpt lat="43.45185" lon="6.63335">
        <ele>13</ele>
        <time>2019-04-26T18:23:20.678Z</time>
      </trkpt>
      <trkpt lat="43.45192" lon="6.63335">
        <ele>13</ele>
        <time>2019-04-26T18:23:21.678Z</time>
      </trkpt>
      <trkpt lat="43.45206" lon="6.63336">
        <ele>13</ele>
        <time>2019-04-26T18:23:22.678Z</time>
      </trkpt>
      <trkpt lat="43.4522" lon="6.63336">
        <ele>12</ele>
        <time>2019-04-26T18:23:23.678Z</time>
      </trkpt>
      <trkpt lat="43.45227" lon="6.63336">
        <ele>12</ele>
        <time>2019-04-26T18:23:24.678Z</time>
      </trkpt>
      <trkpt lat="43.45233" lon="6.63337">
        <ele>12</ele>
        <time>2019-04-26T18:23:25.678Z</time>
      </trkpt>
      <trkpt lat="43.45248" lon="6.63337">
        <ele>12</ele>
        <time>2019-04-26T18:23:26.678Z</time>
      </trkpt>
      <trkpt lat="43.45261" lon="6.63337">
        <ele>12</ele>
        <time>2019-04-26T18:23:27.678Z</time>
      </trkpt>
      <trkpt lat="43.45275" lon="6.63337">
        <ele>12</ele>
        <time>2019-04-26T18:23:28.678Z</time>
      </trkpt>
      <trkpt lat="43.45289" lon="6.63338">
        <ele>12</ele>
        <time>2019-04-26T18:23:29.678Z</time>
      </trkpt>
      <trkpt lat="43.45295" lon="6.63338">
        <ele>12</ele>
        <time>2019-04-26T18:23:30.678Z</time>
      </trkpt>
      <trkpt lat="43.45302" lon="6.63338">
        <ele>11</ele>
        <time>2019-04-26T18:23:31.678Z</time>
      </trkpt>
      <trkpt lat="43.45315" lon="6.63339">
        <ele>11</ele>
        <time>2019-04-26T18:23:32.678Z</time>
      </trkpt>
      <trkpt lat="43.45329" lon="6.63339">
        <ele>11</ele>
        <time>2019-04-26T18:23:33.678Z</time>
      </trkpt>
      <trkpt lat="43.45342" lon="6.6334">
        <ele>11</ele>
        <time>2019-04-26T18:23:34.678Z</time>
      </trkpt>
      <trkpt lat="43.45355" lon="6.6334">
        <ele>11</ele>
        <time>2019-04-26T18:23:35.678Z</time>
      </trkpt>
      <trkpt lat="43.45368" lon="6.6334">
        <ele>11</ele>
        <time>2019-04-26T18:23:36.678Z</time>
      </trkpt>
      <trkpt lat="43.45381" lon="6.63341">
        <ele>11</ele>
        <time>2019-04-26T18:23:37.678Z</time>
      </trkpt>
      <trkpt lat="43.45394" lon="6.63342">
        <ele>11</ele>
        <time>2019-04-26T18:23:38.678Z</time>
      </trkpt>
      <trkpt lat="43.45406" lon="6.63342">
        <ele>11</ele>
        <time>2019-04-26T18:23:39.678Z</time>
      </trkpt>
      <trkpt lat="43.45413" lon="6.63343">
        <ele>11</ele>
        <time>2019-04-26T18:23:40.678Z</time>
      </trkpt>
      <trkpt lat="43.45419" lon="6.63343">
        <ele>11</ele>
        <time>2019-04-26T18:23:41.678Z</time>
      </trkpt>
      <trkpt lat="43.45432" lon="6.63343">
        <ele>11</ele>
        <time>2019-04-26T18:23:42.678Z</time>
      </trkpt>
      <trkpt lat="43.45445" lon="6.63343">
        <ele>11</ele>
        <time>2019-04-26T18:23:43.678Z</time>
      </trkpt>
      <trkpt lat="43.45458" lon="6.63343">
        <ele>11</ele>
        <time>2019-04-26T18:23:44.678Z</time>
      </trkpt>
      <trkpt lat="43.4547" lon="6.63344">
        <ele>11</ele>
        <time>2019-04-26T18:23:45.678Z</time>
      </trkpt>
      <trkpt lat="43.45482" lon="6.63345">
        <ele>11</ele>
        <time>2019-04-26T18:23:46.678Z</time>
      </trkpt>
      <trkpt lat="43.45488" lon="6.63345">
        <ele>11</ele>
        <time>2019-04-26T18:23:47.678Z</time>
      </trkpt>
      <trkpt lat="43.45494" lon="6.63346">
        <ele>11</ele>
        <time>2019-04-26T18:23:48.678Z</time>
      </trkpt>
      <trkpt lat="43.45506" lon="6.63347">
        <ele>11</ele>
        <time>2019-04-26T18:23:49.678Z</time>
      </trkpt>
      <trkpt lat="43.45518" lon="6.63348">
        <ele>11</ele>
        <time>2019-04-26T18:23:50.678Z</time>
      </trkpt>
      <trkpt lat="43.4553" lon="6.6335">
        <ele>11</ele>
        <time>2019-04-26T18:23:51.678Z</time>
      </trkpt>
      <trkpt lat="43.45542" lon="6.63354">
        <ele>11</ele>
        <time>2019-04-26T18:23:52.678Z</time>
      </trkpt>
      <trkpt lat="43.45554" lon="6.63359">
        <ele>11</ele>
        <time>2019-04-26T18:23:53.678Z</time>
      </trkpt>
      <trkpt lat="43.45566" lon="6.63364">
        <ele>11</ele>
        <time>2019-04-26T18:23:54.678Z</time>
      </trkpt>
      <trkpt lat="43.45571" lon="6.63368">
        <ele>11</ele>
        <time>2019-04-26T18:23:55.678Z</time>
      </trkpt>
      <trkpt lat="43.45576" lon="6.63371">
        <ele>11</ele>
        <time>2019-04-26T18:23:56.678Z</time>
      </trkpt>
      <trkpt lat="43.45581" lon="6.63375">
        <ele>11</ele>
        <time>2019-04-26T18:23:57.678Z</time>
      </trkpt>
      <trkpt lat="43.45587" lon="6.6338">
        <ele>12</ele>
        <time>2019-04-26T18:23:58.678Z</time>
      </trkpt>
      <trkpt lat="43.45597" lon="6.63389">
        <ele>12</ele>
        <time>2019-04-26T18:23:59.678Z</time>
      </trkpt>
      <trkpt lat="43.45607" lon="6.63398">
        <ele>12</ele>
        <time>2019-04-26T18:24:00.678Z</time>
      </trkpt>
      <trkpt lat="43.45618" lon="6.63407">
        <ele>12</ele>
        <time>2019-04-26T18:24:01.678Z</time>
      </trkpt>
      <trkpt lat="43.45623" lon="6.63412">
        <ele>12</ele>
        <time>2019-04-26T18:24:02.678Z</time>
      </trkpt>
      <trkpt lat="43.45628" lon="6.63416">
        <ele>12</ele>
        <time>2019-04-26T18:24:03.678Z</time>
      </trkpt>
      <trkpt lat="43.45639" lon="6.63425">
        <ele>12</ele>
        <time>2019-04-26T18:24:04.678Z</time>
      </trkpt>
      <trkpt lat="43.4565" lon="6.63432">
        <ele>13</ele>
        <time>2019-04-26T18:24:05.678Z</time>
      </trkpt>
      <trkpt lat="43.45661" lon="6.63439">
        <ele>13</ele>
        <time>2019-04-26T18:24:06.678Z</time>
      </trkpt>
      <trkpt lat="43.45673" lon="6.63445">
        <ele>13</ele>
        <time>2019-04-26T18:24:07.678Z</time>
      </trkpt>
      <trkpt lat="43.45685" lon="6.63449">
        <ele>13</ele>
        <time>2019-04-26T18:24:08.678Z</time>
      </trkpt>
      <trkpt lat="43.45696" lon="6.63453">
        <ele>13</ele>
        <time>2019-04-26T18:24:09.678Z</time>
      </trkpt>
      <trkpt lat="43.45702" lon="6.63454">
        <ele>13</ele>
        <time>2019-04-26T18:24:10.678Z</time>
      </trkpt>
      <trkpt lat="43.45708" lon="6.63456">
        <ele>13</ele>
        <time>2019-04-26T18:24:11.678Z</time>
      </trkpt>
      <trkpt lat="43.4572" lon="6.63459">
        <ele>13</ele>
        <time>2019-04-26T18:24:12.678Z</time>
      </trkpt>
      <trkpt lat="43.45732" lon="6.63463">
        <ele>13</ele>
        <time>2019-04-26T18:24:13.678Z</time>
      </trkpt>
      <trkpt lat="43.45744" lon="6.63468">
        <ele>13</ele>
        <time>2019-04-26T18:24:14.678Z</time>
      </trkpt>
      <trkpt lat="43.45755" lon="6.63472">
        <ele>13</ele>
        <time>2019-04-26T18:24:15.678Z</time>
      </trkpt>
      <trkpt lat="43.45767" lon="6.63475">
        <ele>13</ele>
        <time>2019-04-26T18:24:16.678Z</time>
      </trkpt>
      <trkpt lat="43.45779" lon="6.63478">
        <ele>13</ele>
        <time>2019-04-26T18:24:17.678Z</time>
      </trkpt>
      <trkpt lat="43.45785" lon="6.6348">
        <ele>12</ele>
        <time>2019-04-26T18:24:18.678Z</time>
      </trkpt>
      <trkpt lat="43.4579" lon="6.63483">
        <ele>12</ele>
        <time>2019-04-26T18:24:19.678Z</time>
      </trkpt>
      <trkpt lat="43.45801" lon="6.63488">
        <ele>12</ele>
        <time>2019-04-26T18:24:20.678Z</time>
      </trkpt>
      <trkpt lat="43.45812" lon="6.63494">
        <ele>12</ele>
        <time>2019-04-26T18:24:21.678Z</time>
      </trkpt>
      <trkpt lat="43.45823" lon="6.635">
        <ele>11</ele>
        <time>2019-04-26T18:24:22.678Z</time>
      </trkpt>
      <trkpt lat="43.45834" lon="6.63507">
        <ele>11</ele>
        <time>2019-04-26T18:24:23.678Z</time>
      </trkpt>
      <trkpt lat="43.45845" lon="6.63514">
        <ele>11</ele>
        <time>2019-04-26T18:24:24.678Z</time>
      </trkpt>
      <trkpt lat="43.45856" lon="6.63521">
        <ele>11</ele>
        <time>2019-04-26T18:24:25.678Z</time>
      </trkpt>
      <trkpt lat="43.45867" lon="6.63529">
        <ele>11</ele>
        <time>2019-04-26T18:24:26.678Z</time>
      </trkpt>
      <trkpt lat="43.45873" lon="6.63533">
        <ele>11</ele>
        <time>2019-04-26T18:24:27.678Z</time>
      </trkpt>
      <trkpt lat="43.45879" lon="6.63537">
        <ele>11</ele>
        <time>2019-04-26T18:24:28.678Z</time>
      </trkpt>
      <trkpt lat="43.4589" lon="6.63545">
        <ele>11</ele>
        <time>2019-04-26T18:24:29.678Z</time>
      </trkpt>
      <trkpt lat="43.45901" lon="6.63553">
        <ele>10</ele>
        <time>2019-04-26T18:24:30.678Z</time>
      </trkpt>
      <trkpt lat="43.45912" lon="6.6356">
        <ele>10</ele>
        <time>2019-04-26T18:24:31.678Z</time>
      </trkpt>
      <trkpt lat="43.45918" lon="6.63563">
        <ele>10</ele>
        <time>2019-04-26T18:24:32.678Z</time>
      </trkpt>
      <trkpt lat="43.45923" lon="6.63567">
        <ele>10</ele>
        <time>2019-04-26T18:24:33.678Z</time>
      </trkpt>
      <trkpt lat="43.45934" lon="6.63575">
        <ele>10</ele>
        <time>2019-04-26T18:24:34.678Z</time>
      </trkpt>
      <trkpt lat="43.45945" lon="6.63582">
        <ele>10</ele>
        <time>2019-04-26T18:24:35.678Z</time>
      </trkpt>
      <trkpt lat="43.45956" lon="6.6359">
        <ele>11</ele>
        <time>2019-04-26T18:24:36.678Z</time>
      </trkpt>
      <trkpt lat="43.45967" lon="6.63597">
        <ele>11</ele>
        <time>2019-04-26T18:24:37.678Z</time>
      </trkpt>
      <trkpt lat="43.45978" lon="6.63605">
        <ele>11</ele>
        <time>2019-04-26T18:24:38.678Z</time>
      </trkpt>
      <trkpt lat="43.45989" lon="6.63613">
        <ele>11</ele>
        <time>2019-04-26T18:24:39.678Z</time>
      </trkpt>
      <trkpt lat="43.46" lon="6.6362">
        <ele>11</ele>
        <time>2019-04-26T18:24:40.678Z</time>
      </trkpt>
      <trkpt lat="43.46012" lon="6.63626">
        <ele>12</ele>
        <time>2019-04-26T18:24:41.678Z</time>
      </trkpt>
      <trkpt lat="43.46023" lon="6.63632">
        <ele>12</ele>
        <time>2019-04-26T18:24:42.678Z</time>
      </trkpt>
      <trkpt lat="43.46033" lon="6.63636">
        <ele>12</ele>
        <time>2019-04-26T18:24:43.678Z</time>
      </trkpt>
      <trkpt lat="43.46039" lon="6.63637">
        <ele>12</ele>
        <time>2019-04-26T18:24:44.678Z</time>
      </trkpt>
      <trkpt lat="43.46044" lon="6.63637">
        <ele>12</ele>
        <time>2019-04-26T18:24:45.678Z</time>
      </trkpt>
      <trkpt lat="43.46054" lon="6.63638">
        <ele>12</ele>
        <time>2019-04-26T18:24:46.678Z</time>
      </trkpt>
      <trkpt lat="43.46065" lon="6.63639">
        <ele>12</ele>
        <time>2019-04-26T18:24:47.678Z</time>
      </trkpt>
      <trkpt lat="43.46075" lon="6.63639">
        <ele>12</ele>
        <time>2019-04-26T18:24:48.678Z</time>
      </trkpt>
      <trkpt lat="43.46086" lon="6.63639">
        <ele>12</ele>
        <time>2019-04-26T18:24:49.678Z</time>
      </trkpt>
      <trkpt lat="43.46091" lon="6.6364">
        <ele>12</ele>
        <time>2019-04-26T18:24:50.678Z</time>
      </trkpt>
      <trkpt lat="43.46097" lon="6.63641">
        <ele>12</ele>
        <time>2019-04-26T18:24:51.678Z</time>
      </trkpt>
      <trkpt lat="43.46107" lon="6.63648">
        <ele>12</ele>
        <time>2019-04-26T18:24:52.678Z</time>
      </trkpt>
      <trkpt lat="43.46113" lon="6.6365">
        <ele>12</ele>
        <time>2019-04-26T18:24:53.678Z</time>
      </trkpt>
      <trkpt lat="43.46119" lon="6.6365">
        <ele>11</ele>
        <time>2019-04-26T18:24:54.678Z</time>
      </trkpt>
      <trkpt lat="43.46129" lon="6.63643">
        <ele>11</ele>
        <time>2019-04-26T18:24:55.678Z</time>
      </trkpt>
      <trkpt lat="43.46135" lon="6.63639">
        <ele>11</ele>
        <time>2019-04-26T18:24:56.678Z</time>
      </trkpt>
      <trkpt lat="43.4614" lon="6.63636">
        <ele>11</ele>
        <time>2019-04-26T18:24:57.678Z</time>
      </trkpt>
      <trkpt lat="43.46153" lon="6.63633">
        <ele>11</ele>
        <time>2019-04-26T18:24:58.678Z</time>
      </trkpt>
      <trkpt lat="43.46166" lon="6.63633">
        <ele>11</ele>
        <time>2019-04-26T18:24:59.678Z</time>
      </trkpt>
      <trkpt lat="43.46178" lon="6.63632">
        <ele>11</ele>
        <time>2019-04-26T18:25:00.678Z</time>
      </trkpt>
      <trkpt lat="43.46191" lon="6.63631">
        <ele>11</ele>
        <time>2019-04-26T18:25:01.678Z</time>
      </trkpt>
      <trkpt lat="43.46204" lon="6.63631">
        <ele>11</ele>
        <time>2019-04-26T18:25:02.678Z</time>
      </trkpt>
      <trkpt lat="43.46217" lon="6.6363">
        <ele>11</ele>
        <time>2019-04-26T18:25:03.678Z</time>
      </trkpt>
      <trkpt lat="43.4623" lon="6.63629">
        <ele>11</ele>
        <time>2019-04-26T18:25:04.678Z</time>
      </trkpt>
      <trkpt lat="43.46244" lon="6.63628">
        <ele>11</ele>
        <time>2019-04-26T18:25:05.678Z</time>
      </trkpt>
      <trkpt lat="43.4625" lon="6.63627">
        <ele>11</ele>
        <time>2019-04-26T18:25:06.678Z</time>
      </trkpt>
      <trkpt lat="43.46257" lon="6.63627">
        <ele>11</ele>
        <time>2019-04-26T18:25:07.678Z</time>
      </trkpt>
      <trkpt lat="43.4627" lon="6.63627">
        <ele>11</ele>
        <time>2019-04-26T18:25:08.678Z</time>
      </trkpt>
      <trkpt lat="43.46282" lon="6.63629">
        <ele>12</ele>
        <time>2019-04-26T18:25:09.678Z</time>
      </trkpt>
      <trkpt lat="43.46294" lon="6.63633">
        <ele>12</ele>
        <time>2019-04-26T18:25:10.678Z</time>
      </trkpt>
      <trkpt lat="43.46306" lon="6.6364">
        <ele>12</ele>
        <time>2019-04-26T18:25:11.678Z</time>
      </trkpt>
      <trkpt lat="43.46311" lon="6.63644">
        <ele>12</ele>
        <time>2019-04-26T18:25:12.678Z</time>
      </trkpt>
      <trkpt lat="43.46317" lon="6.63649">
        <ele>13</ele>
        <time>2019-04-26T18:25:13.678Z</time>
      </trkpt>
      <trkpt lat="43.46322" lon="6.63654">
        <ele>13</ele>
        <time>2019-04-26T18:25:14.678Z</time>
      </trkpt>
      <trkpt lat="43.46328" lon="6.63658">
        <ele>13</ele>
        <time>2019-04-26T18:25:15.678Z</time>
      </trkpt>
      <trkpt lat="43.46339" lon="6.63667">
        <ele>13</ele>
        <time>2019-04-26T18:25:16.678Z</time>
      </trkpt>
      <trkpt lat="43.46345" lon="6.6367">
        <ele>13</ele>
        <time>2019-04-26T18:25:17.678Z</time>
      </trkpt>
      <trkpt lat="43.46351" lon="6.63671">
        <ele>13</ele>
        <time>2019-04-26T18:25:18.678Z</time>
      </trkpt>
      <trkpt lat="43.46358" lon="6.6367">
        <ele>13</ele>
        <time>2019-04-26T18:25:19.678Z</time>
      </trkpt>
      <trkpt lat="43.46364" lon="6.63668">
        <ele>13</ele>
        <time>2019-04-26T18:25:20.678Z</time>
      </trkpt>
      <trkpt lat="43.46375" lon="6.63659">
        <ele>13</ele>
        <time>2019-04-26T18:25:21.678Z</time>
      </trkpt>
      <trkpt lat="43.46385" lon="6.63647">
        <ele>13</ele>
        <time>2019-04-26T18:25:22.678Z</time>
      </trkpt>
      <trkpt lat="43.46389" lon="6.63641">
        <ele>13</ele>
        <time>2019-04-26T18:25:23.678Z</time>
      </trkpt>
      <trkpt lat="43.46395" lon="6.63636">
        <ele>13</ele>
        <time>2019-04-26T18:25:24.678Z</time>
      </trkpt>
      <trkpt lat="43.46409" lon="6.63631">
        <ele>14</ele>
        <time>2019-04-26T18:25:25.678Z</time>
      </trkpt>
      <trkpt lat="43.46416" lon="6.63631">
        <ele>14</ele>
        <time>2019-04-26T18:25:26.678Z</time>
      </trkpt>
      <trkpt lat="43.46424" lon="6.63632">
        <ele>14</ele>
        <time>2019-04-26T18:25:27.678Z</time>
      </trkpt>
      <trkpt lat="43.4644" lon="6.63634">
        <ele>14</ele>
        <time>2019-04-26T18:25:28.678Z</time>
      </trkpt>
      <trkpt lat="43.46456" lon="6.63639">
        <ele>15</ele>
        <time>2019-04-26T18:25:29.678Z</time>
      </trkpt>
      <trkpt lat="43.46463" lon="6.63647">
        <ele>16</ele>
        <time>2019-04-26T18:25:30.678Z</time>
      </trkpt>
      <trkpt lat="43.46467" lon="6.63656">
        <ele>16</ele>
        <time>2019-04-26T18:25:31.678Z</time>
      </trkpt>
      <trkpt lat="43.46469" lon="6.63665">
        <ele>16</ele>
        <time>2019-04-26T18:25:32.678Z</time>
      </trkpt>
      <trkpt lat="43.46471" lon="6.63672">
        <ele>17</ele>
        <time>2019-04-26T18:25:33.678Z</time>
      </trkpt>
      <trkpt lat="43.46471" lon="6.63687">
        <ele>17</ele>
        <time>2019-04-26T18:25:34.678Z</time>
      </trkpt>
      <trkpt lat="43.4647" lon="6.63693">
        <ele>17</ele>
        <time>2019-04-26T18:25:35.678Z</time>
      </trkpt>
      <trkpt lat="43.46468" lon="6.63698">
        <ele>16</ele>
        <time>2019-04-26T18:25:36.678Z</time>
      </trkpt>
      <trkpt lat="43.46465" lon="6.63707">
        <ele>16</ele>
        <time>2019-04-26T18:25:37.678Z</time>
      </trkpt>
      <trkpt lat="43.46463" lon="6.63713">
        <ele>16</ele>
        <time>2019-04-26T18:25:38.678Z</time>
      </trkpt>
      <trkpt lat="43.46462" lon="6.63719">
        <ele>16</ele>
        <time>2019-04-26T18:25:39.678Z</time>
      </trkpt>
      <trkpt lat="43.46462" lon="6.63724">
        <ele>16</ele>
        <time>2019-04-26T18:25:40.678Z</time>
      </trkpt>
      <trkpt lat="43.46461" lon="6.6373">
        <ele>16</ele>
        <time>2019-04-26T18:25:41.678Z</time>
      </trkpt>
      <trkpt lat="43.46461" lon="6.63732">
        <ele>16</ele>
        <time>2019-04-26T18:25:42.678Z</time>
      </trkpt>
      <trkpt lat="43.46461" lon="6.63735">
        <ele>16</ele>
        <time>2019-04-26T18:25:43.678Z</time>
      </trkpt>
      <trkpt lat="43.46461" lon="6.63739">
        <ele>16</ele>
        <time>2019-04-26T18:25:44.678Z</time>
      </trkpt>
      <trkpt lat="43.46461" lon="6.63746">
        <ele>16</ele>
        <time>2019-04-26T18:25:45.678Z</time>
      </trkpt>
      <trkpt lat="43.46462" lon="6.63755">
        <ele>16</ele>
        <time>2019-04-26T18:25:46.678Z</time>
      </trkpt>
      <trkpt lat="43.46462" lon="6.63766">
        <ele>16</ele>
        <time>2019-04-26T18:25:47.678Z</time>
      </trkpt>
      <trkpt lat="43.46462" lon="6.63777">
        <ele>16</ele>
        <time>2019-04-26T18:25:48.678Z</time>
      </trkpt>
      <trkpt lat="43.46462" lon="6.63783">
        <ele>16</ele>
        <time>2019-04-26T18:25:49.678Z</time>
      </trkpt>
      <trkpt lat="43.46463" lon="6.63789">
        <ele>16</ele>
        <time>2019-04-26T18:25:50.678Z</time>
      </trkpt>
      <trkpt lat="43.46463" lon="6.63794">
        <ele>16</ele>
        <time>2019-04-26T18:25:51.678Z</time>
      </trkpt>
      <trkpt lat="43.46463" lon="6.638">
        <ele>16</ele>
        <time>2019-04-26T18:25:52.678Z</time>
      </trkpt>
      <trkpt lat="43.46463" lon="6.63811">
        <ele>16</ele>
        <time>2019-04-26T18:25:53.678Z</time>
      </trkpt>
      <trkpt lat="43.46464" lon="6.63823">
        <ele>15</ele>
        <time>2019-04-26T18:25:54.678Z</time>
      </trkpt>
      <trkpt lat="43.46465" lon="6.63835">
        <ele>15</ele>
        <time>2019-04-26T18:25:55.678Z</time>
      </trkpt>
      <trkpt lat="43.46466" lon="6.63848">
        <ele>15</ele>
        <time>2019-04-26T18:25:56.678Z</time>
      </trkpt>
      <trkpt lat="43.46467" lon="6.63862">
        <ele>15</ele>
        <time>2019-04-26T18:25:57.678Z</time>
      </trkpt>
      <trkpt lat="43.46468" lon="6.63875">
        <ele>15</ele>
        <time>2019-04-26T18:25:58.678Z</time>
      </trkpt>
      <trkpt lat="43.46468" lon="6.63889">
        <ele>15</ele>
        <time>2019-04-26T18:25:59.678Z</time>
      </trkpt>
      <trkpt lat="43.46468" lon="6.63904">
        <ele>15</ele>
        <time>2019-04-26T18:26:00.678Z</time>
      </trkpt>
      <trkpt lat="43.46469" lon="6.63911">
        <ele>15</ele>
        <time>2019-04-26T18:26:01.678Z</time>
      </trkpt>
      <trkpt lat="43.46469" lon="6.63918">
        <ele>15</ele>
        <time>2019-04-26T18:26:02.678Z</time>
      </trkpt>
      <trkpt lat="43.46469" lon="6.63931">
        <ele>15</ele>
        <time>2019-04-26T18:26:03.678Z</time>
      </trkpt>
      <trkpt lat="43.4647" lon="6.63945">
        <ele>15</ele>
        <time>2019-04-26T18:26:04.678Z</time>
      </trkpt>
      <trkpt lat="43.46471" lon="6.63958">
        <ele>15</ele>
        <time>2019-04-26T18:26:05.678Z</time>
      </trkpt>
      <trkpt lat="43.46472" lon="6.63964">
        <ele>15</ele>
        <time>2019-04-26T18:26:06.678Z</time>
      </trkpt>
      <trkpt lat="43.46472" lon="6.63971">
        <ele>15</ele>
        <time>2019-04-26T18:26:07.678Z</time>
      </trkpt>
      <trkpt lat="43.46473" lon="6.63983">
        <ele>15</ele>
        <time>2019-04-26T18:26:08.678Z</time>
      </trkpt>
      <trkpt lat="43.46473" lon="6.63989">
        <ele>15</ele>
        <time>2019-04-26T18:26:09.678Z</time>
      </trkpt>
      <trkpt lat="43.46473" lon="6.63995">
        <ele>15</ele>
        <time>2019-04-26T18:26:10.678Z</time>
      </trkpt>
      <trkpt lat="43.46473" lon="6.64005">
        <ele>15</ele>
        <time>2019-04-26T18:26:11.678Z</time>
      </trkpt>
      <trkpt lat="43.46474" lon="6.64015">
        <ele>15</ele>
        <time>2019-04-26T18:26:12.678Z</time>
      </trkpt>
      <trkpt lat="43.46475" lon="6.64025">
        <ele>15</ele>
        <time>2019-04-26T18:26:13.678Z</time>
      </trkpt>
      <trkpt lat="43.46475" lon="6.64029">
        <ele>15</ele>
        <time>2019-04-26T18:26:14.678Z</time>
      </trkpt>
      <trkpt lat="43.46476" lon="6.64034">
        <ele>15</ele>
        <time>2019-04-26T18:26:15.678Z</time>
      </trkpt>
      <trkpt lat="43.46478" lon="6.64042">
        <ele>15</ele>
        <time>2019-04-26T18:26:16.678Z</time>
      </trkpt>
      <trkpt lat="43.4648" lon="6.6405">
        <ele>15</ele>
        <time>2019-04-26T18:26:17.678Z</time>
      </trkpt>
      <trkpt lat="43.46482" lon="6.64057">
        <ele>15</ele>
        <time>2019-04-26T18:26:18.678Z</time>
      </trkpt>
      <trkpt lat="43.46484" lon="6.64066">
        <ele>15</ele>
        <time>2019-04-26T18:26:19.678Z</time>
      </trkpt>
      <trkpt lat="43.46486" lon="6.64073">
        <ele>15</ele>
        <time>2019-04-26T18:26:20.678Z</time>
      </trkpt>
      <trkpt lat="43.46488" lon="6.64084">
        <ele>15</ele>
        <time>2019-04-26T18:26:21.678Z</time>
      </trkpt>
      <trkpt lat="43.46489" lon="6.64094">
        <ele>15</ele>
        <time>2019-04-26T18:26:22.678Z</time>
      </trkpt>
      <trkpt lat="43.4649" lon="6.64104">
        <ele>15</ele>
        <time>2019-04-26T18:26:23.678Z</time>
      </trkpt>
      <trkpt lat="43.46489" lon="6.64115">
        <ele>14</ele>
        <time>2019-04-26T18:26:24.678Z</time>
      </trkpt>
      <trkpt lat="43.46489" lon="6.6412">
        <ele>14</ele>
        <time>2019-04-26T18:26:25.678Z</time>
      </trkpt>
      <trkpt lat="43.46488" lon="6.64124">
        <ele>14</ele>
        <time>2019-04-26T18:26:26.678Z</time>
      </trkpt>
      <trkpt lat="43.46486" lon="6.64134">
        <ele>14</ele>
        <time>2019-04-26T18:26:27.678Z</time>
      </trkpt>
      <trkpt lat="43.46487" lon="6.64145">
        <ele>14</ele>
        <time>2019-04-26T18:26:28.678Z</time>
      </trkpt>
      <trkpt lat="43.46488" lon="6.64156">
        <ele>14</ele>
        <time>2019-04-26T18:26:29.678Z</time>
      </trkpt>
      <trkpt lat="43.4649" lon="6.64166">
        <ele>14</ele>
        <time>2019-04-26T18:26:30.678Z</time>
      </trkpt>
      <trkpt lat="43.46491" lon="6.64171">
        <ele>14</ele>
        <time>2019-04-26T18:26:31.678Z</time>
      </trkpt>
      <trkpt lat="43.46493" lon="6.64177">
        <ele>14</ele>
        <time>2019-04-26T18:26:32.678Z</time>
      </trkpt>
      <trkpt lat="43.46495" lon="6.64188">
        <ele>14</ele>
        <time>2019-04-26T18:26:33.678Z</time>
      </trkpt>
      <trkpt lat="43.465" lon="6.64198">
        <ele>15</ele>
        <time>2019-04-26T18:26:34.678Z</time>
      </trkpt>
      <trkpt lat="43.46503" lon="6.64202">
        <ele>15</ele>
        <time>2019-04-26T18:26:35.678Z</time>
      </trkpt>
      <trkpt lat="43.46507" lon="6.64204">
        <ele>15</ele>
        <time>2019-04-26T18:26:36.678Z</time>
      </trkpt>
      <trkpt lat="43.46515" lon="6.64207">
        <ele>15</ele>
        <time>2019-04-26T18:26:37.678Z</time>
      </trkpt>
      <trkpt lat="43.46523" lon="6.6421">
        <ele>15</ele>
        <time>2019-04-26T18:26:38.678Z</time>
      </trkpt>
      <trkpt lat="43.46531" lon="6.64212">
        <ele>15</ele>
        <time>2019-04-26T18:26:39.678Z</time>
      </trkpt>
      <trkpt lat="43.46539" lon="6.64213">
        <ele>16</ele>
        <time>2019-04-26T18:26:40.678Z</time>
      </trkpt>
      <trkpt lat="43.46547" lon="6.64214">
        <ele>16</ele>
        <time>2019-04-26T18:26:41.678Z</time>
      </trkpt>
      <trkpt lat="43.46554" lon="6.64216">
        <ele>16</ele>
        <time>2019-04-26T18:26:42.678Z</time>
      </trkpt>
      <trkpt lat="43.46562" lon="6.64217">
        <ele>16</ele>
        <time>2019-04-26T18:26:43.678Z</time>
      </trkpt>
      <trkpt lat="43.4657" lon="6.64217">
        <ele>16</ele>
        <time>2019-04-26T18:26:44.678Z</time>
      </trkpt>
      <trkpt lat="43.46577" lon="6.64218">
        <ele>16</ele>
        <time>2019-04-26T18:26:45.678Z</time>
      </trkpt>
      <trkpt lat="43.46585" lon="6.6422">
        <ele>16</ele>
        <time>2019-04-26T18:26:46.678Z</time>
      </trkpt>
      <trkpt lat="43.46589" lon="6.64221">
        <ele>16</ele>
        <time>2019-04-26T18:26:47.678Z</time>
      </trkpt>
      <trkpt lat="43.46593" lon="6.64221">
        <ele>16</ele>
        <time>2019-04-26T18:26:48.678Z</time>
      </trkpt>
      <trkpt lat="43.466" lon="6.64223">
        <ele>17</ele>
        <time>2019-04-26T18:26:49.678Z</time>
      </trkpt>
      <trkpt lat="43.46607" lon="6.64225">
        <ele>17</ele>
        <time>2019-04-26T18:26:50.678Z</time>
      </trkpt>
      <trkpt lat="43.46614" lon="6.64228">
        <ele>17</ele>
        <time>2019-04-26T18:26:51.678Z</time>
      </trkpt>
      <trkpt lat="43.4662" lon="6.64232">
        <ele>17</ele>
        <time>2019-04-26T18:26:52.678Z</time>
      </trkpt>
      <trkpt lat="43.46623" lon="6.64234">
        <ele>17</ele>
        <time>2019-04-26T18:26:53.678Z</time>
      </trkpt>
      <trkpt lat="43.46626" lon="6.64236">
        <ele>17</ele>
        <time>2019-04-26T18:26:54.678Z</time>
      </trkpt>
      <trkpt lat="43.4663" lon="6.64242">
        <ele>18</ele>
        <time>2019-04-26T18:26:55.678Z</time>
      </trkpt>
      <trkpt lat="43.46635" lon="6.64248">
        <ele>18</ele>
        <time>2019-04-26T18:26:56.678Z</time>
      </trkpt>
      <trkpt lat="43.46637" lon="6.64251">
        <ele>18</ele>
        <time>2019-04-26T18:26:57.678Z</time>
      </trkpt>
      <trkpt lat="43.4664" lon="6.64254">
        <ele>18</ele>
        <time>2019-04-26T18:26:58.678Z</time>
      </trkpt>
      <trkpt lat="43.46644" lon="6.64261">
        <ele>18</ele>
        <time>2019-04-26T18:26:59.678Z</time>
      </trkpt>
      <trkpt lat="43.46647" lon="6.64265">
        <ele>18</ele>
        <time>2019-04-26T18:27:00.678Z</time>
      </trkpt>
      <trkpt lat="43.46649" lon="6.64269">
        <ele>18</ele>
        <time>2019-04-26T18:27:01.678Z</time>
      </trkpt>
      <trkpt lat="43.4665" lon="6.64275">
        <ele>18</ele>
        <time>2019-04-26T18:27:02.678Z</time>
      </trkpt>
      <trkpt lat="43.46652" lon="6.64282">
        <ele>18</ele>
        <time>2019-04-26T18:27:03.678Z</time>
      </trkpt>
      <trkpt lat="43.46653" lon="6.64289">
        <ele>17</ele>
        <time>2019-04-26T18:27:04.678Z</time>
      </trkpt>
      <trkpt lat="43.46654" lon="6.64297">
        <ele>17</ele>
        <time>2019-04-26T18:27:05.678Z</time>
      </trkpt>
      <trkpt lat="43.46656" lon="6.64305">
        <ele>17</ele>
        <time>2019-04-26T18:27:06.678Z</time>
      </trkpt>
      <trkpt lat="43.46659" lon="6.64312">
        <ele>17</ele>
        <time>2019-04-26T18:27:07.678Z</time>
      </trkpt>
      <trkpt lat="43.46666" lon="6.64325">
        <ele>17</ele>
        <time>2019-04-26T18:27:08.678Z</time>
      </trkpt>
      <trkpt lat="43.4667" lon="6.64331">
        <ele>17</ele>
        <time>2019-04-26T18:27:09.678Z</time>
      </trkpt>
      <trkpt lat="43.46674" lon="6.64336">
        <ele>17</ele>
        <time>2019-04-26T18:27:10.678Z</time>
      </trkpt>
      <trkpt lat="43.46681" lon="6.64347">
        <ele>17</ele>
        <time>2019-04-26T18:27:11.678Z</time>
      </trkpt>
      <trkpt lat="43.4669" lon="6.64358">
        <ele>18</ele>
        <time>2019-04-26T18:27:12.678Z</time>
      </trkpt>
      <trkpt lat="43.46699" lon="6.64369">
        <ele>18</ele>
        <time>2019-04-26T18:27:13.678Z</time>
      </trkpt>
      <trkpt lat="43.46703" lon="6.64374">
        <ele>18</ele>
        <time>2019-04-26T18:27:14.678Z</time>
      </trkpt>
      <trkpt lat="43.46707" lon="6.6438">
        <ele>18</ele>
        <time>2019-04-26T18:27:15.678Z</time>
      </trkpt>
      <trkpt lat="43.46716" lon="6.64392">
        <ele>18</ele>
        <time>2019-04-26T18:27:16.678Z</time>
      </trkpt>
      <trkpt lat="43.46723" lon="6.64404">
        <ele>18</ele>
        <time>2019-04-26T18:27:17.678Z</time>
      </trkpt>
      <trkpt lat="43.4673" lon="6.64416">
        <ele>18</ele>
        <time>2019-04-26T18:27:18.678Z</time>
      </trkpt>
      <trkpt lat="43.46738" lon="6.64428">
        <ele>17</ele>
        <time>2019-04-26T18:27:19.678Z</time>
      </trkpt>
      <trkpt lat="43.46742" lon="6.64432">
        <ele>17</ele>
        <time>2019-04-26T18:27:20.678Z</time>
      </trkpt>
      <trkpt lat="43.46748" lon="6.64437">
        <ele>17</ele>
        <time>2019-04-26T18:27:21.678Z</time>
      </trkpt>
      <trkpt lat="43.46758" lon="6.6444">
        <ele>17</ele>
        <time>2019-04-26T18:27:22.678Z</time>
      </trkpt>
      <trkpt lat="43.46769" lon="6.64438">
        <ele>16</ele>
        <time>2019-04-26T18:27:23.678Z</time>
      </trkpt>
      <trkpt lat="43.46776" lon="6.64436">
        <ele>16</ele>
        <time>2019-04-26T18:27:24.678Z</time>
      </trkpt>
      <trkpt lat="43.46782" lon="6.64435">
        <ele>16</ele>
        <time>2019-04-26T18:27:25.678Z</time>
      </trkpt>
      <trkpt lat="43.46795" lon="6.64439">
        <ele>15</ele>
        <time>2019-04-26T18:27:26.678Z</time>
      </trkpt>
      <trkpt lat="43.46801" lon="6.64443">
        <ele>15</ele>
        <time>2019-04-26T18:27:27.678Z</time>
      </trkpt>
      <trkpt lat="43.46806" lon="6.64446">
        <ele>15</ele>
        <time>2019-04-26T18:27:28.678Z</time>
      </trkpt>
      <trkpt lat="43.46817" lon="6.64456">
        <ele>15</ele>
        <time>2019-04-26T18:27:29.678Z</time>
      </trkpt>
      <trkpt lat="43.46827" lon="6.64466">
        <ele>14</ele>
        <time>2019-04-26T18:27:30.678Z</time>
      </trkpt>
      <trkpt lat="43.46839" lon="6.64473">
        <ele>14</ele>
        <time>2019-04-26T18:27:31.678Z</time>
      </trkpt>
      <trkpt lat="43.4685" lon="6.64476">
        <ele>14</ele>
        <time>2019-04-26T18:27:32.678Z</time>
      </trkpt>
      <trkpt lat="43.46859" lon="6.64479">
        <ele>14</ele>
        <time>2019-04-26T18:27:33.678Z</time>
      </trkpt>
      <trkpt lat="43.46866" lon="6.64483">
        <ele>14</ele>
        <time>2019-04-26T18:27:34.678Z</time>
      </trkpt>
      <trkpt lat="43.4687" lon="6.64486">
        <ele>14</ele>
        <time>2019-04-26T18:27:35.678Z</time>
      </trkpt>
      <trkpt lat="43.46875" lon="6.64489">
        <ele>14</ele>
        <time>2019-04-26T18:27:36.678Z</time>
      </trkpt>
      <trkpt lat="43.46883" lon="6.64495">
        <ele>14</ele>
        <time>2019-04-26T18:27:37.678Z</time>
      </trkpt>
      <trkpt lat="43.4689" lon="6.64502">
        <ele>14</ele>
        <time>2019-04-26T18:27:38.678Z</time>
      </trkpt>
      <trkpt lat="43.46894" lon="6.64505">
        <ele>14</ele>
        <time>2019-04-26T18:27:39.678Z</time>
      </trkpt>
      <trkpt lat="43.46898" lon="6.64509">
        <ele>14</ele>
        <time>2019-04-26T18:27:40.678Z</time>
      </trkpt>
      <trkpt lat="43.46904" lon="6.64515">
        <ele>14</ele>
        <time>2019-04-26T18:27:41.678Z</time>
      </trkpt>
      <trkpt lat="43.46912" lon="6.64521">
        <ele>14</ele>
        <time>2019-04-26T18:27:42.678Z</time>
      </trkpt>
      <trkpt lat="43.46916" lon="6.64524">
        <ele>14</ele>
        <time>2019-04-26T18:27:43.678Z</time>
      </trkpt>
      <trkpt lat="43.4692" lon="6.64527">
        <ele>14</ele>
        <time>2019-04-26T18:27:44.678Z</time>
      </trkpt>
      <trkpt lat="43.46927" lon="6.64533">
        <ele>14</ele>
        <time>2019-04-26T18:27:45.678Z</time>
      </trkpt>
      <trkpt lat="43.46934" lon="6.64541">
        <ele>14</ele>
        <time>2019-04-26T18:27:46.678Z</time>
      </trkpt>
      <trkpt lat="43.46941" lon="6.64548">
        <ele>13</ele>
        <time>2019-04-26T18:27:47.678Z</time>
      </trkpt>
      <trkpt lat="43.46944" lon="6.64552">
        <ele>13</ele>
        <time>2019-04-26T18:27:48.678Z</time>
      </trkpt>
      <trkpt lat="43.46946" lon="6.64556">
        <ele>13</ele>
        <time>2019-04-26T18:27:49.678Z</time>
      </trkpt>
      <trkpt lat="43.46953" lon="6.64564">
        <ele>13</ele>
        <time>2019-04-26T18:27:50.678Z</time>
      </trkpt>
      <trkpt lat="43.46959" lon="6.64572">
        <ele>13</ele>
        <time>2019-04-26T18:27:51.678Z</time>
      </trkpt>
      <trkpt lat="43.46966" lon="6.64579">
        <ele>13</ele>
        <time>2019-04-26T18:27:52.678Z</time>
      </trkpt>
      <trkpt lat="43.46969" lon="6.64583">
        <ele>13</ele>
        <time>2019-04-26T18:27:53.678Z</time>
      </trkpt>
      <trkpt lat="43.46973" lon="6.64586">
        <ele>13</ele>
        <time>2019-04-26T18:27:54.678Z</time>
      </trkpt>
      <trkpt lat="43.4698" lon="6.64594">
        <ele>13</ele>
        <time>2019-04-26T18:27:55.678Z</time>
      </trkpt>
      <trkpt lat="43.46987" lon="6.64601">
        <ele>13</ele>
        <time>2019-04-26T18:27:56.678Z</time>
      </trkpt>
      <trkpt lat="43.46991" lon="6.64605">
        <ele>13</ele>
        <time>2019-04-26T18:27:57.678Z</time>
      </trkpt>
      <trkpt lat="43.46994" lon="6.64608">
        <ele>13</ele>
        <time>2019-04-26T18:27:58.678Z</time>
      </trkpt>
      <trkpt lat="43.47002" lon="6.64615">
        <ele>13</ele>
        <time>2019-04-26T18:27:59.678Z</time>
      </trkpt>
      <trkpt lat="43.47009" lon="6.64622">
        <ele>13</ele>
        <time>2019-04-26T18:28:00.678Z</time>
      </trkpt>
      <trkpt lat="43.47016" lon="6.64629">
        <ele>13</ele>
        <time>2019-04-26T18:28:01.678Z</time>
      </trkpt>
      <trkpt lat="43.47023" lon="6.64636">
        <ele>13</ele>
        <time>2019-04-26T18:28:02.678Z</time>
      </trkpt>
      <trkpt lat="43.47026" lon="6.6464">
        <ele>13</ele>
        <time>2019-04-26T18:28:03.678Z</time>
      </trkpt>
      <trkpt lat="43.4703" lon="6.64643">
        <ele>13</ele>
        <time>2019-04-26T18:28:04.678Z</time>
      </trkpt>
      <trkpt lat="43.47037" lon="6.6465">
        <ele>13</ele>
        <time>2019-04-26T18:28:05.678Z</time>
      </trkpt>
      <trkpt lat="43.47044" lon="6.64656">
        <ele>13</ele>
        <time>2019-04-26T18:28:06.678Z</time>
      </trkpt>
      <trkpt lat="43.47051" lon="6.64663">
        <ele>13</ele>
        <time>2019-04-26T18:28:07.678Z</time>
      </trkpt>
      <trkpt lat="43.47057" lon="6.64669">
        <ele>13</ele>
        <time>2019-04-26T18:28:08.678Z</time>
      </trkpt>
      <trkpt lat="43.47063" lon="6.64674">
        <ele>13</ele>
        <time>2019-04-26T18:28:09.678Z</time>
      </trkpt>
      <trkpt lat="43.47065" lon="6.64677">
        <ele>13</ele>
        <time>2019-04-26T18:28:10.678Z</time>
      </trkpt>
      <trkpt lat="43.47068" lon="6.64679">
        <ele>13</ele>
        <time>2019-04-26T18:28:11.678Z</time>
      </trkpt>
      <trkpt lat="43.47074" lon="6.64685">
        <ele>13</ele>
        <time>2019-04-26T18:28:12.678Z</time>
      </trkpt>
      <trkpt lat="43.47077" lon="6.64687">
        <ele>13</ele>
        <time>2019-04-26T18:28:13.678Z</time>
      </trkpt>
      <trkpt lat="43.4708" lon="6.64689">
        <ele>13</ele>
        <time>2019-04-26T18:28:14.678Z</time>
      </trkpt>
      <trkpt lat="43.47087" lon="6.64694">
        <ele>13</ele>
        <time>2019-04-26T18:28:15.678Z</time>
      </trkpt>
      <trkpt lat="43.47094" lon="6.64698">
        <ele>13</ele>
        <time>2019-04-26T18:28:16.678Z</time>
      </trkpt>
      <trkpt lat="43.47101" lon="6.64703">
        <ele>13</ele>
        <time>2019-04-26T18:28:17.678Z</time>
      </trkpt>
      <trkpt lat="43.47105" lon="6.64705">
        <ele>13</ele>
        <time>2019-04-26T18:28:18.678Z</time>
      </trkpt>
      <trkpt lat="43.47109" lon="6.64708">
        <ele>13</ele>
        <time>2019-04-26T18:28:19.678Z</time>
      </trkpt>
      <trkpt lat="43.47116" lon="6.64714">
        <ele>14</ele>
        <time>2019-04-26T18:28:20.678Z</time>
      </trkpt>
      <trkpt lat="43.47124" lon="6.64719">
        <ele>14</ele>
        <time>2019-04-26T18:28:21.678Z</time>
      </trkpt>
      <trkpt lat="43.47132" lon="6.64724">
        <ele>14</ele>
        <time>2019-04-26T18:28:22.678Z</time>
      </trkpt>
      <trkpt lat="43.4714" lon="6.6473">
        <ele>14</ele>
        <time>2019-04-26T18:28:23.678Z</time>
      </trkpt>
      <trkpt lat="43.47147" lon="6.64736">
        <ele>15</ele>
        <time>2019-04-26T18:28:24.678Z</time>
      </trkpt>
      <trkpt lat="43.47155" lon="6.64741">
        <ele>15</ele>
        <time>2019-04-26T18:28:25.678Z</time>
      </trkpt>
      <trkpt lat="43.47163" lon="6.64747">
        <ele>15</ele>
        <time>2019-04-26T18:28:26.678Z</time>
      </trkpt>
      <trkpt lat="43.4717" lon="6.64752">
        <ele>15</ele>
        <time>2019-04-26T18:28:27.678Z</time>
      </trkpt>
      <trkpt lat="43.47177" lon="6.64757">
        <ele>15</ele>
        <time>2019-04-26T18:28:28.678Z</time>
      </trkpt>
      <trkpt lat="43.47184" lon="6.64763">
        <ele>15</ele>
        <time>2019-04-26T18:28:29.678Z</time>
      </trkpt>
      <trkpt lat="43.47188" lon="6.64765">
        <ele>15</ele>
        <time>2019-04-26T18:28:30.678Z</time>
      </trkpt>
      <trkpt lat="43.47191" lon="6.64768">
        <ele>15</ele>
        <time>2019-04-26T18:28:31.678Z</time>
      </trkpt>
      <trkpt lat="43.47198" lon="6.64773">
        <ele>15</ele>
        <time>2019-04-26T18:28:32.678Z</time>
      </trkpt>
      <trkpt lat="43.47205" lon="6.64779">
        <ele>15</ele>
        <time>2019-04-26T18:28:33.678Z</time>
      </trkpt>
      <trkpt lat="43.47212" lon="6.64785">
        <ele>15</ele>
        <time>2019-04-26T18:28:34.678Z</time>
      </trkpt>
      <trkpt lat="43.47216" lon="6.64788">
        <ele>15</ele>
        <time>2019-04-26T18:28:35.678Z</time>
      </trkpt>
      <trkpt lat="43.4722" lon="6.6479">
        <ele>15</ele>
        <time>2019-04-26T18:28:36.678Z</time>
      </trkpt>
      <trkpt lat="43.47228" lon="6.64795">
        <ele>15</ele>
        <time>2019-04-26T18:28:37.678Z</time>
      </trkpt>
      <trkpt lat="43.47236" lon="6.648">
        <ele>15</ele>
        <time>2019-04-26T18:28:38.678Z</time>
      </trkpt>
      <trkpt lat="43.47244" lon="6.64804">
        <ele>15</ele>
        <time>2019-04-26T18:28:39.678Z</time>
      </trkpt>
      <trkpt lat="43.47248" lon="6.64807">
        <ele>15</ele>
        <time>2019-04-26T18:28:40.678Z</time>
      </trkpt>
      <trkpt lat="43.47252" lon="6.64809">
        <ele>15</ele>
        <time>2019-04-26T18:28:41.678Z</time>
      </trkpt>
      <trkpt lat="43.47259" lon="6.64813">
        <ele>15</ele>
        <time>2019-04-26T18:28:42.678Z</time>
      </trkpt>
      <trkpt lat="43.47268" lon="6.64817">
        <ele>15</ele>
        <time>2019-04-26T18:28:43.678Z</time>
      </trkpt>
      <trkpt lat="43.47276" lon="6.64821">
        <ele>16</ele>
        <time>2019-04-26T18:28:44.678Z</time>
      </trkpt>
      <trkpt lat="43.47284" lon="6.64825">
        <ele>16</ele>
        <time>2019-04-26T18:28:45.678Z</time>
      </trkpt>
      <trkpt lat="43.47292" lon="6.6483">
        <ele>16</ele>
        <time>2019-04-26T18:28:46.678Z</time>
      </trkpt>
      <trkpt lat="43.47297" lon="6.64832">
        <ele>16</ele>
        <time>2019-04-26T18:28:47.678Z</time>
      </trkpt>
      <trkpt lat="43.47301" lon="6.64835">
        <ele>16</ele>
        <time>2019-04-26T18:28:48.678Z</time>
      </trkpt>
      <trkpt lat="43.47305" lon="6.64837">
        <ele>16</ele>
        <time>2019-04-26T18:28:49.678Z</time>
      </trkpt>
      <trkpt lat="43.4731" lon="6.64839">
        <ele>16</ele>
        <time>2019-04-26T18:28:50.678Z</time>
      </trkpt>
      <trkpt lat="43.47315" lon="6.6484">
        <ele>16</ele>
        <time>2019-04-26T18:28:51.678Z</time>
      </trkpt>
      <trkpt lat="43.47319" lon="6.64842">
        <ele>17</ele>
        <time>2019-04-26T18:28:52.678Z</time>
      </trkpt>
      <trkpt lat="43.47328" lon="6.64846">
        <ele>17</ele>
        <time>2019-04-26T18:28:53.678Z</time>
      </trkpt>
      <trkpt lat="43.47335" lon="6.64851">
        <ele>17</ele>
        <time>2019-04-26T18:28:54.678Z</time>
      </trkpt>
      <trkpt lat="43.47342" lon="6.64857">
        <ele>16</ele>
        <time>2019-04-26T18:28:55.678Z</time>
      </trkpt>
      <trkpt lat="43.47346" lon="6.64868">
        <ele>16</ele>
        <time>2019-04-26T18:28:56.678Z</time>
      </trkpt>
      <trkpt lat="43.47346" lon="6.6488">
        <ele>16</ele>
        <time>2019-04-26T18:28:57.678Z</time>
      </trkpt>
      <trkpt lat="43.47344" lon="6.64886">
        <ele>16</ele>
        <time>2019-04-26T18:28:58.678Z</time>
      </trkpt>
      <trkpt lat="43.47343" lon="6.64892">
        <ele>16</ele>
        <time>2019-04-26T18:28:59.678Z</time>
      </trkpt>
      <trkpt lat="43.4734" lon="6.64897">
        <ele>16</ele>
        <time>2019-04-26T18:29:00.678Z</time>
      </trkpt>
      <trkpt lat="43.47338" lon="6.64903">
        <ele>15</ele>
        <time>2019-04-26T18:29:01.678Z</time>
      </trkpt>
      <trkpt lat="43.47336" lon="6.64908">
        <ele>15</ele>
        <time>2019-04-26T18:29:02.678Z</time>
      </trkpt>
      <trkpt lat="43.47333" lon="6.64914">
        <ele>15</ele>
        <time>2019-04-26T18:29:03.678Z</time>
      </trkpt>
      <trkpt lat="43.47332" lon="6.6492">
        <ele>15</ele>
        <time>2019-04-26T18:29:04.678Z</time>
      </trkpt>
      <trkpt lat="43.4733" lon="6.64926">
        <ele>15</ele>
        <time>2019-04-26T18:29:05.678Z</time>
      </trkpt>
      <trkpt lat="43.47326" lon="6.64937">
        <ele>15</ele>
        <time>2019-04-26T18:29:06.678Z</time>
      </trkpt>
      <trkpt lat="43.47326" lon="6.64943">
        <ele>15</ele>
        <time>2019-04-26T18:29:07.678Z</time>
      </trkpt>
      <trkpt lat="43.47325" lon="6.64949">
        <ele>15</ele>
        <time>2019-04-26T18:29:08.678Z</time>
      </trkpt>
      <trkpt lat="43.47327" lon="6.64961">
        <ele>15</ele>
        <time>2019-04-26T18:29:09.678Z</time>
      </trkpt>
      <trkpt lat="43.47328" lon="6.64967">
        <ele>15</ele>
        <time>2019-04-26T18:29:10.678Z</time>
      </trkpt>
      <trkpt lat="43.4733" lon="6.64973">
        <ele>15</ele>
        <time>2019-04-26T18:29:11.678Z</time>
      </trkpt>
      <trkpt lat="43.47334" lon="6.64983">
        <ele>15</ele>
        <time>2019-04-26T18:29:12.678Z</time>
      </trkpt>
      <trkpt lat="43.47338" lon="6.64994">
        <ele>15</ele>
        <time>2019-04-26T18:29:13.678Z</time>
      </trkpt>
      <trkpt lat="43.47343" lon="6.65004">
        <ele>15</ele>
        <time>2019-04-26T18:29:14.678Z</time>
      </trkpt>
      <trkpt lat="43.47347" lon="6.65014">
        <ele>15</ele>
        <time>2019-04-26T18:29:15.678Z</time>
      </trkpt>
      <trkpt lat="43.47352" lon="6.65023">
        <ele>15</ele>
        <time>2019-04-26T18:29:16.678Z</time>
      </trkpt>
      <trkpt lat="43.47357" lon="6.65033">
        <ele>15</ele>
        <time>2019-04-26T18:29:17.678Z</time>
      </trkpt>
      <trkpt lat="43.47362" lon="6.65042">
        <ele>16</ele>
        <time>2019-04-26T18:29:18.678Z</time>
      </trkpt>
      <trkpt lat="43.47368" lon="6.6505">
        <ele>16</ele>
        <time>2019-04-26T18:29:19.678Z</time>
      </trkpt>
      <trkpt lat="43.47373" lon="6.65057">
        <ele>16</ele>
        <time>2019-04-26T18:29:20.678Z</time>
      </trkpt>
      <trkpt lat="43.47379" lon="6.65064">
        <ele>16</ele>
        <time>2019-04-26T18:29:21.678Z</time>
      </trkpt>
      <trkpt lat="43.47385" lon="6.65071">
        <ele>17</ele>
        <time>2019-04-26T18:29:22.678Z</time>
      </trkpt>
      <trkpt lat="43.47388" lon="6.65074">
        <ele>17</ele>
        <time>2019-04-26T18:29:23.678Z</time>
      </trkpt>
      <trkpt lat="43.47392" lon="6.65076">
        <ele>17</ele>
        <time>2019-04-26T18:29:24.678Z</time>
      </trkpt>
      <trkpt lat="43.47398" lon="6.65082">
        <ele>17</ele>
        <time>2019-04-26T18:29:25.678Z</time>
      </trkpt>
      <trkpt lat="43.47404" lon="6.65085">
        <ele>18</ele>
        <time>2019-04-26T18:29:26.678Z</time>
      </trkpt>
      <trkpt lat="43.47411" lon="6.65087">
        <ele>18</ele>
        <time>2019-04-26T18:29:27.678Z</time>
      </trkpt>
      <trkpt lat="43.47418" lon="6.65088">
        <ele>18</ele>
        <time>2019-04-26T18:29:28.678Z</time>
      </trkpt>
      <trkpt lat="43.47421" lon="6.65089">
        <ele>18</ele>
        <time>2019-04-26T18:29:29.678Z</time>
      </trkpt>
      <trkpt lat="43.47425" lon="6.65091">
        <ele>18</ele>
        <time>2019-04-26T18:29:30.678Z</time>
      </trkpt>
      <trkpt lat="43.47431" lon="6.65096">
        <ele>18</ele>
        <time>2019-04-26T18:29:31.678Z</time>
      </trkpt>
      <trkpt lat="43.47435" lon="6.65098">
        <ele>18</ele>
        <time>2019-04-26T18:29:32.678Z</time>
      </trkpt>
      <trkpt lat="43.47438" lon="6.65101">
        <ele>18</ele>
        <time>2019-04-26T18:29:33.678Z</time>
      </trkpt>
      <trkpt lat="43.47444" lon="6.65106">
        <ele>18</ele>
        <time>2019-04-26T18:29:34.678Z</time>
      </trkpt>
      <trkpt lat="43.4745" lon="6.6511">
        <ele>18</ele>
        <time>2019-04-26T18:29:35.678Z</time>
      </trkpt>
      <trkpt lat="43.47457" lon="6.65115">
        <ele>19</ele>
        <time>2019-04-26T18:29:36.678Z</time>
      </trkpt>
      <trkpt lat="43.47465" lon="6.6512">
        <ele>19</ele>
        <time>2019-04-26T18:29:37.678Z</time>
      </trkpt>
      <trkpt lat="43.47472" lon="6.65125">
        <ele>19</ele>
        <time>2019-04-26T18:29:38.678Z</time>
      </trkpt>
      <trkpt lat="43.4748" lon="6.65131">
        <ele>20</ele>
        <time>2019-04-26T18:29:39.678Z</time>
      </trkpt>
      <trkpt lat="43.47488" lon="6.65136">
        <ele>20</ele>
        <time>2019-04-26T18:29:40.678Z</time>
      </trkpt>
      <trkpt lat="43.47496" lon="6.6514">
        <ele>21</ele>
        <time>2019-04-26T18:29:41.678Z</time>
      </trkpt>
      <trkpt lat="43.47503" lon="6.65144">
        <ele>21</ele>
        <time>2019-04-26T18:29:42.678Z</time>
      </trkpt>
      <trkpt lat="43.47509" lon="6.65147">
        <ele>21</ele>
        <time>2019-04-26T18:29:43.678Z</time>
      </trkpt>
      <trkpt lat="43.47517" lon="6.65151">
        <ele>21</ele>
        <time>2019-04-26T18:29:44.678Z</time>
      </trkpt>
      <trkpt lat="43.4752" lon="6.65153">
        <ele>21</ele>
        <time>2019-04-26T18:29:45.678Z</time>
      </trkpt>
      <trkpt lat="43.47524" lon="6.65156">
        <ele>21</ele>
        <time>2019-04-26T18:29:46.678Z</time>
      </trkpt>
      <trkpt lat="43.47531" lon="6.65163">
        <ele>21</ele>
        <time>2019-04-26T18:29:47.678Z</time>
      </trkpt>
      <trkpt lat="43.47539" lon="6.65173">
        <ele>20</ele>
        <time>2019-04-26T18:29:48.678Z</time>
      </trkpt>
      <trkpt lat="43.47547" lon="6.65184">
        <ele>20</ele>
        <time>2019-04-26T18:29:49.678Z</time>
      </trkpt>
      <trkpt lat="43.47555" lon="6.65195">
        <ele>19</ele>
        <time>2019-04-26T18:29:50.678Z</time>
      </trkpt>
      <trkpt lat="43.4756" lon="6.65199">
        <ele>19</ele>
        <time>2019-04-26T18:29:51.678Z</time>
      </trkpt>
      <trkpt lat="43.47565" lon="6.65203">
        <ele>19</ele>
        <time>2019-04-26T18:29:52.678Z</time>
      </trkpt>
      <trkpt lat="43.47575" lon="6.65208">
        <ele>18</ele>
        <time>2019-04-26T18:29:53.678Z</time>
      </trkpt>
      <trkpt lat="43.47585" lon="6.65213">
        <ele>18</ele>
        <time>2019-04-26T18:29:54.678Z</time>
      </trkpt>
      <trkpt lat="43.47595" lon="6.65217">
        <ele>18</ele>
        <time>2019-04-26T18:29:55.678Z</time>
      </trkpt>
      <trkpt lat="43.47604" lon="6.65221">
        <ele>19</ele>
        <time>2019-04-26T18:29:56.678Z</time>
      </trkpt>
      <trkpt lat="43.47613" lon="6.65224">
        <ele>19</ele>
        <time>2019-04-26T18:29:57.678Z</time>
      </trkpt>
      <trkpt lat="43.47618" lon="6.65225">
        <ele>20</ele>
        <time>2019-04-26T18:29:58.678Z</time>
      </trkpt>
      <trkpt lat="43.47622" lon="6.65227">
        <ele>20</ele>
        <time>2019-04-26T18:29:59.678Z</time>
      </trkpt>
      <trkpt lat="43.47631" lon="6.65229">
        <ele>20</ele>
        <time>2019-04-26T18:30:00.678Z</time>
      </trkpt>
      <trkpt lat="43.4764" lon="6.65232">
        <ele>21</ele>
        <time>2019-04-26T18:30:01.678Z</time>
      </trkpt>
      <trkpt lat="43.47648" lon="6.65235">
        <ele>21</ele>
        <time>2019-04-26T18:30:02.678Z</time>
      </trkpt>
      <trkpt lat="43.47655" lon="6.65238">
        <ele>22</ele>
        <time>2019-04-26T18:30:03.678Z</time>
      </trkpt>
      <trkpt lat="43.47659" lon="6.6524">
        <ele>22</ele>
        <time>2019-04-26T18:30:04.678Z</time>
      </trkpt>
      <trkpt lat="43.47663" lon="6.65242">
        <ele>23</ele>
        <time>2019-04-26T18:30:05.678Z</time>
      </trkpt>
      <trkpt lat="43.4767" lon="6.65246">
        <ele>23</ele>
        <time>2019-04-26T18:30:06.678Z</time>
      </trkpt>
      <trkpt lat="43.47674" lon="6.65248">
        <ele>23</ele>
        <time>2019-04-26T18:30:07.678Z</time>
      </trkpt>
      <trkpt lat="43.47678" lon="6.65249">
        <ele>23</ele>
        <time>2019-04-26T18:30:08.678Z</time>
      </trkpt>
      <trkpt lat="43.47685" lon="6.65253">
        <ele>24</ele>
        <time>2019-04-26T18:30:09.678Z</time>
      </trkpt>
      <trkpt lat="43.47692" lon="6.65256">
        <ele>24</ele>
        <time>2019-04-26T18:30:10.678Z</time>
      </trkpt>
      <trkpt lat="43.47699" lon="6.65258">
        <ele>24</ele>
        <time>2019-04-26T18:30:11.678Z</time>
      </trkpt>
      <trkpt lat="43.47702" lon="6.6526">
        <ele>24</ele>
        <time>2019-04-26T18:30:12.678Z</time>
      </trkpt>
      <trkpt lat="43.47706" lon="6.65261">
        <ele>24</ele>
        <time>2019-04-26T18:30:13.678Z</time>
      </trkpt>
      <trkpt lat="43.47709" lon="6.65263">
        <ele>25</ele>
        <time>2019-04-26T18:30:14.678Z</time>
      </trkpt>
      <trkpt lat="43.47713" lon="6.65264">
        <ele>25</ele>
        <time>2019-04-26T18:30:15.678Z</time>
      </trkpt>
      <trkpt lat="43.47721" lon="6.65268">
        <ele>25</ele>
        <time>2019-04-26T18:30:16.678Z</time>
      </trkpt>
      <trkpt lat="43.47728" lon="6.65271">
        <ele>25</ele>
        <time>2019-04-26T18:30:17.678Z</time>
      </trkpt>
      <trkpt lat="43.47734" lon="6.65275">
        <ele>26</ele>
        <time>2019-04-26T18:30:18.678Z</time>
      </trkpt>
      <trkpt lat="43.47738" lon="6.65277">
        <ele>26</ele>
        <time>2019-04-26T18:30:19.678Z</time>
      </trkpt>
      <trkpt lat="43.47742" lon="6.65279">
        <ele>26</ele>
        <time>2019-04-26T18:30:20.678Z</time>
      </trkpt>
      <trkpt lat="43.4775" lon="6.65284">
        <ele>26</ele>
        <time>2019-04-26T18:30:21.678Z</time>
      </trkpt>
      <trkpt lat="43.47758" lon="6.65289">
        <ele>27</ele>
        <time>2019-04-26T18:30:22.678Z</time>
      </trkpt>
      <trkpt lat="43.47766" lon="6.65293">
        <ele>27</ele>
        <time>2019-04-26T18:30:23.678Z</time>
      </trkpt>
      <trkpt lat="43.47774" lon="6.65298">
        <ele>27</ele>
        <time>2019-04-26T18:30:24.678Z</time>
      </trkpt>
      <trkpt lat="43.47782" lon="6.65303">
        <ele>27</ele>
        <time>2019-04-26T18:30:25.678Z</time>
      </trkpt>
      <trkpt lat="43.47789" lon="6.65308">
        <ele>27</ele>
        <time>2019-04-26T18:30:26.678Z</time>
      </trkpt>
      <trkpt lat="43.47797" lon="6.65313">
        <ele>27</ele>
        <time>2019-04-26T18:30:27.678Z</time>
      </trkpt>
      <trkpt lat="43.47805" lon="6.65318">
        <ele>27</ele>
        <time>2019-04-26T18:30:28.678Z</time>
      </trkpt>
      <trkpt lat="43.47813" lon="6.65323">
        <ele>28</ele>
        <time>2019-04-26T18:30:29.678Z</time>
      </trkpt>
      <trkpt lat="43.4782" lon="6.65328">
        <ele>28</ele>
        <time>2019-04-26T18:30:30.678Z</time>
      </trkpt>
      <trkpt lat="43.47824" lon="6.65332">
        <ele>28</ele>
        <time>2019-04-26T18:30:31.678Z</time>
      </trkpt>
      <trkpt lat="43.47828" lon="6.65334">
        <ele>28</ele>
        <time>2019-04-26T18:30:32.678Z</time>
      </trkpt>
      <trkpt lat="43.47835" lon="6.6534">
        <ele>28</ele>
        <time>2019-04-26T18:30:33.678Z</time>
      </trkpt>
      <trkpt lat="43.47842" lon="6.65347">
        <ele>27</ele>
        <time>2019-04-26T18:30:34.678Z</time>
      </trkpt>
      <trkpt lat="43.47848" lon="6.65355">
        <ele>27</ele>
        <time>2019-04-26T18:30:35.678Z</time>
      </trkpt>
      <trkpt lat="43.47851" lon="6.65359">
        <ele>27</ele>
        <time>2019-04-26T18:30:36.678Z</time>
      </trkpt>
      <trkpt lat="43.47854" lon="6.65362">
        <ele>27</ele>
        <time>2019-04-26T18:30:37.678Z</time>
      </trkpt>
      <trkpt lat="43.4786" lon="6.65369">
        <ele>27</ele>
        <time>2019-04-26T18:30:38.678Z</time>
      </trkpt>
      <trkpt lat="43.47865" lon="6.65376">
        <ele>27</ele>
        <time>2019-04-26T18:30:39.678Z</time>
      </trkpt>
      <trkpt lat="43.4787" lon="6.65383">
        <ele>27</ele>
        <time>2019-04-26T18:30:40.678Z</time>
      </trkpt>
      <trkpt lat="43.47875" lon="6.65389">
        <ele>27</ele>
        <time>2019-04-26T18:30:41.678Z</time>
      </trkpt>
      <trkpt lat="43.4788" lon="6.65394">
        <ele>26</ele>
        <time>2019-04-26T18:30:42.678Z</time>
      </trkpt>
      <trkpt lat="43.47886" lon="6.654">
        <ele>26</ele>
        <time>2019-04-26T18:30:43.678Z</time>
      </trkpt>
      <trkpt lat="43.47888" lon="6.65403">
        <ele>26</ele>
        <time>2019-04-26T18:30:44.678Z</time>
      </trkpt>
      <trkpt lat="43.47891" lon="6.65406">
        <ele>26</ele>
        <time>2019-04-26T18:30:45.678Z</time>
      </trkpt>
      <trkpt lat="43.47897" lon="6.65412">
        <ele>27</ele>
        <time>2019-04-26T18:30:46.678Z</time>
      </trkpt>
      <trkpt lat="43.47903" lon="6.65419">
        <ele>27</ele>
        <time>2019-04-26T18:30:47.678Z</time>
      </trkpt>
      <trkpt lat="43.47906" lon="6.65422">
        <ele>27</ele>
        <time>2019-04-26T18:30:48.678Z</time>
      </trkpt>
      <trkpt lat="43.47909" lon="6.65425">
        <ele>27</ele>
        <time>2019-04-26T18:30:49.678Z</time>
      </trkpt>
      <trkpt lat="43.47915" lon="6.65432">
        <ele>27</ele>
        <time>2019-04-26T18:30:50.678Z</time>
      </trkpt>
      <trkpt lat="43.47918" lon="6.65435">
        <ele>27</ele>
        <time>2019-04-26T18:30:51.678Z</time>
      </trkpt>
      <trkpt lat="43.4792" lon="6.65438">
        <ele>27</ele>
        <time>2019-04-26T18:30:52.678Z</time>
      </trkpt>
      <trkpt lat="43.47926" lon="6.65444">
        <ele>27</ele>
        <time>2019-04-26T18:30:53.678Z</time>
      </trkpt>
      <trkpt lat="43.47928" lon="6.65447">
        <ele>27</ele>
        <time>2019-04-26T18:30:54.678Z</time>
      </trkpt>
      <trkpt lat="43.4793" lon="6.6545">
        <ele>27</ele>
        <time>2019-04-26T18:30:55.678Z</time>
      </trkpt>
      <trkpt lat="43.47934" lon="6.65456">
        <ele>28</ele>
        <time>2019-04-26T18:30:56.678Z</time>
      </trkpt>
      <trkpt lat="43.47939" lon="6.65462">
        <ele>28</ele>
        <time>2019-04-26T18:30:57.678Z</time>
      </trkpt>
      <trkpt lat="43.47944" lon="6.65468">
        <ele>28</ele>
        <time>2019-04-26T18:30:58.678Z</time>
      </trkpt>
      <trkpt lat="43.47949" lon="6.65474">
        <ele>28</ele>
        <time>2019-04-26T18:30:59.678Z</time>
      </trkpt>
      <trkpt lat="43.47955" lon="6.65478">
        <ele>28</ele>
        <time>2019-04-26T18:31:00.678Z</time>
      </trkpt>
      <trkpt lat="43.47961" lon="6.65481">
        <ele>28</ele>
        <time>2019-04-26T18:31:01.678Z</time>
      </trkpt>
      <trkpt lat="43.47967" lon="6.65487">
        <ele>28</ele>
        <time>2019-04-26T18:31:02.678Z</time>
      </trkpt>
      <trkpt lat="43.47972" lon="6.65491">
        <ele>28</ele>
        <time>2019-04-26T18:31:03.678Z</time>
      </trkpt>
      <trkpt lat="43.47975" lon="6.65493">
        <ele>28</ele>
        <time>2019-04-26T18:31:04.678Z</time>
      </trkpt>
      <trkpt lat="43.47978" lon="6.65496">
        <ele>28</ele>
        <time>2019-04-26T18:31:05.678Z</time>
      </trkpt>
      <trkpt lat="43.47984" lon="6.65501">
        <ele>28</ele>
        <time>2019-04-26T18:31:06.678Z</time>
      </trkpt>
      <trkpt lat="43.47989" lon="6.65508">
        <ele>28</ele>
        <time>2019-04-26T18:31:07.678Z</time>
      </trkpt>
      <trkpt lat="43.47992" lon="6.65517">
        <ele>29</ele>
        <time>2019-04-26T18:31:08.678Z</time>
      </trkpt>
      <trkpt lat="43.47992" lon="6.65526">
        <ele>29</ele>
        <time>2019-04-26T18:31:09.678Z</time>
      </trkpt>
      <trkpt lat="43.47993" lon="6.65536">
        <ele>30</ele>
        <time>2019-04-26T18:31:10.678Z</time>
      </trkpt>
      <trkpt lat="43.47993" lon="6.65546">
        <ele>30</ele>
        <time>2019-04-26T18:31:11.678Z</time>
      </trkpt>
      <trkpt lat="43.47993" lon="6.65555">
        <ele>31</ele>
        <time>2019-04-26T18:31:12.678Z</time>
      </trkpt>
      <trkpt lat="43.47994" lon="6.65563">
        <ele>31</ele>
        <time>2019-04-26T18:31:13.678Z</time>
      </trkpt>
      <trkpt lat="43.47995" lon="6.65571">
        <ele>31</ele>
        <time>2019-04-26T18:31:14.678Z</time>
      </trkpt>
      <trkpt lat="43.47995" lon="6.65575">
        <ele>31</ele>
        <time>2019-04-26T18:31:15.678Z</time>
      </trkpt>
      <trkpt lat="43.47995" lon="6.65579">
        <ele>32</ele>
        <time>2019-04-26T18:31:16.678Z</time>
      </trkpt>
      <trkpt lat="43.47996" lon="6.65586">
        <ele>32</ele>
        <time>2019-04-26T18:31:17.678Z</time>
      </trkpt>
      <trkpt lat="43.47995" lon="6.65594">
        <ele>33</ele>
        <time>2019-04-26T18:31:18.678Z</time>
      </trkpt>
      <trkpt lat="43.47994" lon="6.65601">
        <ele>33</ele>
        <time>2019-04-26T18:31:19.678Z</time>
      </trkpt>
      <trkpt lat="43.47994" lon="6.6561">
        <ele>33</ele>
        <time>2019-04-26T18:31:20.678Z</time>
      </trkpt>
      <trkpt lat="43.47994" lon="6.65618">
        <ele>34</ele>
        <time>2019-04-26T18:31:21.678Z</time>
      </trkpt>
      <trkpt lat="43.47994" lon="6.65627">
        <ele>34</ele>
        <time>2019-04-26T18:31:22.678Z</time>
      </trkpt>
      <trkpt lat="43.47993" lon="6.65636">
        <ele>35</ele>
        <time>2019-04-26T18:31:23.678Z</time>
      </trkpt>
      <trkpt lat="43.47992" lon="6.65645">
        <ele>35</ele>
        <time>2019-04-26T18:31:24.678Z</time>
      </trkpt>
      <trkpt lat="43.47991" lon="6.65654">
        <ele>36</ele>
        <time>2019-04-26T18:31:25.678Z</time>
      </trkpt>
      <trkpt lat="43.4799" lon="6.65662">
        <ele>36</ele>
        <time>2019-04-26T18:31:26.678Z</time>
      </trkpt>
      <trkpt lat="43.47989" lon="6.65667">
        <ele>37</ele>
        <time>2019-04-26T18:31:27.678Z</time>
      </trkpt>
      <trkpt lat="43.47988" lon="6.65672">
        <ele>37</ele>
        <time>2019-04-26T18:31:28.678Z</time>
      </trkpt>
      <trkpt lat="43.47987" lon="6.65677">
        <ele>37</ele>
        <time>2019-04-26T18:31:29.678Z</time>
      </trkpt>
      <trkpt lat="43.47986" lon="6.65682">
        <ele>37</ele>
        <time>2019-04-26T18:31:30.678Z</time>
      </trkpt>
      <trkpt lat="43.47984" lon="6.65691">
        <ele>37</ele>
        <time>2019-04-26T18:31:31.678Z</time>
      </trkpt>
      <trkpt lat="43.47983" lon="6.657">
        <ele>37</ele>
        <time>2019-04-26T18:31:32.678Z</time>
      </trkpt>
      <trkpt lat="43.47982" lon="6.65709">
        <ele>37</ele>
        <time>2019-04-26T18:31:33.678Z</time>
      </trkpt>
      <trkpt lat="43.47982" lon="6.65719">
        <ele>37</ele>
        <time>2019-04-26T18:31:34.678Z</time>
      </trkpt>
      <trkpt lat="43.47983" lon="6.65729">
        <ele>37</ele>
        <time>2019-04-26T18:31:35.678Z</time>
      </trkpt>
      <trkpt lat="43.47983" lon="6.65739">
        <ele>37</ele>
        <time>2019-04-26T18:31:36.678Z</time>
      </trkpt>
      <trkpt lat="43.47984" lon="6.65744">
        <ele>37</ele>
        <time>2019-04-26T18:31:37.678Z</time>
      </trkpt>
      <trkpt lat="43.47984" lon="6.65748">
        <ele>37</ele>
        <time>2019-04-26T18:31:38.678Z</time>
      </trkpt>
      <trkpt lat="43.47984" lon="6.65758">
        <ele>37</ele>
        <time>2019-04-26T18:31:39.678Z</time>
      </trkpt>
      <trkpt lat="43.47984" lon="6.65768">
        <ele>37</ele>
        <time>2019-04-26T18:31:40.678Z</time>
      </trkpt>
      <trkpt lat="43.47984" lon="6.65777">
        <ele>37</ele>
        <time>2019-04-26T18:31:41.678Z</time>
      </trkpt>
      <trkpt lat="43.47984" lon="6.65786">
        <ele>38</ele>
        <time>2019-04-26T18:31:42.678Z</time>
      </trkpt>
      <trkpt lat="43.47985" lon="6.65791">
        <ele>38</ele>
        <time>2019-04-26T18:31:43.678Z</time>
      </trkpt>
      <trkpt lat="43.47985" lon="6.65796">
        <ele>38</ele>
        <time>2019-04-26T18:31:44.678Z</time>
      </trkpt>
      <trkpt lat="43.47985" lon="6.65805">
        <ele>38</ele>
        <time>2019-04-26T18:31:45.678Z</time>
      </trkpt>
      <trkpt lat="43.47986" lon="6.65815">
        <ele>38</ele>
        <time>2019-04-26T18:31:46.678Z</time>
      </trkpt>
      <trkpt lat="43.47986" lon="6.65825">
        <ele>38</ele>
        <time>2019-04-26T18:31:47.678Z</time>
      </trkpt>
      <trkpt lat="43.47986" lon="6.65834">
        <ele>38</ele>
        <time>2019-04-26T18:31:48.678Z</time>
      </trkpt>
      <trkpt lat="43.47987" lon="6.65843">
        <ele>38</ele>
        <time>2019-04-26T18:31:49.678Z</time>
      </trkpt>
      <trkpt lat="43.47988" lon="6.65853">
        <ele>38</ele>
        <time>2019-04-26T18:31:50.678Z</time>
      </trkpt>
      <trkpt lat="43.47988" lon="6.65858">
        <ele>38</ele>
        <time>2019-04-26T18:31:51.678Z</time>
      </trkpt>
      <trkpt lat="43.47988" lon="6.65863">
        <ele>38</ele>
        <time>2019-04-26T18:31:52.678Z</time>
      </trkpt>
      <trkpt lat="43.47988" lon="6.65872">
        <ele>38</ele>
        <time>2019-04-26T18:31:53.678Z</time>
      </trkpt>
      <trkpt lat="43.47985" lon="6.65881">
        <ele>37</ele>
        <time>2019-04-26T18:31:54.678Z</time>
      </trkpt>
      <trkpt lat="43.4798" lon="6.65889">
        <ele>37</ele>
        <time>2019-04-26T18:31:55.678Z</time>
      </trkpt>
      <trkpt lat="43.47974" lon="6.65895">
        <ele>37</ele>
        <time>2019-04-26T18:31:56.678Z</time>
      </trkpt>
      <trkpt lat="43.47972" lon="6.65898">
        <ele>37</ele>
        <time>2019-04-26T18:31:57.678Z</time>
      </trkpt>
      <trkpt lat="43.47969" lon="6.65902">
        <ele>36</ele>
        <time>2019-04-26T18:31:58.678Z</time>
      </trkpt>
      <trkpt lat="43.47965" lon="6.65908">
        <ele>36</ele>
        <time>2019-04-26T18:31:59.678Z</time>
      </trkpt>
      <trkpt lat="43.47963" lon="6.65916">
        <ele>36</ele>
        <time>2019-04-26T18:32:00.678Z</time>
      </trkpt>
      <trkpt lat="43.47963" lon="6.65921">
        <ele>36</ele>
        <time>2019-04-26T18:32:01.678Z</time>
      </trkpt>
      <trkpt lat="43.47962" lon="6.65925">
        <ele>36</ele>
        <time>2019-04-26T18:32:02.678Z</time>
      </trkpt>
      <trkpt lat="43.47959" lon="6.65933">
        <ele>36</ele>
        <time>2019-04-26T18:32:03.678Z</time>
      </trkpt>
      <trkpt lat="43.47954" lon="6.6594">
        <ele>36</ele>
        <time>2019-04-26T18:32:04.678Z</time>
      </trkpt>
      <trkpt lat="43.4795" lon="6.65943">
        <ele>36</ele>
        <time>2019-04-26T18:32:05.678Z</time>
      </trkpt>
      <trkpt lat="43.47946" lon="6.65944">
        <ele>36</ele>
        <time>2019-04-26T18:32:06.678Z</time>
      </trkpt>
      <trkpt lat="43.47937" lon="6.65945">
        <ele>36</ele>
        <time>2019-04-26T18:32:07.678Z</time>
      </trkpt>
      <trkpt lat="43.47933" lon="6.65945">
        <ele>36</ele>
        <time>2019-04-26T18:32:08.678Z</time>
      </trkpt>
      <trkpt lat="43.47928" lon="6.65945">
        <ele>36</ele>
        <time>2019-04-26T18:32:09.678Z</time>
      </trkpt>
      <trkpt lat="43.47917" lon="6.65944">
        <ele>36</ele>
        <time>2019-04-26T18:32:10.678Z</time>
      </trkpt>
      <trkpt lat="43.47906" lon="6.65943">
        <ele>36</ele>
        <time>2019-04-26T18:32:11.678Z</time>
      </trkpt>
      <trkpt lat="43.47901" lon="6.65943">
        <ele>35</ele>
        <time>2019-04-26T18:32:12.678Z</time>
      </trkpt>
      <trkpt lat="43.47896" lon="6.65942">
        <ele>35</ele>
        <time>2019-04-26T18:32:13.678Z</time>
      </trkpt>
      <trkpt lat="43.47885" lon="6.65941">
        <ele>35</ele>
        <time>2019-04-26T18:32:14.678Z</time>
      </trkpt>
      <trkpt lat="43.47874" lon="6.6594">
        <ele>35</ele>
        <time>2019-04-26T18:32:15.678Z</time>
      </trkpt>
      <trkpt lat="43.47862" lon="6.65939">
        <ele>35</ele>
        <time>2019-04-26T18:32:16.678Z</time>
      </trkpt>
      <trkpt lat="43.4785" lon="6.65937">
        <ele>35</ele>
        <time>2019-04-26T18:32:17.678Z</time>
      </trkpt>
      <trkpt lat="43.47837" lon="6.65936">
        <ele>34</ele>
        <time>2019-04-26T18:32:18.678Z</time>
      </trkpt>
      <trkpt lat="43.47824" lon="6.65934">
        <ele>34</ele>
        <time>2019-04-26T18:32:19.678Z</time>
      </trkpt>
      <trkpt lat="43.47811" lon="6.65934">
        <ele>34</ele>
        <time>2019-04-26T18:32:20.678Z</time>
      </trkpt>
      <trkpt lat="43.47805" lon="6.65936">
        <ele>34</ele>
        <time>2019-04-26T18:32:21.678Z</time>
      </trkpt>
      <trkpt lat="43.47799" lon="6.65939">
        <ele>34</ele>
        <time>2019-04-26T18:32:22.678Z</time>
      </trkpt>
      <trkpt lat="43.47789" lon="6.65948">
        <ele>34</ele>
        <time>2019-04-26T18:32:23.678Z</time>
      </trkpt>
      <trkpt lat="43.47784" lon="6.65953">
        <ele>34</ele>
        <time>2019-04-26T18:32:24.678Z</time>
      </trkpt>
      <trkpt lat="43.47779" lon="6.65957">
        <ele>34</ele>
        <time>2019-04-26T18:32:25.678Z</time>
      </trkpt>
      <trkpt lat="43.47769" lon="6.65966">
        <ele>34</ele>
        <time>2019-04-26T18:32:26.678Z</time>
      </trkpt>
      <trkpt lat="43.47759" lon="6.65975">
        <ele>34</ele>
        <time>2019-04-26T18:32:27.678Z</time>
      </trkpt>
      <trkpt lat="43.47749" lon="6.65984">
        <ele>35</ele>
        <time>2019-04-26T18:32:28.678Z</time>
      </trkpt>
      <trkpt lat="43.4774" lon="6.65994">
        <ele>34</ele>
        <time>2019-04-26T18:32:29.678Z</time>
      </trkpt>
      <trkpt lat="43.47733" lon="6.66008">
        <ele>34</ele>
        <time>2019-04-26T18:32:30.678Z</time>
      </trkpt>
      <trkpt lat="43.4773" lon="6.66015">
        <ele>34</ele>
        <time>2019-04-26T18:32:31.678Z</time>
      </trkpt>
      <trkpt lat="43.47727" lon="6.66023">
        <ele>34</ele>
        <time>2019-04-26T18:32:32.678Z</time>
      </trkpt>
      <trkpt lat="43.47724" lon="6.6604">
        <ele>35</ele>
        <time>2019-04-26T18:32:33.678Z</time>
      </trkpt>
      <trkpt lat="43.47721" lon="6.66056">
        <ele>35</ele>
        <time>2019-04-26T18:32:34.678Z</time>
      </trkpt>
      <trkpt lat="43.47719" lon="6.66063">
        <ele>35</ele>
        <time>2019-04-26T18:32:35.678Z</time>
      </trkpt>
      <trkpt lat="43.47717" lon="6.66069">
        <ele>35</ele>
        <time>2019-04-26T18:32:36.678Z</time>
      </trkpt>
      <trkpt lat="43.47714" lon="6.66075">
        <ele>35</ele>
        <time>2019-04-26T18:32:37.678Z</time>
      </trkpt>
      <trkpt lat="43.47711" lon="6.66081">
        <ele>35</ele>
        <time>2019-04-26T18:32:38.678Z</time>
      </trkpt>
      <trkpt lat="43.47705" lon="6.66091">
        <ele>35</ele>
        <time>2019-04-26T18:32:39.678Z</time>
      </trkpt>
      <trkpt lat="43.477" lon="6.66101">
        <ele>36</ele>
        <time>2019-04-26T18:32:40.678Z</time>
      </trkpt>
      <trkpt lat="43.47695" lon="6.66109">
        <ele>36</ele>
        <time>2019-04-26T18:32:41.678Z</time>
      </trkpt>
      <trkpt lat="43.47694" lon="6.66112">
        <ele>36</ele>
        <time>2019-04-26T18:32:42.678Z</time>
      </trkpt>
      <trkpt lat="43.47692" lon="6.66116">
        <ele>36</ele>
        <time>2019-04-26T18:32:43.678Z</time>
      </trkpt>
      <trkpt lat="43.47689" lon="6.66122">
        <ele>37</ele>
        <time>2019-04-26T18:32:44.678Z</time>
      </trkpt>
      <trkpt lat="43.47687" lon="6.66129">
        <ele>37</ele>
        <time>2019-04-26T18:32:45.678Z</time>
      </trkpt>
      <trkpt lat="43.47684" lon="6.66135">
        <ele>37</ele>
        <time>2019-04-26T18:32:46.678Z</time>
      </trkpt>
      <trkpt lat="43.47681" lon="6.6614">
        <ele>38</ele>
        <time>2019-04-26T18:32:47.678Z</time>
      </trkpt>
      <trkpt lat="43.47679" lon="6.66147">
        <ele>38</ele>
        <time>2019-04-26T18:32:48.678Z</time>
      </trkpt>
      <trkpt lat="43.47676" lon="6.66152">
        <ele>38</ele>
        <time>2019-04-26T18:32:49.678Z</time>
      </trkpt>
      <trkpt lat="43.47675" lon="6.66155">
        <ele>38</ele>
        <time>2019-04-26T18:32:50.678Z</time>
      </trkpt>
      <trkpt lat="43.47673" lon="6.66158">
        <ele>38</ele>
        <time>2019-04-26T18:32:51.678Z</time>
      </trkpt>
      <trkpt lat="43.4767" lon="6.66162">
        <ele>39</ele>
        <time>2019-04-26T18:32:52.678Z</time>
      </trkpt>
      <trkpt lat="43.47667" lon="6.66168">
        <ele>39</ele>
        <time>2019-04-26T18:32:53.678Z</time>
      </trkpt>
      <trkpt lat="43.47664" lon="6.66172">
        <ele>39</ele>
        <time>2019-04-26T18:32:54.678Z</time>
      </trkpt>
      <trkpt lat="43.47663" lon="6.66175">
        <ele>39</ele>
        <time>2019-04-26T18:32:55.678Z</time>
      </trkpt>
      <trkpt lat="43.47663" lon="6.66178">
        <ele>40</ele>
        <time>2019-04-26T18:32:56.678Z</time>
      </trkpt>
      <trkpt lat="43.47661" lon="6.66183">
        <ele>40</ele>
        <time>2019-04-26T18:32:57.678Z</time>
      </trkpt>
      <trkpt lat="43.47659" lon="6.66189">
        <ele>40</ele>
        <time>2019-04-26T18:32:58.678Z</time>
      </trkpt>
      <trkpt lat="43.47657" lon="6.66192">
        <ele>40</ele>
        <time>2019-04-26T18:32:59.678Z</time>
      </trkpt>
      <trkpt lat="43.47656" lon="6.66195">
        <ele>40</ele>
        <time>2019-04-26T18:33:00.678Z</time>
      </trkpt>
      <trkpt lat="43.47654" lon="6.66202">
        <ele>41</ele>
        <time>2019-04-26T18:33:01.678Z</time>
      </trkpt>
      <trkpt lat="43.47651" lon="6.66209">
        <ele>41</ele>
        <time>2019-04-26T18:33:02.678Z</time>
      </trkpt>
      <trkpt lat="43.47646" lon="6.66214">
        <ele>41</ele>
        <time>2019-04-26T18:33:03.678Z</time>
      </trkpt>
      <trkpt lat="43.47641" lon="6.6622">
        <ele>42</ele>
        <time>2019-04-26T18:33:04.678Z</time>
      </trkpt>
      <trkpt lat="43.47635" lon="6.66225">
        <ele>42</ele>
        <time>2019-04-26T18:33:05.678Z</time>
      </trkpt>
      <trkpt lat="43.47631" lon="6.66228">
        <ele>42</ele>
        <time>2019-04-26T18:33:06.678Z</time>
      </trkpt>
      <trkpt lat="43.47629" lon="6.66231">
        <ele>42</ele>
        <time>2019-04-26T18:33:07.678Z</time>
      </trkpt>
      <trkpt lat="43.47624" lon="6.66239">
        <ele>42</ele>
        <time>2019-04-26T18:33:08.678Z</time>
      </trkpt>
      <trkpt lat="43.47621" lon="6.66248">
        <ele>43</ele>
        <time>2019-04-26T18:33:09.678Z</time>
      </trkpt>
      <trkpt lat="43.47622" lon="6.66257">
        <ele>43</ele>
        <time>2019-04-26T18:33:10.678Z</time>
      </trkpt>
      <trkpt lat="43.47622" lon="6.66266">
        <ele>43</ele>
        <time>2019-04-26T18:33:11.678Z</time>
      </trkpt>
      <trkpt lat="43.47622" lon="6.6627">
        <ele>43</ele>
        <time>2019-04-26T18:33:12.678Z</time>
      </trkpt>
      <trkpt lat="43.47622" lon="6.66275">
        <ele>43</ele>
        <time>2019-04-26T18:33:13.678Z</time>
      </trkpt>
      <trkpt lat="43.47623" lon="6.66284">
        <ele>44</ele>
        <time>2019-04-26T18:33:14.678Z</time>
      </trkpt>
      <trkpt lat="43.47624" lon="6.66294">
        <ele>44</ele>
        <time>2019-04-26T18:33:15.678Z</time>
      </trkpt>
      <trkpt lat="43.47624" lon="6.66298">
        <ele>44</ele>
        <time>2019-04-26T18:33:16.678Z</time>
      </trkpt>
      <trkpt lat="43.47625" lon="6.66303">
        <ele>44</ele>
        <time>2019-04-26T18:33:17.678Z</time>
      </trkpt>
      <trkpt lat="43.47628" lon="6.66311">
        <ele>44</ele>
        <time>2019-04-26T18:33:18.678Z</time>
      </trkpt>
      <trkpt lat="43.47629" lon="6.66314">
        <ele>44</ele>
        <time>2019-04-26T18:33:19.678Z</time>
      </trkpt>
      <trkpt lat="43.47631" lon="6.66316">
        <ele>44</ele>
        <time>2019-04-26T18:33:20.678Z</time>
      </trkpt>
      <trkpt lat="43.47634" lon="6.66321">
        <ele>44</ele>
        <time>2019-04-26T18:33:21.678Z</time>
      </trkpt>
      <trkpt lat="43.47636" lon="6.66326">
        <ele>44</ele>
        <time>2019-04-26T18:33:22.678Z</time>
      </trkpt>
      <trkpt lat="43.47636" lon="6.66332">
        <ele>45</ele>
        <time>2019-04-26T18:33:23.678Z</time>
      </trkpt>
      <trkpt lat="43.47636" lon="6.66338">
        <ele>45</ele>
        <time>2019-04-26T18:33:24.678Z</time>
      </trkpt>
      <trkpt lat="43.47636" lon="6.66346">
        <ele>44</ele>
        <time>2019-04-26T18:33:25.678Z</time>
      </trkpt>
      <trkpt lat="43.47638" lon="6.66352">
        <ele>44</ele>
        <time>2019-04-26T18:33:26.678Z</time>
      </trkpt>
      <trkpt lat="43.4764" lon="6.66356">
        <ele>44</ele>
        <time>2019-04-26T18:33:27.678Z</time>
      </trkpt>
      <trkpt lat="43.47641" lon="6.66357">
        <ele>44</ele>
        <time>2019-04-26T18:33:28.678Z</time>
      </trkpt>
      <trkpt lat="43.47649" lon="6.66356">
        <ele>44</ele>
        <time>2019-04-26T18:33:29.678Z</time>
      </trkpt>
      <trkpt lat="43.47652" lon="6.66358">
        <ele>44</ele>
        <time>2019-04-26T18:33:30.678Z</time>
      </trkpt>
      <trkpt lat="43.47654" lon="6.66361">
        <ele>44</ele>
        <time>2019-04-26T18:33:31.678Z</time>
      </trkpt>
      <trkpt lat="43.47658" lon="6.66366">
        <ele>44</ele>
        <time>2019-04-26T18:33:32.678Z</time>
      </trkpt>
      <trkpt lat="43.47663" lon="6.66372">
        <ele>44</ele>
        <time>2019-04-26T18:33:33.678Z</time>
      </trkpt>
      <trkpt lat="43.47666" lon="6.66373">
        <ele>44</ele>
        <time>2019-04-26T18:33:34.678Z</time>
      </trkpt>
      <trkpt lat="43.47669" lon="6.66375">
        <ele>44</ele>
        <time>2019-04-26T18:33:35.678Z</time>
      </trkpt>
      <trkpt lat="43.47674" lon="6.66377">
        <ele>44</ele>
        <time>2019-04-26T18:33:36.678Z</time>
      </trkpt>
      <trkpt lat="43.47677" lon="6.66378">
        <ele>44</ele>
        <time>2019-04-26T18:33:37.678Z</time>
      </trkpt>
      <trkpt lat="43.47679" lon="6.66379">
        <ele>44</ele>
        <time>2019-04-26T18:33:38.678Z</time>
      </trkpt>
      <trkpt lat="43.47684" lon="6.66385">
        <ele>44</ele>
        <time>2019-04-26T18:33:39.678Z</time>
      </trkpt>
      <trkpt lat="43.47688" lon="6.66395">
        <ele>44</ele>
        <time>2019-04-26T18:33:40.678Z</time>
      </trkpt>
      <trkpt lat="43.4769" lon="6.66404">
        <ele>44</ele>
        <time>2019-04-26T18:33:41.678Z</time>
      </trkpt>
      <trkpt lat="43.47693" lon="6.66412">
        <ele>44</ele>
        <time>2019-04-26T18:33:42.678Z</time>
      </trkpt>
      <trkpt lat="43.47697" lon="6.6642">
        <ele>44</ele>
        <time>2019-04-26T18:33:43.678Z</time>
      </trkpt>
      <trkpt lat="43.47698" lon="6.66425">
        <ele>44</ele>
        <time>2019-04-26T18:33:44.678Z</time>
      </trkpt>
      <trkpt lat="43.477" lon="6.66428">
        <ele>44</ele>
        <time>2019-04-26T18:33:45.678Z</time>
      </trkpt>
      <trkpt lat="43.47702" lon="6.66429">
        <ele>44</ele>
        <time>2019-04-26T18:33:46.678Z</time>
      </trkpt>
      <trkpt lat="43.47704" lon="6.66431">
        <ele>44</ele>
        <time>2019-04-26T18:33:47.678Z</time>
      </trkpt>
      <trkpt lat="43.47707" lon="6.66432">
        <ele>44</ele>
        <time>2019-04-26T18:33:48.678Z</time>
      </trkpt>
      <trkpt lat="43.47709" lon="6.66433">
        <ele>44</ele>
        <time>2019-04-26T18:33:49.678Z</time>
      </trkpt>
      <trkpt lat="43.47715" lon="6.66437">
        <ele>45</ele>
        <time>2019-04-26T18:33:50.678Z</time>
      </trkpt>
      <trkpt lat="43.47721" lon="6.6644">
        <ele>45</ele>
        <time>2019-04-26T18:33:51.678Z</time>
      </trkpt>
      <trkpt lat="43.47727" lon="6.66443">
        <ele>45</ele>
        <time>2019-04-26T18:33:52.678Z</time>
      </trkpt>
      <trkpt lat="43.47732" lon="6.66446">
        <ele>45</ele>
        <time>2019-04-26T18:33:53.678Z</time>
      </trkpt>
      <trkpt lat="43.47738" lon="6.66449">
        <ele>45</ele>
        <time>2019-04-26T18:33:54.678Z</time>
      </trkpt>
      <trkpt lat="43.47743" lon="6.66453">
        <ele>46</ele>
        <time>2019-04-26T18:33:55.678Z</time>
      </trkpt>
      <trkpt lat="43.47745" lon="6.66456">
        <ele>46</ele>
        <time>2019-04-26T18:33:56.678Z</time>
      </trkpt>
      <trkpt lat="43.47747" lon="6.6646">
        <ele>46</ele>
        <time>2019-04-26T18:33:57.678Z</time>
      </trkpt>
      <trkpt lat="43.47754" lon="6.66466">
        <ele>46</ele>
        <time>2019-04-26T18:33:58.678Z</time>
      </trkpt>
      <trkpt lat="43.47757" lon="6.66468">
        <ele>46</ele>
        <time>2019-04-26T18:33:59.678Z</time>
      </trkpt>
      <trkpt lat="43.47761" lon="6.6647">
        <ele>47</ele>
        <time>2019-04-26T18:34:00.678Z</time>
      </trkpt>
      <trkpt lat="43.47769" lon="6.66475">
        <ele>47</ele>
        <time>2019-04-26T18:34:01.678Z</time>
      </trkpt>
      <trkpt lat="43.47778" lon="6.6648">
        <ele>48</ele>
        <time>2019-04-26T18:34:02.678Z</time>
      </trkpt>
      <trkpt lat="43.47787" lon="6.66484">
        <ele>48</ele>
        <time>2019-04-26T18:34:03.678Z</time>
      </trkpt>
      <trkpt lat="43.47797" lon="6.66489">
        <ele>48</ele>
        <time>2019-04-26T18:34:04.678Z</time>
      </trkpt>
      <trkpt lat="43.47807" lon="6.66494">
        <ele>49</ele>
        <time>2019-04-26T18:34:05.678Z</time>
      </trkpt>
      <trkpt lat="43.47817" lon="6.665">
        <ele>49</ele>
        <time>2019-04-26T18:34:06.678Z</time>
      </trkpt>
      <trkpt lat="43.47822" lon="6.66502">
        <ele>50</ele>
        <time>2019-04-26T18:34:07.678Z</time>
      </trkpt>
      <trkpt lat="43.47826" lon="6.66505">
        <ele>50</ele>
        <time>2019-04-26T18:34:08.678Z</time>
      </trkpt>
      <trkpt lat="43.47836" lon="6.6651">
        <ele>50</ele>
        <time>2019-04-26T18:34:09.678Z</time>
      </trkpt>
      <trkpt lat="43.47846" lon="6.66516">
        <ele>50</ele>
        <time>2019-04-26T18:34:10.678Z</time>
      </trkpt>
      <trkpt lat="43.47856" lon="6.66521">
        <ele>50</ele>
        <time>2019-04-26T18:34:11.678Z</time>
      </trkpt>
      <trkpt lat="43.47866" lon="6.66526">
        <ele>50</ele>
        <time>2019-04-26T18:34:12.678Z</time>
      </trkpt>
      <trkpt lat="43.47877" lon="6.66531">
        <ele>50</ele>
        <time>2019-04-26T18:34:13.678Z</time>
      </trkpt>
      <trkpt lat="43.47886" lon="6.66538">
        <ele>51</ele>
        <time>2019-04-26T18:34:14.678Z</time>
      </trkpt>
      <trkpt lat="43.47895" lon="6.66547">
        <ele>51</ele>
        <time>2019-04-26T18:34:15.678Z</time>
      </trkpt>
      <trkpt lat="43.47904" lon="6.66555">
        <ele>51</ele>
        <time>2019-04-26T18:34:16.678Z</time>
      </trkpt>
      <trkpt lat="43.47913" lon="6.66559">
        <ele>52</ele>
        <time>2019-04-26T18:34:17.678Z</time>
      </trkpt>
      <trkpt lat="43.47918" lon="6.6656">
        <ele>52</ele>
        <time>2019-04-26T18:34:18.678Z</time>
      </trkpt>
      <trkpt lat="43.47922" lon="6.66561">
        <ele>52</ele>
        <time>2019-04-26T18:34:19.678Z</time>
      </trkpt>
      <trkpt lat="43.47929" lon="6.66565">
        <ele>53</ele>
        <time>2019-04-26T18:34:20.678Z</time>
      </trkpt>
      <trkpt lat="43.47936" lon="6.66569">
        <ele>53</ele>
        <time>2019-04-26T18:34:21.678Z</time>
      </trkpt>
      <trkpt lat="43.47942" lon="6.66574">
        <ele>54</ele>
        <time>2019-04-26T18:34:22.678Z</time>
      </trkpt>
      <trkpt lat="43.47947" lon="6.66575">
        <ele>54</ele>
        <time>2019-04-26T18:34:23.678Z</time>
      </trkpt>
      <trkpt lat="43.4795" lon="6.66575">
        <ele>54</ele>
        <time>2019-04-26T18:34:24.678Z</time>
      </trkpt>
      <trkpt lat="43.47953" lon="6.66574">
        <ele>54</ele>
        <time>2019-04-26T18:34:25.678Z</time>
      </trkpt>
      <trkpt lat="43.47959" lon="6.66575">
        <ele>54</ele>
        <time>2019-04-26T18:34:26.678Z</time>
      </trkpt>
      <trkpt lat="43.47961" lon="6.66574">
        <ele>54</ele>
        <time>2019-04-26T18:34:27.678Z</time>
      </trkpt>
      <trkpt lat="43.47964" lon="6.66573">
        <ele>54</ele>
        <time>2019-04-26T18:34:28.678Z</time>
      </trkpt>
      <trkpt lat="43.47969" lon="6.6657">
        <ele>54</ele>
        <time>2019-04-26T18:34:29.678Z</time>
      </trkpt>
      <trkpt lat="43.47974" lon="6.66567">
        <ele>55</ele>
        <time>2019-04-26T18:34:30.678Z</time>
      </trkpt>
      <trkpt lat="43.47978" lon="6.66567">
        <ele>55</ele>
        <time>2019-04-26T18:34:31.678Z</time>
      </trkpt>
      <trkpt lat="43.47981" lon="6.66567">
        <ele>55</ele>
        <time>2019-04-26T18:34:32.678Z</time>
      </trkpt>
      <trkpt lat="43.47983" lon="6.66568">
        <ele>55</ele>
        <time>2019-04-26T18:34:33.678Z</time>
      </trkpt>
      <trkpt lat="43.47985" lon="6.66568">
        <ele>55</ele>
        <time>2019-04-26T18:34:34.678Z</time>
      </trkpt>
      <trkpt lat="43.47988" lon="6.6657">
        <ele>55</ele>
        <time>2019-04-26T18:34:35.678Z</time>
      </trkpt>
      <trkpt lat="43.47992" lon="6.6657">
        <ele>55</ele>
        <time>2019-04-26T18:34:36.678Z</time>
      </trkpt>
      <trkpt lat="43.47994" lon="6.6657">
        <ele>55</ele>
        <time>2019-04-26T18:34:37.678Z</time>
      </trkpt>
      <trkpt lat="43.47996" lon="6.6657">
        <ele>56</ele>
        <time>2019-04-26T18:34:38.678Z</time>
      </trkpt>
      <trkpt lat="43.47997" lon="6.6657">
        <ele>56</ele>
        <time>2019-04-26T18:34:39.678Z</time>
      </trkpt>
      <trkpt lat="43.47999" lon="6.6657">
        <ele>56</ele>
        <time>2019-04-26T18:34:40.678Z</time>
      </trkpt>
      <trkpt lat="43.48002" lon="6.66571">
        <ele>56</ele>
        <time>2019-04-26T18:34:41.678Z</time>
      </trkpt>
      <trkpt lat="43.48005" lon="6.66571">
        <ele>56</ele>
        <time>2019-04-26T18:34:42.678Z</time>
      </trkpt>
      <trkpt lat="43.48006" lon="6.66572">
        <ele>56</ele>
        <time>2019-04-26T18:34:43.678Z</time>
      </trkpt>
      <trkpt lat="43.48008" lon="6.66573">
        <ele>56</ele>
        <time>2019-04-26T18:34:44.678Z</time>
      </trkpt>
      <trkpt lat="43.48011" lon="6.66574">
        <ele>56</ele>
        <time>2019-04-26T18:34:45.678Z</time>
      </trkpt>
      <trkpt lat="43.48013" lon="6.66576">
        <ele>56</ele>
        <time>2019-04-26T18:34:46.678Z</time>
      </trkpt>
      <trkpt lat="43.48015" lon="6.66577">
        <ele>57</ele>
        <time>2019-04-26T18:34:47.678Z</time>
      </trkpt>
      <trkpt lat="43.48017" lon="6.66578">
        <ele>57</ele>
        <time>2019-04-26T18:34:48.678Z</time>
      </trkpt>
      <trkpt lat="43.48019" lon="6.66578">
        <ele>57</ele>
        <time>2019-04-26T18:34:49.678Z</time>
      </trkpt>
      <trkpt lat="43.48021" lon="6.66578">
        <ele>57</ele>
        <time>2019-04-26T18:34:50.678Z</time>
      </trkpt>
      <trkpt lat="43.48025" lon="6.66577">
        <ele>57</ele>
        <time>2019-04-26T18:34:51.678Z</time>
      </trkpt>
      <trkpt lat="43.48028" lon="6.66578">
        <ele>57</ele>
        <time>2019-04-26T18:34:52.678Z</time>
      </trkpt>
      <trkpt lat="43.48032" lon="6.66579">
        <ele>57</ele>
        <time>2019-04-26T18:34:53.678Z</time>
      </trkpt>
      <trkpt lat="43.48036" lon="6.66577">
        <ele>58</ele>
        <time>2019-04-26T18:34:54.678Z</time>
      </trkpt>
      <trkpt lat="43.48042" lon="6.66573">
        <ele>58</ele>
        <time>2019-04-26T18:34:55.678Z</time>
      </trkpt>
      <trkpt lat="43.48048" lon="6.6657">
        <ele>58</ele>
        <time>2019-04-26T18:34:56.678Z</time>
      </trkpt>
      <trkpt lat="43.4805" lon="6.66568">
        <ele>58</ele>
        <time>2019-04-26T18:34:57.678Z</time>
      </trkpt>
      <trkpt lat="43.48052" lon="6.66567">
        <ele>58</ele>
        <time>2019-04-26T18:34:58.678Z</time>
      </trkpt>
      <trkpt lat="43.48056" lon="6.66564">
        <ele>58</ele>
        <time>2019-04-26T18:34:59.678Z</time>
      </trkpt>
      <trkpt lat="43.4806" lon="6.66562">
        <ele>59</ele>
        <time>2019-04-26T18:35:00.678Z</time>
      </trkpt>
      <trkpt lat="43.48065" lon="6.66561">
        <ele>59</ele>
        <time>2019-04-26T18:35:01.678Z</time>
      </trkpt>
      <trkpt lat="43.48069" lon="6.66559">
        <ele>59</ele>
        <time>2019-04-26T18:35:02.678Z</time>
      </trkpt>
      <trkpt lat="43.48074" lon="6.66558">
        <ele>59</ele>
        <time>2019-04-26T18:35:03.678Z</time>
      </trkpt>
      <trkpt lat="43.48076" lon="6.66557">
        <ele>59</ele>
        <time>2019-04-26T18:35:04.678Z</time>
      </trkpt>
      <trkpt lat="43.48079" lon="6.66556">
        <ele>59</ele>
        <time>2019-04-26T18:35:05.678Z</time>
      </trkpt>
      <trkpt lat="43.48084" lon="6.66556">
        <ele>60</ele>
        <time>2019-04-26T18:35:06.678Z</time>
      </trkpt>
      <trkpt lat="43.48088" lon="6.66555">
        <ele>60</ele>
        <time>2019-04-26T18:35:07.678Z</time>
      </trkpt>
      <trkpt lat="43.48093" lon="6.66554">
        <ele>60</ele>
        <time>2019-04-26T18:35:08.678Z</time>
      </trkpt>
      <trkpt lat="43.48098" lon="6.66553">
        <ele>60</ele>
        <time>2019-04-26T18:35:09.678Z</time>
      </trkpt>
      <trkpt lat="43.48103" lon="6.66553">
        <ele>60</ele>
        <time>2019-04-26T18:35:10.678Z</time>
      </trkpt>
      <trkpt lat="43.48106" lon="6.66552">
        <ele>60</ele>
        <time>2019-04-26T18:35:11.678Z</time>
      </trkpt>
      <trkpt lat="43.48108" lon="6.66552">
        <ele>61</ele>
        <time>2019-04-26T18:35:12.678Z</time>
      </trkpt>
      <trkpt lat="43.48111" lon="6.66552">
        <ele>61</ele>
        <time>2019-04-26T18:35:13.678Z</time>
      </trkpt>
      <trkpt lat="43.48114" lon="6.66553">
        <ele>61</ele>
        <time>2019-04-26T18:35:14.678Z</time>
      </trkpt>
      <trkpt lat="43.4812" lon="6.66553">
        <ele>61</ele>
        <time>2019-04-26T18:35:15.678Z</time>
      </trkpt>
      <trkpt lat="43.48122" lon="6.66553">
        <ele>61</ele>
        <time>2019-04-26T18:35:16.678Z</time>
      </trkpt>
      <trkpt lat="43.48125" lon="6.66553">
        <ele>61</ele>
        <time>2019-04-26T18:35:17.678Z</time>
      </trkpt>
      <trkpt lat="43.48131" lon="6.66554">
        <ele>61</ele>
        <time>2019-04-26T18:35:18.678Z</time>
      </trkpt>
      <trkpt lat="43.48137" lon="6.66554">
        <ele>62</ele>
        <time>2019-04-26T18:35:19.678Z</time>
      </trkpt>
      <trkpt lat="43.48143" lon="6.66554">
        <ele>62</ele>
        <time>2019-04-26T18:35:20.678Z</time>
      </trkpt>
      <trkpt lat="43.48149" lon="6.66555">
        <ele>62</ele>
        <time>2019-04-26T18:35:21.678Z</time>
      </trkpt>
      <trkpt lat="43.48154" lon="6.66557">
        <ele>62</ele>
        <time>2019-04-26T18:35:22.678Z</time>
      </trkpt>
      <trkpt lat="43.48158" lon="6.66558">
        <ele>62</ele>
        <time>2019-04-26T18:35:23.678Z</time>
      </trkpt>
      <trkpt lat="43.48161" lon="6.66559">
        <ele>62</ele>
        <time>2019-04-26T18:35:24.678Z</time>
      </trkpt>
      <trkpt lat="43.48164" lon="6.6656">
        <ele>63</ele>
        <time>2019-04-26T18:35:25.678Z</time>
      </trkpt>
      <trkpt lat="43.4817" lon="6.66562">
        <ele>63</ele>
        <time>2019-04-26T18:35:26.678Z</time>
      </trkpt>
      <trkpt lat="43.48176" lon="6.66563">
        <ele>63</ele>
        <time>2019-04-26T18:35:27.678Z</time>
      </trkpt>
      <trkpt lat="43.4818" lon="6.66564">
        <ele>63</ele>
        <time>2019-04-26T18:35:28.678Z</time>
      </trkpt>
      <trkpt lat="43.48184" lon="6.66565">
        <ele>63</ele>
        <time>2019-04-26T18:35:29.678Z</time>
      </trkpt>
      <trkpt lat="43.48191" lon="6.66568">
        <ele>62</ele>
        <time>2019-04-26T18:35:30.678Z</time>
      </trkpt>
      <trkpt lat="43.48198" lon="6.66573">
        <ele>62</ele>
        <time>2019-04-26T18:35:31.678Z</time>
      </trkpt>
      <trkpt lat="43.48206" lon="6.66578">
        <ele>62</ele>
        <time>2019-04-26T18:35:32.678Z</time>
      </trkpt>
      <trkpt lat="43.48214" lon="6.66584">
        <ele>62</ele>
        <time>2019-04-26T18:35:33.678Z</time>
      </trkpt>
      <trkpt lat="43.48217" lon="6.66588">
        <ele>62</ele>
        <time>2019-04-26T18:35:34.678Z</time>
      </trkpt>
      <trkpt lat="43.48222" lon="6.66589">
        <ele>62</ele>
        <time>2019-04-26T18:35:35.678Z</time>
      </trkpt>
      <trkpt lat="43.48231" lon="6.66591">
        <ele>62</ele>
        <time>2019-04-26T18:35:36.678Z</time>
      </trkpt>
      <trkpt lat="43.48239" lon="6.66595">
        <ele>62</ele>
        <time>2019-04-26T18:35:37.678Z</time>
      </trkpt>
      <trkpt lat="43.48243" lon="6.66595">
        <ele>62</ele>
        <time>2019-04-26T18:35:38.678Z</time>
      </trkpt>
      <trkpt lat="43.48247" lon="6.66595">
        <ele>62</ele>
        <time>2019-04-26T18:35:39.678Z</time>
      </trkpt>
      <trkpt lat="43.48251" lon="6.66597">
        <ele>62</ele>
        <time>2019-04-26T18:35:40.678Z</time>
      </trkpt>
      <trkpt lat="43.48255" lon="6.66598">
        <ele>62</ele>
        <time>2019-04-26T18:35:41.678Z</time>
      </trkpt>
      <trkpt lat="43.48263" lon="6.66603">
        <ele>62</ele>
        <time>2019-04-26T18:35:42.678Z</time>
      </trkpt>
      <trkpt lat="43.48266" lon="6.66606">
        <ele>62</ele>
        <time>2019-04-26T18:35:43.678Z</time>
      </trkpt>
      <trkpt lat="43.4827" lon="6.6661">
        <ele>62</ele>
        <time>2019-04-26T18:35:44.678Z</time>
      </trkpt>
      <trkpt lat="43.48273" lon="6.66615">
        <ele>62</ele>
        <time>2019-04-26T18:35:45.678Z</time>
      </trkpt>
      <trkpt lat="43.48275" lon="6.6662">
        <ele>62</ele>
        <time>2019-04-26T18:35:46.678Z</time>
      </trkpt>
      <trkpt lat="43.48277" lon="6.66624">
        <ele>62</ele>
        <time>2019-04-26T18:35:47.678Z</time>
      </trkpt>
      <trkpt lat="43.4828" lon="6.66628">
        <ele>62</ele>
        <time>2019-04-26T18:35:48.678Z</time>
      </trkpt>
      <trkpt lat="43.48285" lon="6.66638">
        <ele>62</ele>
        <time>2019-04-26T18:35:49.678Z</time>
      </trkpt>
      <trkpt lat="43.48291" lon="6.66646">
        <ele>62</ele>
        <time>2019-04-26T18:35:50.678Z</time>
      </trkpt>
      <trkpt lat="43.48294" lon="6.6665">
        <ele>62</ele>
        <time>2019-04-26T18:35:51.678Z</time>
      </trkpt>
      <trkpt lat="43.48297" lon="6.66653">
        <ele>62</ele>
        <time>2019-04-26T18:35:52.678Z</time>
      </trkpt>
      <trkpt lat="43.48301" lon="6.66654">
        <ele>62</ele>
        <time>2019-04-26T18:35:53.678Z</time>
      </trkpt>
      <trkpt lat="43.48305" lon="6.66654">
        <ele>62</ele>
        <time>2019-04-26T18:35:54.678Z</time>
      </trkpt>
      <trkpt lat="43.48309" lon="6.66654">
        <ele>62</ele>
        <time>2019-04-26T18:35:55.678Z</time>
      </trkpt>
      <trkpt lat="43.48313" lon="6.66654">
        <ele>62</ele>
        <time>2019-04-26T18:35:56.678Z</time>
      </trkpt>
      <trkpt lat="43.48321" lon="6.66655">
        <ele>62</ele>
        <time>2019-04-26T18:35:57.678Z</time>
      </trkpt>
      <trkpt lat="43.48326" lon="6.66657">
        <ele>63</ele>
        <time>2019-04-26T18:35:58.678Z</time>
      </trkpt>
      <trkpt lat="43.4833" lon="6.6666">
        <ele>63</ele>
        <time>2019-04-26T18:35:59.678Z</time>
      </trkpt>
      <trkpt lat="43.48334" lon="6.66663">
        <ele>63</ele>
        <time>2019-04-26T18:36:00.678Z</time>
      </trkpt>
      <trkpt lat="43.48338" lon="6.66664">
        <ele>63</ele>
        <time>2019-04-26T18:36:01.678Z</time>
      </trkpt>
      <trkpt lat="43.4835" lon="6.66665">
        <ele>63</ele>
        <time>2019-04-26T18:36:02.678Z</time>
      </trkpt>
      <trkpt lat="43.48355" lon="6.66666">
        <ele>63</ele>
        <time>2019-04-26T18:36:03.678Z</time>
      </trkpt>
      <trkpt lat="43.48361" lon="6.66668">
        <ele>63</ele>
        <time>2019-04-26T18:36:04.678Z</time>
      </trkpt>
      <trkpt lat="43.48372" lon="6.66672">
        <ele>63</ele>
        <time>2019-04-26T18:36:05.678Z</time>
      </trkpt>
      <trkpt lat="43.48383" lon="6.66674">
        <ele>63</ele>
        <time>2019-04-26T18:36:06.678Z</time>
      </trkpt>
      <trkpt lat="43.48393" lon="6.66678">
        <ele>63</ele>
        <time>2019-04-26T18:36:07.678Z</time>
      </trkpt>
      <trkpt lat="43.48399" lon="6.6668">
        <ele>63</ele>
        <time>2019-04-26T18:36:08.678Z</time>
      </trkpt>
      <trkpt lat="43.48404" lon="6.66683">
        <ele>63</ele>
        <time>2019-04-26T18:36:09.678Z</time>
      </trkpt>
      <trkpt lat="43.48414" lon="6.66689">
        <ele>63</ele>
        <time>2019-04-26T18:36:10.678Z</time>
      </trkpt>
      <trkpt lat="43.48423" lon="6.66695">
        <ele>63</ele>
        <time>2019-04-26T18:36:11.678Z</time>
      </trkpt>
      <trkpt lat="43.48432" lon="6.66703">
        <ele>64</ele>
        <time>2019-04-26T18:36:12.678Z</time>
      </trkpt>
      <trkpt lat="43.48436" lon="6.66707">
        <ele>64</ele>
        <time>2019-04-26T18:36:13.678Z</time>
      </trkpt>
      <trkpt lat="43.48441" lon="6.66708">
        <ele>64</ele>
        <time>2019-04-26T18:36:14.678Z</time>
      </trkpt>
      <trkpt lat="43.48448" lon="6.6671">
        <ele>64</ele>
        <time>2019-04-26T18:36:15.678Z</time>
      </trkpt>
      <trkpt lat="43.48451" lon="6.66711">
        <ele>64</ele>
        <time>2019-04-26T18:36:16.678Z</time>
      </trkpt>
      <trkpt lat="43.48455" lon="6.66713">
        <ele>65</ele>
        <time>2019-04-26T18:36:17.678Z</time>
      </trkpt>
      <trkpt lat="43.48459" lon="6.66714">
        <ele>65</ele>
        <time>2019-04-26T18:36:18.678Z</time>
      </trkpt>
      <trkpt lat="43.48463" lon="6.66717">
        <ele>65</ele>
        <time>2019-04-26T18:36:19.678Z</time>
      </trkpt>
      <trkpt lat="43.48472" lon="6.66721">
        <ele>65</ele>
        <time>2019-04-26T18:36:20.678Z</time>
      </trkpt>
      <trkpt lat="43.48481" lon="6.66723">
        <ele>65</ele>
        <time>2019-04-26T18:36:21.678Z</time>
      </trkpt>
      <trkpt lat="43.48485" lon="6.66724">
        <ele>66</ele>
        <time>2019-04-26T18:36:22.678Z</time>
      </trkpt>
      <trkpt lat="43.48488" lon="6.66725">
        <ele>66</ele>
        <time>2019-04-26T18:36:23.678Z</time>
      </trkpt>
      <trkpt lat="43.48492" lon="6.66727">
        <ele>66</ele>
        <time>2019-04-26T18:36:24.678Z</time>
      </trkpt>
      <trkpt lat="43.48496" lon="6.66728">
        <ele>66</ele>
        <time>2019-04-26T18:36:25.678Z</time>
      </trkpt>
      <trkpt lat="43.48502" lon="6.66732">
        <ele>66</ele>
        <time>2019-04-26T18:36:26.678Z</time>
      </trkpt>
      <trkpt lat="43.48508" lon="6.66735">
        <ele>67</ele>
        <time>2019-04-26T18:36:27.678Z</time>
      </trkpt>
      <trkpt lat="43.48511" lon="6.66736">
        <ele>67</ele>
        <time>2019-04-26T18:36:28.678Z</time>
      </trkpt>
      <trkpt lat="43.48514" lon="6.66738">
        <ele>67</ele>
        <time>2019-04-26T18:36:29.678Z</time>
      </trkpt>
      <trkpt lat="43.4852" lon="6.66742">
        <ele>67</ele>
        <time>2019-04-26T18:36:30.678Z</time>
      </trkpt>
      <trkpt lat="43.48526" lon="6.66747">
        <ele>67</ele>
        <time>2019-04-26T18:36:31.678Z</time>
      </trkpt>
      <trkpt lat="43.48529" lon="6.6675">
        <ele>67</ele>
        <time>2019-04-26T18:36:32.678Z</time>
      </trkpt>
      <trkpt lat="43.48532" lon="6.66752">
        <ele>67</ele>
        <time>2019-04-26T18:36:33.678Z</time>
      </trkpt>
      <trkpt lat="43.48538" lon="6.66758">
        <ele>68</ele>
        <time>2019-04-26T18:36:34.678Z</time>
      </trkpt>
      <trkpt lat="43.48541" lon="6.6676">
        <ele>68</ele>
        <time>2019-04-26T18:36:35.678Z</time>
      </trkpt>
      <trkpt lat="43.48544" lon="6.66763">
        <ele>68</ele>
        <time>2019-04-26T18:36:36.678Z</time>
      </trkpt>
      <trkpt lat="43.48547" lon="6.66767">
        <ele>68</ele>
        <time>2019-04-26T18:36:37.678Z</time>
      </trkpt>
      <trkpt lat="43.48549" lon="6.66769">
        <ele>68</ele>
        <time>2019-04-26T18:36:38.678Z</time>
      </trkpt>
      <trkpt lat="43.48554" lon="6.66774">
        <ele>68</ele>
        <time>2019-04-26T18:36:39.678Z</time>
      </trkpt>
      <trkpt lat="43.48559" lon="6.66776">
        <ele>69</ele>
        <time>2019-04-26T18:36:40.678Z</time>
      </trkpt>
      <trkpt lat="43.48565" lon="6.66778">
        <ele>69</ele>
        <time>2019-04-26T18:36:41.678Z</time>
      </trkpt>
      <trkpt lat="43.48573" lon="6.66778">
        <ele>69</ele>
        <time>2019-04-26T18:36:42.678Z</time>
      </trkpt>
      <trkpt lat="43.48576" lon="6.66779">
        <ele>69</ele>
        <time>2019-04-26T18:36:43.678Z</time>
      </trkpt>
      <trkpt lat="43.4858" lon="6.66779">
        <ele>69</ele>
        <time>2019-04-26T18:36:44.678Z</time>
      </trkpt>
      <trkpt lat="43.48587" lon="6.66782">
        <ele>70</ele>
        <time>2019-04-26T18:36:45.678Z</time>
      </trkpt>
      <trkpt lat="43.48594" lon="6.66785">
        <ele>70</ele>
        <time>2019-04-26T18:36:46.678Z</time>
      </trkpt>
      <trkpt lat="43.48597" lon="6.66787">
        <ele>70</ele>
        <time>2019-04-26T18:36:47.678Z</time>
      </trkpt>
      <trkpt lat="43.486" lon="6.66789">
        <ele>70</ele>
        <time>2019-04-26T18:36:48.678Z</time>
      </trkpt>
      <trkpt lat="43.48605" lon="6.66791">
        <ele>70</ele>
        <time>2019-04-26T18:36:49.678Z</time>
      </trkpt>
      <trkpt lat="43.4861" lon="6.66796">
        <ele>71</ele>
        <time>2019-04-26T18:36:50.678Z</time>
      </trkpt>
      <trkpt lat="43.48612" lon="6.668">
        <ele>71</ele>
        <time>2019-04-26T18:36:51.678Z</time>
      </trkpt>
      <trkpt lat="43.48615" lon="6.66804">
        <ele>71</ele>
        <time>2019-04-26T18:36:52.678Z</time>
      </trkpt>
      <trkpt lat="43.48619" lon="6.6681">
        <ele>71</ele>
        <time>2019-04-26T18:36:53.678Z</time>
      </trkpt>
      <trkpt lat="43.48624" lon="6.66816">
        <ele>71</ele>
        <time>2019-04-26T18:36:54.678Z</time>
      </trkpt>
      <trkpt lat="43.48628" lon="6.66824">
        <ele>72</ele>
        <time>2019-04-26T18:36:55.678Z</time>
      </trkpt>
      <trkpt lat="43.4863" lon="6.66828">
        <ele>72</ele>
        <time>2019-04-26T18:36:56.678Z</time>
      </trkpt>
      <trkpt lat="43.48633" lon="6.66831">
        <ele>72</ele>
        <time>2019-04-26T18:36:57.678Z</time>
      </trkpt>
      <trkpt lat="43.48639" lon="6.66835">
        <ele>72</ele>
        <time>2019-04-26T18:36:58.678Z</time>
      </trkpt>
      <trkpt lat="43.48642" lon="6.66835">
        <ele>72</ele>
        <time>2019-04-26T18:36:59.678Z</time>
      </trkpt>
      <trkpt lat="43.48646" lon="6.66835">
        <ele>72</ele>
        <time>2019-04-26T18:37:00.678Z</time>
      </trkpt>
      <trkpt lat="43.48654" lon="6.66839">
        <ele>72</ele>
        <time>2019-04-26T18:37:01.678Z</time>
      </trkpt>
      <trkpt lat="43.48662" lon="6.66841">
        <ele>72</ele>
        <time>2019-04-26T18:37:02.678Z</time>
      </trkpt>
      <trkpt lat="43.48669" lon="6.66844">
        <ele>73</ele>
        <time>2019-04-26T18:37:03.678Z</time>
      </trkpt>
      <trkpt lat="43.48677" lon="6.66844">
        <ele>73</ele>
        <time>2019-04-26T18:37:04.678Z</time>
      </trkpt>
      <trkpt lat="43.48685" lon="6.66842">
        <ele>73</ele>
        <time>2019-04-26T18:37:05.678Z</time>
      </trkpt>
      <trkpt lat="43.48692" lon="6.6684">
        <ele>73</ele>
        <time>2019-04-26T18:37:06.678Z</time>
      </trkpt>
      <trkpt lat="43.48698" lon="6.66836">
        <ele>74</ele>
        <time>2019-04-26T18:37:07.678Z</time>
      </trkpt>
      <trkpt lat="43.48705" lon="6.66837">
        <ele>74</ele>
        <time>2019-04-26T18:37:08.678Z</time>
      </trkpt>
      <trkpt lat="43.48712" lon="6.66839">
        <ele>74</ele>
        <time>2019-04-26T18:37:09.678Z</time>
      </trkpt>
      <trkpt lat="43.48717" lon="6.66836">
        <ele>75</ele>
        <time>2019-04-26T18:37:10.678Z</time>
      </trkpt>
      <trkpt lat="43.48721" lon="6.66835">
        <ele>75</ele>
        <time>2019-04-26T18:37:11.678Z</time>
      </trkpt>
      <trkpt lat="43.48723" lon="6.66834">
        <ele>75</ele>
        <time>2019-04-26T18:37:12.678Z</time>
      </trkpt>
      <trkpt lat="43.48729" lon="6.66832">
        <ele>75</ele>
        <time>2019-04-26T18:37:13.678Z</time>
      </trkpt>
      <trkpt lat="43.48735" lon="6.66832">
        <ele>75</ele>
        <time>2019-04-26T18:37:14.678Z</time>
      </trkpt>
      <trkpt lat="43.48741" lon="6.66833">
        <ele>76</ele>
        <time>2019-04-26T18:37:15.678Z</time>
      </trkpt>
      <trkpt lat="43.48746" lon="6.66837">
        <ele>76</ele>
        <time>2019-04-26T18:37:16.678Z</time>
      </trkpt>
      <trkpt lat="43.48749" lon="6.66839">
        <ele>76</ele>
        <time>2019-04-26T18:37:17.678Z</time>
      </trkpt>
      <trkpt lat="43.48752" lon="6.6684">
        <ele>76</ele>
        <time>2019-04-26T18:37:18.678Z</time>
      </trkpt>
      <trkpt lat="43.48757" lon="6.66842">
        <ele>76</ele>
        <time>2019-04-26T18:37:19.678Z</time>
      </trkpt>
      <trkpt lat="43.48761" lon="6.66847">
        <ele>76</ele>
        <time>2019-04-26T18:37:20.678Z</time>
      </trkpt>
      <trkpt lat="43.48765" lon="6.66853">
        <ele>77</ele>
        <time>2019-04-26T18:37:21.678Z</time>
      </trkpt>
      <trkpt lat="43.48767" lon="6.6686">
        <ele>77</ele>
        <time>2019-04-26T18:37:22.678Z</time>
      </trkpt>
      <trkpt lat="43.48769" lon="6.66863">
        <ele>77</ele>
        <time>2019-04-26T18:37:23.678Z</time>
      </trkpt>
      <trkpt lat="43.4877" lon="6.66867">
        <ele>77</ele>
        <time>2019-04-26T18:37:24.678Z</time>
      </trkpt>
      <trkpt lat="43.48772" lon="6.66874">
        <ele>77</ele>
        <time>2019-04-26T18:37:25.678Z</time>
      </trkpt>
      <trkpt lat="43.48773" lon="6.66877">
        <ele>77</ele>
        <time>2019-04-26T18:37:26.678Z</time>
      </trkpt>
      <trkpt lat="43.48774" lon="6.66879">
        <ele>77</ele>
        <time>2019-04-26T18:37:27.678Z</time>
      </trkpt>
      <trkpt lat="43.48777" lon="6.66884">
        <ele>77</ele>
        <time>2019-04-26T18:37:28.678Z</time>
      </trkpt>
      <trkpt lat="43.4878" lon="6.66885">
        <ele>77</ele>
        <time>2019-04-26T18:37:29.678Z</time>
      </trkpt>
      <trkpt lat="43.48782" lon="6.66887">
        <ele>77</ele>
        <time>2019-04-26T18:37:30.678Z</time>
      </trkpt>
      <trkpt lat="43.48787" lon="6.6689">
        <ele>78</ele>
        <time>2019-04-26T18:37:31.678Z</time>
      </trkpt>
      <trkpt lat="43.48791" lon="6.66892">
        <ele>78</ele>
        <time>2019-04-26T18:37:32.678Z</time>
      </trkpt>
      <trkpt lat="43.48794" lon="6.66893">
        <ele>78</ele>
        <time>2019-04-26T18:37:33.678Z</time>
      </trkpt>
      <trkpt lat="43.48797" lon="6.66893">
        <ele>78</ele>
        <time>2019-04-26T18:37:34.678Z</time>
      </trkpt>
      <trkpt lat="43.48799" lon="6.66895">
        <ele>78</ele>
        <time>2019-04-26T18:37:35.678Z</time>
      </trkpt>
      <trkpt lat="43.48802" lon="6.66896">
        <ele>78</ele>
        <time>2019-04-26T18:37:36.678Z</time>
      </trkpt>
      <trkpt lat="43.48806" lon="6.66898">
        <ele>78</ele>
        <time>2019-04-26T18:37:37.678Z</time>
      </trkpt>
      <trkpt lat="43.48807" lon="6.66899">
        <ele>78</ele>
        <time>2019-04-26T18:37:38.678Z</time>
      </trkpt>
      <trkpt lat="43.48808" lon="6.669">
        <ele>78</ele>
        <time>2019-04-26T18:37:39.678Z</time>
      </trkpt>
      <trkpt lat="43.48812" lon="6.66909">
        <ele>78</ele>
        <time>2019-04-26T18:37:40.678Z</time>
      </trkpt>
      <trkpt lat="43.48815" lon="6.66911">
        <ele>78</ele>
        <time>2019-04-26T18:37:41.678Z</time>
      </trkpt>
      <trkpt lat="43.48818" lon="6.66913">
        <ele>78</ele>
        <time>2019-04-26T18:37:42.678Z</time>
      </trkpt>
      <trkpt lat="43.48826" lon="6.66918">
        <ele>78</ele>
        <time>2019-04-26T18:37:43.678Z</time>
      </trkpt>
      <trkpt lat="43.48829" lon="6.66923">
        <ele>78</ele>
        <time>2019-04-26T18:37:44.678Z</time>
      </trkpt>
      <trkpt lat="43.48831" lon="6.66928">
        <ele>79</ele>
        <time>2019-04-26T18:37:45.678Z</time>
      </trkpt>
      <trkpt lat="43.48835" lon="6.6694">
        <ele>80</ele>
        <time>2019-04-26T18:37:46.678Z</time>
      </trkpt>
      <trkpt lat="43.48836" lon="6.66945">
        <ele>80</ele>
        <time>2019-04-26T18:37:47.678Z</time>
      </trkpt>
      <trkpt lat="43.48839" lon="6.66951">
        <ele>80</ele>
        <time>2019-04-26T18:37:48.678Z</time>
      </trkpt>
      <trkpt lat="43.48843" lon="6.6696">
        <ele>81</ele>
        <time>2019-04-26T18:37:49.678Z</time>
      </trkpt>
      <trkpt lat="43.48848" lon="6.66966">
        <ele>81</ele>
        <time>2019-04-26T18:37:50.678Z</time>
      </trkpt>
      <trkpt lat="43.4885" lon="6.66969">
        <ele>81</ele>
        <time>2019-04-26T18:37:51.678Z</time>
      </trkpt>
      <trkpt lat="43.48853" lon="6.66972">
        <ele>81</ele>
        <time>2019-04-26T18:37:52.678Z</time>
      </trkpt>
      <trkpt lat="43.48858" lon="6.66978">
        <ele>81</ele>
        <time>2019-04-26T18:37:53.678Z</time>
      </trkpt>
      <trkpt lat="43.48864" lon="6.66983">
        <ele>81</ele>
        <time>2019-04-26T18:37:54.678Z</time>
      </trkpt>
      <trkpt lat="43.48868" lon="6.66984">
        <ele>81</ele>
        <time>2019-04-26T18:37:55.678Z</time>
      </trkpt>
      <trkpt lat="43.48872" lon="6.66984">
        <ele>81</ele>
        <time>2019-04-26T18:37:56.678Z</time>
      </trkpt>
      <trkpt lat="43.48879" lon="6.66983">
        <ele>81</ele>
        <time>2019-04-26T18:37:57.678Z</time>
      </trkpt>
      <trkpt lat="43.48886" lon="6.66985">
        <ele>80</ele>
        <time>2019-04-26T18:37:58.678Z</time>
      </trkpt>
      <trkpt lat="43.48893" lon="6.66986">
        <ele>80</ele>
        <time>2019-04-26T18:37:59.678Z</time>
      </trkpt>
      <trkpt lat="43.48899" lon="6.66987">
        <ele>80</ele>
        <time>2019-04-26T18:38:00.678Z</time>
      </trkpt>
      <trkpt lat="43.48905" lon="6.66986">
        <ele>79</ele>
        <time>2019-04-26T18:38:01.678Z</time>
      </trkpt>
      <trkpt lat="43.48913" lon="6.66986">
        <ele>79</ele>
        <time>2019-04-26T18:38:02.678Z</time>
      </trkpt>
      <trkpt lat="43.48917" lon="6.66987">
        <ele>79</ele>
        <time>2019-04-26T18:38:03.678Z</time>
      </trkpt>
      <trkpt lat="43.48921" lon="6.66989">
        <ele>79</ele>
        <time>2019-04-26T18:38:04.678Z</time>
      </trkpt>
      <trkpt lat="43.48925" lon="6.66992">
        <ele>79</ele>
        <time>2019-04-26T18:38:05.678Z</time>
      </trkpt>
      <trkpt lat="43.48928" lon="6.66996">
        <ele>79</ele>
        <time>2019-04-26T18:38:06.678Z</time>
      </trkpt>
      <trkpt lat="43.48932" lon="6.67">
        <ele>79</ele>
        <time>2019-04-26T18:38:07.678Z</time>
      </trkpt>
      <trkpt lat="43.48935" lon="6.67004">
        <ele>79</ele>
        <time>2019-04-26T18:38:08.678Z</time>
      </trkpt>
      <trkpt lat="43.48941" lon="6.67012">
        <ele>79</ele>
        <time>2019-04-26T18:38:09.678Z</time>
      </trkpt>
      <trkpt lat="43.48946" lon="6.67022">
        <ele>79</ele>
        <time>2019-04-26T18:38:10.678Z</time>
      </trkpt>
      <trkpt lat="43.48948" lon="6.67026">
        <ele>79</ele>
        <time>2019-04-26T18:38:11.678Z</time>
      </trkpt>
      <trkpt lat="43.48951" lon="6.6703">
        <ele>79</ele>
        <time>2019-04-26T18:38:12.678Z</time>
      </trkpt>
      <trkpt lat="43.48957" lon="6.6704">
        <ele>79</ele>
        <time>2019-04-26T18:38:13.678Z</time>
      </trkpt>
      <trkpt lat="43.48964" lon="6.67046">
        <ele>80</ele>
        <time>2019-04-26T18:38:14.678Z</time>
      </trkpt>
      <trkpt lat="43.48968" lon="6.6705">
        <ele>80</ele>
        <time>2019-04-26T18:38:15.678Z</time>
      </trkpt>
      <trkpt lat="43.48972" lon="6.67053">
        <ele>80</ele>
        <time>2019-04-26T18:38:16.678Z</time>
      </trkpt>
      <trkpt lat="43.48981" lon="6.6706">
        <ele>80</ele>
        <time>2019-04-26T18:38:17.678Z</time>
      </trkpt>
      <trkpt lat="43.4899" lon="6.67068">
        <ele>80</ele>
        <time>2019-04-26T18:38:18.678Z</time>
      </trkpt>
      <trkpt lat="43.48995" lon="6.67071">
        <ele>80</ele>
        <time>2019-04-26T18:38:19.678Z</time>
      </trkpt>
      <trkpt lat="43.48999" lon="6.67074">
        <ele>80</ele>
        <time>2019-04-26T18:38:20.678Z</time>
      </trkpt>
      <trkpt lat="43.49009" lon="6.67078">
        <ele>80</ele>
        <time>2019-04-26T18:38:21.678Z</time>
      </trkpt>
      <trkpt lat="43.49014" lon="6.67079">
        <ele>80</ele>
        <time>2019-04-26T18:38:22.678Z</time>
      </trkpt>
      <trkpt lat="43.4902" lon="6.6708">
        <ele>80</ele>
        <time>2019-04-26T18:38:23.678Z</time>
      </trkpt>
      <trkpt lat="43.49025" lon="6.67079">
        <ele>80</ele>
        <time>2019-04-26T18:38:24.678Z</time>
      </trkpt>
      <trkpt lat="43.4903" lon="6.67078">
        <ele>80</ele>
        <time>2019-04-26T18:38:25.678Z</time>
      </trkpt>
      <trkpt lat="43.49041" lon="6.67075">
        <ele>80</ele>
        <time>2019-04-26T18:38:26.678Z</time>
      </trkpt>
      <trkpt lat="43.49051" lon="6.67074">
        <ele>80</ele>
        <time>2019-04-26T18:38:27.678Z</time>
      </trkpt>
      <trkpt lat="43.49061" lon="6.67076">
        <ele>80</ele>
        <time>2019-04-26T18:38:28.678Z</time>
      </trkpt>
      <trkpt lat="43.49066" lon="6.67081">
        <ele>81</ele>
        <time>2019-04-26T18:38:29.678Z</time>
      </trkpt>
      <trkpt lat="43.49072" lon="6.67084">
        <ele>81</ele>
        <time>2019-04-26T18:38:30.678Z</time>
      </trkpt>
      <trkpt lat="43.49083" lon="6.67083">
        <ele>81</ele>
        <time>2019-04-26T18:38:31.678Z</time>
      </trkpt>
      <trkpt lat="43.49094" lon="6.67081">
        <ele>81</ele>
        <time>2019-04-26T18:38:32.678Z</time>
      </trkpt>
      <trkpt lat="43.491" lon="6.67082">
        <ele>81</ele>
        <time>2019-04-26T18:38:33.678Z</time>
      </trkpt>
      <trkpt lat="43.49105" lon="6.67084">
        <ele>81</ele>
        <time>2019-04-26T18:38:34.678Z</time>
      </trkpt>
      <trkpt lat="43.49111" lon="6.67086">
        <ele>81</ele>
        <time>2019-04-26T18:38:35.678Z</time>
      </trkpt>
      <trkpt lat="43.49118" lon="6.67088">
        <ele>81</ele>
        <time>2019-04-26T18:38:36.678Z</time>
      </trkpt>
      <trkpt lat="43.4913" lon="6.67091">
        <ele>80</ele>
        <time>2019-04-26T18:38:37.678Z</time>
      </trkpt>
      <trkpt lat="43.49143" lon="6.67093">
        <ele>80</ele>
        <time>2019-04-26T18:38:38.678Z</time>
      </trkpt>
      <trkpt lat="43.4915" lon="6.67092">
        <ele>80</ele>
        <time>2019-04-26T18:38:39.678Z</time>
      </trkpt>
      <trkpt lat="43.49157" lon="6.67092">
        <ele>80</ele>
        <time>2019-04-26T18:38:40.678Z</time>
      </trkpt>
      <trkpt lat="43.49164" lon="6.67095">
        <ele>80</ele>
        <time>2019-04-26T18:38:41.678Z</time>
      </trkpt>
      <trkpt lat="43.4917" lon="6.671">
        <ele>80</ele>
        <time>2019-04-26T18:38:42.678Z</time>
      </trkpt>
      <trkpt lat="43.49176" lon="6.67103">
        <ele>80</ele>
        <time>2019-04-26T18:38:43.678Z</time>
      </trkpt>
      <trkpt lat="43.49182" lon="6.67107">
        <ele>80</ele>
        <time>2019-04-26T18:38:44.678Z</time>
      </trkpt>
      <trkpt lat="43.49195" lon="6.67111">
        <ele>80</ele>
        <time>2019-04-26T18:38:45.678Z</time>
      </trkpt>
      <trkpt lat="43.49208" lon="6.67107">
        <ele>80</ele>
        <time>2019-04-26T18:38:46.678Z</time>
      </trkpt>
      <trkpt lat="43.49213" lon="6.67101">
        <ele>81</ele>
        <time>2019-04-26T18:38:47.678Z</time>
      </trkpt>
      <trkpt lat="43.49217" lon="6.67094">
        <ele>81</ele>
        <time>2019-04-26T18:38:48.678Z</time>
      </trkpt>
      <trkpt lat="43.4922" lon="6.67086">
        <ele>81</ele>
        <time>2019-04-26T18:38:49.678Z</time>
      </trkpt>
      <trkpt lat="43.49223" lon="6.67078">
        <ele>81</ele>
        <time>2019-04-26T18:38:50.678Z</time>
      </trkpt>
      <trkpt lat="43.49226" lon="6.6707">
        <ele>80</ele>
        <time>2019-04-26T18:38:51.678Z</time>
      </trkpt>
      <trkpt lat="43.49229" lon="6.67061">
        <ele>80</ele>
        <time>2019-04-26T18:38:52.678Z</time>
      </trkpt>
      <trkpt lat="43.49233" lon="6.67055">
        <ele>80</ele>
        <time>2019-04-26T18:38:53.678Z</time>
      </trkpt>
      <trkpt lat="43.49237" lon="6.67048">
        <ele>80</ele>
        <time>2019-04-26T18:38:54.678Z</time>
      </trkpt>
      <trkpt lat="43.49245" lon="6.67034">
        <ele>80</ele>
        <time>2019-04-26T18:38:55.678Z</time>
      </trkpt>
      <trkpt lat="43.49254" lon="6.6702">
        <ele>80</ele>
        <time>2019-04-26T18:38:56.678Z</time>
      </trkpt>
      <trkpt lat="43.49255" lon="6.67012">
        <ele>80</ele>
        <time>2019-04-26T18:38:57.678Z</time>
      </trkpt>
      <trkpt lat="43.49255" lon="6.67005">
        <ele>80</ele>
        <time>2019-04-26T18:38:58.678Z</time>
      </trkpt>
      <trkpt lat="43.4926" lon="6.66996">
        <ele>80</ele>
        <time>2019-04-26T18:38:59.678Z</time>
      </trkpt>
      <trkpt lat="43.49262" lon="6.66989">
        <ele>80</ele>
        <time>2019-04-26T18:39:00.678Z</time>
      </trkpt>
      <trkpt lat="43.49265" lon="6.66988">
        <ele>80</ele>
        <time>2019-04-26T18:39:01.678Z</time>
      </trkpt>
      <trkpt lat="43.49268" lon="6.66985">
        <ele>80</ele>
        <time>2019-04-26T18:39:02.678Z</time>
      </trkpt>
      <trkpt lat="43.49271" lon="6.66981">
        <ele>80</ele>
        <time>2019-04-26T18:39:03.678Z</time>
      </trkpt>
      <trkpt lat="43.49274" lon="6.66975">
        <ele>80</ele>
        <time>2019-04-26T18:39:04.678Z</time>
      </trkpt>
      <trkpt lat="43.49275" lon="6.66968">
        <ele>80</ele>
        <time>2019-04-26T18:39:05.678Z</time>
      </trkpt>
      <trkpt lat="43.49277" lon="6.66961">
        <ele>80</ele>
        <time>2019-04-26T18:39:06.678Z</time>
      </trkpt>
      <trkpt lat="43.49278" lon="6.66954">
        <ele>81</ele>
        <time>2019-04-26T18:39:07.678Z</time>
      </trkpt>
      <trkpt lat="43.49277" lon="6.66947">
        <ele>81</ele>
        <time>2019-04-26T18:39:08.678Z</time>
      </trkpt>
      <trkpt lat="43.49277" lon="6.6694">
        <ele>81</ele>
        <time>2019-04-26T18:39:09.678Z</time>
      </trkpt>
      <trkpt lat="43.49277" lon="6.66933">
        <ele>81</ele>
        <time>2019-04-26T18:39:10.678Z</time>
      </trkpt>
      <trkpt lat="43.4928" lon="6.6692">
        <ele>81</ele>
        <time>2019-04-26T18:39:11.678Z</time>
      </trkpt>
      <trkpt lat="43.49282" lon="6.66914">
        <ele>81</ele>
        <time>2019-04-26T18:39:12.678Z</time>
      </trkpt>
      <trkpt lat="43.49284" lon="6.66908">
        <ele>81</ele>
        <time>2019-04-26T18:39:13.678Z</time>
      </trkpt>
      <trkpt lat="43.49291" lon="6.66898">
        <ele>81</ele>
        <time>2019-04-26T18:39:14.678Z</time>
      </trkpt>
      <trkpt lat="43.49298" lon="6.66892">
        <ele>81</ele>
        <time>2019-04-26T18:39:15.678Z</time>
      </trkpt>
      <trkpt lat="43.49308" lon="6.66885">
        <ele>82</ele>
        <time>2019-04-26T18:39:16.678Z</time>
      </trkpt>
      <trkpt lat="43.49317" lon="6.6688">
        <ele>82</ele>
        <time>2019-04-26T18:39:17.678Z</time>
      </trkpt>
      <trkpt lat="43.49322" lon="6.66878">
        <ele>82</ele>
        <time>2019-04-26T18:39:18.678Z</time>
      </trkpt>
      <trkpt lat="43.49328" lon="6.66877">
        <ele>82</ele>
        <time>2019-04-26T18:39:19.678Z</time>
      </trkpt>
      <trkpt lat="43.49338" lon="6.66873">
        <ele>83</ele>
        <time>2019-04-26T18:39:20.678Z</time>
      </trkpt>
      <trkpt lat="43.49347" lon="6.66869">
        <ele>83</ele>
        <time>2019-04-26T18:39:21.678Z</time>
      </trkpt>
      <trkpt lat="43.49351" lon="6.66869">
        <ele>83</ele>
        <time>2019-04-26T18:39:22.678Z</time>
      </trkpt>
      <trkpt lat="43.49355" lon="6.66869">
        <ele>83</ele>
        <time>2019-04-26T18:39:23.678Z</time>
      </trkpt>
      <trkpt lat="43.49362" lon="6.66868">
        <ele>83</ele>
        <time>2019-04-26T18:39:24.678Z</time>
      </trkpt>
      <trkpt lat="43.49369" lon="6.66865">
        <ele>83</ele>
        <time>2019-04-26T18:39:25.678Z</time>
      </trkpt>
      <trkpt lat="43.49376" lon="6.66862">
        <ele>83</ele>
        <time>2019-04-26T18:39:26.678Z</time>
      </trkpt>
      <trkpt lat="43.49379" lon="6.66859">
        <ele>83</ele>
        <time>2019-04-26T18:39:27.678Z</time>
      </trkpt>
      <trkpt lat="43.49382" lon="6.66857">
        <ele>84</ele>
        <time>2019-04-26T18:39:28.678Z</time>
      </trkpt>
      <trkpt lat="43.4939" lon="6.66852">
        <ele>84</ele>
        <time>2019-04-26T18:39:29.678Z</time>
      </trkpt>
      <trkpt lat="43.49397" lon="6.66845">
        <ele>84</ele>
        <time>2019-04-26T18:39:30.678Z</time>
      </trkpt>
      <trkpt lat="43.49404" lon="6.66837">
        <ele>84</ele>
        <time>2019-04-26T18:39:31.678Z</time>
      </trkpt>
      <trkpt lat="43.49407" lon="6.66833">
        <ele>85</ele>
        <time>2019-04-26T18:39:32.678Z</time>
      </trkpt>
      <trkpt lat="43.4941" lon="6.6683">
        <ele>85</ele>
        <time>2019-04-26T18:39:33.678Z</time>
      </trkpt>
      <trkpt lat="43.49415" lon="6.66829">
        <ele>85</ele>
        <time>2019-04-26T18:39:34.678Z</time>
      </trkpt>
      <trkpt lat="43.49419" lon="6.66825">
        <ele>85</ele>
        <time>2019-04-26T18:39:35.678Z</time>
      </trkpt>
      <trkpt lat="43.49426" lon="6.66816">
        <ele>85</ele>
        <time>2019-04-26T18:39:36.678Z</time>
      </trkpt>
      <trkpt lat="43.4943" lon="6.66812">
        <ele>85</ele>
        <time>2019-04-26T18:39:37.678Z</time>
      </trkpt>
      <trkpt lat="43.49434" lon="6.66809">
        <ele>85</ele>
        <time>2019-04-26T18:39:38.678Z</time>
      </trkpt>
      <trkpt lat="43.49444" lon="6.66806">
        <ele>85</ele>
        <time>2019-04-26T18:39:39.678Z</time>
      </trkpt>
      <trkpt lat="43.49449" lon="6.66803">
        <ele>85</ele>
        <time>2019-04-26T18:39:40.678Z</time>
      </trkpt>
      <trkpt lat="43.49454" lon="6.66801">
        <ele>85</ele>
        <time>2019-04-26T18:39:41.678Z</time>
      </trkpt>
      <trkpt lat="43.49464" lon="6.66795">
        <ele>86</ele>
        <time>2019-04-26T18:39:42.678Z</time>
      </trkpt>
      <trkpt lat="43.49474" lon="6.66792">
        <ele>86</ele>
        <time>2019-04-26T18:39:43.678Z</time>
      </trkpt>
      <trkpt lat="43.4948" lon="6.66792">
        <ele>86</ele>
        <time>2019-04-26T18:39:44.678Z</time>
      </trkpt>
      <trkpt lat="43.49486" lon="6.66796">
        <ele>86</ele>
        <time>2019-04-26T18:39:45.678Z</time>
      </trkpt>
      <trkpt lat="43.49497" lon="6.66804">
        <ele>86</ele>
        <time>2019-04-26T18:39:46.678Z</time>
      </trkpt>
      <trkpt lat="43.49508" lon="6.66809">
        <ele>86</ele>
        <time>2019-04-26T18:39:47.678Z</time>
      </trkpt>
      <trkpt lat="43.49519" lon="6.66814">
        <ele>86</ele>
        <time>2019-04-26T18:39:48.678Z</time>
      </trkpt>
      <trkpt lat="43.49525" lon="6.66815">
        <ele>86</ele>
        <time>2019-04-26T18:39:49.678Z</time>
      </trkpt>
      <trkpt lat="43.4953" lon="6.66817">
        <ele>86</ele>
        <time>2019-04-26T18:39:50.678Z</time>
      </trkpt>
      <trkpt lat="43.4954" lon="6.66823">
        <ele>86</ele>
        <time>2019-04-26T18:39:51.678Z</time>
      </trkpt>
      <trkpt lat="43.49549" lon="6.66831">
        <ele>85</ele>
        <time>2019-04-26T18:39:52.678Z</time>
      </trkpt>
      <trkpt lat="43.49558" lon="6.66839">
        <ele>85</ele>
        <time>2019-04-26T18:39:53.678Z</time>
      </trkpt>
      <trkpt lat="43.49566" lon="6.66847">
        <ele>85</ele>
        <time>2019-04-26T18:39:54.678Z</time>
      </trkpt>
      <trkpt lat="43.49575" lon="6.66855">
        <ele>85</ele>
        <time>2019-04-26T18:39:55.678Z</time>
      </trkpt>
      <trkpt lat="43.49578" lon="6.66859">
        <ele>85</ele>
        <time>2019-04-26T18:39:56.678Z</time>
      </trkpt>
      <trkpt lat="43.49581" lon="6.66864">
        <ele>85</ele>
        <time>2019-04-26T18:39:57.678Z</time>
      </trkpt>
      <trkpt lat="43.49587" lon="6.66874">
        <ele>85</ele>
        <time>2019-04-26T18:39:58.678Z</time>
      </trkpt>
      <trkpt lat="43.49593" lon="6.66883">
        <ele>85</ele>
        <time>2019-04-26T18:39:59.678Z</time>
      </trkpt>
      <trkpt lat="43.49599" lon="6.66892">
        <ele>85</ele>
        <time>2019-04-26T18:40:00.678Z</time>
      </trkpt>
      <trkpt lat="43.49605" lon="6.66901">
        <ele>85</ele>
        <time>2019-04-26T18:40:01.678Z</time>
      </trkpt>
      <trkpt lat="43.49611" lon="6.66911">
        <ele>85</ele>
        <time>2019-04-26T18:40:02.678Z</time>
      </trkpt>
      <trkpt lat="43.49617" lon="6.66918">
        <ele>85</ele>
        <time>2019-04-26T18:40:03.678Z</time>
      </trkpt>
      <trkpt lat="43.49624" lon="6.66927">
        <ele>85</ele>
        <time>2019-04-26T18:40:04.678Z</time>
      </trkpt>
      <trkpt lat="43.4963" lon="6.66936">
        <ele>85</ele>
        <time>2019-04-26T18:40:05.678Z</time>
      </trkpt>
      <trkpt lat="43.49638" lon="6.66945">
        <ele>85</ele>
        <time>2019-04-26T18:40:06.678Z</time>
      </trkpt>
      <trkpt lat="43.49646" lon="6.66954">
        <ele>85</ele>
        <time>2019-04-26T18:40:07.678Z</time>
      </trkpt>
      <trkpt lat="43.49655" lon="6.66963">
        <ele>85</ele>
        <time>2019-04-26T18:40:08.678Z</time>
      </trkpt>
      <trkpt lat="43.49664" lon="6.66971">
        <ele>85</ele>
        <time>2019-04-26T18:40:09.678Z</time>
      </trkpt>
      <trkpt lat="43.49672" lon="6.66981">
        <ele>85</ele>
        <time>2019-04-26T18:40:10.678Z</time>
      </trkpt>
      <trkpt lat="43.49681" lon="6.66992">
        <ele>85</ele>
        <time>2019-04-26T18:40:11.678Z</time>
      </trkpt>
      <trkpt lat="43.49685" lon="6.66996">
        <ele>85</ele>
        <time>2019-04-26T18:40:12.678Z</time>
      </trkpt>
      <trkpt lat="43.49689" lon="6.67002">
        <ele>84</ele>
        <time>2019-04-26T18:40:13.678Z</time>
      </trkpt>
      <trkpt lat="43.49696" lon="6.67014">
        <ele>84</ele>
        <time>2019-04-26T18:40:14.678Z</time>
      </trkpt>
      <trkpt lat="43.497" lon="6.67019">
        <ele>84</ele>
        <time>2019-04-26T18:40:15.678Z</time>
      </trkpt>
      <trkpt lat="43.49705" lon="6.67024">
        <ele>84</ele>
        <time>2019-04-26T18:40:16.678Z</time>
      </trkpt>
      <trkpt lat="43.49714" lon="6.67031">
        <ele>83</ele>
        <time>2019-04-26T18:40:17.678Z</time>
      </trkpt>
      <trkpt lat="43.49719" lon="6.67035">
        <ele>83</ele>
        <time>2019-04-26T18:40:18.678Z</time>
      </trkpt>
      <trkpt lat="43.49723" lon="6.6704">
        <ele>83</ele>
        <time>2019-04-26T18:40:19.678Z</time>
      </trkpt>
      <trkpt lat="43.49726" lon="6.67046">
        <ele>83</ele>
        <time>2019-04-26T18:40:20.678Z</time>
      </trkpt>
      <trkpt lat="43.49728" lon="6.67054">
        <ele>83</ele>
        <time>2019-04-26T18:40:21.678Z</time>
      </trkpt>
      <trkpt lat="43.4973" lon="6.67061">
        <ele>83</ele>
        <time>2019-04-26T18:40:22.678Z</time>
      </trkpt>
      <trkpt lat="43.49732" lon="6.67069">
        <ele>84</ele>
        <time>2019-04-26T18:40:23.678Z</time>
      </trkpt>
      <trkpt lat="43.49734" lon="6.67084">
        <ele>84</ele>
        <time>2019-04-26T18:40:24.678Z</time>
      </trkpt>
      <trkpt lat="43.49735" lon="6.67092">
        <ele>84</ele>
        <time>2019-04-26T18:40:25.678Z</time>
      </trkpt>
      <trkpt lat="43.49737" lon="6.67099">
        <ele>84</ele>
        <time>2019-04-26T18:40:26.678Z</time>
      </trkpt>
      <trkpt lat="43.49741" lon="6.67115">
        <ele>84</ele>
        <time>2019-04-26T18:40:27.678Z</time>
      </trkpt>
      <trkpt lat="43.49741" lon="6.67124">
        <ele>84</ele>
        <time>2019-04-26T18:40:28.678Z</time>
      </trkpt>
      <trkpt lat="43.49742" lon="6.67133">
        <ele>84</ele>
        <time>2019-04-26T18:40:29.678Z</time>
      </trkpt>
      <trkpt lat="43.49744" lon="6.67141">
        <ele>84</ele>
        <time>2019-04-26T18:40:30.678Z</time>
      </trkpt>
      <trkpt lat="43.49745" lon="6.6715">
        <ele>84</ele>
        <time>2019-04-26T18:40:31.678Z</time>
      </trkpt>
      <trkpt lat="43.49749" lon="6.67167">
        <ele>84</ele>
        <time>2019-04-26T18:40:32.678Z</time>
      </trkpt>
      <trkpt lat="43.49752" lon="6.67175">
        <ele>84</ele>
        <time>2019-04-26T18:40:33.678Z</time>
      </trkpt>
      <trkpt lat="43.49755" lon="6.67183">
        <ele>84</ele>
        <time>2019-04-26T18:40:34.678Z</time>
      </trkpt>
      <trkpt lat="43.49758" lon="6.6719">
        <ele>83</ele>
        <time>2019-04-26T18:40:35.678Z</time>
      </trkpt>
      <trkpt lat="43.49762" lon="6.67196">
        <ele>83</ele>
        <time>2019-04-26T18:40:36.678Z</time>
      </trkpt>
      <trkpt lat="43.49769" lon="6.6721">
        <ele>83</ele>
        <time>2019-04-26T18:40:37.678Z</time>
      </trkpt>
      <trkpt lat="43.49777" lon="6.67223">
        <ele>83</ele>
        <time>2019-04-26T18:40:38.678Z</time>
      </trkpt>
      <trkpt lat="43.4978" lon="6.67231">
        <ele>83</ele>
        <time>2019-04-26T18:40:39.678Z</time>
      </trkpt>
      <trkpt lat="43.49783" lon="6.67239">
        <ele>83</ele>
        <time>2019-04-26T18:40:40.678Z</time>
      </trkpt>
      <trkpt lat="43.49788" lon="6.67254">
        <ele>83</ele>
        <time>2019-04-26T18:40:41.678Z</time>
      </trkpt>
      <trkpt lat="43.49791" lon="6.6726">
        <ele>83</ele>
        <time>2019-04-26T18:40:42.678Z</time>
      </trkpt>
      <trkpt lat="43.49795" lon="6.67265">
        <ele>82</ele>
        <time>2019-04-26T18:40:43.678Z</time>
      </trkpt>
      <trkpt lat="43.49802" lon="6.67275">
        <ele>82</ele>
        <time>2019-04-26T18:40:44.678Z</time>
      </trkpt>
      <trkpt lat="43.49811" lon="6.67284">
        <ele>82</ele>
        <time>2019-04-26T18:40:45.678Z</time>
      </trkpt>
      <trkpt lat="43.49819" lon="6.67295">
        <ele>83</ele>
        <time>2019-04-26T18:40:46.678Z</time>
      </trkpt>
      <trkpt lat="43.49824" lon="6.67309">
        <ele>83</ele>
        <time>2019-04-26T18:40:47.678Z</time>
      </trkpt>
      <trkpt lat="43.49826" lon="6.67317">
        <ele>83</ele>
        <time>2019-04-26T18:40:48.678Z</time>
      </trkpt>
      <trkpt lat="43.49828" lon="6.67323">
        <ele>83</ele>
        <time>2019-04-26T18:40:49.678Z</time>
      </trkpt>
      <trkpt lat="43.49834" lon="6.67337">
        <ele>83</ele>
        <time>2019-04-26T18:40:50.678Z</time>
      </trkpt>
      <trkpt lat="43.49839" lon="6.67348">
        <ele>83</ele>
        <time>2019-04-26T18:40:51.678Z</time>
      </trkpt>
      <trkpt lat="43.49843" lon="6.67354">
        <ele>83</ele>
        <time>2019-04-26T18:40:52.678Z</time>
      </trkpt>
      <trkpt lat="43.49847" lon="6.67358">
        <ele>83</ele>
        <time>2019-04-26T18:40:53.678Z</time>
      </trkpt>
      <trkpt lat="43.49856" lon="6.67372">
        <ele>83</ele>
        <time>2019-04-26T18:40:54.678Z</time>
      </trkpt>
      <trkpt lat="43.49862" lon="6.67388">
        <ele>83</ele>
        <time>2019-04-26T18:40:55.678Z</time>
      </trkpt>
      <trkpt lat="43.49868" lon="6.67402">
        <ele>83</ele>
        <time>2019-04-26T18:40:56.678Z</time>
      </trkpt>
      <trkpt lat="43.49876" lon="6.67415">
        <ele>83</ele>
        <time>2019-04-26T18:40:57.678Z</time>
      </trkpt>
      <trkpt lat="43.49879" lon="6.67421">
        <ele>84</ele>
        <time>2019-04-26T18:40:58.678Z</time>
      </trkpt>
      <trkpt lat="43.49883" lon="6.67427">
        <ele>84</ele>
        <time>2019-04-26T18:40:59.678Z</time>
      </trkpt>
      <trkpt lat="43.49891" lon="6.67437">
        <ele>84</ele>
        <time>2019-04-26T18:41:00.678Z</time>
      </trkpt>
      <trkpt lat="43.499" lon="6.67444">
        <ele>84</ele>
        <time>2019-04-26T18:41:01.678Z</time>
      </trkpt>
      <trkpt lat="43.49909" lon="6.67452">
        <ele>84</ele>
        <time>2019-04-26T18:41:02.678Z</time>
      </trkpt>
      <trkpt lat="43.49917" lon="6.6746">
        <ele>85</ele>
        <time>2019-04-26T18:41:03.678Z</time>
      </trkpt>
      <trkpt lat="43.49923" lon="6.67469">
        <ele>85</ele>
        <time>2019-04-26T18:41:04.678Z</time>
      </trkpt>
      <trkpt lat="43.49925" lon="6.67473">
        <ele>85</ele>
        <time>2019-04-26T18:41:05.678Z</time>
      </trkpt>
      <trkpt lat="43.49926" lon="6.67477">
        <ele>85</ele>
        <time>2019-04-26T18:41:06.678Z</time>
      </trkpt>
      <trkpt lat="43.4993" lon="6.67486">
        <ele>86</ele>
        <time>2019-04-26T18:41:07.678Z</time>
      </trkpt>
      <trkpt lat="43.49932" lon="6.6749">
        <ele>86</ele>
        <time>2019-04-26T18:41:08.678Z</time>
      </trkpt>
      <trkpt lat="43.49934" lon="6.67494">
        <ele>86</ele>
        <time>2019-04-26T18:41:09.678Z</time>
      </trkpt>
      <trkpt lat="43.49939" lon="6.67501">
        <ele>86</ele>
        <time>2019-04-26T18:41:10.678Z</time>
      </trkpt>
      <trkpt lat="43.49943" lon="6.67507">
        <ele>87</ele>
        <time>2019-04-26T18:41:11.678Z</time>
      </trkpt>
      <trkpt lat="43.49948" lon="6.67513">
        <ele>87</ele>
        <time>2019-04-26T18:41:12.678Z</time>
      </trkpt>
      <trkpt lat="43.49953" lon="6.6752">
        <ele>87</ele>
        <time>2019-04-26T18:41:13.678Z</time>
      </trkpt>
      <trkpt lat="43.49957" lon="6.67527">
        <ele>87</ele>
        <time>2019-04-26T18:41:14.678Z</time>
      </trkpt>
      <trkpt lat="43.49961" lon="6.67534">
        <ele>88</ele>
        <time>2019-04-26T18:41:15.678Z</time>
      </trkpt>
      <trkpt lat="43.49964" lon="6.6754">
        <ele>88</ele>
        <time>2019-04-26T18:41:16.678Z</time>
      </trkpt>
      <trkpt lat="43.49966" lon="6.67544">
        <ele>88</ele>
        <time>2019-04-26T18:41:17.678Z</time>
      </trkpt>
      <trkpt lat="43.49968" lon="6.67547">
        <ele>88</ele>
        <time>2019-04-26T18:41:18.678Z</time>
      </trkpt>
      <trkpt lat="43.49969" lon="6.67551">
        <ele>88</ele>
        <time>2019-04-26T18:41:19.678Z</time>
      </trkpt>
      <trkpt lat="43.4997" lon="6.67555">
        <ele>88</ele>
        <time>2019-04-26T18:41:20.678Z</time>
      </trkpt>
      <trkpt lat="43.49973" lon="6.67563">
        <ele>88</ele>
        <time>2019-04-26T18:41:21.678Z</time>
      </trkpt>
      <trkpt lat="43.49975" lon="6.67567">
        <ele>88</ele>
        <time>2019-04-26T18:41:22.678Z</time>
      </trkpt>
      <trkpt lat="43.49977" lon="6.67571">
        <ele>89</ele>
        <time>2019-04-26T18:41:23.678Z</time>
      </trkpt>
      <trkpt lat="43.4998" lon="6.67578">
        <ele>89</ele>
        <time>2019-04-26T18:41:24.678Z</time>
      </trkpt>
      <trkpt lat="43.49984" lon="6.67585">
        <ele>89</ele>
        <time>2019-04-26T18:41:25.678Z</time>
      </trkpt>
      <trkpt lat="43.49989" lon="6.6759">
        <ele>89</ele>
        <time>2019-04-26T18:41:26.678Z</time>
      </trkpt>
      <trkpt lat="43.49991" lon="6.67593">
        <ele>89</ele>
        <time>2019-04-26T18:41:27.678Z</time>
      </trkpt>
      <trkpt lat="43.49993" lon="6.67596">
        <ele>90</ele>
        <time>2019-04-26T18:41:28.678Z</time>
      </trkpt>
      <trkpt lat="43.49998" lon="6.67602">
        <ele>90</ele>
        <time>2019-04-26T18:41:29.678Z</time>
      </trkpt>
      <trkpt lat="43.50003" lon="6.67607">
        <ele>90</ele>
        <time>2019-04-26T18:41:30.678Z</time>
      </trkpt>
      <trkpt lat="43.50006" lon="6.67609">
        <ele>90</ele>
        <time>2019-04-26T18:41:31.678Z</time>
      </trkpt>
      <trkpt lat="43.50008" lon="6.67612">
        <ele>90</ele>
        <time>2019-04-26T18:41:32.678Z</time>
      </trkpt>
      <trkpt lat="43.50013" lon="6.67617">
        <ele>91</ele>
        <time>2019-04-26T18:41:33.678Z</time>
      </trkpt>
      <trkpt lat="43.50018" lon="6.67622">
        <ele>91</ele>
        <time>2019-04-26T18:41:34.678Z</time>
      </trkpt>
      <trkpt lat="43.50024" lon="6.67626">
        <ele>91</ele>
        <time>2019-04-26T18:41:35.678Z</time>
      </trkpt>
      <trkpt lat="43.50029" lon="6.6763">
        <ele>91</ele>
        <time>2019-04-26T18:41:36.678Z</time>
      </trkpt>
      <trkpt lat="43.50035" lon="6.67633">
        <ele>92</ele>
        <time>2019-04-26T18:41:37.678Z</time>
      </trkpt>
      <trkpt lat="43.50041" lon="6.67636">
        <ele>92</ele>
        <time>2019-04-26T18:41:38.678Z</time>
      </trkpt>
      <trkpt lat="43.50047" lon="6.67638">
        <ele>92</ele>
        <time>2019-04-26T18:41:39.678Z</time>
      </trkpt>
      <trkpt lat="43.50054" lon="6.67637">
        <ele>93</ele>
        <time>2019-04-26T18:41:40.678Z</time>
      </trkpt>
      <trkpt lat="43.50059" lon="6.67631">
        <ele>93</ele>
        <time>2019-04-26T18:41:41.678Z</time>
      </trkpt>
      <trkpt lat="43.50066" lon="6.67625">
        <ele>93</ele>
        <time>2019-04-26T18:41:42.678Z</time>
      </trkpt>
      <trkpt lat="43.50072" lon="6.67619">
        <ele>93</ele>
        <time>2019-04-26T18:41:43.678Z</time>
      </trkpt>
      <trkpt lat="43.50075" lon="6.67616">
        <ele>94</ele>
        <time>2019-04-26T18:41:44.678Z</time>
      </trkpt>
      <trkpt lat="43.50079" lon="6.67612">
        <ele>94</ele>
        <time>2019-04-26T18:41:45.678Z</time>
      </trkpt>
      <trkpt lat="43.50086" lon="6.67606">
        <ele>94</ele>
        <time>2019-04-26T18:41:46.678Z</time>
      </trkpt>
      <trkpt lat="43.50092" lon="6.676">
        <ele>94</ele>
        <time>2019-04-26T18:41:47.678Z</time>
      </trkpt>
      <trkpt lat="43.50098" lon="6.67592">
        <ele>94</ele>
        <time>2019-04-26T18:41:48.678Z</time>
      </trkpt>
      <trkpt lat="43.50101" lon="6.67588">
        <ele>94</ele>
        <time>2019-04-26T18:41:49.678Z</time>
      </trkpt>
      <trkpt lat="43.50103" lon="6.67584">
        <ele>94</ele>
        <time>2019-04-26T18:41:50.678Z</time>
      </trkpt>
      <trkpt lat="43.50109" lon="6.67574">
        <ele>93</ele>
        <time>2019-04-26T18:41:51.678Z</time>
      </trkpt>
      <trkpt lat="43.50114" lon="6.67562">
        <ele>93</ele>
        <time>2019-04-26T18:41:52.678Z</time>
      </trkpt>
      <trkpt lat="43.50117" lon="6.67547">
        <ele>93</ele>
        <time>2019-04-26T18:41:53.678Z</time>
      </trkpt>
      <trkpt lat="43.5012" lon="6.67533">
        <ele>92</ele>
        <time>2019-04-26T18:41:54.678Z</time>
      </trkpt>
      <trkpt lat="43.50122" lon="6.67526">
        <ele>92</ele>
        <time>2019-04-26T18:41:55.678Z</time>
      </trkpt>
      <trkpt lat="43.50123" lon="6.67518">
        <ele>92</ele>
        <time>2019-04-26T18:41:56.678Z</time>
      </trkpt>
      <trkpt lat="43.50126" lon="6.67504">
        <ele>92</ele>
        <time>2019-04-26T18:41:57.678Z</time>
      </trkpt>
      <trkpt lat="43.5013" lon="6.6749">
        <ele>91</ele>
        <time>2019-04-26T18:41:58.678Z</time>
      </trkpt>
      <trkpt lat="43.50132" lon="6.67483">
        <ele>91</ele>
        <time>2019-04-26T18:41:59.678Z</time>
      </trkpt>
      <trkpt lat="43.50133" lon="6.67476">
        <ele>91</ele>
        <time>2019-04-26T18:42:00.678Z</time>
      </trkpt>
      <trkpt lat="43.50137" lon="6.67463">
        <ele>91</ele>
        <time>2019-04-26T18:42:01.678Z</time>
      </trkpt>
      <trkpt lat="43.50139" lon="6.67459">
        <ele>91</ele>
        <time>2019-04-26T18:42:02.678Z</time>
      </trkpt>
      <trkpt lat="43.50141" lon="6.67456">
        <ele>91</ele>
        <time>2019-04-26T18:42:03.678Z</time>
      </trkpt>
      <trkpt lat="43.50145" lon="6.67453">
        <ele>91</ele>
        <time>2019-04-26T18:42:04.678Z</time>
      </trkpt>
      <trkpt lat="43.50147" lon="6.67453">
        <ele>91</ele>
        <time>2019-04-26T18:42:05.678Z</time>
      </trkpt>
      <trkpt lat="43.50153" lon="6.67454">
        <ele>91</ele>
        <time>2019-04-26T18:42:06.678Z</time>
      </trkpt>
      <trkpt lat="43.50156" lon="6.67455">
        <ele>91</ele>
        <time>2019-04-26T18:42:07.678Z</time>
      </trkpt>
      <trkpt lat="43.5016" lon="6.67454">
        <ele>91</ele>
        <time>2019-04-26T18:42:08.678Z</time>
      </trkpt>
      <trkpt lat="43.50172" lon="6.67453">
        <ele>91</ele>
        <time>2019-04-26T18:42:09.678Z</time>
      </trkpt>
      <trkpt lat="43.50178" lon="6.67455">
        <ele>90</ele>
        <time>2019-04-26T18:42:10.678Z</time>
      </trkpt>
      <trkpt lat="43.50184" lon="6.67459">
        <ele>90</ele>
        <time>2019-04-26T18:42:11.678Z</time>
      </trkpt>
      <trkpt lat="43.50191" lon="6.67463">
        <ele>90</ele>
        <time>2019-04-26T18:42:12.678Z</time>
      </trkpt>
      <trkpt lat="43.50198" lon="6.67466">
        <ele>89</ele>
        <time>2019-04-26T18:42:13.678Z</time>
      </trkpt>
      <trkpt lat="43.50205" lon="6.67468">
        <ele>89</ele>
        <time>2019-04-26T18:42:14.678Z</time>
      </trkpt>
      <trkpt lat="43.50211" lon="6.67469">
        <ele>88</ele>
        <time>2019-04-26T18:42:15.678Z</time>
      </trkpt>
      <trkpt lat="43.50217" lon="6.67468">
        <ele>88</ele>
        <time>2019-04-26T18:42:16.678Z</time>
      </trkpt>
      <trkpt lat="43.50221" lon="6.67467">
        <ele>88</ele>
        <time>2019-04-26T18:42:17.678Z</time>
      </trkpt>
      <trkpt lat="43.50225" lon="6.67464">
        <ele>87</ele>
        <time>2019-04-26T18:42:18.678Z</time>
      </trkpt>
      <trkpt lat="43.50229" lon="6.6746">
        <ele>87</ele>
        <time>2019-04-26T18:42:19.678Z</time>
      </trkpt>
      <trkpt lat="43.50232" lon="6.67455">
        <ele>87</ele>
        <time>2019-04-26T18:42:20.678Z</time>
      </trkpt>
      <trkpt lat="43.50234" lon="6.67449">
        <ele>87</ele>
        <time>2019-04-26T18:42:21.678Z</time>
      </trkpt>
      <trkpt lat="43.50237" lon="6.67441">
        <ele>87</ele>
        <time>2019-04-26T18:42:22.678Z</time>
      </trkpt>
      <trkpt lat="43.50241" lon="6.67433">
        <ele>87</ele>
        <time>2019-04-26T18:42:23.678Z</time>
      </trkpt>
      <trkpt lat="43.50254" lon="6.67419">
        <ele>86</ele>
        <time>2019-04-26T18:42:24.678Z</time>
      </trkpt>
      <trkpt lat="43.50262" lon="6.67413">
        <ele>85</ele>
        <time>2019-04-26T18:42:25.678Z</time>
      </trkpt>
      <trkpt lat="43.50269" lon="6.67408">
        <ele>85</ele>
        <time>2019-04-26T18:42:26.678Z</time>
      </trkpt>
      <trkpt lat="43.50278" lon="6.67402">
        <ele>84</ele>
        <time>2019-04-26T18:42:27.678Z</time>
      </trkpt>
      <trkpt lat="43.50286" lon="6.67396">
        <ele>83</ele>
        <time>2019-04-26T18:42:28.678Z</time>
      </trkpt>
      <trkpt lat="43.50294" lon="6.67389">
        <ele>83</ele>
        <time>2019-04-26T18:42:29.678Z</time>
      </trkpt>
      <trkpt lat="43.50301" lon="6.6738">
        <ele>82</ele>
        <time>2019-04-26T18:42:30.678Z</time>
      </trkpt>
      <trkpt lat="43.50314" lon="6.6736">
        <ele>80</ele>
        <time>2019-04-26T18:42:31.678Z</time>
      </trkpt>
      <trkpt lat="43.50319" lon="6.67348">
        <ele>79</ele>
        <time>2019-04-26T18:42:32.678Z</time>
      </trkpt>
      <trkpt lat="43.50324" lon="6.67337">
        <ele>78</ele>
        <time>2019-04-26T18:42:33.678Z</time>
      </trkpt>
      <trkpt lat="43.50335" lon="6.67314">
        <ele>76</ele>
        <time>2019-04-26T18:42:34.678Z</time>
      </trkpt>
      <trkpt lat="43.50343" lon="6.67291">
        <ele>75</ele>
        <time>2019-04-26T18:42:35.678Z</time>
      </trkpt>
      <trkpt lat="43.50346" lon="6.6728">
        <ele>75</ele>
        <time>2019-04-26T18:42:36.678Z</time>
      </trkpt>
      <trkpt lat="43.50349" lon="6.67269">
        <ele>74</ele>
        <time>2019-04-26T18:42:37.678Z</time>
      </trkpt>
      <trkpt lat="43.50356" lon="6.67247">
        <ele>74</ele>
        <time>2019-04-26T18:42:38.678Z</time>
      </trkpt>
      <trkpt lat="43.50361" lon="6.67226">
        <ele>74</ele>
        <time>2019-04-26T18:42:39.678Z</time>
      </trkpt>
      <trkpt lat="43.50363" lon="6.67215">
        <ele>74</ele>
        <time>2019-04-26T18:42:40.678Z</time>
      </trkpt>
      <trkpt lat="43.50365" lon="6.67205">
        <ele>75</ele>
        <time>2019-04-26T18:42:41.678Z</time>
      </trkpt>
      <trkpt lat="43.50369" lon="6.67187">
        <ele>75</ele>
        <time>2019-04-26T18:42:42.678Z</time>
      </trkpt>
      <trkpt lat="43.50373" lon="6.67178">
        <ele>75</ele>
        <time>2019-04-26T18:42:43.678Z</time>
      </trkpt>
      <trkpt lat="43.50376" lon="6.67169">
        <ele>75</ele>
        <time>2019-04-26T18:42:44.678Z</time>
      </trkpt>
      <trkpt lat="43.50379" lon="6.6716">
        <ele>75</ele>
        <time>2019-04-26T18:42:45.678Z</time>
      </trkpt>
      <trkpt lat="43.50382" lon="6.67151">
        <ele>75</ele>
        <time>2019-04-26T18:42:46.678Z</time>
      </trkpt>
      <trkpt lat="43.50385" lon="6.67142">
        <ele>75</ele>
        <time>2019-04-26T18:42:47.678Z</time>
      </trkpt>
      <trkpt lat="43.50386" lon="6.67133">
        <ele>75</ele>
        <time>2019-04-26T18:42:48.678Z</time>
      </trkpt>
      <trkpt lat="43.50387" lon="6.67123">
        <ele>75</ele>
        <time>2019-04-26T18:42:49.678Z</time>
      </trkpt>
      <trkpt lat="43.5039" lon="6.67115">
        <ele>75</ele>
        <time>2019-04-26T18:42:50.678Z</time>
      </trkpt>
      <trkpt lat="43.50395" lon="6.6711">
        <ele>74</ele>
        <time>2019-04-26T18:42:51.678Z</time>
      </trkpt>
      <trkpt lat="43.50399" lon="6.67107">
        <ele>73</ele>
        <time>2019-04-26T18:42:52.678Z</time>
      </trkpt>
      <trkpt lat="43.50404" lon="6.67104">
        <ele>73</ele>
        <time>2019-04-26T18:42:53.678Z</time>
      </trkpt>
      <trkpt lat="43.50408" lon="6.67103">
        <ele>72</ele>
        <time>2019-04-26T18:42:54.678Z</time>
      </trkpt>
      <trkpt lat="43.50413" lon="6.67104">
        <ele>71</ele>
        <time>2019-04-26T18:42:55.678Z</time>
      </trkpt>
      <trkpt lat="43.50415" lon="6.67104">
        <ele>71</ele>
        <time>2019-04-26T18:42:56.678Z</time>
      </trkpt>
      <trkpt lat="43.50417" lon="6.67104">
        <ele>71</ele>
        <time>2019-04-26T18:42:57.678Z</time>
      </trkpt>
      <trkpt lat="43.50422" lon="6.67102">
        <ele>71</ele>
        <time>2019-04-26T18:42:58.678Z</time>
      </trkpt>
      <trkpt lat="43.50428" lon="6.67099">
        <ele>71</ele>
        <time>2019-04-26T18:42:59.678Z</time>
      </trkpt>
      <trkpt lat="43.50435" lon="6.67095">
        <ele>72</ele>
        <time>2019-04-26T18:43:00.678Z</time>
      </trkpt>
      <trkpt lat="43.50442" lon="6.6709">
        <ele>72</ele>
        <time>2019-04-26T18:43:01.678Z</time>
      </trkpt>
      <trkpt lat="43.50448" lon="6.67084">
        <ele>72</ele>
        <time>2019-04-26T18:43:02.678Z</time>
      </trkpt>
      <trkpt lat="43.50454" lon="6.67077">
        <ele>72</ele>
        <time>2019-04-26T18:43:03.678Z</time>
      </trkpt>
      <trkpt lat="43.50461" lon="6.6707">
        <ele>73</ele>
        <time>2019-04-26T18:43:04.678Z</time>
      </trkpt>
      <trkpt lat="43.50466" lon="6.67063">
        <ele>73</ele>
        <time>2019-04-26T18:43:05.678Z</time>
      </trkpt>
      <trkpt lat="43.50469" lon="6.67061">
        <ele>73</ele>
        <time>2019-04-26T18:43:06.678Z</time>
      </trkpt>
      <trkpt lat="43.50471" lon="6.67058">
        <ele>73</ele>
        <time>2019-04-26T18:43:07.678Z</time>
      </trkpt>
      <trkpt lat="43.50476" lon="6.67052">
        <ele>73</ele>
        <time>2019-04-26T18:43:08.678Z</time>
      </trkpt>
      <trkpt lat="43.5048" lon="6.67047">
        <ele>73</ele>
        <time>2019-04-26T18:43:09.678Z</time>
      </trkpt>
      <trkpt lat="43.50482" lon="6.67045">
        <ele>73</ele>
        <time>2019-04-26T18:43:10.678Z</time>
      </trkpt>
      <trkpt lat="43.50484" lon="6.67042">
        <ele>73</ele>
        <time>2019-04-26T18:43:11.678Z</time>
      </trkpt>
      <trkpt lat="43.50488" lon="6.67035">
        <ele>74</ele>
        <time>2019-04-26T18:43:12.678Z</time>
      </trkpt>
      <trkpt lat="43.50493" lon="6.67029">
        <ele>74</ele>
        <time>2019-04-26T18:43:13.678Z</time>
      </trkpt>
      <trkpt lat="43.50499" lon="6.67022">
        <ele>74</ele>
        <time>2019-04-26T18:43:14.678Z</time>
      </trkpt>
      <trkpt lat="43.50505" lon="6.67016">
        <ele>74</ele>
        <time>2019-04-26T18:43:15.678Z</time>
      </trkpt>
      <trkpt lat="43.50513" lon="6.6701">
        <ele>74</ele>
        <time>2019-04-26T18:43:16.678Z</time>
      </trkpt>
      <trkpt lat="43.50521" lon="6.67003">
        <ele>74</ele>
        <time>2019-04-26T18:43:17.678Z</time>
      </trkpt>
      <trkpt lat="43.50528" lon="6.66996">
        <ele>74</ele>
        <time>2019-04-26T18:43:18.678Z</time>
      </trkpt>
      <trkpt lat="43.50532" lon="6.66993">
        <ele>74</ele>
        <time>2019-04-26T18:43:19.678Z</time>
      </trkpt>
      <trkpt lat="43.50536" lon="6.66989">
        <ele>74</ele>
        <time>2019-04-26T18:43:20.678Z</time>
      </trkpt>
      <trkpt lat="43.50545" lon="6.66982">
        <ele>73</ele>
        <time>2019-04-26T18:43:21.678Z</time>
      </trkpt>
      <trkpt lat="43.50554" lon="6.66975">
        <ele>73</ele>
        <time>2019-04-26T18:43:22.678Z</time>
      </trkpt>
      <trkpt lat="43.50564" lon="6.66967">
        <ele>73</ele>
        <time>2019-04-26T18:43:23.678Z</time>
      </trkpt>
      <trkpt lat="43.50573" lon="6.66957">
        <ele>73</ele>
        <time>2019-04-26T18:43:24.678Z</time>
      </trkpt>
      <trkpt lat="43.50577" lon="6.66953">
        <ele>73</ele>
        <time>2019-04-26T18:43:25.678Z</time>
      </trkpt>
      <trkpt lat="43.50581" lon="6.66947">
        <ele>72</ele>
        <time>2019-04-26T18:43:26.678Z</time>
      </trkpt>
      <trkpt lat="43.50584" lon="6.66935">
        <ele>72</ele>
        <time>2019-04-26T18:43:27.678Z</time>
      </trkpt>
      <trkpt lat="43.50583" lon="6.66922">
        <ele>72</ele>
        <time>2019-04-26T18:43:28.678Z</time>
      </trkpt>
      <trkpt lat="43.5058" lon="6.6691">
        <ele>72</ele>
        <time>2019-04-26T18:43:29.678Z</time>
      </trkpt>
      <trkpt lat="43.50578" lon="6.66905">
        <ele>72</ele>
        <time>2019-04-26T18:43:30.678Z</time>
      </trkpt>
      <trkpt lat="43.50577" lon="6.669">
        <ele>72</ele>
        <time>2019-04-26T18:43:31.678Z</time>
      </trkpt>
      <trkpt lat="43.50575" lon="6.6689">
        <ele>72</ele>
        <time>2019-04-26T18:43:32.678Z</time>
      </trkpt>
      <trkpt lat="43.50573" lon="6.66882">
        <ele>72</ele>
        <time>2019-04-26T18:43:33.678Z</time>
      </trkpt>
      <trkpt lat="43.50572" lon="6.66877">
        <ele>72</ele>
        <time>2019-04-26T18:43:34.678Z</time>
      </trkpt>
      <trkpt lat="43.50571" lon="6.66871">
        <ele>72</ele>
        <time>2019-04-26T18:43:35.678Z</time>
      </trkpt>
      <trkpt lat="43.5057" lon="6.66867">
        <ele>72</ele>
        <time>2019-04-26T18:43:36.678Z</time>
      </trkpt>
      <trkpt lat="43.50569" lon="6.66863">
        <ele>72</ele>
        <time>2019-04-26T18:43:37.678Z</time>
      </trkpt>
      <trkpt lat="43.50568" lon="6.66854">
        <ele>72</ele>
        <time>2019-04-26T18:43:38.678Z</time>
      </trkpt>
      <trkpt lat="43.50566" lon="6.66844">
        <ele>72</ele>
        <time>2019-04-26T18:43:39.678Z</time>
      </trkpt>
      <trkpt lat="43.50565" lon="6.66834">
        <ele>72</ele>
        <time>2019-04-26T18:43:40.678Z</time>
      </trkpt>
      <trkpt lat="43.50565" lon="6.66824">
        <ele>72</ele>
        <time>2019-04-26T18:43:41.678Z</time>
      </trkpt>
      <trkpt lat="43.50565" lon="6.66819">
        <ele>72</ele>
        <time>2019-04-26T18:43:42.678Z</time>
      </trkpt>
      <trkpt lat="43.50565" lon="6.66814">
        <ele>72</ele>
        <time>2019-04-26T18:43:43.678Z</time>
      </trkpt>
      <trkpt lat="43.50566" lon="6.66805">
        <ele>72</ele>
        <time>2019-04-26T18:43:44.678Z</time>
      </trkpt>
      <trkpt lat="43.50569" lon="6.66797">
        <ele>72</ele>
        <time>2019-04-26T18:43:45.678Z</time>
      </trkpt>
      <trkpt lat="43.5057" lon="6.66793">
        <ele>72</ele>
        <time>2019-04-26T18:43:46.678Z</time>
      </trkpt>
      <trkpt lat="43.50572" lon="6.66788">
        <ele>72</ele>
        <time>2019-04-26T18:43:47.678Z</time>
      </trkpt>
      <trkpt lat="43.50574" lon="6.66778">
        <ele>72</ele>
        <time>2019-04-26T18:43:48.678Z</time>
      </trkpt>
      <trkpt lat="43.50578" lon="6.66769">
        <ele>72</ele>
        <time>2019-04-26T18:43:49.678Z</time>
      </trkpt>
      <trkpt lat="43.5058" lon="6.66764">
        <ele>72</ele>
        <time>2019-04-26T18:43:50.678Z</time>
      </trkpt>
      <trkpt lat="43.50582" lon="6.6676">
        <ele>72</ele>
        <time>2019-04-26T18:43:51.678Z</time>
      </trkpt>
      <trkpt lat="43.50588" lon="6.66752">
        <ele>72</ele>
        <time>2019-04-26T18:43:52.678Z</time>
      </trkpt>
      <trkpt lat="43.50595" lon="6.66745">
        <ele>73</ele>
        <time>2019-04-26T18:43:53.678Z</time>
      </trkpt>
      <trkpt lat="43.50604" lon="6.66739">
        <ele>73</ele>
        <time>2019-04-26T18:43:54.678Z</time>
      </trkpt>
      <trkpt lat="43.50614" lon="6.66733">
        <ele>73</ele>
        <time>2019-04-26T18:43:55.678Z</time>
      </trkpt>
      <trkpt lat="43.50623" lon="6.66727">
        <ele>73</ele>
        <time>2019-04-26T18:43:56.678Z</time>
      </trkpt>
      <trkpt lat="43.50633" lon="6.66721">
        <ele>74</ele>
        <time>2019-04-26T18:43:57.678Z</time>
      </trkpt>
      <trkpt lat="43.50645" lon="6.66718">
        <ele>74</ele>
        <time>2019-04-26T18:43:58.678Z</time>
      </trkpt>
      <trkpt lat="43.50656" lon="6.66714">
        <ele>75</ele>
        <time>2019-04-26T18:43:59.678Z</time>
      </trkpt>
      <trkpt lat="43.50666" lon="6.66705">
        <ele>75</ele>
        <time>2019-04-26T18:44:00.678Z</time>
      </trkpt>
      <trkpt lat="43.50674" lon="6.66692">
        <ele>75</ele>
        <time>2019-04-26T18:44:01.678Z</time>
      </trkpt>
      <trkpt lat="43.5068" lon="6.66676">
        <ele>75</ele>
        <time>2019-04-26T18:44:02.678Z</time>
      </trkpt>
      <trkpt lat="43.50683" lon="6.66668">
        <ele>74</ele>
        <time>2019-04-26T18:44:03.678Z</time>
      </trkpt>
      <trkpt lat="43.50685" lon="6.6666">
        <ele>75</ele>
        <time>2019-04-26T18:44:04.678Z</time>
      </trkpt>
      <trkpt lat="43.5069" lon="6.66645">
        <ele>75</ele>
        <time>2019-04-26T18:44:05.678Z</time>
      </trkpt>
      <trkpt lat="43.50693" lon="6.66637">
        <ele>75</ele>
        <time>2019-04-26T18:44:06.678Z</time>
      </trkpt>
      <trkpt lat="43.50694" lon="6.66628">
        <ele>75</ele>
        <time>2019-04-26T18:44:07.678Z</time>
      </trkpt>
      <trkpt lat="43.50695" lon="6.6662">
        <ele>75</ele>
        <time>2019-04-26T18:44:08.678Z</time>
      </trkpt>
      <trkpt lat="43.50697" lon="6.66612">
        <ele>75</ele>
        <time>2019-04-26T18:44:09.678Z</time>
      </trkpt>
      <trkpt lat="43.50699" lon="6.66604">
        <ele>76</ele>
        <time>2019-04-26T18:44:10.678Z</time>
      </trkpt>
      <trkpt lat="43.50702" lon="6.66597">
        <ele>76</ele>
        <time>2019-04-26T18:44:11.678Z</time>
      </trkpt>
      <trkpt lat="43.50705" lon="6.66589">
        <ele>76</ele>
        <time>2019-04-26T18:44:12.678Z</time>
      </trkpt>
      <trkpt lat="43.50708" lon="6.66582">
        <ele>76</ele>
        <time>2019-04-26T18:44:13.678Z</time>
      </trkpt>
      <trkpt lat="43.50715" lon="6.66569">
        <ele>77</ele>
        <time>2019-04-26T18:44:14.678Z</time>
      </trkpt>
      <trkpt lat="43.50722" lon="6.66556">
        <ele>77</ele>
        <time>2019-04-26T18:44:15.678Z</time>
      </trkpt>
      <trkpt lat="43.50726" lon="6.66551">
        <ele>77</ele>
        <time>2019-04-26T18:44:16.678Z</time>
      </trkpt>
      <trkpt lat="43.5073" lon="6.66546">
        <ele>78</ele>
        <time>2019-04-26T18:44:17.678Z</time>
      </trkpt>
      <trkpt lat="43.5074" lon="6.66537">
        <ele>78</ele>
        <time>2019-04-26T18:44:18.678Z</time>
      </trkpt>
      <trkpt lat="43.5075" lon="6.6653">
        <ele>79</ele>
        <time>2019-04-26T18:44:19.678Z</time>
      </trkpt>
      <trkpt lat="43.50755" lon="6.66527">
        <ele>79</ele>
        <time>2019-04-26T18:44:20.678Z</time>
      </trkpt>
      <trkpt lat="43.50759" lon="6.66524">
        <ele>79</ele>
        <time>2019-04-26T18:44:21.678Z</time>
      </trkpt>
      <trkpt lat="43.50764" lon="6.66521">
        <ele>80</ele>
        <time>2019-04-26T18:44:22.678Z</time>
      </trkpt>
      <trkpt lat="43.50768" lon="6.66518">
        <ele>80</ele>
        <time>2019-04-26T18:44:23.678Z</time>
      </trkpt>
      <trkpt lat="43.50772" lon="6.66516">
        <ele>80</ele>
        <time>2019-04-26T18:44:24.678Z</time>
      </trkpt>
      <trkpt lat="43.50776" lon="6.66513">
        <ele>80</ele>
        <time>2019-04-26T18:44:25.678Z</time>
      </trkpt>
      <trkpt lat="43.5078" lon="6.66511">
        <ele>80</ele>
        <time>2019-04-26T18:44:26.678Z</time>
      </trkpt>
      <trkpt lat="43.50784" lon="6.66508">
        <ele>80</ele>
        <time>2019-04-26T18:44:27.678Z</time>
      </trkpt>
      <trkpt lat="43.50788" lon="6.66506">
        <ele>80</ele>
        <time>2019-04-26T18:44:28.678Z</time>
      </trkpt>
      <trkpt lat="43.50792" lon="6.66503">
        <ele>80</ele>
        <time>2019-04-26T18:44:29.678Z</time>
      </trkpt>
      <trkpt lat="43.508" lon="6.66499">
        <ele>81</ele>
        <time>2019-04-26T18:44:30.678Z</time>
      </trkpt>
      <trkpt lat="43.50804" lon="6.66497">
        <ele>81</ele>
        <time>2019-04-26T18:44:31.678Z</time>
      </trkpt>
      <trkpt lat="43.50807" lon="6.66495">
        <ele>81</ele>
        <time>2019-04-26T18:44:32.678Z</time>
      </trkpt>
      <trkpt lat="43.50815" lon="6.66491">
        <ele>82</ele>
        <time>2019-04-26T18:44:33.678Z</time>
      </trkpt>
      <trkpt lat="43.50822" lon="6.66486">
        <ele>82</ele>
        <time>2019-04-26T18:44:34.678Z</time>
      </trkpt>
      <trkpt lat="43.50825" lon="6.66483">
        <ele>83</ele>
        <time>2019-04-26T18:44:35.678Z</time>
      </trkpt>
      <trkpt lat="43.50829" lon="6.66481">
        <ele>83</ele>
        <time>2019-04-26T18:44:36.678Z</time>
      </trkpt>
      <trkpt lat="43.50837" lon="6.66476">
        <ele>84</ele>
        <time>2019-04-26T18:44:37.678Z</time>
      </trkpt>
      <trkpt lat="43.50844" lon="6.66471">
        <ele>85</ele>
        <time>2019-04-26T18:44:38.678Z</time>
      </trkpt>
      <trkpt lat="43.50848" lon="6.66468">
        <ele>85</ele>
        <time>2019-04-26T18:44:39.678Z</time>
      </trkpt>
      <trkpt lat="43.50852" lon="6.66466">
        <ele>85</ele>
        <time>2019-04-26T18:44:40.678Z</time>
      </trkpt>
      <trkpt lat="43.50861" lon="6.66464">
        <ele>85</ele>
        <time>2019-04-26T18:44:41.678Z</time>
      </trkpt>
      <trkpt lat="43.50869" lon="6.66462">
        <ele>85</ele>
        <time>2019-04-26T18:44:42.678Z</time>
      </trkpt>
      <trkpt lat="43.50876" lon="6.66456">
        <ele>86</ele>
        <time>2019-04-26T18:44:43.678Z</time>
      </trkpt>
      <trkpt lat="43.50879" lon="6.66453">
        <ele>86</ele>
        <time>2019-04-26T18:44:44.678Z</time>
      </trkpt>
      <trkpt lat="43.50883" lon="6.66449">
        <ele>86</ele>
        <time>2019-04-26T18:44:45.678Z</time>
      </trkpt>
      <trkpt lat="43.50886" lon="6.66446">
        <ele>86</ele>
        <time>2019-04-26T18:44:46.678Z</time>
      </trkpt>
      <trkpt lat="43.50889" lon="6.66442">
        <ele>87</ele>
        <time>2019-04-26T18:44:47.678Z</time>
      </trkpt>
      <trkpt lat="43.50895" lon="6.66434">
        <ele>87</ele>
        <time>2019-04-26T18:44:48.678Z</time>
      </trkpt>
      <trkpt lat="43.50899" lon="6.66425">
        <ele>87</ele>
        <time>2019-04-26T18:44:49.678Z</time>
      </trkpt>
      <trkpt lat="43.50904" lon="6.66417">
        <ele>88</ele>
        <time>2019-04-26T18:44:50.678Z</time>
      </trkpt>
      <trkpt lat="43.50909" lon="6.66407">
        <ele>88</ele>
        <time>2019-04-26T18:44:51.678Z</time>
      </trkpt>
      <trkpt lat="43.50911" lon="6.66403">
        <ele>88</ele>
        <time>2019-04-26T18:44:52.678Z</time>
      </trkpt>
      <trkpt lat="43.50913" lon="6.66398">
        <ele>89</ele>
        <time>2019-04-26T18:44:53.678Z</time>
      </trkpt>
      <trkpt lat="43.50917" lon="6.66388">
        <ele>89</ele>
        <time>2019-04-26T18:44:54.678Z</time>
      </trkpt>
      <trkpt lat="43.50922" lon="6.66377">
        <ele>90</ele>
        <time>2019-04-26T18:44:55.678Z</time>
      </trkpt>
      <trkpt lat="43.50926" lon="6.66367">
        <ele>90</ele>
        <time>2019-04-26T18:44:56.678Z</time>
      </trkpt>
      <trkpt lat="43.50929" lon="6.66361">
        <ele>91</ele>
        <time>2019-04-26T18:44:57.678Z</time>
      </trkpt>
      <trkpt lat="43.50931" lon="6.66356">
        <ele>91</ele>
        <time>2019-04-26T18:44:58.678Z</time>
      </trkpt>
      <trkpt lat="43.50936" lon="6.66345">
        <ele>91</ele>
        <time>2019-04-26T18:44:59.678Z</time>
      </trkpt>
      <trkpt lat="43.50941" lon="6.66334">
        <ele>92</ele>
        <time>2019-04-26T18:45:00.678Z</time>
      </trkpt>
      <trkpt lat="43.50945" lon="6.66324">
        <ele>92</ele>
        <time>2019-04-26T18:45:01.678Z</time>
      </trkpt>
      <trkpt lat="43.5095" lon="6.66313">
        <ele>92</ele>
        <time>2019-04-26T18:45:02.678Z</time>
      </trkpt>
      <trkpt lat="43.50955" lon="6.66303">
        <ele>92</ele>
        <time>2019-04-26T18:45:03.678Z</time>
      </trkpt>
      <trkpt lat="43.5096" lon="6.66292">
        <ele>92</ele>
        <time>2019-04-26T18:45:04.678Z</time>
      </trkpt>
      <trkpt lat="43.50965" lon="6.66281">
        <ele>92</ele>
        <time>2019-04-26T18:45:05.678Z</time>
      </trkpt>
      <trkpt lat="43.5097" lon="6.6627">
        <ele>92</ele>
        <time>2019-04-26T18:45:06.678Z</time>
      </trkpt>
      <trkpt lat="43.50972" lon="6.66264">
        <ele>92</ele>
        <time>2019-04-26T18:45:07.678Z</time>
      </trkpt>
      <trkpt lat="43.50975" lon="6.66258">
        <ele>92</ele>
        <time>2019-04-26T18:45:08.678Z</time>
      </trkpt>
      <trkpt lat="43.50979" lon="6.66246">
        <ele>92</ele>
        <time>2019-04-26T18:45:09.678Z</time>
      </trkpt>
      <trkpt lat="43.50982" lon="6.66233">
        <ele>92</ele>
        <time>2019-04-26T18:45:10.678Z</time>
      </trkpt>
      <trkpt lat="43.50986" lon="6.6622">
        <ele>93</ele>
        <time>2019-04-26T18:45:11.678Z</time>
      </trkpt>
      <trkpt lat="43.50988" lon="6.66214">
        <ele>93</ele>
        <time>2019-04-26T18:45:12.678Z</time>
      </trkpt>
      <trkpt lat="43.5099" lon="6.66208">
        <ele>93</ele>
        <time>2019-04-26T18:45:13.678Z</time>
      </trkpt>
      <trkpt lat="43.50994" lon="6.66196">
        <ele>93</ele>
        <time>2019-04-26T18:45:14.678Z</time>
      </trkpt>
      <trkpt lat="43.50999" lon="6.66185">
        <ele>93</ele>
        <time>2019-04-26T18:45:15.678Z</time>
      </trkpt>
      <trkpt lat="43.51001" lon="6.6618">
        <ele>93</ele>
        <time>2019-04-26T18:45:16.678Z</time>
      </trkpt>
      <trkpt lat="43.51003" lon="6.66174">
        <ele>94</ele>
        <time>2019-04-26T18:45:17.678Z</time>
      </trkpt>
      <trkpt lat="43.51008" lon="6.66163">
        <ele>94</ele>
        <time>2019-04-26T18:45:18.678Z</time>
      </trkpt>
      <trkpt lat="43.51012" lon="6.66151">
        <ele>94</ele>
        <time>2019-04-26T18:45:19.678Z</time>
      </trkpt>
      <trkpt lat="43.51018" lon="6.6614">
        <ele>94</ele>
        <time>2019-04-26T18:45:20.678Z</time>
      </trkpt>
      <trkpt lat="43.51023" lon="6.66128">
        <ele>95</ele>
        <time>2019-04-26T18:45:21.678Z</time>
      </trkpt>
      <trkpt lat="43.51028" lon="6.66115">
        <ele>94</ele>
        <time>2019-04-26T18:45:22.678Z</time>
      </trkpt>
      <trkpt lat="43.51035" lon="6.66103">
        <ele>94</ele>
        <time>2019-04-26T18:45:23.678Z</time>
      </trkpt>
      <trkpt lat="43.51041" lon="6.6609">
        <ele>94</ele>
        <time>2019-04-26T18:45:24.678Z</time>
      </trkpt>
      <trkpt lat="43.51047" lon="6.66077">
        <ele>94</ele>
        <time>2019-04-26T18:45:25.678Z</time>
      </trkpt>
      <trkpt lat="43.51054" lon="6.66063">
        <ele>93</ele>
        <time>2019-04-26T18:45:26.678Z</time>
      </trkpt>
      <trkpt lat="43.51057" lon="6.66056">
        <ele>93</ele>
        <time>2019-04-26T18:45:27.678Z</time>
      </trkpt>
      <trkpt lat="43.51059" lon="6.66049">
        <ele>93</ele>
        <time>2019-04-26T18:45:28.678Z</time>
      </trkpt>
      <trkpt lat="43.51065" lon="6.66035">
        <ele>93</ele>
        <time>2019-04-26T18:45:29.678Z</time>
      </trkpt>
      <trkpt lat="43.51068" lon="6.66028">
        <ele>93</ele>
        <time>2019-04-26T18:45:30.678Z</time>
      </trkpt>
      <trkpt lat="43.51071" lon="6.66022">
        <ele>93</ele>
        <time>2019-04-26T18:45:31.678Z</time>
      </trkpt>
      <trkpt lat="43.51077" lon="6.66008">
        <ele>93</ele>
        <time>2019-04-26T18:45:32.678Z</time>
      </trkpt>
      <trkpt lat="43.51083" lon="6.65995">
        <ele>93</ele>
        <time>2019-04-26T18:45:33.678Z</time>
      </trkpt>
      <trkpt lat="43.51086" lon="6.65988">
        <ele>93</ele>
        <time>2019-04-26T18:45:34.678Z</time>
      </trkpt>
      <trkpt lat="43.51089" lon="6.65981">
        <ele>94</ele>
        <time>2019-04-26T18:45:35.678Z</time>
      </trkpt>
      <trkpt lat="43.51095" lon="6.65967">
        <ele>94</ele>
        <time>2019-04-26T18:45:36.678Z</time>
      </trkpt>
      <trkpt lat="43.51101" lon="6.65954">
        <ele>95</ele>
        <time>2019-04-26T18:45:37.678Z</time>
      </trkpt>
      <trkpt lat="43.51104" lon="6.65947">
        <ele>95</ele>
        <time>2019-04-26T18:45:38.678Z</time>
      </trkpt>
      <trkpt lat="43.51107" lon="6.65941">
        <ele>95</ele>
        <time>2019-04-26T18:45:39.678Z</time>
      </trkpt>
      <trkpt lat="43.51112" lon="6.65928">
        <ele>96</ele>
        <time>2019-04-26T18:45:40.678Z</time>
      </trkpt>
      <trkpt lat="43.51115" lon="6.65923">
        <ele>96</ele>
        <time>2019-04-26T18:45:41.678Z</time>
      </trkpt>
      <trkpt lat="43.51118" lon="6.65917">
        <ele>96</ele>
        <time>2019-04-26T18:45:42.678Z</time>
      </trkpt>
      <trkpt lat="43.51124" lon="6.65906">
        <ele>97</ele>
        <time>2019-04-26T18:45:43.678Z</time>
      </trkpt>
      <trkpt lat="43.5113" lon="6.65895">
        <ele>97</ele>
        <time>2019-04-26T18:45:44.678Z</time>
      </trkpt>
      <trkpt lat="43.51133" lon="6.65889">
        <ele>97</ele>
        <time>2019-04-26T18:45:45.678Z</time>
      </trkpt>
      <trkpt lat="43.51136" lon="6.65884">
        <ele>98</ele>
        <time>2019-04-26T18:45:46.678Z</time>
      </trkpt>
      <trkpt lat="43.51141" lon="6.65874">
        <ele>98</ele>
        <time>2019-04-26T18:45:47.678Z</time>
      </trkpt>
      <trkpt lat="43.51146" lon="6.65865">
        <ele>99</ele>
        <time>2019-04-26T18:45:48.678Z</time>
      </trkpt>
      <trkpt lat="43.51149" lon="6.6586">
        <ele>99</ele>
        <time>2019-04-26T18:45:49.678Z</time>
      </trkpt>
      <trkpt lat="43.51151" lon="6.65855">
        <ele>99</ele>
        <time>2019-04-26T18:45:50.678Z</time>
      </trkpt>
      <trkpt lat="43.51156" lon="6.65847">
        <ele>99</ele>
        <time>2019-04-26T18:45:51.678Z</time>
      </trkpt>
      <trkpt lat="43.51161" lon="6.65838">
        <ele>100</ele>
        <time>2019-04-26T18:45:52.678Z</time>
      </trkpt>
      <trkpt lat="43.51165" lon="6.65829">
        <ele>100</ele>
        <time>2019-04-26T18:45:53.678Z</time>
      </trkpt>
      <trkpt lat="43.51169" lon="6.65822">
        <ele>100</ele>
        <time>2019-04-26T18:45:54.678Z</time>
      </trkpt>
      <trkpt lat="43.51172" lon="6.65815">
        <ele>100</ele>
        <time>2019-04-26T18:45:55.678Z</time>
      </trkpt>
      <trkpt lat="43.51174" lon="6.65812">
        <ele>100</ele>
        <time>2019-04-26T18:45:56.678Z</time>
      </trkpt>
      <trkpt lat="43.51177" lon="6.65809">
        <ele>100</ele>
        <time>2019-04-26T18:45:57.678Z</time>
      </trkpt>
      <trkpt lat="43.51182" lon="6.65801">
        <ele>100</ele>
        <time>2019-04-26T18:45:58.678Z</time>
      </trkpt>
      <trkpt lat="43.51184" lon="6.65797">
        <ele>100</ele>
        <time>2019-04-26T18:45:59.678Z</time>
      </trkpt>
      <trkpt lat="43.51186" lon="6.65794">
        <ele>100</ele>
        <time>2019-04-26T18:46:00.678Z</time>
      </trkpt>
      <trkpt lat="43.51191" lon="6.65788">
        <ele>100</ele>
        <time>2019-04-26T18:46:01.678Z</time>
      </trkpt>
      <trkpt lat="43.51193" lon="6.65784">
        <ele>101</ele>
        <time>2019-04-26T18:46:02.678Z</time>
      </trkpt>
      <trkpt lat="43.51196" lon="6.65781">
        <ele>101</ele>
        <time>2019-04-26T18:46:03.678Z</time>
      </trkpt>
      <trkpt lat="43.51202" lon="6.65775">
        <ele>101</ele>
        <time>2019-04-26T18:46:04.678Z</time>
      </trkpt>
      <trkpt lat="43.51205" lon="6.6577">
        <ele>102</ele>
        <time>2019-04-26T18:46:05.678Z</time>
      </trkpt>
      <trkpt lat="43.51207" lon="6.65765">
        <ele>102</ele>
        <time>2019-04-26T18:46:06.678Z</time>
      </trkpt>
      <trkpt lat="43.51212" lon="6.65752">
        <ele>102</ele>
        <time>2019-04-26T18:46:07.678Z</time>
      </trkpt>
      <trkpt lat="43.51217" lon="6.65737">
        <ele>101</ele>
        <time>2019-04-26T18:46:08.678Z</time>
      </trkpt>
      <trkpt lat="43.51219" lon="6.65728">
        <ele>100</ele>
        <time>2019-04-26T18:46:09.678Z</time>
      </trkpt>
      <trkpt lat="43.5122" lon="6.65719">
        <ele>99</ele>
        <time>2019-04-26T18:46:10.678Z</time>
      </trkpt>
      <trkpt lat="43.51221" lon="6.65709">
        <ele>98</ele>
        <time>2019-04-26T18:46:11.678Z</time>
      </trkpt>
      <trkpt lat="43.51223" lon="6.65698">
        <ele>97</ele>
        <time>2019-04-26T18:46:12.678Z</time>
      </trkpt>
      <trkpt lat="43.51228" lon="6.65674">
        <ele>94</ele>
        <time>2019-04-26T18:46:13.678Z</time>
      </trkpt>
      <trkpt lat="43.51233" lon="6.6565">
        <ele>95</ele>
        <time>2019-04-26T18:46:14.678Z</time>
      </trkpt>
      <trkpt lat="43.51236" lon="6.65627">
        <ele>96</ele>
        <time>2019-04-26T18:46:15.678Z</time>
      </trkpt>
      <trkpt lat="43.51236" lon="6.65616">
        <ele>96</ele>
        <time>2019-04-26T18:46:16.678Z</time>
      </trkpt>
      <trkpt lat="43.51236" lon="6.65606">
        <ele>97</ele>
        <time>2019-04-26T18:46:17.678Z</time>
      </trkpt>
      <trkpt lat="43.51237" lon="6.65587">
        <ele>98</ele>
        <time>2019-04-26T18:46:18.678Z</time>
      </trkpt>
      <trkpt lat="43.51238" lon="6.65579">
        <ele>98</ele>
        <time>2019-04-26T18:46:19.678Z</time>
      </trkpt>
      <trkpt lat="43.51239" lon="6.65572">
        <ele>99</ele>
        <time>2019-04-26T18:46:20.678Z</time>
      </trkpt>
      <trkpt lat="43.51239" lon="6.65565">
        <ele>100</ele>
        <time>2019-04-26T18:46:21.678Z</time>
      </trkpt>
      <trkpt lat="43.51239" lon="6.6556">
        <ele>100</ele>
        <time>2019-04-26T18:46:22.678Z</time>
      </trkpt>
      <trkpt lat="43.51239" lon="6.65555">
        <ele>101</ele>
        <time>2019-04-26T18:46:23.678Z</time>
      </trkpt>
      <trkpt lat="43.51239" lon="6.6555">
        <ele>101</ele>
        <time>2019-04-26T18:46:24.678Z</time>
      </trkpt>
      <trkpt lat="43.51238" lon="6.65546">
        <ele>101</ele>
        <time>2019-04-26T18:46:25.678Z</time>
      </trkpt>
      <trkpt lat="43.51237" lon="6.65542">
        <ele>101</ele>
        <time>2019-04-26T18:46:26.678Z</time>
      </trkpt>
      <trkpt lat="43.51237" lon="6.65539">
        <ele>102</ele>
        <time>2019-04-26T18:46:27.678Z</time>
      </trkpt>
      <trkpt lat="43.51236" lon="6.65537">
        <ele>102</ele>
        <time>2019-04-26T18:46:28.678Z</time>
      </trkpt>
      <trkpt lat="43.51235" lon="6.65535">
        <ele>102</ele>
        <time>2019-04-26T18:46:29.678Z</time>
      </trkpt>
      <trkpt lat="43.51234" lon="6.65532">
        <ele>102</ele>
        <time>2019-04-26T18:46:30.678Z</time>
      </trkpt>
      <trkpt lat="43.51232" lon="6.65527">
        <ele>102</ele>
        <time>2019-04-26T18:46:31.678Z</time>
      </trkpt>
      <trkpt lat="43.51229" lon="6.65522">
        <ele>102</ele>
        <time>2019-04-26T18:46:32.678Z</time>
      </trkpt>
      <trkpt lat="43.51226" lon="6.65517">
        <ele>102</ele>
        <time>2019-04-26T18:46:33.678Z</time>
      </trkpt>
      <trkpt lat="43.51223" lon="6.65512">
        <ele>102</ele>
        <time>2019-04-26T18:46:34.678Z</time>
      </trkpt>
      <trkpt lat="43.51221" lon="6.65507">
        <ele>102</ele>
        <time>2019-04-26T18:46:35.678Z</time>
      </trkpt>
      <trkpt lat="43.51217" lon="6.65503">
        <ele>102</ele>
        <time>2019-04-26T18:46:36.678Z</time>
      </trkpt>
      <trkpt lat="43.51214" lon="6.65498">
        <ele>102</ele>
        <time>2019-04-26T18:46:37.678Z</time>
      </trkpt>
      <trkpt lat="43.51213" lon="6.65496">
        <ele>102</ele>
        <time>2019-04-26T18:46:38.678Z</time>
      </trkpt>
      <trkpt lat="43.51212" lon="6.65493">
        <ele>102</ele>
        <time>2019-04-26T18:46:39.678Z</time>
      </trkpt>
      <trkpt lat="43.51209" lon="6.65488">
        <ele>102</ele>
        <time>2019-04-26T18:46:40.678Z</time>
      </trkpt>
      <trkpt lat="43.51206" lon="6.65482">
        <ele>101</ele>
        <time>2019-04-26T18:46:41.678Z</time>
      </trkpt>
      <trkpt lat="43.51205" lon="6.65479">
        <ele>101</ele>
        <time>2019-04-26T18:46:42.678Z</time>
      </trkpt>
      <trkpt lat="43.51204" lon="6.65476">
        <ele>101</ele>
        <time>2019-04-26T18:46:43.678Z</time>
      </trkpt>
      <trkpt lat="43.51201" lon="6.65468">
        <ele>102</ele>
        <time>2019-04-26T18:46:44.678Z</time>
      </trkpt>
      <trkpt lat="43.51198" lon="6.65461">
        <ele>102</ele>
        <time>2019-04-26T18:46:45.678Z</time>
      </trkpt>
      <trkpt lat="43.51195" lon="6.65455">
        <ele>102</ele>
        <time>2019-04-26T18:46:46.678Z</time>
      </trkpt>
      <trkpt lat="43.51192" lon="6.65452">
        <ele>101</ele>
        <time>2019-04-26T18:46:47.678Z</time>
      </trkpt>
      <trkpt lat="43.51187" lon="6.6545">
        <ele>101</ele>
        <time>2019-04-26T18:46:48.678Z</time>
      </trkpt>
      <trkpt lat="43.51184" lon="6.65449">
        <ele>101</ele>
        <time>2019-04-26T18:46:49.678Z</time>
      </trkpt>
      <trkpt lat="43.51181" lon="6.65447">
        <ele>101</ele>
        <time>2019-04-26T18:46:50.678Z</time>
      </trkpt>
      <trkpt lat="43.51176" lon="6.65442">
        <ele>101</ele>
        <time>2019-04-26T18:46:51.678Z</time>
      </trkpt>
      <trkpt lat="43.5117" lon="6.65439">
        <ele>100</ele>
        <time>2019-04-26T18:46:52.678Z</time>
      </trkpt>
      <trkpt lat="43.51167" lon="6.65438">
        <ele>100</ele>
        <time>2019-04-26T18:46:53.678Z</time>
      </trkpt>
      <trkpt lat="43.51165" lon="6.65437">
        <ele>100</ele>
        <time>2019-04-26T18:46:54.678Z</time>
      </trkpt>
      <trkpt lat="43.51164" lon="6.65436">
        <ele>100</ele>
        <time>2019-04-26T18:46:55.678Z</time>
      </trkpt>
      <trkpt lat="43.51163" lon="6.65434">
        <ele>100</ele>
        <time>2019-04-26T18:46:56.678Z</time>
      </trkpt>
      <trkpt lat="43.51163" lon="6.65433">
        <ele>101</ele>
        <time>2019-04-26T18:46:57.678Z</time>
      </trkpt>
      <trkpt lat="43.51162" lon="6.65431">
        <ele>101</ele>
        <time>2019-04-26T18:46:58.678Z</time>
      </trkpt>
      <trkpt lat="43.51159" lon="6.65431">
        <ele>101</ele>
        <time>2019-04-26T18:46:59.678Z</time>
      </trkpt>
      <trkpt lat="43.51158" lon="6.65433">
        <ele>101</ele>
        <time>2019-04-26T18:47:00.678Z</time>
      </trkpt>
      <trkpt lat="43.51159" lon="6.65435">
        <ele>100</ele>
        <time>2019-04-26T18:47:01.678Z</time>
      </trkpt>
      <trkpt lat="43.51162" lon="6.65437">
        <ele>100</ele>
        <time>2019-04-26T18:47:02.678Z</time>
      </trkpt>
      <trkpt lat="43.51164" lon="6.65436">
        <ele>100</ele>
        <time>2019-04-26T18:47:03.678Z</time>
      </trkpt>
      <trkpt lat="43.51166" lon="6.65435">
        <ele>100</ele>
        <time>2019-04-26T18:47:04.678Z</time>
      </trkpt>
      <trkpt lat="43.5117" lon="6.6544">
        <ele>100</ele>
        <time>2019-04-26T18:47:05.678Z</time>
      </trkpt>
      <trkpt lat="43.51174" lon="6.65439">
        <ele>101</ele>
        <time>2019-04-26T18:47:06.678Z</time>
      </trkpt>
      <trkpt lat="43.51176" lon="6.65436">
        <ele>101</ele>
        <time>2019-04-26T18:47:07.678Z</time>
      </trkpt>
      <trkpt lat="43.51178" lon="6.65432">
        <ele>102</ele>
        <time>2019-04-26T18:47:08.678Z</time>
      </trkpt>
      <trkpt lat="43.51183" lon="6.65427">
        <ele>102</ele>
        <time>2019-04-26T18:47:09.678Z</time>
      </trkpt>
      <trkpt lat="43.51187" lon="6.6542">
        <ele>103</ele>
        <time>2019-04-26T18:47:10.678Z</time>
      </trkpt>
      <trkpt lat="43.51192" lon="6.65414">
        <ele>104</ele>
        <time>2019-04-26T18:47:11.678Z</time>
      </trkpt>
      <trkpt lat="43.51197" lon="6.6541">
        <ele>104</ele>
        <time>2019-04-26T18:47:12.678Z</time>
      </trkpt>
      <trkpt lat="43.51199" lon="6.65408">
        <ele>104</ele>
        <time>2019-04-26T18:47:13.678Z</time>
      </trkpt>
      <trkpt lat="43.51201" lon="6.65406">
        <ele>105</ele>
        <time>2019-04-26T18:47:14.678Z</time>
      </trkpt>
      <trkpt lat="43.51204" lon="6.65405">
        <ele>105</ele>
        <time>2019-04-26T18:47:15.678Z</time>
      </trkpt>
      <trkpt lat="43.51206" lon="6.65404">
        <ele>105</ele>
        <time>2019-04-26T18:47:16.678Z</time>
      </trkpt>
      <trkpt lat="43.5121" lon="6.654">
        <ele>105</ele>
        <time>2019-04-26T18:47:17.678Z</time>
      </trkpt>
      <trkpt lat="43.51213" lon="6.65394">
        <ele>106</ele>
        <time>2019-04-26T18:47:18.678Z</time>
      </trkpt>
      <trkpt lat="43.51216" lon="6.65388">
        <ele>106</ele>
        <time>2019-04-26T18:47:19.678Z</time>
      </trkpt>
      <trkpt lat="43.51217" lon="6.65385">
        <ele>106</ele>
        <time>2019-04-26T18:47:20.678Z</time>
      </trkpt>
      <trkpt lat="43.51219" lon="6.65382">
        <ele>106</ele>
        <time>2019-04-26T18:47:21.678Z</time>
      </trkpt>
      <trkpt lat="43.51221" lon="6.65377">
        <ele>107</ele>
        <time>2019-04-26T18:47:22.678Z</time>
      </trkpt>
      <trkpt lat="43.51225" lon="6.65372">
        <ele>107</ele>
        <time>2019-04-26T18:47:23.678Z</time>
      </trkpt>
      <trkpt lat="43.51226" lon="6.6537">
        <ele>107</ele>
        <time>2019-04-26T18:47:24.678Z</time>
      </trkpt>
      <trkpt lat="43.51228" lon="6.65367">
        <ele>107</ele>
        <time>2019-04-26T18:47:25.678Z</time>
      </trkpt>
      <trkpt lat="43.51231" lon="6.65361">
        <ele>107</ele>
        <time>2019-04-26T18:47:26.678Z</time>
      </trkpt>
      <trkpt lat="43.51234" lon="6.65355">
        <ele>107</ele>
        <time>2019-04-26T18:47:27.678Z</time>
      </trkpt>
      <trkpt lat="43.51237" lon="6.65348">
        <ele>107</ele>
        <time>2019-04-26T18:47:28.678Z</time>
      </trkpt>
      <trkpt lat="43.51239" lon="6.6534">
        <ele>107</ele>
        <time>2019-04-26T18:47:29.678Z</time>
      </trkpt>
      <trkpt lat="43.5124" lon="6.65335">
        <ele>107</ele>
        <time>2019-04-26T18:47:30.678Z</time>
      </trkpt>
      <trkpt lat="43.51242" lon="6.6533">
        <ele>108</ele>
        <time>2019-04-26T18:47:31.678Z</time>
      </trkpt>
      <trkpt lat="43.51247" lon="6.65322">
        <ele>108</ele>
        <time>2019-04-26T18:47:32.678Z</time>
      </trkpt>
      <trkpt lat="43.51252" lon="6.65312">
        <ele>109</ele>
        <time>2019-04-26T18:47:33.678Z</time>
      </trkpt>
      <trkpt lat="43.51258" lon="6.65301">
        <ele>110</ele>
        <time>2019-04-26T18:47:34.678Z</time>
      </trkpt>
      <trkpt lat="43.51264" lon="6.65293">
        <ele>111</ele>
        <time>2019-04-26T18:47:35.678Z</time>
      </trkpt>
      <trkpt lat="43.5127" lon="6.65285">
        <ele>112</ele>
        <time>2019-04-26T18:47:36.678Z</time>
      </trkpt>
      <trkpt lat="43.51275" lon="6.65276">
        <ele>113</ele>
        <time>2019-04-26T18:47:37.678Z</time>
      </trkpt>
      <trkpt lat="43.51277" lon="6.65271">
        <ele>113</ele>
        <time>2019-04-26T18:47:38.678Z</time>
      </trkpt>
      <trkpt lat="43.51279" lon="6.65267">
        <ele>114</ele>
        <time>2019-04-26T18:47:39.678Z</time>
      </trkpt>
      <trkpt lat="43.51283" lon="6.65259">
        <ele>114</ele>
        <time>2019-04-26T18:47:40.678Z</time>
      </trkpt>
      <trkpt lat="43.51286" lon="6.65255">
        <ele>115</ele>
        <time>2019-04-26T18:47:41.678Z</time>
      </trkpt>
      <trkpt lat="43.51288" lon="6.65251">
        <ele>115</ele>
        <time>2019-04-26T18:47:42.678Z</time>
      </trkpt>
      <trkpt lat="43.51293" lon="6.65244">
        <ele>115</ele>
        <time>2019-04-26T18:47:43.678Z</time>
      </trkpt>
      <trkpt lat="43.51297" lon="6.65236">
        <ele>115</ele>
        <time>2019-04-26T18:47:44.678Z</time>
      </trkpt>
      <trkpt lat="43.51301" lon="6.6523">
        <ele>115</ele>
        <time>2019-04-26T18:47:45.678Z</time>
      </trkpt>
      <trkpt lat="43.51303" lon="6.65228">
        <ele>115</ele>
        <time>2019-04-26T18:47:46.678Z</time>
      </trkpt>
      <trkpt lat="43.51304" lon="6.65226">
        <ele>115</ele>
        <time>2019-04-26T18:47:47.678Z</time>
      </trkpt>
      <trkpt lat="43.51306" lon="6.65224">
        <ele>115</ele>
        <time>2019-04-26T18:47:48.678Z</time>
      </trkpt>
      <trkpt lat="43.51307" lon="6.65222">
        <ele>115</ele>
        <time>2019-04-26T18:47:49.678Z</time>
      </trkpt>
      <trkpt lat="43.51308" lon="6.65219">
        <ele>115</ele>
        <time>2019-04-26T18:47:50.678Z</time>
      </trkpt>
      <trkpt lat="43.51308" lon="6.65216">
        <ele>115</ele>
        <time>2019-04-26T18:47:51.678Z</time>
      </trkpt>
      <trkpt lat="43.51309" lon="6.65213">
        <ele>115</ele>
        <time>2019-04-26T18:47:52.678Z</time>
      </trkpt>
      <trkpt lat="43.5131" lon="6.6521">
        <ele>115</ele>
        <time>2019-04-26T18:47:53.678Z</time>
      </trkpt>
      <trkpt lat="43.51313" lon="6.65202">
        <ele>115</ele>
        <time>2019-04-26T18:47:54.678Z</time>
      </trkpt>
      <trkpt lat="43.51315" lon="6.65197">
        <ele>115</ele>
        <time>2019-04-26T18:47:55.678Z</time>
      </trkpt>
      <trkpt lat="43.51317" lon="6.65191">
        <ele>115</ele>
        <time>2019-04-26T18:47:56.678Z</time>
      </trkpt>
      <trkpt lat="43.51323" lon="6.65176">
        <ele>114</ele>
        <time>2019-04-26T18:47:57.678Z</time>
      </trkpt>
      <trkpt lat="43.51326" lon="6.65168">
        <ele>114</ele>
        <time>2019-04-26T18:47:58.678Z</time>
      </trkpt>
      <trkpt lat="43.5133" lon="6.6516">
        <ele>113</ele>
        <time>2019-04-26T18:47:59.678Z</time>
      </trkpt>
      <trkpt lat="43.51335" lon="6.65143">
        <ele>112</ele>
        <time>2019-04-26T18:48:00.678Z</time>
      </trkpt>
      <trkpt lat="43.51341" lon="6.65127">
        <ele>112</ele>
        <time>2019-04-26T18:48:01.678Z</time>
      </trkpt>
      <trkpt lat="43.51344" lon="6.65121">
        <ele>112</ele>
        <time>2019-04-26T18:48:02.678Z</time>
      </trkpt>
      <trkpt lat="43.51347" lon="6.65117">
        <ele>112</ele>
        <time>2019-04-26T18:48:03.678Z</time>
      </trkpt>
      <trkpt lat="43.51354" lon="6.65112">
        <ele>112</ele>
        <time>2019-04-26T18:48:04.678Z</time>
      </trkpt>
      <trkpt lat="43.51358" lon="6.6511">
        <ele>113</ele>
        <time>2019-04-26T18:48:05.678Z</time>
      </trkpt>
      <trkpt lat="43.51361" lon="6.65108">
        <ele>113</ele>
        <time>2019-04-26T18:48:06.678Z</time>
      </trkpt>
      <trkpt lat="43.51365" lon="6.65102">
        <ele>113</ele>
        <time>2019-04-26T18:48:07.678Z</time>
      </trkpt>
      <trkpt lat="43.51366" lon="6.65098">
        <ele>113</ele>
        <time>2019-04-26T18:48:08.678Z</time>
      </trkpt>
      <trkpt lat="43.51367" lon="6.65093">
        <ele>113</ele>
        <time>2019-04-26T18:48:09.678Z</time>
      </trkpt>
      <trkpt lat="43.51368" lon="6.65088">
        <ele>113</ele>
        <time>2019-04-26T18:48:10.678Z</time>
      </trkpt>
      <trkpt lat="43.51369" lon="6.65084">
        <ele>113</ele>
        <time>2019-04-26T18:48:11.678Z</time>
      </trkpt>
      <trkpt lat="43.51372" lon="6.65077">
        <ele>113</ele>
        <time>2019-04-26T18:48:12.678Z</time>
      </trkpt>
      <trkpt lat="43.51374" lon="6.65073">
        <ele>113</ele>
        <time>2019-04-26T18:48:13.678Z</time>
      </trkpt>
      <trkpt lat="43.51375" lon="6.65069">
        <ele>112</ele>
        <time>2019-04-26T18:48:14.678Z</time>
      </trkpt>
      <trkpt lat="43.51379" lon="6.65062">
        <ele>112</ele>
        <time>2019-04-26T18:48:15.678Z</time>
      </trkpt>
      <trkpt lat="43.51381" lon="6.65059">
        <ele>112</ele>
        <time>2019-04-26T18:48:16.678Z</time>
      </trkpt>
      <trkpt lat="43.51382" lon="6.65055">
        <ele>112</ele>
        <time>2019-04-26T18:48:17.678Z</time>
      </trkpt>
      <trkpt lat="43.51385" lon="6.65047">
        <ele>112</ele>
        <time>2019-04-26T18:48:18.678Z</time>
      </trkpt>
      <trkpt lat="43.51388" lon="6.65039">
        <ele>112</ele>
        <time>2019-04-26T18:48:19.678Z</time>
      </trkpt>
      <trkpt lat="43.51393" lon="6.65031">
        <ele>112</ele>
        <time>2019-04-26T18:48:20.678Z</time>
      </trkpt>
      <trkpt lat="43.51397" lon="6.65024">
        <ele>112</ele>
        <time>2019-04-26T18:48:21.678Z</time>
      </trkpt>
      <trkpt lat="43.514" lon="6.65017">
        <ele>113</ele>
        <time>2019-04-26T18:48:22.678Z</time>
      </trkpt>
      <trkpt lat="43.51404" lon="6.6501">
        <ele>113</ele>
        <time>2019-04-26T18:48:23.678Z</time>
      </trkpt>
      <trkpt lat="43.51409" lon="6.65005">
        <ele>113</ele>
        <time>2019-04-26T18:48:24.678Z</time>
      </trkpt>
      <trkpt lat="43.51414" lon="6.65">
        <ele>114</ele>
        <time>2019-04-26T18:48:25.678Z</time>
      </trkpt>
      <trkpt lat="43.51417" lon="6.64998">
        <ele>114</ele>
        <time>2019-04-26T18:48:26.678Z</time>
      </trkpt>
      <trkpt lat="43.5142" lon="6.64996">
        <ele>114</ele>
        <time>2019-04-26T18:48:27.678Z</time>
      </trkpt>
      <trkpt lat="43.51426" lon="6.64994">
        <ele>115</ele>
        <time>2019-04-26T18:48:28.678Z</time>
      </trkpt>
      <trkpt lat="43.51429" lon="6.64992">
        <ele>116</ele>
        <time>2019-04-26T18:48:29.678Z</time>
      </trkpt>
      <trkpt lat="43.51432" lon="6.6499">
        <ele>116</ele>
        <time>2019-04-26T18:48:30.678Z</time>
      </trkpt>
      <trkpt lat="43.51437" lon="6.64988">
        <ele>117</ele>
        <time>2019-04-26T18:48:31.678Z</time>
      </trkpt>
      <trkpt lat="43.51443" lon="6.64986">
        <ele>118</ele>
        <time>2019-04-26T18:48:32.678Z</time>
      </trkpt>
      <trkpt lat="43.51446" lon="6.64986">
        <ele>119</ele>
        <time>2019-04-26T18:48:33.678Z</time>
      </trkpt>
      <trkpt lat="43.51448" lon="6.64986">
        <ele>119</ele>
        <time>2019-04-26T18:48:34.678Z</time>
      </trkpt>
      <trkpt lat="43.51453" lon="6.64984">
        <ele>120</ele>
        <time>2019-04-26T18:48:35.678Z</time>
      </trkpt>
      <trkpt lat="43.51458" lon="6.64983">
        <ele>121</ele>
        <time>2019-04-26T18:48:36.678Z</time>
      </trkpt>
      <trkpt lat="43.51461" lon="6.64982">
        <ele>121</ele>
        <time>2019-04-26T18:48:37.678Z</time>
      </trkpt>
      <trkpt lat="43.51463" lon="6.64982">
        <ele>122</ele>
        <time>2019-04-26T18:48:38.678Z</time>
      </trkpt>
      <trkpt lat="43.51469" lon="6.64981">
        <ele>123</ele>
        <time>2019-04-26T18:48:39.678Z</time>
      </trkpt>
      <trkpt lat="43.51474" lon="6.64981">
        <ele>124</ele>
        <time>2019-04-26T18:48:40.678Z</time>
      </trkpt>
      <trkpt lat="43.51479" lon="6.64981">
        <ele>125</ele>
        <time>2019-04-26T18:48:41.678Z</time>
      </trkpt>
      <trkpt lat="43.51482" lon="6.64982">
        <ele>125</ele>
        <time>2019-04-26T18:48:42.678Z</time>
      </trkpt>
      <trkpt lat="43.51485" lon="6.64983">
        <ele>126</ele>
        <time>2019-04-26T18:48:43.678Z</time>
      </trkpt>
      <trkpt lat="43.51491" lon="6.64981">
        <ele>127</ele>
        <time>2019-04-26T18:48:44.678Z</time>
      </trkpt>
      <trkpt lat="43.51496" lon="6.64979">
        <ele>127</ele>
        <time>2019-04-26T18:48:45.678Z</time>
      </trkpt>
      <trkpt lat="43.51498" lon="6.64977">
        <ele>128</ele>
        <time>2019-04-26T18:48:46.678Z</time>
      </trkpt>
      <trkpt lat="43.515" lon="6.64976">
        <ele>128</ele>
        <time>2019-04-26T18:48:47.678Z</time>
      </trkpt>
      <trkpt lat="43.51505" lon="6.64974">
        <ele>129</ele>
        <time>2019-04-26T18:48:48.678Z</time>
      </trkpt>
      <trkpt lat="43.51509" lon="6.64971">
        <ele>130</ele>
        <time>2019-04-26T18:48:49.678Z</time>
      </trkpt>
      <trkpt lat="43.51512" lon="6.64967">
        <ele>131</ele>
        <time>2019-04-26T18:48:50.678Z</time>
      </trkpt>
      <trkpt lat="43.51514" lon="6.64965">
        <ele>131</ele>
        <time>2019-04-26T18:48:51.678Z</time>
      </trkpt>
      <trkpt lat="43.51516" lon="6.64964">
        <ele>132</ele>
        <time>2019-04-26T18:48:52.678Z</time>
      </trkpt>
      <trkpt lat="43.51519" lon="6.6496">
        <ele>132</ele>
        <time>2019-04-26T18:48:53.678Z</time>
      </trkpt>
      <trkpt lat="43.51521" lon="6.64955">
        <ele>132</ele>
        <time>2019-04-26T18:48:54.678Z</time>
      </trkpt>
      <trkpt lat="43.51522" lon="6.64953">
        <ele>132</ele>
        <time>2019-04-26T18:48:55.678Z</time>
      </trkpt>
      <trkpt lat="43.51524" lon="6.6495">
        <ele>133</ele>
        <time>2019-04-26T18:48:56.678Z</time>
      </trkpt>
      <trkpt lat="43.51525" lon="6.64948">
        <ele>133</ele>
        <time>2019-04-26T18:48:57.678Z</time>
      </trkpt>
      <trkpt lat="43.51525" lon="6.64946">
        <ele>133</ele>
        <time>2019-04-26T18:48:58.678Z</time>
      </trkpt>
      <trkpt lat="43.51526" lon="6.64939">
        <ele>132</ele>
        <time>2019-04-26T18:48:59.678Z</time>
      </trkpt>
      <trkpt lat="43.51526" lon="6.64936">
        <ele>132</ele>
        <time>2019-04-26T18:49:00.678Z</time>
      </trkpt>
      <trkpt lat="43.51527" lon="6.64933">
        <ele>131</ele>
        <time>2019-04-26T18:49:01.678Z</time>
      </trkpt>
      <trkpt lat="43.51527" lon="6.64928">
        <ele>131</ele>
        <time>2019-04-26T18:49:02.678Z</time>
      </trkpt>
      <trkpt lat="43.51526" lon="6.64922">
        <ele>130</ele>
        <time>2019-04-26T18:49:03.678Z</time>
      </trkpt>
      <trkpt lat="43.51525" lon="6.64919">
        <ele>130</ele>
        <time>2019-04-26T18:49:04.678Z</time>
      </trkpt>
      <trkpt lat="43.51524" lon="6.64917">
        <ele>129</ele>
        <time>2019-04-26T18:49:05.678Z</time>
      </trkpt>
      <trkpt lat="43.51523" lon="6.64911">
        <ele>129</ele>
        <time>2019-04-26T18:49:06.678Z</time>
      </trkpt>
      <trkpt lat="43.51522" lon="6.64905">
        <ele>129</ele>
        <time>2019-04-26T18:49:07.678Z</time>
      </trkpt>
      <trkpt lat="43.51522" lon="6.64902">
        <ele>129</ele>
        <time>2019-04-26T18:49:08.678Z</time>
      </trkpt>
      <trkpt lat="43.51522" lon="6.64899">
        <ele>129</ele>
        <time>2019-04-26T18:49:09.678Z</time>
      </trkpt>
      <trkpt lat="43.51521" lon="6.64896">
        <ele>129</ele>
        <time>2019-04-26T18:49:10.678Z</time>
      </trkpt>
      <trkpt lat="43.5152" lon="6.64893">
        <ele>129</ele>
        <time>2019-04-26T18:49:11.678Z</time>
      </trkpt>
      <trkpt lat="43.5152" lon="6.64891">
        <ele>129</ele>
        <time>2019-04-26T18:49:12.678Z</time>
      </trkpt>
      <trkpt lat="43.5152" lon="6.64887">
        <ele>129</ele>
        <time>2019-04-26T18:49:13.678Z</time>
      </trkpt>
      <trkpt lat="43.5152" lon="6.6488">
        <ele>130</ele>
        <time>2019-04-26T18:49:14.678Z</time>
      </trkpt>
      <trkpt lat="43.5152" lon="6.64874">
        <ele>130</ele>
        <time>2019-04-26T18:49:15.678Z</time>
      </trkpt>
      <trkpt lat="43.5152" lon="6.64867">
        <ele>131</ele>
        <time>2019-04-26T18:49:16.678Z</time>
      </trkpt>
      <trkpt lat="43.51521" lon="6.64861">
        <ele>131</ele>
        <time>2019-04-26T18:49:17.678Z</time>
      </trkpt>
      <trkpt lat="43.51522" lon="6.64857">
        <ele>131</ele>
        <time>2019-04-26T18:49:18.678Z</time>
      </trkpt>
      <trkpt lat="43.51522" lon="6.64854">
        <ele>132</ele>
        <time>2019-04-26T18:49:19.678Z</time>
      </trkpt>
      <trkpt lat="43.51523" lon="6.6485">
        <ele>132</ele>
        <time>2019-04-26T18:49:20.678Z</time>
      </trkpt>
      <trkpt lat="43.51523" lon="6.64847">
        <ele>132</ele>
        <time>2019-04-26T18:49:21.678Z</time>
      </trkpt>
      <trkpt lat="43.51525" lon="6.6484">
        <ele>133</ele>
        <time>2019-04-26T18:49:22.678Z</time>
      </trkpt>
      <trkpt lat="43.51526" lon="6.64833">
        <ele>133</ele>
        <time>2019-04-26T18:49:23.678Z</time>
      </trkpt>
      <trkpt lat="43.51527" lon="6.6483">
        <ele>134</ele>
        <time>2019-04-26T18:49:24.678Z</time>
      </trkpt>
      <trkpt lat="43.51528" lon="6.64826">
        <ele>135</ele>
        <time>2019-04-26T18:49:25.678Z</time>
      </trkpt>
      <trkpt lat="43.5153" lon="6.64819">
        <ele>137</ele>
        <time>2019-04-26T18:49:26.678Z</time>
      </trkpt>
      <trkpt lat="43.51532" lon="6.64811">
        <ele>138</ele>
        <time>2019-04-26T18:49:27.678Z</time>
      </trkpt>
      <trkpt lat="43.5153" lon="6.64808">
        <ele>139</ele>
        <time>2019-04-26T18:49:28.678Z</time>
      </trkpt>
      <trkpt lat="43.51529" lon="6.64804">
        <ele>139</ele>
        <time>2019-04-26T18:49:29.678Z</time>
      </trkpt>
      <trkpt lat="43.51527" lon="6.64801">
        <ele>139</ele>
        <time>2019-04-26T18:49:30.678Z</time>
      </trkpt>
      <trkpt lat="43.51525" lon="6.64799">
        <ele>140</ele>
        <time>2019-04-26T18:49:31.678Z</time>
      </trkpt>
      <trkpt lat="43.51519" lon="6.64797">
        <ele>139</ele>
        <time>2019-04-26T18:49:32.678Z</time>
      </trkpt>
      <trkpt lat="43.51515" lon="6.64796">
        <ele>138</ele>
        <time>2019-04-26T18:49:33.678Z</time>
      </trkpt>
      <trkpt lat="43.51511" lon="6.64794">
        <ele>138</ele>
        <time>2019-04-26T18:49:34.678Z</time>
      </trkpt>
      <trkpt lat="43.51502" lon="6.64793">
        <ele>136</ele>
        <time>2019-04-26T18:49:35.678Z</time>
      </trkpt>
      <trkpt lat="43.51493" lon="6.64792">
        <ele>135</ele>
        <time>2019-04-26T18:49:36.678Z</time>
      </trkpt>
      <trkpt lat="43.51488" lon="6.64792">
        <ele>134</ele>
        <time>2019-04-26T18:49:37.678Z</time>
      </trkpt>
      <trkpt lat="43.51482" lon="6.64792">
        <ele>134</ele>
        <time>2019-04-26T18:49:38.678Z</time>
      </trkpt>
      <trkpt lat="43.51477" lon="6.64791">
        <ele>133</ele>
        <time>2019-04-26T18:49:39.678Z</time>
      </trkpt>
      <trkpt lat="43.51471" lon="6.6479">
        <ele>133</ele>
        <time>2019-04-26T18:49:40.678Z</time>
      </trkpt>
      <trkpt lat="43.51458" lon="6.6479">
        <ele>131</ele>
        <time>2019-04-26T18:49:41.678Z</time>
      </trkpt>
      <trkpt lat="43.51452" lon="6.6479">
        <ele>131</ele>
        <time>2019-04-26T18:49:42.678Z</time>
      </trkpt>
      <trkpt lat="43.51445" lon="6.6479">
        <ele>130</ele>
        <time>2019-04-26T18:49:43.678Z</time>
      </trkpt>
      <trkpt lat="43.5143" lon="6.6479">
        <ele>128</ele>
        <time>2019-04-26T18:49:44.678Z</time>
      </trkpt>
      <trkpt lat="43.51415" lon="6.64792">
        <ele>126</ele>
        <time>2019-04-26T18:49:45.678Z</time>
      </trkpt>
      <trkpt lat="43.51399" lon="6.64793">
        <ele>124</ele>
        <time>2019-04-26T18:49:46.678Z</time>
      </trkpt>
      <trkpt lat="43.51392" lon="6.64794">
        <ele>123</ele>
        <time>2019-04-26T18:49:47.678Z</time>
      </trkpt>
      <trkpt lat="43.51384" lon="6.64794">
        <ele>122</ele>
        <time>2019-04-26T18:49:48.678Z</time>
      </trkpt>
      <trkpt lat="43.51377" lon="6.64794">
        <ele>122</ele>
        <time>2019-04-26T18:49:49.678Z</time>
      </trkpt>
      <trkpt lat="43.5137" lon="6.64794">
        <ele>121</ele>
        <time>2019-04-26T18:49:50.678Z</time>
      </trkpt>
      <trkpt lat="43.51363" lon="6.64793">
        <ele>120</ele>
        <time>2019-04-26T18:49:51.678Z</time>
      </trkpt>
      <trkpt lat="43.51356" lon="6.64792">
        <ele>120</ele>
        <time>2019-04-26T18:49:52.678Z</time>
      </trkpt>
      <trkpt lat="43.51343" lon="6.64791">
        <ele>119</ele>
        <time>2019-04-26T18:49:53.678Z</time>
      </trkpt>
      <trkpt lat="43.51336" lon="6.64788">
        <ele>119</ele>
        <time>2019-04-26T18:49:54.678Z</time>
      </trkpt>
      <trkpt lat="43.5133" lon="6.64785">
        <ele>118</ele>
        <time>2019-04-26T18:49:55.678Z</time>
      </trkpt>
      <trkpt lat="43.51324" lon="6.64781">
        <ele>118</ele>
        <time>2019-04-26T18:49:56.678Z</time>
      </trkpt>
      <trkpt lat="43.51318" lon="6.64777">
        <ele>118</ele>
        <time>2019-04-26T18:49:57.678Z</time>
      </trkpt>
      <trkpt lat="43.51307" lon="6.64768">
        <ele>118</ele>
        <time>2019-04-26T18:49:58.678Z</time>
      </trkpt>
      <trkpt lat="43.51301" lon="6.64763">
        <ele>118</ele>
        <time>2019-04-26T18:49:59.678Z</time>
      </trkpt>
      <trkpt lat="43.51295" lon="6.64758">
        <ele>118</ele>
        <time>2019-04-26T18:50:00.678Z</time>
      </trkpt>
      <trkpt lat="43.51289" lon="6.64754">
        <ele>118</ele>
        <time>2019-04-26T18:50:01.678Z</time>
      </trkpt>
      <trkpt lat="43.51282" lon="6.64749">
        <ele>118</ele>
        <time>2019-04-26T18:50:02.678Z</time>
      </trkpt>
      <trkpt lat="43.5127" lon="6.64738">
        <ele>117</ele>
        <time>2019-04-26T18:50:03.678Z</time>
      </trkpt>
      <trkpt lat="43.51258" lon="6.64729">
        <ele>116</ele>
        <time>2019-04-26T18:50:04.678Z</time>
      </trkpt>
      <trkpt lat="43.51252" lon="6.64724">
        <ele>116</ele>
        <time>2019-04-26T18:50:05.678Z</time>
      </trkpt>
      <trkpt lat="43.51246" lon="6.6472">
        <ele>116</ele>
        <time>2019-04-26T18:50:06.678Z</time>
      </trkpt>
      <trkpt lat="43.51235" lon="6.64709">
        <ele>115</ele>
        <time>2019-04-26T18:50:07.678Z</time>
      </trkpt>
      <trkpt lat="43.51225" lon="6.64697">
        <ele>114</ele>
        <time>2019-04-26T18:50:08.678Z</time>
      </trkpt>
      <trkpt lat="43.51217" lon="6.64684">
        <ele>114</ele>
        <time>2019-04-26T18:50:09.678Z</time>
      </trkpt>
      <trkpt lat="43.51209" lon="6.64669">
        <ele>114</ele>
        <time>2019-04-26T18:50:10.678Z</time>
      </trkpt>
      <trkpt lat="43.51203" lon="6.64654">
        <ele>114</ele>
        <time>2019-04-26T18:50:11.678Z</time>
      </trkpt>
      <trkpt lat="43.512" lon="6.64637">
        <ele>114</ele>
        <time>2019-04-26T18:50:12.678Z</time>
      </trkpt>
      <trkpt lat="43.51196" lon="6.64621">
        <ele>114</ele>
        <time>2019-04-26T18:50:13.678Z</time>
      </trkpt>
      <trkpt lat="43.51193" lon="6.64604">
        <ele>114</ele>
        <time>2019-04-26T18:50:14.678Z</time>
      </trkpt>
      <trkpt lat="43.5119" lon="6.64588">
        <ele>114</ele>
        <time>2019-04-26T18:50:15.678Z</time>
      </trkpt>
      <trkpt lat="43.5119" lon="6.64579">
        <ele>114</ele>
        <time>2019-04-26T18:50:16.678Z</time>
      </trkpt>
      <trkpt lat="43.51189" lon="6.6457">
        <ele>114</ele>
        <time>2019-04-26T18:50:17.678Z</time>
      </trkpt>
      <trkpt lat="43.51189" lon="6.64561">
        <ele>114</ele>
        <time>2019-04-26T18:50:18.678Z</time>
      </trkpt>
      <trkpt lat="43.51189" lon="6.64552">
        <ele>113</ele>
        <time>2019-04-26T18:50:19.678Z</time>
      </trkpt>
      <trkpt lat="43.51188" lon="6.64534">
        <ele>113</ele>
        <time>2019-04-26T18:50:20.678Z</time>
      </trkpt>
      <trkpt lat="43.51188" lon="6.64516">
        <ele>112</ele>
        <time>2019-04-26T18:50:21.678Z</time>
      </trkpt>
      <trkpt lat="43.51189" lon="6.64499">
        <ele>112</ele>
        <time>2019-04-26T18:50:22.678Z</time>
      </trkpt>
      <trkpt lat="43.51192" lon="6.64482">
        <ele>112</ele>
        <time>2019-04-26T18:50:23.678Z</time>
      </trkpt>
      <trkpt lat="43.51194" lon="6.64465">
        <ele>111</ele>
        <time>2019-04-26T18:50:24.678Z</time>
      </trkpt>
      <trkpt lat="43.51196" lon="6.64456">
        <ele>111</ele>
        <time>2019-04-26T18:50:25.678Z</time>
      </trkpt>
      <trkpt lat="43.51198" lon="6.64447">
        <ele>111</ele>
        <time>2019-04-26T18:50:26.678Z</time>
      </trkpt>
      <trkpt lat="43.51203" lon="6.6443">
        <ele>111</ele>
        <time>2019-04-26T18:50:27.678Z</time>
      </trkpt>
      <trkpt lat="43.51206" lon="6.64421">
        <ele>110</ele>
        <time>2019-04-26T18:50:28.678Z</time>
      </trkpt>
      <trkpt lat="43.51209" lon="6.64413">
        <ele>110</ele>
        <time>2019-04-26T18:50:29.678Z</time>
      </trkpt>
      <trkpt lat="43.51216" lon="6.64397">
        <ele>110</ele>
        <time>2019-04-26T18:50:30.678Z</time>
      </trkpt>
      <trkpt lat="43.51223" lon="6.64382">
        <ele>110</ele>
        <time>2019-04-26T18:50:31.678Z</time>
      </trkpt>
      <trkpt lat="43.5123" lon="6.64369">
        <ele>110</ele>
        <time>2019-04-26T18:50:32.678Z</time>
      </trkpt>
      <trkpt lat="43.51239" lon="6.64356">
        <ele>110</ele>
        <time>2019-04-26T18:50:33.678Z</time>
      </trkpt>
      <trkpt lat="43.51243" lon="6.64351">
        <ele>110</ele>
        <time>2019-04-26T18:50:34.678Z</time>
      </trkpt>
      <trkpt lat="43.51247" lon="6.64345">
        <ele>110</ele>
        <time>2019-04-26T18:50:35.678Z</time>
      </trkpt>
      <trkpt lat="43.51256" lon="6.64333">
        <ele>110</ele>
        <time>2019-04-26T18:50:36.678Z</time>
      </trkpt>
      <trkpt lat="43.51264" lon="6.64322">
        <ele>110</ele>
        <time>2019-04-26T18:50:37.678Z</time>
      </trkpt>
      <trkpt lat="43.51272" lon="6.6431">
        <ele>110</ele>
        <time>2019-04-26T18:50:38.678Z</time>
      </trkpt>
      <trkpt lat="43.51281" lon="6.64299">
        <ele>109</ele>
        <time>2019-04-26T18:50:39.678Z</time>
      </trkpt>
      <trkpt lat="43.5129" lon="6.64287">
        <ele>109</ele>
        <time>2019-04-26T18:50:40.678Z</time>
      </trkpt>
      <trkpt lat="43.51294" lon="6.64281">
        <ele>109</ele>
        <time>2019-04-26T18:50:41.678Z</time>
      </trkpt>
      <trkpt lat="43.51298" lon="6.64276">
        <ele>109</ele>
        <time>2019-04-26T18:50:42.678Z</time>
      </trkpt>
      <trkpt lat="43.51305" lon="6.64265">
        <ele>108</ele>
        <time>2019-04-26T18:50:43.678Z</time>
      </trkpt>
      <trkpt lat="43.51312" lon="6.64253">
        <ele>108</ele>
        <time>2019-04-26T18:50:44.678Z</time>
      </trkpt>
      <trkpt lat="43.51316" lon="6.64247">
        <ele>108</ele>
        <time>2019-04-26T18:50:45.678Z</time>
      </trkpt>
      <trkpt lat="43.5132" lon="6.64242">
        <ele>108</ele>
        <time>2019-04-26T18:50:46.678Z</time>
      </trkpt>
      <trkpt lat="43.51328" lon="6.6423">
        <ele>107</ele>
        <time>2019-04-26T18:50:47.678Z</time>
      </trkpt>
      <trkpt lat="43.51335" lon="6.64217">
        <ele>107</ele>
        <time>2019-04-26T18:50:48.678Z</time>
      </trkpt>
      <trkpt lat="43.51341" lon="6.64204">
        <ele>107</ele>
        <time>2019-04-26T18:50:49.678Z</time>
      </trkpt>
      <trkpt lat="43.51347" lon="6.6419">
        <ele>106</ele>
        <time>2019-04-26T18:50:50.678Z</time>
      </trkpt>
      <trkpt lat="43.51353" lon="6.64175">
        <ele>106</ele>
        <time>2019-04-26T18:50:51.678Z</time>
      </trkpt>
      <trkpt lat="43.51356" lon="6.64168">
        <ele>105</ele>
        <time>2019-04-26T18:50:52.678Z</time>
      </trkpt>
      <trkpt lat="43.51359" lon="6.64159">
        <ele>105</ele>
        <time>2019-04-26T18:50:53.678Z</time>
      </trkpt>
      <trkpt lat="43.51364" lon="6.64143">
        <ele>105</ele>
        <time>2019-04-26T18:50:54.678Z</time>
      </trkpt>
      <trkpt lat="43.5137" lon="6.64126">
        <ele>105</ele>
        <time>2019-04-26T18:50:55.678Z</time>
      </trkpt>
      <trkpt lat="43.51376" lon="6.64107">
        <ele>105</ele>
        <time>2019-04-26T18:50:56.678Z</time>
      </trkpt>
      <trkpt lat="43.51382" lon="6.64088">
        <ele>105</ele>
        <time>2019-04-26T18:50:57.678Z</time>
      </trkpt>
      <trkpt lat="43.51385" lon="6.64078">
        <ele>105</ele>
        <time>2019-04-26T18:50:58.678Z</time>
      </trkpt>
      <trkpt lat="43.51387" lon="6.64068">
        <ele>104</ele>
        <time>2019-04-26T18:50:59.678Z</time>
      </trkpt>
      <trkpt lat="43.51393" lon="6.64048">
        <ele>104</ele>
        <time>2019-04-26T18:51:00.678Z</time>
      </trkpt>
      <trkpt lat="43.51396" lon="6.64038">
        <ele>104</ele>
        <time>2019-04-26T18:51:01.678Z</time>
      </trkpt>
      <trkpt lat="43.51398" lon="6.64029">
        <ele>103</ele>
        <time>2019-04-26T18:51:02.678Z</time>
      </trkpt>
      <trkpt lat="43.51403" lon="6.64011">
        <ele>103</ele>
        <time>2019-04-26T18:51:03.678Z</time>
      </trkpt>
      <trkpt lat="43.51408" lon="6.63992">
        <ele>102</ele>
        <time>2019-04-26T18:51:04.678Z</time>
      </trkpt>
      <trkpt lat="43.5141" lon="6.63983">
        <ele>102</ele>
        <time>2019-04-26T18:51:05.678Z</time>
      </trkpt>
      <trkpt lat="43.51413" lon="6.63973">
        <ele>102</ele>
        <time>2019-04-26T18:51:06.678Z</time>
      </trkpt>
      <trkpt lat="43.51419" lon="6.63954">
        <ele>102</ele>
        <time>2019-04-26T18:51:07.678Z</time>
      </trkpt>
      <trkpt lat="43.51421" lon="6.63946">
        <ele>102</ele>
        <time>2019-04-26T18:51:08.678Z</time>
      </trkpt>
      <trkpt lat="43.51422" lon="6.63939">
        <ele>102</ele>
        <time>2019-04-26T18:51:09.678Z</time>
      </trkpt>
      <trkpt lat="43.51421" lon="6.63929">
        <ele>102</ele>
        <time>2019-04-26T18:51:10.678Z</time>
      </trkpt>
      <trkpt lat="43.5142" lon="6.63926">
        <ele>102</ele>
        <time>2019-04-26T18:51:11.678Z</time>
      </trkpt>
      <trkpt lat="43.51419" lon="6.63925">
        <ele>101</ele>
        <time>2019-04-26T18:51:12.678Z</time>
      </trkpt>
      <trkpt lat="43.51417" lon="6.63924">
        <ele>101</ele>
        <time>2019-04-26T18:51:13.678Z</time>
      </trkpt>
      <trkpt lat="43.51417" lon="6.63914">
        <ele>101</ele>
        <time>2019-04-26T18:51:14.678Z</time>
      </trkpt>
      <trkpt lat="43.51417" lon="6.63904">
        <ele>101</ele>
        <time>2019-04-26T18:51:15.678Z</time>
      </trkpt>
      <trkpt lat="43.51417" lon="6.63901">
        <ele>101</ele>
        <time>2019-04-26T18:51:16.678Z</time>
      </trkpt>
      <trkpt lat="43.51417" lon="6.63898">
        <ele>101</ele>
        <time>2019-04-26T18:51:17.678Z</time>
      </trkpt>
      <trkpt lat="43.51414" lon="6.6389">
        <ele>101</ele>
        <time>2019-04-26T18:51:18.678Z</time>
      </trkpt>
      <trkpt lat="43.51412" lon="6.63882">
        <ele>101</ele>
        <time>2019-04-26T18:51:19.678Z</time>
      </trkpt>
      <trkpt lat="43.51414" lon="6.63879">
        <ele>101</ele>
        <time>2019-04-26T18:51:20.678Z</time>
      </trkpt>
      <trkpt lat="43.51416" lon="6.63877">
        <ele>101</ele>
        <time>2019-04-26T18:51:21.678Z</time>
      </trkpt>
      <trkpt lat="43.51419" lon="6.63876">
        <ele>102</ele>
        <time>2019-04-26T18:51:22.678Z</time>
      </trkpt>
      <trkpt lat="43.51422" lon="6.63875">
        <ele>102</ele>
        <time>2019-04-26T18:51:23.678Z</time>
      </trkpt>
      <trkpt lat="43.51428" lon="6.63873">
        <ele>102</ele>
        <time>2019-04-26T18:51:24.678Z</time>
      </trkpt>
      <trkpt lat="43.51433" lon="6.63869">
        <ele>103</ele>
        <time>2019-04-26T18:51:25.678Z</time>
      </trkpt>
      <trkpt lat="43.51435" lon="6.63868">
        <ele>103</ele>
        <time>2019-04-26T18:51:26.678Z</time>
      </trkpt>
      <trkpt lat="43.51438" lon="6.63866">
        <ele>103</ele>
        <time>2019-04-26T18:51:27.678Z</time>
      </trkpt>
      <trkpt lat="43.51442" lon="6.63863">
        <ele>104</ele>
        <time>2019-04-26T18:51:28.678Z</time>
      </trkpt>
      <trkpt lat="43.51447" lon="6.63859">
        <ele>104</ele>
        <time>2019-04-26T18:51:29.678Z</time>
      </trkpt>
      <trkpt lat="43.5145" lon="6.63857">
        <ele>104</ele>
        <time>2019-04-26T18:51:30.678Z</time>
      </trkpt>
      <trkpt lat="43.51452" lon="6.63855">
        <ele>104</ele>
        <time>2019-04-26T18:51:31.678Z</time>
      </trkpt>
      <trkpt lat="43.51457" lon="6.63852">
        <ele>105</ele>
        <time>2019-04-26T18:51:32.678Z</time>
      </trkpt>
      <trkpt lat="43.51462" lon="6.63848">
        <ele>105</ele>
        <time>2019-04-26T18:51:33.678Z</time>
      </trkpt>
      <trkpt lat="43.51464" lon="6.63846">
        <ele>105</ele>
        <time>2019-04-26T18:51:34.678Z</time>
      </trkpt>
      <trkpt lat="43.51467" lon="6.63844">
        <ele>106</ele>
        <time>2019-04-26T18:51:35.678Z</time>
      </trkpt>
      <trkpt lat="43.51469" lon="6.63843">
        <ele>106</ele>
        <time>2019-04-26T18:51:36.678Z</time>
      </trkpt>
      <trkpt lat="43.51472" lon="6.63841">
        <ele>106</ele>
        <time>2019-04-26T18:51:37.678Z</time>
      </trkpt>
      <trkpt lat="43.51476" lon="6.63837">
        <ele>106</ele>
        <time>2019-04-26T18:51:38.678Z</time>
      </trkpt>
      <trkpt lat="43.51481" lon="6.63833">
        <ele>107</ele>
        <time>2019-04-26T18:51:39.678Z</time>
      </trkpt>
      <trkpt lat="43.51485" lon="6.63829">
        <ele>107</ele>
        <time>2019-04-26T18:51:40.678Z</time>
      </trkpt>
      <trkpt lat="43.5149" lon="6.63825">
        <ele>107</ele>
        <time>2019-04-26T18:51:41.678Z</time>
      </trkpt>
      <trkpt lat="43.51495" lon="6.63821">
        <ele>108</ele>
        <time>2019-04-26T18:51:42.678Z</time>
      </trkpt>
      <trkpt lat="43.515" lon="6.63817">
        <ele>108</ele>
        <time>2019-04-26T18:51:43.678Z</time>
      </trkpt>
      <trkpt lat="43.51505" lon="6.63812">
        <ele>108</ele>
        <time>2019-04-26T18:51:44.678Z</time>
      </trkpt>
      <trkpt lat="43.5151" lon="6.63808">
        <ele>109</ele>
        <time>2019-04-26T18:51:45.678Z</time>
      </trkpt>
      <trkpt lat="43.51515" lon="6.63804">
        <ele>109</ele>
        <time>2019-04-26T18:51:46.678Z</time>
      </trkpt>
      <trkpt lat="43.51521" lon="6.638">
        <ele>110</ele>
        <time>2019-04-26T18:51:47.678Z</time>
      </trkpt>
      <trkpt lat="43.51526" lon="6.63796">
        <ele>110</ele>
        <time>2019-04-26T18:51:48.678Z</time>
      </trkpt>
      <trkpt lat="43.51529" lon="6.63794">
        <ele>111</ele>
        <time>2019-04-26T18:51:49.678Z</time>
      </trkpt>
      <trkpt lat="43.51531" lon="6.63792">
        <ele>111</ele>
        <time>2019-04-26T18:51:50.678Z</time>
      </trkpt>
      <trkpt lat="43.51536" lon="6.63788">
        <ele>111</ele>
        <time>2019-04-26T18:51:51.678Z</time>
      </trkpt>
      <trkpt lat="43.51539" lon="6.63786">
        <ele>112</ele>
        <time>2019-04-26T18:51:52.678Z</time>
      </trkpt>
      <trkpt lat="43.51541" lon="6.63784">
        <ele>112</ele>
        <time>2019-04-26T18:51:53.678Z</time>
      </trkpt>
      <trkpt lat="43.51546" lon="6.6378">
        <ele>112</ele>
        <time>2019-04-26T18:51:54.678Z</time>
      </trkpt>
      <trkpt lat="43.51551" lon="6.63776">
        <ele>113</ele>
        <time>2019-04-26T18:51:55.678Z</time>
      </trkpt>
      <trkpt lat="43.51556" lon="6.63772">
        <ele>113</ele>
        <time>2019-04-26T18:51:56.678Z</time>
      </trkpt>
      <trkpt lat="43.51561" lon="6.63768">
        <ele>114</ele>
        <time>2019-04-26T18:51:57.678Z</time>
      </trkpt>
      <trkpt lat="43.51565" lon="6.63765">
        <ele>114</ele>
        <time>2019-04-26T18:51:58.678Z</time>
      </trkpt>
      <trkpt lat="43.51568" lon="6.63763">
        <ele>114</ele>
        <time>2019-04-26T18:51:59.678Z</time>
      </trkpt>
      <trkpt lat="43.5157" lon="6.63761">
        <ele>115</ele>
        <time>2019-04-26T18:52:00.678Z</time>
      </trkpt>
      <trkpt lat="43.51575" lon="6.63758">
        <ele>115</ele>
        <time>2019-04-26T18:52:01.678Z</time>
      </trkpt>
      <trkpt lat="43.5158" lon="6.63753">
        <ele>116</ele>
        <time>2019-04-26T18:52:02.678Z</time>
      </trkpt>
      <trkpt lat="43.51585" lon="6.63749">
        <ele>116</ele>
        <time>2019-04-26T18:52:03.678Z</time>
      </trkpt>
      <trkpt lat="43.51589" lon="6.63745">
        <ele>117</ele>
        <time>2019-04-26T18:52:04.678Z</time>
      </trkpt>
      <trkpt lat="43.51592" lon="6.63744">
        <ele>117</ele>
        <time>2019-04-26T18:52:05.678Z</time>
      </trkpt>
      <trkpt lat="43.51594" lon="6.63742">
        <ele>118</ele>
        <time>2019-04-26T18:52:06.678Z</time>
      </trkpt>
      <trkpt lat="43.51599" lon="6.63738">
        <ele>118</ele>
        <time>2019-04-26T18:52:07.678Z</time>
      </trkpt>
      <trkpt lat="43.51604" lon="6.63734">
        <ele>119</ele>
        <time>2019-04-26T18:52:08.678Z</time>
      </trkpt>
      <trkpt lat="43.5161" lon="6.6373">
        <ele>120</ele>
        <time>2019-04-26T18:52:09.678Z</time>
      </trkpt>
      <trkpt lat="43.51612" lon="6.63727">
        <ele>120</ele>
        <time>2019-04-26T18:52:10.678Z</time>
      </trkpt>
      <trkpt lat="43.51615" lon="6.63725">
        <ele>121</ele>
        <time>2019-04-26T18:52:11.678Z</time>
      </trkpt>
      <trkpt lat="43.5162" lon="6.63722">
        <ele>121</ele>
        <time>2019-04-26T18:52:12.678Z</time>
      </trkpt>
      <trkpt lat="43.51625" lon="6.63718">
        <ele>122</ele>
        <time>2019-04-26T18:52:13.678Z</time>
      </trkpt>
      <trkpt lat="43.51627" lon="6.63716">
        <ele>122</ele>
        <time>2019-04-26T18:52:14.678Z</time>
      </trkpt>
      <trkpt lat="43.5163" lon="6.63714">
        <ele>123</ele>
        <time>2019-04-26T18:52:15.678Z</time>
      </trkpt>
      <trkpt lat="43.51635" lon="6.6371">
        <ele>123</ele>
        <time>2019-04-26T18:52:16.678Z</time>
      </trkpt>
      <trkpt lat="43.51637" lon="6.63709">
        <ele>124</ele>
        <time>2019-04-26T18:52:17.678Z</time>
      </trkpt>
      <trkpt lat="43.5164" lon="6.63707">
        <ele>124</ele>
        <time>2019-04-26T18:52:18.678Z</time>
      </trkpt>
      <trkpt lat="43.51644" lon="6.63703">
        <ele>125</ele>
        <time>2019-04-26T18:52:19.678Z</time>
      </trkpt>
      <trkpt lat="43.51646" lon="6.63702">
        <ele>125</ele>
        <time>2019-04-26T18:52:20.678Z</time>
      </trkpt>
      <trkpt lat="43.51648" lon="6.637">
        <ele>125</ele>
        <time>2019-04-26T18:52:21.678Z</time>
      </trkpt>
      <trkpt lat="43.51652" lon="6.63697">
        <ele>126</ele>
        <time>2019-04-26T18:52:22.678Z</time>
      </trkpt>
      <trkpt lat="43.51656" lon="6.63694">
        <ele>126</ele>
        <time>2019-04-26T18:52:23.678Z</time>
      </trkpt>
      <trkpt lat="43.51658" lon="6.63692">
        <ele>126</ele>
        <time>2019-04-26T18:52:24.678Z</time>
      </trkpt>
      <trkpt lat="43.51661" lon="6.63691">
        <ele>127</ele>
        <time>2019-04-26T18:52:25.678Z</time>
      </trkpt>
      <trkpt lat="43.51665" lon="6.63687">
        <ele>127</ele>
        <time>2019-04-26T18:52:26.678Z</time>
      </trkpt>
      <trkpt lat="43.51666" lon="6.63685">
        <ele>127</ele>
        <time>2019-04-26T18:52:27.678Z</time>
      </trkpt>
      <trkpt lat="43.51668" lon="6.63683">
        <ele>128</ele>
        <time>2019-04-26T18:52:28.678Z</time>
      </trkpt>
      <trkpt lat="43.51672" lon="6.6368">
        <ele>129</ele>
        <time>2019-04-26T18:52:29.678Z</time>
      </trkpt>
      <trkpt lat="43.51674" lon="6.63679">
        <ele>129</ele>
        <time>2019-04-26T18:52:30.678Z</time>
      </trkpt>
      <trkpt lat="43.51677" lon="6.63678">
        <ele>130</ele>
        <time>2019-04-26T18:52:31.678Z</time>
      </trkpt>
      <trkpt lat="43.5168" lon="6.63677">
        <ele>131</ele>
        <time>2019-04-26T18:52:32.678Z</time>
      </trkpt>
      <trkpt lat="43.51683" lon="6.63673">
        <ele>131</ele>
        <time>2019-04-26T18:52:33.678Z</time>
      </trkpt>
      <trkpt lat="43.51684" lon="6.63666">
        <ele>132</ele>
        <time>2019-04-26T18:52:34.678Z</time>
      </trkpt>
      <trkpt lat="43.51684" lon="6.63658">
        <ele>132</ele>
        <time>2019-04-26T18:52:35.678Z</time>
      </trkpt>
      <trkpt lat="43.51681" lon="6.63648">
        <ele>131</ele>
        <time>2019-04-26T18:52:36.678Z</time>
      </trkpt>
      <trkpt lat="43.51677" lon="6.63637">
        <ele>130</ele>
        <time>2019-04-26T18:52:37.678Z</time>
      </trkpt>
      <trkpt lat="43.51674" lon="6.63625">
        <ele>129</ele>
        <time>2019-04-26T18:52:38.678Z</time>
      </trkpt>
      <trkpt lat="43.5167" lon="6.63613">
        <ele>128</ele>
        <time>2019-04-26T18:52:39.678Z</time>
      </trkpt>
      <trkpt lat="43.51668" lon="6.63606">
        <ele>128</ele>
        <time>2019-04-26T18:52:40.678Z</time>
      </trkpt>
      <trkpt lat="43.51666" lon="6.63599">
        <ele>128</ele>
        <time>2019-04-26T18:52:41.678Z</time>
      </trkpt>
      <trkpt lat="43.51663" lon="6.63591">
        <ele>127</ele>
        <time>2019-04-26T18:52:42.678Z</time>
      </trkpt>
      <trkpt lat="43.51661" lon="6.63584">
        <ele>127</ele>
        <time>2019-04-26T18:52:43.678Z</time>
      </trkpt>
      <trkpt lat="43.51656" lon="6.63567">
        <ele>126</ele>
        <time>2019-04-26T18:52:44.678Z</time>
      </trkpt>
      <trkpt lat="43.51651" lon="6.63551">
        <ele>125</ele>
        <time>2019-04-26T18:52:45.678Z</time>
      </trkpt>
      <trkpt lat="43.5165" lon="6.63542">
        <ele>125</ele>
        <time>2019-04-26T18:52:46.678Z</time>
      </trkpt>
      <trkpt lat="43.51648" lon="6.63534">
        <ele>124</ele>
        <time>2019-04-26T18:52:47.678Z</time>
      </trkpt>
      <trkpt lat="43.51647" lon="6.63524">
        <ele>124</ele>
        <time>2019-04-26T18:52:48.678Z</time>
      </trkpt>
      <trkpt lat="43.51647" lon="6.63515">
        <ele>124</ele>
        <time>2019-04-26T18:52:49.678Z</time>
      </trkpt>
      <trkpt lat="43.51648" lon="6.63505">
        <ele>124</ele>
        <time>2019-04-26T18:52:50.678Z</time>
      </trkpt>
      <trkpt lat="43.51649" lon="6.63495">
        <ele>124</ele>
        <time>2019-04-26T18:52:51.678Z</time>
      </trkpt>
      <trkpt lat="43.5165" lon="6.63485">
        <ele>124</ele>
        <time>2019-04-26T18:52:52.678Z</time>
      </trkpt>
      <trkpt lat="43.5165" lon="6.63476">
        <ele>124</ele>
        <time>2019-04-26T18:52:53.678Z</time>
      </trkpt>
      <trkpt lat="43.5165" lon="6.63458">
        <ele>124</ele>
        <time>2019-04-26T18:52:54.678Z</time>
      </trkpt>
      <trkpt lat="43.51649" lon="6.63448">
        <ele>124</ele>
        <time>2019-04-26T18:52:55.678Z</time>
      </trkpt>
      <trkpt lat="43.51647" lon="6.63439">
        <ele>124</ele>
        <time>2019-04-26T18:52:56.678Z</time>
      </trkpt>
      <trkpt lat="43.51644" lon="6.6342">
        <ele>123</ele>
        <time>2019-04-26T18:52:57.678Z</time>
      </trkpt>
      <trkpt lat="43.51643" lon="6.6341">
        <ele>123</ele>
        <time>2019-04-26T18:52:58.678Z</time>
      </trkpt>
      <trkpt lat="43.51643" lon="6.634">
        <ele>123</ele>
        <time>2019-04-26T18:52:59.678Z</time>
      </trkpt>
      <trkpt lat="43.51646" lon="6.6338">
        <ele>124</ele>
        <time>2019-04-26T18:53:00.678Z</time>
      </trkpt>
      <trkpt lat="43.51648" lon="6.63361">
        <ele>124</ele>
        <time>2019-04-26T18:53:01.678Z</time>
      </trkpt>
      <trkpt lat="43.5165" lon="6.63351">
        <ele>125</ele>
        <time>2019-04-26T18:53:02.678Z</time>
      </trkpt>
      <trkpt lat="43.51651" lon="6.63342">
        <ele>125</ele>
        <time>2019-04-26T18:53:03.678Z</time>
      </trkpt>
      <trkpt lat="43.51654" lon="6.63323">
        <ele>126</ele>
        <time>2019-04-26T18:53:04.678Z</time>
      </trkpt>
      <trkpt lat="43.51655" lon="6.63313">
        <ele>127</ele>
        <time>2019-04-26T18:53:05.678Z</time>
      </trkpt>
      <trkpt lat="43.51656" lon="6.63303">
        <ele>128</ele>
        <time>2019-04-26T18:53:06.678Z</time>
      </trkpt>
      <trkpt lat="43.51657" lon="6.63293">
        <ele>129</ele>
        <time>2019-04-26T18:53:07.678Z</time>
      </trkpt>
      <trkpt lat="43.51655" lon="6.63283">
        <ele>129</ele>
        <time>2019-04-26T18:53:08.678Z</time>
      </trkpt>
      <trkpt lat="43.51649" lon="6.63266">
        <ele>129</ele>
        <time>2019-04-26T18:53:09.678Z</time>
      </trkpt>
      <trkpt lat="43.51645" lon="6.63257">
        <ele>129</ele>
        <time>2019-04-26T18:53:10.678Z</time>
      </trkpt>
      <trkpt lat="43.51641" lon="6.63248">
        <ele>129</ele>
        <time>2019-04-26T18:53:11.678Z</time>
      </trkpt>
      <trkpt lat="43.51633" lon="6.63231">
        <ele>128</ele>
        <time>2019-04-26T18:53:12.678Z</time>
      </trkpt>
      <trkpt lat="43.51626" lon="6.63212">
        <ele>127</ele>
        <time>2019-04-26T18:53:13.678Z</time>
      </trkpt>
      <trkpt lat="43.51623" lon="6.63201">
        <ele>126</ele>
        <time>2019-04-26T18:53:14.678Z</time>
      </trkpt>
      <trkpt lat="43.51621" lon="6.6319">
        <ele>126</ele>
        <time>2019-04-26T18:53:15.678Z</time>
      </trkpt>
      <trkpt lat="43.51621" lon="6.63166">
        <ele>126</ele>
        <time>2019-04-26T18:53:16.678Z</time>
      </trkpt>
      <trkpt lat="43.51622" lon="6.63143">
        <ele>126</ele>
        <time>2019-04-26T18:53:17.678Z</time>
      </trkpt>
      <trkpt lat="43.51621" lon="6.6312">
        <ele>126</ele>
        <time>2019-04-26T18:53:18.678Z</time>
      </trkpt>
      <trkpt lat="43.51615" lon="6.631">
        <ele>125</ele>
        <time>2019-04-26T18:53:19.678Z</time>
      </trkpt>
      <trkpt lat="43.51606" lon="6.63081">
        <ele>123</ele>
        <time>2019-04-26T18:53:20.678Z</time>
      </trkpt>
      <trkpt lat="43.51596" lon="6.63063">
        <ele>122</ele>
        <time>2019-04-26T18:53:21.678Z</time>
      </trkpt>
      <trkpt lat="43.51586" lon="6.63047">
        <ele>120</ele>
        <time>2019-04-26T18:53:22.678Z</time>
      </trkpt>
      <trkpt lat="43.51578" lon="6.63031">
        <ele>120</ele>
        <time>2019-04-26T18:53:23.678Z</time>
      </trkpt>
      <trkpt lat="43.51577" lon="6.63024">
        <ele>120</ele>
        <time>2019-04-26T18:53:24.678Z</time>
      </trkpt>
      <trkpt lat="43.51578" lon="6.63018">
        <ele>120</ele>
        <time>2019-04-26T18:53:25.678Z</time>
      </trkpt>
      <trkpt lat="43.51583" lon="6.63009">
        <ele>121</ele>
        <time>2019-04-26T18:53:26.678Z</time>
      </trkpt>
      <trkpt lat="43.5159" lon="6.63003">
        <ele>122</ele>
        <time>2019-04-26T18:53:27.678Z</time>
      </trkpt>
      <trkpt lat="43.51594" lon="6.62994">
        <ele>122</ele>
        <time>2019-04-26T18:53:28.678Z</time>
      </trkpt>
      <trkpt lat="43.51597" lon="6.62984">
        <ele>122</ele>
        <time>2019-04-26T18:53:29.678Z</time>
      </trkpt>
      <trkpt lat="43.51599" lon="6.62975">
        <ele>123</ele>
        <time>2019-04-26T18:53:30.678Z</time>
      </trkpt>
      <trkpt lat="43.51603" lon="6.62967">
        <ele>123</ele>
        <time>2019-04-26T18:53:31.678Z</time>
      </trkpt>
      <trkpt lat="43.51604" lon="6.62963">
        <ele>123</ele>
        <time>2019-04-26T18:53:32.678Z</time>
      </trkpt>
      <trkpt lat="43.51606" lon="6.62958">
        <ele>123</ele>
        <time>2019-04-26T18:53:33.678Z</time>
      </trkpt>
      <trkpt lat="43.51608" lon="6.62954">
        <ele>123</ele>
        <time>2019-04-26T18:53:34.678Z</time>
      </trkpt>
      <trkpt lat="43.5161" lon="6.6295">
        <ele>123</ele>
        <time>2019-04-26T18:53:35.678Z</time>
      </trkpt>
      <trkpt lat="43.51614" lon="6.62942">
        <ele>124</ele>
        <time>2019-04-26T18:53:36.678Z</time>
      </trkpt>
      <trkpt lat="43.51616" lon="6.62937">
        <ele>124</ele>
        <time>2019-04-26T18:53:37.678Z</time>
      </trkpt>
      <trkpt lat="43.51618" lon="6.62933">
        <ele>124</ele>
        <time>2019-04-26T18:53:38.678Z</time>
      </trkpt>
      <trkpt lat="43.51621" lon="6.62924">
        <ele>124</ele>
        <time>2019-04-26T18:53:39.678Z</time>
      </trkpt>
      <trkpt lat="43.51624" lon="6.62915">
        <ele>124</ele>
        <time>2019-04-26T18:53:40.678Z</time>
      </trkpt>
      <trkpt lat="43.51626" lon="6.62905">
        <ele>124</ele>
        <time>2019-04-26T18:53:41.678Z</time>
      </trkpt>
      <trkpt lat="43.51628" lon="6.62895">
        <ele>124</ele>
        <time>2019-04-26T18:53:42.678Z</time>
      </trkpt>
      <trkpt lat="43.5163" lon="6.62887">
        <ele>124</ele>
        <time>2019-04-26T18:53:43.678Z</time>
      </trkpt>
      <trkpt lat="43.51633" lon="6.62879">
        <ele>124</ele>
        <time>2019-04-26T18:53:44.678Z</time>
      </trkpt>
      <trkpt lat="43.51636" lon="6.62871">
        <ele>124</ele>
        <time>2019-04-26T18:53:45.678Z</time>
      </trkpt>
      <trkpt lat="43.5164" lon="6.62863">
        <ele>124</ele>
        <time>2019-04-26T18:53:46.678Z</time>
      </trkpt>
      <trkpt lat="43.51643" lon="6.62855">
        <ele>124</ele>
        <time>2019-04-26T18:53:47.678Z</time>
      </trkpt>
      <trkpt lat="43.51645" lon="6.62846">
        <ele>124</ele>
        <time>2019-04-26T18:53:48.678Z</time>
      </trkpt>
      <trkpt lat="43.51647" lon="6.62837">
        <ele>124</ele>
        <time>2019-04-26T18:53:49.678Z</time>
      </trkpt>
      <trkpt lat="43.51648" lon="6.62828">
        <ele>124</ele>
        <time>2019-04-26T18:53:50.678Z</time>
      </trkpt>
      <trkpt lat="43.51649" lon="6.62817">
        <ele>124</ele>
        <time>2019-04-26T18:53:51.678Z</time>
      </trkpt>
      <trkpt lat="43.5165" lon="6.62811">
        <ele>124</ele>
        <time>2019-04-26T18:53:52.678Z</time>
      </trkpt>
      <trkpt lat="43.51652" lon="6.62806">
        <ele>124</ele>
        <time>2019-04-26T18:53:53.678Z</time>
      </trkpt>
      <trkpt lat="43.51655" lon="6.62793">
        <ele>124</ele>
        <time>2019-04-26T18:53:54.678Z</time>
      </trkpt>
      <trkpt lat="43.51657" lon="6.62786">
        <ele>124</ele>
        <time>2019-04-26T18:53:55.678Z</time>
      </trkpt>
      <trkpt lat="43.51659" lon="6.62778">
        <ele>124</ele>
        <time>2019-04-26T18:53:56.678Z</time>
      </trkpt>
      <trkpt lat="43.51662" lon="6.62771">
        <ele>124</ele>
        <time>2019-04-26T18:53:57.678Z</time>
      </trkpt>
      <trkpt lat="43.51665" lon="6.62764">
        <ele>124</ele>
        <time>2019-04-26T18:53:58.678Z</time>
      </trkpt>
      <trkpt lat="43.51668" lon="6.62756">
        <ele>124</ele>
        <time>2019-04-26T18:53:59.678Z</time>
      </trkpt>
      <trkpt lat="43.5167" lon="6.62748">
        <ele>124</ele>
        <time>2019-04-26T18:54:00.678Z</time>
      </trkpt>
      <trkpt lat="43.51672" lon="6.6274">
        <ele>125</ele>
        <time>2019-04-26T18:54:01.678Z</time>
      </trkpt>
      <trkpt lat="43.51673" lon="6.62733">
        <ele>125</ele>
        <time>2019-04-26T18:54:02.678Z</time>
      </trkpt>
      <trkpt lat="43.51675" lon="6.62719">
        <ele>124</ele>
        <time>2019-04-26T18:54:03.678Z</time>
      </trkpt>
      <trkpt lat="43.51675" lon="6.62713">
        <ele>124</ele>
        <time>2019-04-26T18:54:04.678Z</time>
      </trkpt>
      <trkpt lat="43.51676" lon="6.62705">
        <ele>124</ele>
        <time>2019-04-26T18:54:05.678Z</time>
      </trkpt>
      <trkpt lat="43.51676" lon="6.62697">
        <ele>124</ele>
        <time>2019-04-26T18:54:06.678Z</time>
      </trkpt>
      <trkpt lat="43.51677" lon="6.62689">
        <ele>124</ele>
        <time>2019-04-26T18:54:07.678Z</time>
      </trkpt>
      <trkpt lat="43.51679" lon="6.62681">
        <ele>124</ele>
        <time>2019-04-26T18:54:08.678Z</time>
      </trkpt>
      <trkpt lat="43.51681" lon="6.62673">
        <ele>124</ele>
        <time>2019-04-26T18:54:09.678Z</time>
      </trkpt>
      <trkpt lat="43.51684" lon="6.62656">
        <ele>124</ele>
        <time>2019-04-26T18:54:10.678Z</time>
      </trkpt>
      <trkpt lat="43.51685" lon="6.62648">
        <ele>124</ele>
        <time>2019-04-26T18:54:11.678Z</time>
      </trkpt>
      <trkpt lat="43.51687" lon="6.6264">
        <ele>124</ele>
        <time>2019-04-26T18:54:12.678Z</time>
      </trkpt>
      <trkpt lat="43.51689" lon="6.62623">
        <ele>124</ele>
        <time>2019-04-26T18:54:13.678Z</time>
      </trkpt>
      <trkpt lat="43.51692" lon="6.62606">
        <ele>124</ele>
        <time>2019-04-26T18:54:14.678Z</time>
      </trkpt>
      <trkpt lat="43.51695" lon="6.62589">
        <ele>124</ele>
        <time>2019-04-26T18:54:15.678Z</time>
      </trkpt>
      <trkpt lat="43.51698" lon="6.6257">
        <ele>124</ele>
        <time>2019-04-26T18:54:16.678Z</time>
      </trkpt>
      <trkpt lat="43.51698" lon="6.6256">
        <ele>124</ele>
        <time>2019-04-26T18:54:17.678Z</time>
      </trkpt>
      <trkpt lat="43.517" lon="6.62551">
        <ele>124</ele>
        <time>2019-04-26T18:54:18.678Z</time>
      </trkpt>
      <trkpt lat="43.51704" lon="6.62531">
        <ele>124</ele>
        <time>2019-04-26T18:54:19.678Z</time>
      </trkpt>
      <trkpt lat="43.51707" lon="6.62522">
        <ele>124</ele>
        <time>2019-04-26T18:54:20.678Z</time>
      </trkpt>
      <trkpt lat="43.51709" lon="6.62514">
        <ele>124</ele>
        <time>2019-04-26T18:54:21.678Z</time>
      </trkpt>
      <trkpt lat="43.51713" lon="6.62499">
        <ele>124</ele>
        <time>2019-04-26T18:54:22.678Z</time>
      </trkpt>
      <trkpt lat="43.51712" lon="6.62493">
        <ele>124</ele>
        <time>2019-04-26T18:54:23.678Z</time>
      </trkpt>
      <trkpt lat="43.51712" lon="6.62488">
        <ele>123</ele>
        <time>2019-04-26T18:54:24.678Z</time>
      </trkpt>
      <trkpt lat="43.51713" lon="6.62477">
        <ele>123</ele>
        <time>2019-04-26T18:54:25.678Z</time>
      </trkpt>
      <trkpt lat="43.51714" lon="6.62465">
        <ele>122</ele>
        <time>2019-04-26T18:54:26.678Z</time>
      </trkpt>
      <trkpt lat="43.51714" lon="6.62458">
        <ele>122</ele>
        <time>2019-04-26T18:54:27.678Z</time>
      </trkpt>
      <trkpt lat="43.51714" lon="6.62453">
        <ele>122</ele>
        <time>2019-04-26T18:54:28.678Z</time>
      </trkpt>
      <trkpt lat="43.51713" lon="6.6245">
        <ele>121</ele>
        <time>2019-04-26T18:54:29.678Z</time>
      </trkpt>
      <trkpt lat="43.51713" lon="6.62443">
        <ele>121</ele>
        <time>2019-04-26T18:54:30.678Z</time>
      </trkpt>
      <trkpt lat="43.51716" lon="6.62435">
        <ele>121</ele>
        <time>2019-04-26T18:54:31.678Z</time>
      </trkpt>
      <trkpt lat="43.5172" lon="6.62424">
        <ele>121</ele>
        <time>2019-04-26T18:54:32.678Z</time>
      </trkpt>
      <trkpt lat="43.51725" lon="6.62412">
        <ele>121</ele>
        <time>2019-04-26T18:54:33.678Z</time>
      </trkpt>
      <trkpt lat="43.51726" lon="6.62404">
        <ele>121</ele>
        <time>2019-04-26T18:54:34.678Z</time>
      </trkpt>
      <trkpt lat="43.51728" lon="6.62396">
        <ele>121</ele>
        <time>2019-04-26T18:54:35.678Z</time>
      </trkpt>
      <trkpt lat="43.51731" lon="6.62388">
        <ele>121</ele>
        <time>2019-04-26T18:54:36.678Z</time>
      </trkpt>
      <trkpt lat="43.51733" lon="6.6238">
        <ele>121</ele>
        <time>2019-04-26T18:54:37.678Z</time>
      </trkpt>
      <trkpt lat="43.51737" lon="6.62363">
        <ele>120</ele>
        <time>2019-04-26T18:54:38.678Z</time>
      </trkpt>
      <trkpt lat="43.51736" lon="6.62344">
        <ele>119</ele>
        <time>2019-04-26T18:54:39.678Z</time>
      </trkpt>
      <trkpt lat="43.51732" lon="6.62336">
        <ele>119</ele>
        <time>2019-04-26T18:54:40.678Z</time>
      </trkpt>
      <trkpt lat="43.51727" lon="6.6233">
        <ele>118</ele>
        <time>2019-04-26T18:54:41.678Z</time>
      </trkpt>
      <trkpt lat="43.51719" lon="6.62312">
        <ele>117</ele>
        <time>2019-04-26T18:54:42.678Z</time>
      </trkpt>
      <trkpt lat="43.51714" lon="6.62305">
        <ele>116</ele>
        <time>2019-04-26T18:54:43.678Z</time>
      </trkpt>
      <trkpt lat="43.51707" lon="6.62301">
        <ele>116</ele>
        <time>2019-04-26T18:54:44.678Z</time>
      </trkpt>
      <trkpt lat="43.517" lon="6.62297">
        <ele>115</ele>
        <time>2019-04-26T18:54:45.678Z</time>
      </trkpt>
      <trkpt lat="43.51693" lon="6.62293">
        <ele>115</ele>
        <time>2019-04-26T18:54:46.678Z</time>
      </trkpt>
      <trkpt lat="43.51679" lon="6.62284">
        <ele>114</ele>
        <time>2019-04-26T18:54:47.678Z</time>
      </trkpt>
      <trkpt lat="43.51672" lon="6.62278">
        <ele>114</ele>
        <time>2019-04-26T18:54:48.678Z</time>
      </trkpt>
      <trkpt lat="43.51666" lon="6.62272">
        <ele>113</ele>
        <time>2019-04-26T18:54:49.678Z</time>
      </trkpt>
      <trkpt lat="43.51662" lon="6.62265">
        <ele>113</ele>
        <time>2019-04-26T18:54:50.678Z</time>
      </trkpt>
      <trkpt lat="43.5166" lon="6.62256">
        <ele>113</ele>
        <time>2019-04-26T18:54:51.678Z</time>
      </trkpt>
      <trkpt lat="43.51658" lon="6.62246">
        <ele>112</ele>
        <time>2019-04-26T18:54:52.678Z</time>
      </trkpt>
      <trkpt lat="43.51657" lon="6.62236">
        <ele>112</ele>
        <time>2019-04-26T18:54:53.678Z</time>
      </trkpt>
      <trkpt lat="43.51654" lon="6.62215">
        <ele>111</ele>
        <time>2019-04-26T18:54:54.678Z</time>
      </trkpt>
      <trkpt lat="43.51652" lon="6.62203">
        <ele>111</ele>
        <time>2019-04-26T18:54:55.678Z</time>
      </trkpt>
      <trkpt lat="43.51649" lon="6.62192">
        <ele>111</ele>
        <time>2019-04-26T18:54:56.678Z</time>
      </trkpt>
      <trkpt lat="43.51645" lon="6.62169">
        <ele>110</ele>
        <time>2019-04-26T18:54:57.678Z</time>
      </trkpt>
      <trkpt lat="43.51641" lon="6.62145">
        <ele>109</ele>
        <time>2019-04-26T18:54:58.678Z</time>
      </trkpt>
      <trkpt lat="43.51637" lon="6.6212">
        <ele>108</ele>
        <time>2019-04-26T18:54:59.678Z</time>
      </trkpt>
      <trkpt lat="43.51632" lon="6.62096">
        <ele>107</ele>
        <time>2019-04-26T18:55:00.678Z</time>
      </trkpt>
      <trkpt lat="43.51628" lon="6.62084">
        <ele>106</ele>
        <time>2019-04-26T18:55:01.678Z</time>
      </trkpt>
      <trkpt lat="43.51625" lon="6.62074">
        <ele>106</ele>
        <time>2019-04-26T18:55:02.678Z</time>
      </trkpt>
      <trkpt lat="43.51622" lon="6.62065">
        <ele>105</ele>
        <time>2019-04-26T18:55:03.678Z</time>
      </trkpt>
      <trkpt lat="43.51621" lon="6.62055">
        <ele>105</ele>
        <time>2019-04-26T18:55:04.678Z</time>
      </trkpt>
      <trkpt lat="43.51622" lon="6.62046">
        <ele>105</ele>
        <time>2019-04-26T18:55:05.678Z</time>
      </trkpt>
      <trkpt lat="43.51622" lon="6.62037">
        <ele>105</ele>
        <time>2019-04-26T18:55:06.678Z</time>
      </trkpt>
      <trkpt lat="43.5162" lon="6.62017">
        <ele>104</ele>
        <time>2019-04-26T18:55:07.678Z</time>
      </trkpt>
      <trkpt lat="43.51619" lon="6.62007">
        <ele>104</ele>
        <time>2019-04-26T18:55:08.678Z</time>
      </trkpt>
      <trkpt lat="43.51619" lon="6.61999">
        <ele>104</ele>
        <time>2019-04-26T18:55:09.678Z</time>
      </trkpt>
      <trkpt lat="43.51621" lon="6.61991">
        <ele>104</ele>
        <time>2019-04-26T18:55:10.678Z</time>
      </trkpt>
      <trkpt lat="43.51624" lon="6.61985">
        <ele>104</ele>
        <time>2019-04-26T18:55:11.678Z</time>
      </trkpt>
      <trkpt lat="43.51631" lon="6.61973">
        <ele>104</ele>
        <time>2019-04-26T18:55:12.678Z</time>
      </trkpt>
      <trkpt lat="43.51633" lon="6.61966">
        <ele>103</ele>
        <time>2019-04-26T18:55:13.678Z</time>
      </trkpt>
      <trkpt lat="43.51632" lon="6.6196">
        <ele>103</ele>
        <time>2019-04-26T18:55:14.678Z</time>
      </trkpt>
      <trkpt lat="43.51632" lon="6.61957">
        <ele>103</ele>
        <time>2019-04-26T18:55:15.678Z</time>
      </trkpt>
      <trkpt lat="43.51631" lon="6.61952">
        <ele>103</ele>
        <time>2019-04-26T18:55:16.678Z</time>
      </trkpt>
      <trkpt lat="43.51632" lon="6.61942">
        <ele>103</ele>
        <time>2019-04-26T18:55:17.678Z</time>
      </trkpt>
      <trkpt lat="43.51633" lon="6.61939">
        <ele>103</ele>
        <time>2019-04-26T18:55:18.678Z</time>
      </trkpt>
      <trkpt lat="43.51636" lon="6.61937">
        <ele>103</ele>
        <time>2019-04-26T18:55:19.678Z</time>
      </trkpt>
      <trkpt lat="43.51641" lon="6.61931">
        <ele>103</ele>
        <time>2019-04-26T18:55:20.678Z</time>
      </trkpt>
      <trkpt lat="43.51643" lon="6.61927">
        <ele>103</ele>
        <time>2019-04-26T18:55:21.678Z</time>
      </trkpt>
      <trkpt lat="43.51644" lon="6.61924">
        <ele>103</ele>
        <time>2019-04-26T18:55:22.678Z</time>
      </trkpt>
      <trkpt lat="43.51645" lon="6.61919">
        <ele>103</ele>
        <time>2019-04-26T18:55:23.678Z</time>
      </trkpt>
      <trkpt lat="43.51645" lon="6.61916">
        <ele>103</ele>
        <time>2019-04-26T18:55:24.678Z</time>
      </trkpt>
      <trkpt lat="43.51645" lon="6.61913">
        <ele>103</ele>
        <time>2019-04-26T18:55:25.678Z</time>
      </trkpt>
      <trkpt lat="43.51646" lon="6.61911">
        <ele>103</ele>
        <time>2019-04-26T18:55:26.678Z</time>
      </trkpt>
      <trkpt lat="43.51647" lon="6.61911">
        <ele>103</ele>
        <time>2019-04-26T18:55:27.678Z</time>
      </trkpt>
      <trkpt lat="43.51649" lon="6.61911">
        <ele>103</ele>
        <time>2019-04-26T18:55:28.678Z</time>
      </trkpt>
      <trkpt lat="43.51652" lon="6.61909">
        <ele>103</ele>
        <time>2019-04-26T18:55:29.678Z</time>
      </trkpt>
      <trkpt lat="43.51655" lon="6.61905">
        <ele>104</ele>
        <time>2019-04-26T18:55:30.678Z</time>
      </trkpt>
      <trkpt lat="43.51656" lon="6.61901">
        <ele>104</ele>
        <time>2019-04-26T18:55:31.678Z</time>
      </trkpt>
      <trkpt lat="43.51657" lon="6.61896">
        <ele>104</ele>
        <time>2019-04-26T18:55:32.678Z</time>
      </trkpt>
      <trkpt lat="43.51657" lon="6.61884">
        <ele>104</ele>
        <time>2019-04-26T18:55:33.678Z</time>
      </trkpt>
      <trkpt lat="43.51658" lon="6.6188">
        <ele>104</ele>
        <time>2019-04-26T18:55:34.678Z</time>
      </trkpt>
      <trkpt lat="43.51658" lon="6.61876">
        <ele>104</ele>
        <time>2019-04-26T18:55:35.678Z</time>
      </trkpt>
      <trkpt lat="43.51659" lon="6.61865">
        <ele>104</ele>
        <time>2019-04-26T18:55:36.678Z</time>
      </trkpt>
      <trkpt lat="43.51659" lon="6.61859">
        <ele>104</ele>
        <time>2019-04-26T18:55:37.678Z</time>
      </trkpt>
      <trkpt lat="43.51658" lon="6.61853">
        <ele>104</ele>
        <time>2019-04-26T18:55:38.678Z</time>
      </trkpt>
      <trkpt lat="43.51654" lon="6.61843">
        <ele>104</ele>
        <time>2019-04-26T18:55:39.678Z</time>
      </trkpt>
      <trkpt lat="43.51652" lon="6.61838">
        <ele>104</ele>
        <time>2019-04-26T18:55:40.678Z</time>
      </trkpt>
      <trkpt lat="43.51651" lon="6.61833">
        <ele>104</ele>
        <time>2019-04-26T18:55:41.678Z</time>
      </trkpt>
      <trkpt lat="43.51648" lon="6.61823">
        <ele>104</ele>
        <time>2019-04-26T18:55:42.678Z</time>
      </trkpt>
      <trkpt lat="43.51647" lon="6.61814">
        <ele>103</ele>
        <time>2019-04-26T18:55:43.678Z</time>
      </trkpt>
      <trkpt lat="43.51646" lon="6.61811">
        <ele>103</ele>
        <time>2019-04-26T18:55:44.678Z</time>
      </trkpt>
      <trkpt lat="43.51645" lon="6.61807">
        <ele>103</ele>
        <time>2019-04-26T18:55:45.678Z</time>
      </trkpt>
      <trkpt lat="43.51643" lon="6.61798">
        <ele>103</ele>
        <time>2019-04-26T18:55:46.678Z</time>
      </trkpt>
      <trkpt lat="43.5164" lon="6.61791">
        <ele>103</ele>
        <time>2019-04-26T18:55:47.678Z</time>
      </trkpt>
      <trkpt lat="43.5164" lon="6.61789">
        <ele>103</ele>
        <time>2019-04-26T18:55:48.678Z</time>
      </trkpt>
      <trkpt lat="43.51639" lon="6.61781">
        <ele>103</ele>
        <time>2019-04-26T18:55:49.678Z</time>
      </trkpt>
      <trkpt lat="43.51638" lon="6.61778">
        <ele>103</ele>
        <time>2019-04-26T18:55:50.678Z</time>
      </trkpt>
      <trkpt lat="43.51637" lon="6.61774">
        <ele>103</ele>
        <time>2019-04-26T18:55:51.678Z</time>
      </trkpt>
      <trkpt lat="43.51633" lon="6.61767">
        <ele>103</ele>
        <time>2019-04-26T18:55:52.678Z</time>
      </trkpt>
      <trkpt lat="43.51628" lon="6.61757">
        <ele>103</ele>
        <time>2019-04-26T18:55:53.678Z</time>
      </trkpt>
      <trkpt lat="43.51625" lon="6.61753">
        <ele>102</ele>
        <time>2019-04-26T18:55:54.678Z</time>
      </trkpt>
      <trkpt lat="43.5162" lon="6.61749">
        <ele>102</ele>
        <time>2019-04-26T18:55:55.678Z</time>
      </trkpt>
      <trkpt lat="43.5161" lon="6.61742">
        <ele>101</ele>
        <time>2019-04-26T18:55:56.678Z</time>
      </trkpt>
      <trkpt lat="43.51605" lon="6.61738">
        <ele>101</ele>
        <time>2019-04-26T18:55:57.678Z</time>
      </trkpt>
      <trkpt lat="43.516" lon="6.61734">
        <ele>100</ele>
        <time>2019-04-26T18:55:58.678Z</time>
      </trkpt>
      <trkpt lat="43.51596" lon="6.61728">
        <ele>100</ele>
        <time>2019-04-26T18:55:59.678Z</time>
      </trkpt>
      <trkpt lat="43.51594" lon="6.61721">
        <ele>100</ele>
        <time>2019-04-26T18:56:00.678Z</time>
      </trkpt>
      <trkpt lat="43.51596" lon="6.61706">
        <ele>99</ele>
        <time>2019-04-26T18:56:01.678Z</time>
      </trkpt>
      <trkpt lat="43.51599" lon="6.61698">
        <ele>99</ele>
        <time>2019-04-26T18:56:02.678Z</time>
      </trkpt>
      <trkpt lat="43.51602" lon="6.6169">
        <ele>99</ele>
        <time>2019-04-26T18:56:03.678Z</time>
      </trkpt>
      <trkpt lat="43.51605" lon="6.61681">
        <ele>99</ele>
        <time>2019-04-26T18:56:04.678Z</time>
      </trkpt>
      <trkpt lat="43.51607" lon="6.61672">
        <ele>99</ele>
        <time>2019-04-26T18:56:05.678Z</time>
      </trkpt>
      <trkpt lat="43.51612" lon="6.61654">
        <ele>98</ele>
        <time>2019-04-26T18:56:06.678Z</time>
      </trkpt>
      <trkpt lat="43.51614" lon="6.61646">
        <ele>98</ele>
        <time>2019-04-26T18:56:07.678Z</time>
      </trkpt>
      <trkpt lat="43.51616" lon="6.61637">
        <ele>98</ele>
        <time>2019-04-26T18:56:08.678Z</time>
      </trkpt>
      <trkpt lat="43.51622" lon="6.61619">
        <ele>98</ele>
        <time>2019-04-26T18:56:09.678Z</time>
      </trkpt>
      <trkpt lat="43.51628" lon="6.616">
        <ele>97</ele>
        <time>2019-04-26T18:56:10.678Z</time>
      </trkpt>
      <trkpt lat="43.5163" lon="6.6159">
        <ele>97</ele>
        <time>2019-04-26T18:56:11.678Z</time>
      </trkpt>
      <trkpt lat="43.51632" lon="6.6158">
        <ele>97</ele>
        <time>2019-04-26T18:56:12.678Z</time>
      </trkpt>
      <trkpt lat="43.5163" lon="6.61557">
        <ele>96</ele>
        <time>2019-04-26T18:56:13.678Z</time>
      </trkpt>
      <trkpt lat="43.51624" lon="6.61536">
        <ele>96</ele>
        <time>2019-04-26T18:56:14.678Z</time>
      </trkpt>
      <trkpt lat="43.51622" lon="6.61525">
        <ele>95</ele>
        <time>2019-04-26T18:56:15.678Z</time>
      </trkpt>
      <trkpt lat="43.5162" lon="6.61514">
        <ele>95</ele>
        <time>2019-04-26T18:56:16.678Z</time>
      </trkpt>
      <trkpt lat="43.51615" lon="6.61492">
        <ele>94</ele>
        <time>2019-04-26T18:56:17.678Z</time>
      </trkpt>
      <trkpt lat="43.51612" lon="6.6147">
        <ele>94</ele>
        <time>2019-04-26T18:56:18.678Z</time>
      </trkpt>
      <trkpt lat="43.51612" lon="6.61459">
        <ele>94</ele>
        <time>2019-04-26T18:56:19.678Z</time>
      </trkpt>
      <trkpt lat="43.51613" lon="6.61449">
        <ele>94</ele>
        <time>2019-04-26T18:56:20.678Z</time>
      </trkpt>
      <trkpt lat="43.51619" lon="6.61433">
        <ele>94</ele>
        <time>2019-04-26T18:56:21.678Z</time>
      </trkpt>
      <trkpt lat="43.51623" lon="6.61425">
        <ele>94</ele>
        <time>2019-04-26T18:56:22.678Z</time>
      </trkpt>
      <trkpt lat="43.51626" lon="6.61418">
        <ele>94</ele>
        <time>2019-04-26T18:56:23.678Z</time>
      </trkpt>
      <trkpt lat="43.51631" lon="6.61403">
        <ele>94</ele>
        <time>2019-04-26T18:56:24.678Z</time>
      </trkpt>
      <trkpt lat="43.51636" lon="6.6139">
        <ele>95</ele>
        <time>2019-04-26T18:56:25.678Z</time>
      </trkpt>
      <trkpt lat="43.51641" lon="6.61377">
        <ele>95</ele>
        <time>2019-04-26T18:56:26.678Z</time>
      </trkpt>
      <trkpt lat="43.51648" lon="6.61366">
        <ele>95</ele>
        <time>2019-04-26T18:56:27.678Z</time>
      </trkpt>
      <trkpt lat="43.51652" lon="6.61362">
        <ele>96</ele>
        <time>2019-04-26T18:56:28.678Z</time>
      </trkpt>
      <trkpt lat="43.51656" lon="6.61359">
        <ele>96</ele>
        <time>2019-04-26T18:56:29.678Z</time>
      </trkpt>
      <trkpt lat="43.51663" lon="6.61352">
        <ele>96</ele>
        <time>2019-04-26T18:56:30.678Z</time>
      </trkpt>
      <trkpt lat="43.51671" lon="6.61344">
        <ele>96</ele>
        <time>2019-04-26T18:56:31.678Z</time>
      </trkpt>
      <trkpt lat="43.51678" lon="6.61336">
        <ele>97</ele>
        <time>2019-04-26T18:56:32.678Z</time>
      </trkpt>
      <trkpt lat="43.51686" lon="6.61329">
        <ele>97</ele>
        <time>2019-04-26T18:56:33.678Z</time>
      </trkpt>
      <trkpt lat="43.51689" lon="6.61325">
        <ele>98</ele>
        <time>2019-04-26T18:56:34.678Z</time>
      </trkpt>
      <trkpt lat="43.51693" lon="6.61321">
        <ele>98</ele>
        <time>2019-04-26T18:56:35.678Z</time>
      </trkpt>
      <trkpt lat="43.51701" lon="6.61314">
        <ele>99</ele>
        <time>2019-04-26T18:56:36.678Z</time>
      </trkpt>
      <trkpt lat="43.51708" lon="6.6131">
        <ele>99</ele>
        <time>2019-04-26T18:56:37.678Z</time>
      </trkpt>
      <trkpt lat="43.51711" lon="6.61308">
        <ele>100</ele>
        <time>2019-04-26T18:56:38.678Z</time>
      </trkpt>
      <trkpt lat="43.51713" lon="6.61307">
        <ele>100</ele>
        <time>2019-04-26T18:56:39.678Z</time>
      </trkpt>
      <trkpt lat="43.51718" lon="6.61305">
        <ele>100</ele>
        <time>2019-04-26T18:56:40.678Z</time>
      </trkpt>
      <trkpt lat="43.51721" lon="6.61306">
        <ele>100</ele>
        <time>2019-04-26T18:56:41.678Z</time>
      </trkpt>
      <trkpt lat="43.51724" lon="6.61306">
        <ele>101</ele>
        <time>2019-04-26T18:56:42.678Z</time>
      </trkpt>
      <trkpt lat="43.5173" lon="6.61305">
        <ele>101</ele>
        <time>2019-04-26T18:56:43.678Z</time>
      </trkpt>
      <trkpt lat="43.51737" lon="6.61305">
        <ele>102</ele>
        <time>2019-04-26T18:56:44.678Z</time>
      </trkpt>
      <trkpt lat="43.51745" lon="6.61305">
        <ele>102</ele>
        <time>2019-04-26T18:56:45.678Z</time>
      </trkpt>
      <trkpt lat="43.51749" lon="6.61306">
        <ele>102</ele>
        <time>2019-04-26T18:56:46.678Z</time>
      </trkpt>
      <trkpt lat="43.51752" lon="6.61306">
        <ele>102</ele>
        <time>2019-04-26T18:56:47.678Z</time>
      </trkpt>
      <trkpt lat="43.51755" lon="6.61305">
        <ele>103</ele>
        <time>2019-04-26T18:56:48.678Z</time>
      </trkpt>
      <trkpt lat="43.51758" lon="6.61305">
        <ele>103</ele>
        <time>2019-04-26T18:56:49.678Z</time>
      </trkpt>
      <trkpt lat="43.51764" lon="6.61305">
        <ele>103</ele>
        <time>2019-04-26T18:56:50.678Z</time>
      </trkpt>
      <trkpt lat="43.51767" lon="6.61305">
        <ele>103</ele>
        <time>2019-04-26T18:56:51.678Z</time>
      </trkpt>
      <trkpt lat="43.5177" lon="6.61305">
        <ele>103</ele>
        <time>2019-04-26T18:56:52.678Z</time>
      </trkpt>
      <trkpt lat="43.51777" lon="6.61304">
        <ele>103</ele>
        <time>2019-04-26T18:56:53.678Z</time>
      </trkpt>
      <trkpt lat="43.51783" lon="6.61304">
        <ele>103</ele>
        <time>2019-04-26T18:56:54.678Z</time>
      </trkpt>
      <trkpt lat="43.51786" lon="6.61304">
        <ele>104</ele>
        <time>2019-04-26T18:56:55.678Z</time>
      </trkpt>
      <trkpt lat="43.51789" lon="6.61305">
        <ele>104</ele>
        <time>2019-04-26T18:56:56.678Z</time>
      </trkpt>
      <trkpt lat="43.51792" lon="6.61305">
        <ele>104</ele>
        <time>2019-04-26T18:56:57.678Z</time>
      </trkpt>
      <trkpt lat="43.51794" lon="6.61306">
        <ele>104</ele>
        <time>2019-04-26T18:56:58.678Z</time>
      </trkpt>
      <trkpt lat="43.518" lon="6.61308">
        <ele>104</ele>
        <time>2019-04-26T18:56:59.678Z</time>
      </trkpt>
      <trkpt lat="43.51807" lon="6.6131">
        <ele>104</ele>
        <time>2019-04-26T18:57:00.678Z</time>
      </trkpt>
      <trkpt lat="43.51813" lon="6.61314">
        <ele>104</ele>
        <time>2019-04-26T18:57:01.678Z</time>
      </trkpt>
      <trkpt lat="43.51816" lon="6.61316">
        <ele>104</ele>
        <time>2019-04-26T18:57:02.678Z</time>
      </trkpt>
      <trkpt lat="43.51819" lon="6.61318">
        <ele>104</ele>
        <time>2019-04-26T18:57:03.678Z</time>
      </trkpt>
      <trkpt lat="43.51825" lon="6.61322">
        <ele>104</ele>
        <time>2019-04-26T18:57:04.678Z</time>
      </trkpt>
      <trkpt lat="43.5183" lon="6.61325">
        <ele>104</ele>
        <time>2019-04-26T18:57:05.678Z</time>
      </trkpt>
      <trkpt lat="43.51836" lon="6.61328">
        <ele>104</ele>
        <time>2019-04-26T18:57:06.678Z</time>
      </trkpt>
      <trkpt lat="43.51839" lon="6.6133">
        <ele>104</ele>
        <time>2019-04-26T18:57:07.678Z</time>
      </trkpt>
      <trkpt lat="43.51842" lon="6.61332">
        <ele>105</ele>
        <time>2019-04-26T18:57:08.678Z</time>
      </trkpt>
      <trkpt lat="43.51845" lon="6.61333">
        <ele>105</ele>
        <time>2019-04-26T18:57:09.678Z</time>
      </trkpt>
      <trkpt lat="43.51849" lon="6.61335">
        <ele>105</ele>
        <time>2019-04-26T18:57:10.678Z</time>
      </trkpt>
      <trkpt lat="43.51857" lon="6.61338">
        <ele>105</ele>
        <time>2019-04-26T18:57:11.678Z</time>
      </trkpt>
      <trkpt lat="43.51861" lon="6.61339">
        <ele>106</ele>
        <time>2019-04-26T18:57:12.678Z</time>
      </trkpt>
      <trkpt lat="43.51865" lon="6.61338">
        <ele>106</ele>
        <time>2019-04-26T18:57:13.678Z</time>
      </trkpt>
      <trkpt lat="43.51873" lon="6.61335">
        <ele>106</ele>
        <time>2019-04-26T18:57:14.678Z</time>
      </trkpt>
      <trkpt lat="43.51881" lon="6.6133">
        <ele>107</ele>
        <time>2019-04-26T18:57:15.678Z</time>
      </trkpt>
      <trkpt lat="43.51884" lon="6.61327">
        <ele>107</ele>
        <time>2019-04-26T18:57:16.678Z</time>
      </trkpt>
      <trkpt lat="43.51887" lon="6.61324">
        <ele>108</ele>
        <time>2019-04-26T18:57:17.678Z</time>
      </trkpt>
      <trkpt lat="43.51894" lon="6.61317">
        <ele>108</ele>
        <time>2019-04-26T18:57:18.678Z</time>
      </trkpt>
      <trkpt lat="43.519" lon="6.6131">
        <ele>109</ele>
        <time>2019-04-26T18:57:19.678Z</time>
      </trkpt>
      <trkpt lat="43.51906" lon="6.61305">
        <ele>109</ele>
        <time>2019-04-26T18:57:20.678Z</time>
      </trkpt>
      <trkpt lat="43.51909" lon="6.61302">
        <ele>109</ele>
        <time>2019-04-26T18:57:21.678Z</time>
      </trkpt>
      <trkpt lat="43.51913" lon="6.61299">
        <ele>110</ele>
        <time>2019-04-26T18:57:22.678Z</time>
      </trkpt>
      <trkpt lat="43.5192" lon="6.61296">
        <ele>110</ele>
        <time>2019-04-26T18:57:23.678Z</time>
      </trkpt>
      <trkpt lat="43.51927" lon="6.61293">
        <ele>110</ele>
        <time>2019-04-26T18:57:24.678Z</time>
      </trkpt>
      <trkpt lat="43.51931" lon="6.61293">
        <ele>110</ele>
        <time>2019-04-26T18:57:25.678Z</time>
      </trkpt>
      <trkpt lat="43.51934" lon="6.61291">
        <ele>111</ele>
        <time>2019-04-26T18:57:26.678Z</time>
      </trkpt>
      <trkpt lat="43.51941" lon="6.61289">
        <ele>111</ele>
        <time>2019-04-26T18:57:27.678Z</time>
      </trkpt>
      <trkpt lat="43.51948" lon="6.61285">
        <ele>111</ele>
        <time>2019-04-26T18:57:28.678Z</time>
      </trkpt>
      <trkpt lat="43.51951" lon="6.61283">
        <ele>111</ele>
        <time>2019-04-26T18:57:29.678Z</time>
      </trkpt>
      <trkpt lat="43.51955" lon="6.61281">
        <ele>111</ele>
        <time>2019-04-26T18:57:30.678Z</time>
      </trkpt>
      <trkpt lat="43.51961" lon="6.61277">
        <ele>111</ele>
        <time>2019-04-26T18:57:31.678Z</time>
      </trkpt>
      <trkpt lat="43.51968" lon="6.61273">
        <ele>112</ele>
        <time>2019-04-26T18:57:32.678Z</time>
      </trkpt>
      <trkpt lat="43.51971" lon="6.6127">
        <ele>112</ele>
        <time>2019-04-26T18:57:33.678Z</time>
      </trkpt>
      <trkpt lat="43.51973" lon="6.61266">
        <ele>112</ele>
        <time>2019-04-26T18:57:34.678Z</time>
      </trkpt>
      <trkpt lat="43.51975" lon="6.61261">
        <ele>112</ele>
        <time>2019-04-26T18:57:35.678Z</time>
      </trkpt>
      <trkpt lat="43.51977" lon="6.61257">
        <ele>112</ele>
        <time>2019-04-26T18:57:36.678Z</time>
      </trkpt>
      <trkpt lat="43.51982" lon="6.61249">
        <ele>112</ele>
        <time>2019-04-26T18:57:37.678Z</time>
      </trkpt>
      <trkpt lat="43.51987" lon="6.61242">
        <ele>112</ele>
        <time>2019-04-26T18:57:38.678Z</time>
      </trkpt>
      <trkpt lat="43.51994" lon="6.61237">
        <ele>112</ele>
        <time>2019-04-26T18:57:39.678Z</time>
      </trkpt>
      <trkpt lat="43.52001" lon="6.61232">
        <ele>112</ele>
        <time>2019-04-26T18:57:40.678Z</time>
      </trkpt>
      <trkpt lat="43.52004" lon="6.61229">
        <ele>112</ele>
        <time>2019-04-26T18:57:41.678Z</time>
      </trkpt>
      <trkpt lat="43.52007" lon="6.61227">
        <ele>112</ele>
        <time>2019-04-26T18:57:42.678Z</time>
      </trkpt>
      <trkpt lat="43.52014" lon="6.61224">
        <ele>112</ele>
        <time>2019-04-26T18:57:43.678Z</time>
      </trkpt>
      <trkpt lat="43.52018" lon="6.61222">
        <ele>112</ele>
        <time>2019-04-26T18:57:44.678Z</time>
      </trkpt>
      <trkpt lat="43.52022" lon="6.6122">
        <ele>112</ele>
        <time>2019-04-26T18:57:45.678Z</time>
      </trkpt>
      <trkpt lat="43.52029" lon="6.61217">
        <ele>113</ele>
        <time>2019-04-26T18:57:46.678Z</time>
      </trkpt>
      <trkpt lat="43.52036" lon="6.61213">
        <ele>113</ele>
        <time>2019-04-26T18:57:47.678Z</time>
      </trkpt>
      <trkpt lat="43.52043" lon="6.61209">
        <ele>113</ele>
        <time>2019-04-26T18:57:48.678Z</time>
      </trkpt>
      <trkpt lat="43.5205" lon="6.61205">
        <ele>113</ele>
        <time>2019-04-26T18:57:49.678Z</time>
      </trkpt>
      <trkpt lat="43.52057" lon="6.61201">
        <ele>113</ele>
        <time>2019-04-26T18:57:50.678Z</time>
      </trkpt>
      <trkpt lat="43.52064" lon="6.61197">
        <ele>113</ele>
        <time>2019-04-26T18:57:51.678Z</time>
      </trkpt>
      <trkpt lat="43.52071" lon="6.61193">
        <ele>113</ele>
        <time>2019-04-26T18:57:52.678Z</time>
      </trkpt>
      <trkpt lat="43.52078" lon="6.61189">
        <ele>113</ele>
        <time>2019-04-26T18:57:53.678Z</time>
      </trkpt>
      <trkpt lat="43.52085" lon="6.61185">
        <ele>113</ele>
        <time>2019-04-26T18:57:54.678Z</time>
      </trkpt>
      <trkpt lat="43.52092" lon="6.61181">
        <ele>114</ele>
        <time>2019-04-26T18:57:55.678Z</time>
      </trkpt>
      <trkpt lat="43.521" lon="6.61177">
        <ele>114</ele>
        <time>2019-04-26T18:57:56.678Z</time>
      </trkpt>
      <trkpt lat="43.52107" lon="6.61172">
        <ele>115</ele>
        <time>2019-04-26T18:57:57.678Z</time>
      </trkpt>
      <trkpt lat="43.52113" lon="6.61168">
        <ele>115</ele>
        <time>2019-04-26T18:57:58.678Z</time>
      </trkpt>
      <trkpt lat="43.5212" lon="6.61164">
        <ele>116</ele>
        <time>2019-04-26T18:57:59.678Z</time>
      </trkpt>
      <trkpt lat="43.52127" lon="6.61159">
        <ele>116</ele>
        <time>2019-04-26T18:58:00.678Z</time>
      </trkpt>
      <trkpt lat="43.52131" lon="6.61157">
        <ele>117</ele>
        <time>2019-04-26T18:58:01.678Z</time>
      </trkpt>
      <trkpt lat="43.52135" lon="6.61156">
        <ele>117</ele>
        <time>2019-04-26T18:58:02.678Z</time>
      </trkpt>
      <trkpt lat="43.52142" lon="6.6115">
        <ele>117</ele>
        <time>2019-04-26T18:58:03.678Z</time>
      </trkpt>
      <trkpt lat="43.52144" lon="6.61146">
        <ele>118</ele>
        <time>2019-04-26T18:58:04.678Z</time>
      </trkpt>
      <trkpt lat="43.52147" lon="6.61142">
        <ele>118</ele>
        <time>2019-04-26T18:58:05.678Z</time>
      </trkpt>
      <trkpt lat="43.5215" lon="6.61132">
        <ele>118</ele>
        <time>2019-04-26T18:58:06.678Z</time>
      </trkpt>
      <trkpt lat="43.52153" lon="6.61121">
        <ele>119</ele>
        <time>2019-04-26T18:58:07.678Z</time>
      </trkpt>
      <trkpt lat="43.52154" lon="6.61116">
        <ele>119</ele>
        <time>2019-04-26T18:58:08.678Z</time>
      </trkpt>
      <trkpt lat="43.52155" lon="6.6111">
        <ele>119</ele>
        <time>2019-04-26T18:58:09.678Z</time>
      </trkpt>
      <trkpt lat="43.52157" lon="6.61105">
        <ele>119</ele>
        <time>2019-04-26T18:58:10.678Z</time>
      </trkpt>
      <trkpt lat="43.52158" lon="6.61099">
        <ele>119</ele>
        <time>2019-04-26T18:58:11.678Z</time>
      </trkpt>
      <trkpt lat="43.5216" lon="6.61088">
        <ele>119</ele>
        <time>2019-04-26T18:58:12.678Z</time>
      </trkpt>
      <trkpt lat="43.52164" lon="6.61078">
        <ele>120</ele>
        <time>2019-04-26T18:58:13.678Z</time>
      </trkpt>
      <trkpt lat="43.52166" lon="6.61073">
        <ele>120</ele>
        <time>2019-04-26T18:58:14.678Z</time>
      </trkpt>
      <trkpt lat="43.52168" lon="6.61068">
        <ele>119</ele>
        <time>2019-04-26T18:58:15.678Z</time>
      </trkpt>
      <trkpt lat="43.5217" lon="6.61063">
        <ele>119</ele>
        <time>2019-04-26T18:58:16.678Z</time>
      </trkpt>
      <trkpt lat="43.52173" lon="6.61058">
        <ele>119</ele>
        <time>2019-04-26T18:58:17.678Z</time>
      </trkpt>
      <trkpt lat="43.52178" lon="6.61047">
        <ele>119</ele>
        <time>2019-04-26T18:58:18.678Z</time>
      </trkpt>
      <trkpt lat="43.52183" lon="6.61037">
        <ele>118</ele>
        <time>2019-04-26T18:58:19.678Z</time>
      </trkpt>
      <trkpt lat="43.52188" lon="6.61026">
        <ele>118</ele>
        <time>2019-04-26T18:58:20.678Z</time>
      </trkpt>
      <trkpt lat="43.52194" lon="6.61015">
        <ele>117</ele>
        <time>2019-04-26T18:58:21.678Z</time>
      </trkpt>
      <trkpt lat="43.52197" lon="6.6101">
        <ele>116</ele>
        <time>2019-04-26T18:58:22.678Z</time>
      </trkpt>
      <trkpt lat="43.52202" lon="6.61004">
        <ele>116</ele>
        <time>2019-04-26T18:58:23.678Z</time>
      </trkpt>
      <trkpt lat="43.52213" lon="6.60989">
        <ele>114</ele>
        <time>2019-04-26T18:58:24.678Z</time>
      </trkpt>
      <trkpt lat="43.52218" lon="6.60979">
        <ele>113</ele>
        <time>2019-04-26T18:58:25.678Z</time>
      </trkpt>
      <trkpt lat="43.52224" lon="6.60968">
        <ele>112</ele>
        <time>2019-04-26T18:58:26.678Z</time>
      </trkpt>
      <trkpt lat="43.52229" lon="6.60958">
        <ele>111</ele>
        <time>2019-04-26T18:58:27.678Z</time>
      </trkpt>
      <trkpt lat="43.52235" lon="6.60948">
        <ele>110</ele>
        <time>2019-04-26T18:58:28.678Z</time>
      </trkpt>
      <trkpt lat="43.52241" lon="6.60938">
        <ele>109</ele>
        <time>2019-04-26T18:58:29.678Z</time>
      </trkpt>
      <trkpt lat="43.52245" lon="6.60925">
        <ele>108</ele>
        <time>2019-04-26T18:58:30.678Z</time>
      </trkpt>
      <trkpt lat="43.52247" lon="6.6091">
        <ele>107</ele>
        <time>2019-04-26T18:58:31.678Z</time>
      </trkpt>
      <trkpt lat="43.52248" lon="6.60895">
        <ele>107</ele>
        <time>2019-04-26T18:58:32.678Z</time>
      </trkpt>
      <trkpt lat="43.52254" lon="6.60869">
        <ele>107</ele>
        <time>2019-04-26T18:58:33.678Z</time>
      </trkpt>
      <trkpt lat="43.52261" lon="6.60848">
        <ele>107</ele>
        <time>2019-04-26T18:58:34.678Z</time>
      </trkpt>
      <trkpt lat="43.52267" lon="6.60832">
        <ele>108</ele>
        <time>2019-04-26T18:58:35.678Z</time>
      </trkpt>
      <trkpt lat="43.5227" lon="6.60826">
        <ele>108</ele>
        <time>2019-04-26T18:58:36.678Z</time>
      </trkpt>
      <trkpt lat="43.52272" lon="6.6082">
        <ele>108</ele>
        <time>2019-04-26T18:58:37.678Z</time>
      </trkpt>
      <trkpt lat="43.52274" lon="6.60814">
        <ele>108</ele>
        <time>2019-04-26T18:58:38.678Z</time>
      </trkpt>
      <trkpt lat="43.52276" lon="6.60808">
        <ele>109</ele>
        <time>2019-04-26T18:58:39.678Z</time>
      </trkpt>
      <trkpt lat="43.52279" lon="6.60795">
        <ele>109</ele>
        <time>2019-04-26T18:58:40.678Z</time>
      </trkpt>
      <trkpt lat="43.52281" lon="6.60788">
        <ele>109</ele>
        <time>2019-04-26T18:58:41.678Z</time>
      </trkpt>
      <trkpt lat="43.52283" lon="6.60781">
        <ele>109</ele>
        <time>2019-04-26T18:58:42.678Z</time>
      </trkpt>
      <trkpt lat="43.52285" lon="6.60773">
        <ele>110</ele>
        <time>2019-04-26T18:58:43.678Z</time>
      </trkpt>
      <trkpt lat="43.52288" lon="6.60765">
        <ele>110</ele>
        <time>2019-04-26T18:58:44.678Z</time>
      </trkpt>
      <trkpt lat="43.52292" lon="6.6075">
        <ele>111</ele>
        <time>2019-04-26T18:58:45.678Z</time>
      </trkpt>
      <trkpt lat="43.52295" lon="6.60735">
        <ele>111</ele>
        <time>2019-04-26T18:58:46.678Z</time>
      </trkpt>
      <trkpt lat="43.52296" lon="6.60727">
        <ele>111</ele>
        <time>2019-04-26T18:58:47.678Z</time>
      </trkpt>
      <trkpt lat="43.52298" lon="6.60719">
        <ele>111</ele>
        <time>2019-04-26T18:58:48.678Z</time>
      </trkpt>
      <trkpt lat="43.523" lon="6.60711">
        <ele>111</ele>
        <time>2019-04-26T18:58:49.678Z</time>
      </trkpt>
      <trkpt lat="43.52303" lon="6.60702">
        <ele>112</ele>
        <time>2019-04-26T18:58:50.678Z</time>
      </trkpt>
      <trkpt lat="43.52306" lon="6.60694">
        <ele>112</ele>
        <time>2019-04-26T18:58:51.678Z</time>
      </trkpt>
      <trkpt lat="43.52308" lon="6.60688">
        <ele>112</ele>
        <time>2019-04-26T18:58:52.678Z</time>
      </trkpt>
      <trkpt lat="43.5231" lon="6.60681">
        <ele>112</ele>
        <time>2019-04-26T18:58:53.678Z</time>
      </trkpt>
      <trkpt lat="43.52312" lon="6.60674">
        <ele>112</ele>
        <time>2019-04-26T18:58:54.678Z</time>
      </trkpt>
      <trkpt lat="43.52313" lon="6.60668">
        <ele>113</ele>
        <time>2019-04-26T18:58:55.678Z</time>
      </trkpt>
      <trkpt lat="43.52315" lon="6.60661">
        <ele>113</ele>
        <time>2019-04-26T18:58:56.678Z</time>
      </trkpt>
      <trkpt lat="43.52318" lon="6.60656">
        <ele>113</ele>
        <time>2019-04-26T18:58:57.678Z</time>
      </trkpt>
      <trkpt lat="43.5232" lon="6.6065">
        <ele>113</ele>
        <time>2019-04-26T18:58:58.678Z</time>
      </trkpt>
      <trkpt lat="43.52321" lon="6.60644">
        <ele>113</ele>
        <time>2019-04-26T18:58:59.678Z</time>
      </trkpt>
      <trkpt lat="43.52322" lon="6.60639">
        <ele>113</ele>
        <time>2019-04-26T18:59:00.678Z</time>
      </trkpt>
      <trkpt lat="43.52325" lon="6.60634">
        <ele>114</ele>
        <time>2019-04-26T18:59:01.678Z</time>
      </trkpt>
      <trkpt lat="43.52326" lon="6.60629">
        <ele>114</ele>
        <time>2019-04-26T18:59:02.678Z</time>
      </trkpt>
      <trkpt lat="43.5233" lon="6.60619">
        <ele>114</ele>
        <time>2019-04-26T18:59:03.678Z</time>
      </trkpt>
      <trkpt lat="43.52331" lon="6.60612">
        <ele>114</ele>
        <time>2019-04-26T18:59:04.678Z</time>
      </trkpt>
      <trkpt lat="43.52332" lon="6.60605">
        <ele>114</ele>
        <time>2019-04-26T18:59:05.678Z</time>
      </trkpt>
      <trkpt lat="43.52332" lon="6.60598">
        <ele>114</ele>
        <time>2019-04-26T18:59:06.678Z</time>
      </trkpt>
      <trkpt lat="43.52332" lon="6.6059">
        <ele>114</ele>
        <time>2019-04-26T18:59:07.678Z</time>
      </trkpt>
      <trkpt lat="43.52331" lon="6.60575">
        <ele>114</ele>
        <time>2019-04-26T18:59:08.678Z</time>
      </trkpt>
      <trkpt lat="43.52332" lon="6.60559">
        <ele>114</ele>
        <time>2019-04-26T18:59:09.678Z</time>
      </trkpt>
      <trkpt lat="43.52333" lon="6.60542">
        <ele>114</ele>
        <time>2019-04-26T18:59:10.678Z</time>
      </trkpt>
      <trkpt lat="43.52333" lon="6.60525">
        <ele>114</ele>
        <time>2019-04-26T18:59:11.678Z</time>
      </trkpt>
      <trkpt lat="43.52332" lon="6.60508">
        <ele>114</ele>
        <time>2019-04-26T18:59:12.678Z</time>
      </trkpt>
      <trkpt lat="43.52329" lon="6.6049">
        <ele>114</ele>
        <time>2019-04-26T18:59:13.678Z</time>
      </trkpt>
      <trkpt lat="43.52327" lon="6.60473">
        <ele>114</ele>
        <time>2019-04-26T18:59:14.678Z</time>
      </trkpt>
      <trkpt lat="43.52326" lon="6.60464">
        <ele>114</ele>
        <time>2019-04-26T18:59:15.678Z</time>
      </trkpt>
      <trkpt lat="43.52326" lon="6.60454">
        <ele>114</ele>
        <time>2019-04-26T18:59:16.678Z</time>
      </trkpt>
      <trkpt lat="43.52325" lon="6.60433">
        <ele>114</ele>
        <time>2019-04-26T18:59:17.678Z</time>
      </trkpt>
      <trkpt lat="43.52325" lon="6.60413">
        <ele>114</ele>
        <time>2019-04-26T18:59:18.678Z</time>
      </trkpt>
      <trkpt lat="43.52327" lon="6.60396">
        <ele>115</ele>
        <time>2019-04-26T18:59:19.678Z</time>
      </trkpt>
      <trkpt lat="43.52326" lon="6.60378">
        <ele>115</ele>
        <time>2019-04-26T18:59:20.678Z</time>
      </trkpt>
      <trkpt lat="43.52323" lon="6.60362">
        <ele>115</ele>
        <time>2019-04-26T18:59:21.678Z</time>
      </trkpt>
      <trkpt lat="43.52321" lon="6.60347">
        <ele>115</ele>
        <time>2019-04-26T18:59:22.678Z</time>
      </trkpt>
      <trkpt lat="43.52321" lon="6.60339">
        <ele>115</ele>
        <time>2019-04-26T18:59:23.678Z</time>
      </trkpt>
      <trkpt lat="43.52321" lon="6.60331">
        <ele>115</ele>
        <time>2019-04-26T18:59:24.678Z</time>
      </trkpt>
      <trkpt lat="43.52322" lon="6.60315">
        <ele>115</ele>
        <time>2019-04-26T18:59:25.678Z</time>
      </trkpt>
      <trkpt lat="43.52325" lon="6.603">
        <ele>115</ele>
        <time>2019-04-26T18:59:26.678Z</time>
      </trkpt>
      <trkpt lat="43.52329" lon="6.60286">
        <ele>115</ele>
        <time>2019-04-26T18:59:27.678Z</time>
      </trkpt>
      <trkpt lat="43.52335" lon="6.60276">
        <ele>115</ele>
        <time>2019-04-26T18:59:28.678Z</time>
      </trkpt>
      <trkpt lat="43.52333" lon="6.60263">
        <ele>115</ele>
        <time>2019-04-26T18:59:29.678Z</time>
      </trkpt>
      <trkpt lat="43.52333" lon="6.60256">
        <ele>115</ele>
        <time>2019-04-26T18:59:30.678Z</time>
      </trkpt>
      <trkpt lat="43.52334" lon="6.6025">
        <ele>115</ele>
        <time>2019-04-26T18:59:31.678Z</time>
      </trkpt>
      <trkpt lat="43.52337" lon="6.60236">
        <ele>115</ele>
        <time>2019-04-26T18:59:32.678Z</time>
      </trkpt>
      <trkpt lat="43.52339" lon="6.6023">
        <ele>115</ele>
        <time>2019-04-26T18:59:33.678Z</time>
      </trkpt>
      <trkpt lat="43.52342" lon="6.60224">
        <ele>116</ele>
        <time>2019-04-26T18:59:34.678Z</time>
      </trkpt>
      <trkpt lat="43.52351" lon="6.60211">
        <ele>116</ele>
        <time>2019-04-26T18:59:35.678Z</time>
      </trkpt>
      <trkpt lat="43.52355" lon="6.60203">
        <ele>117</ele>
        <time>2019-04-26T18:59:36.678Z</time>
      </trkpt>
      <trkpt lat="43.52358" lon="6.60194">
        <ele>117</ele>
        <time>2019-04-26T18:59:37.678Z</time>
      </trkpt>
      <trkpt lat="43.52364" lon="6.60177">
        <ele>117</ele>
        <time>2019-04-26T18:59:38.678Z</time>
      </trkpt>
      <trkpt lat="43.52365" lon="6.6017">
        <ele>117</ele>
        <time>2019-04-26T18:59:39.678Z</time>
      </trkpt>
      <trkpt lat="43.52368" lon="6.60163">
        <ele>117</ele>
        <time>2019-04-26T18:59:40.678Z</time>
      </trkpt>
      <trkpt lat="43.52371" lon="6.60158">
        <ele>117</ele>
        <time>2019-04-26T18:59:41.678Z</time>
      </trkpt>
      <trkpt lat="43.52375" lon="6.60155">
        <ele>118</ele>
        <time>2019-04-26T18:59:42.678Z</time>
      </trkpt>
      <trkpt lat="43.52379" lon="6.60152">
        <ele>118</ele>
        <time>2019-04-26T18:59:43.678Z</time>
      </trkpt>
      <trkpt lat="43.52384" lon="6.60149">
        <ele>119</ele>
        <time>2019-04-26T18:59:44.678Z</time>
      </trkpt>
      <trkpt lat="43.52396" lon="6.60146">
        <ele>120</ele>
        <time>2019-04-26T18:59:45.678Z</time>
      </trkpt>
      <trkpt lat="43.52401" lon="6.60143">
        <ele>121</ele>
        <time>2019-04-26T18:59:46.678Z</time>
      </trkpt>
      <trkpt lat="43.52404" lon="6.60137">
        <ele>121</ele>
        <time>2019-04-26T18:59:47.678Z</time>
      </trkpt>
      <trkpt lat="43.52404" lon="6.6013">
        <ele>121</ele>
        <time>2019-04-26T18:59:48.678Z</time>
      </trkpt>
      <trkpt lat="43.52402" lon="6.60123">
        <ele>121</ele>
        <time>2019-04-26T18:59:49.678Z</time>
      </trkpt>
      <trkpt lat="43.52395" lon="6.60113">
        <ele>120</ele>
        <time>2019-04-26T18:59:50.678Z</time>
      </trkpt>
      <trkpt lat="43.52386" lon="6.60108">
        <ele>119</ele>
        <time>2019-04-26T18:59:51.678Z</time>
      </trkpt>
      <trkpt lat="43.52381" lon="6.60106">
        <ele>118</ele>
        <time>2019-04-26T18:59:52.678Z</time>
      </trkpt>
      <trkpt lat="43.52377" lon="6.60105">
        <ele>118</ele>
        <time>2019-04-26T18:59:53.678Z</time>
      </trkpt>
      <trkpt lat="43.52373" lon="6.60102">
        <ele>117</ele>
        <time>2019-04-26T18:59:54.678Z</time>
      </trkpt>
      <trkpt lat="43.5237" lon="6.60099">
        <ele>117</ele>
        <time>2019-04-26T18:59:55.678Z</time>
      </trkpt>
      <trkpt lat="43.52365" lon="6.60089">
        <ele>116</ele>
        <time>2019-04-26T18:59:56.678Z</time>
      </trkpt>
      <trkpt lat="43.52363" lon="6.60075">
        <ele>116</ele>
        <time>2019-04-26T18:59:57.678Z</time>
      </trkpt>
      <trkpt lat="43.5236" lon="6.60059">
        <ele>116</ele>
        <time>2019-04-26T18:59:58.678Z</time>
      </trkpt>
      <trkpt lat="43.5236" lon="6.6005">
        <ele>115</ele>
        <time>2019-04-26T18:59:59.678Z</time>
      </trkpt>
      <trkpt lat="43.5236" lon="6.60041">
        <ele>115</ele>
        <time>2019-04-26T19:00:00.678Z</time>
      </trkpt>
      <trkpt lat="43.52363" lon="6.60024">
        <ele>115</ele>
        <time>2019-04-26T19:00:01.678Z</time>
      </trkpt>
      <trkpt lat="43.52369" lon="6.60007">
        <ele>116</ele>
        <time>2019-04-26T19:00:02.678Z</time>
      </trkpt>
      <trkpt lat="43.52369" lon="6.59999">
        <ele>116</ele>
        <time>2019-04-26T19:00:03.678Z</time>
      </trkpt>
      <trkpt lat="43.52366" lon="6.59991">
        <ele>115</ele>
        <time>2019-04-26T19:00:04.678Z</time>
      </trkpt>
      <trkpt lat="43.52363" lon="6.59986">
        <ele>115</ele>
        <time>2019-04-26T19:00:05.678Z</time>
      </trkpt>
      <trkpt lat="43.52358" lon="6.59981">
        <ele>114</ele>
        <time>2019-04-26T19:00:06.678Z</time>
      </trkpt>
      <trkpt lat="43.52353" lon="6.59977">
        <ele>113</ele>
        <time>2019-04-26T19:00:07.678Z</time>
      </trkpt>
      <trkpt lat="43.52348" lon="6.5997">
        <ele>113</ele>
        <time>2019-04-26T19:00:08.678Z</time>
      </trkpt>
      <trkpt lat="43.52341" lon="6.59953">
        <ele>112</ele>
        <time>2019-04-26T19:00:09.678Z</time>
      </trkpt>
      <trkpt lat="43.52336" lon="6.59944">
        <ele>111</ele>
        <time>2019-04-26T19:00:10.678Z</time>
      </trkpt>
      <trkpt lat="43.52331" lon="6.59937">
        <ele>110</ele>
        <time>2019-04-26T19:00:11.678Z</time>
      </trkpt>
      <trkpt lat="43.52325" lon="6.59931">
        <ele>109</ele>
        <time>2019-04-26T19:00:12.678Z</time>
      </trkpt>
      <trkpt lat="43.5232" lon="6.59925">
        <ele>108</ele>
        <time>2019-04-26T19:00:13.678Z</time>
      </trkpt>
      <trkpt lat="43.52317" lon="6.59918">
        <ele>108</ele>
        <time>2019-04-26T19:00:14.678Z</time>
      </trkpt>
      <trkpt lat="43.52314" lon="6.5991">
        <ele>107</ele>
        <time>2019-04-26T19:00:15.678Z</time>
      </trkpt>
      <trkpt lat="43.5231" lon="6.59891">
        <ele>105</ele>
        <time>2019-04-26T19:00:16.678Z</time>
      </trkpt>
      <trkpt lat="43.52309" lon="6.59867">
        <ele>104</ele>
        <time>2019-04-26T19:00:17.678Z</time>
      </trkpt>
      <trkpt lat="43.52308" lon="6.59855">
        <ele>103</ele>
        <time>2019-04-26T19:00:18.678Z</time>
      </trkpt>
      <trkpt lat="43.52307" lon="6.59843">
        <ele>103</ele>
        <time>2019-04-26T19:00:19.678Z</time>
      </trkpt>
      <trkpt lat="43.52304" lon="6.59818">
        <ele>101</ele>
        <time>2019-04-26T19:00:20.678Z</time>
      </trkpt>
      <trkpt lat="43.52302" lon="6.59791">
        <ele>100</ele>
        <time>2019-04-26T19:00:21.678Z</time>
      </trkpt>
      <trkpt lat="43.52301" lon="6.59778">
        <ele>100</ele>
        <time>2019-04-26T19:00:22.678Z</time>
      </trkpt>
      <trkpt lat="43.523" lon="6.59765">
        <ele>99</ele>
        <time>2019-04-26T19:00:23.678Z</time>
      </trkpt>
      <trkpt lat="43.52299" lon="6.59752">
        <ele>99</ele>
        <time>2019-04-26T19:00:24.678Z</time>
      </trkpt>
      <trkpt lat="43.52296" lon="6.59739">
        <ele>98</ele>
        <time>2019-04-26T19:00:25.678Z</time>
      </trkpt>
      <trkpt lat="43.52294" lon="6.59727">
        <ele>97</ele>
        <time>2019-04-26T19:00:26.678Z</time>
      </trkpt>
      <trkpt lat="43.52293" lon="6.59715">
        <ele>97</ele>
        <time>2019-04-26T19:00:27.678Z</time>
      </trkpt>
      <trkpt lat="43.52294" lon="6.59705">
        <ele>97</ele>
        <time>2019-04-26T19:00:28.678Z</time>
      </trkpt>
      <trkpt lat="43.52297" lon="6.59695">
        <ele>97</ele>
        <time>2019-04-26T19:00:29.678Z</time>
      </trkpt>
      <trkpt lat="43.523" lon="6.59688">
        <ele>98</ele>
        <time>2019-04-26T19:00:30.678Z</time>
      </trkpt>
      <trkpt lat="43.52301" lon="6.59684">
        <ele>98</ele>
        <time>2019-04-26T19:00:31.678Z</time>
      </trkpt>
      <trkpt lat="43.52303" lon="6.59677">
        <ele>98</ele>
        <time>2019-04-26T19:00:32.678Z</time>
      </trkpt>
      <trkpt lat="43.52301" lon="6.59669">
        <ele>98</ele>
        <time>2019-04-26T19:00:33.678Z</time>
      </trkpt>
      <trkpt lat="43.52299" lon="6.59663">
        <ele>97</ele>
        <time>2019-04-26T19:00:34.678Z</time>
      </trkpt>
      <trkpt lat="43.52296" lon="6.59658">
        <ele>97</ele>
        <time>2019-04-26T19:00:35.678Z</time>
      </trkpt>
      <trkpt lat="43.52292" lon="6.59644">
        <ele>96</ele>
        <time>2019-04-26T19:00:36.678Z</time>
      </trkpt>
      <trkpt lat="43.52289" lon="6.59635">
        <ele>96</ele>
        <time>2019-04-26T19:00:37.678Z</time>
      </trkpt>
      <trkpt lat="43.52286" lon="6.59626">
        <ele>96</ele>
        <time>2019-04-26T19:00:38.678Z</time>
      </trkpt>
      <trkpt lat="43.52277" lon="6.59607">
        <ele>95</ele>
        <time>2019-04-26T19:00:39.678Z</time>
      </trkpt>
      <trkpt lat="43.52272" lon="6.59597">
        <ele>94</ele>
        <time>2019-04-26T19:00:40.678Z</time>
      </trkpt>
      <trkpt lat="43.52267" lon="6.59588">
        <ele>93</ele>
        <time>2019-04-26T19:00:41.678Z</time>
      </trkpt>
      <trkpt lat="43.52258" lon="6.59567">
        <ele>92</ele>
        <time>2019-04-26T19:00:42.678Z</time>
      </trkpt>
      <trkpt lat="43.52255" lon="6.59555">
        <ele>92</ele>
        <time>2019-04-26T19:00:43.678Z</time>
      </trkpt>
      <trkpt lat="43.52252" lon="6.59544">
        <ele>92</ele>
        <time>2019-04-26T19:00:44.678Z</time>
      </trkpt>
      <trkpt lat="43.52246" lon="6.59521">
        <ele>92</ele>
        <time>2019-04-26T19:00:45.678Z</time>
      </trkpt>
      <trkpt lat="43.52244" lon="6.59509">
        <ele>92</ele>
        <time>2019-04-26T19:00:46.678Z</time>
      </trkpt>
      <trkpt lat="43.52242" lon="6.59497">
        <ele>92</ele>
        <time>2019-04-26T19:00:47.678Z</time>
      </trkpt>
      <trkpt lat="43.52241" lon="6.59484">
        <ele>91</ele>
        <time>2019-04-26T19:00:48.678Z</time>
      </trkpt>
      <trkpt lat="43.52239" lon="6.59472">
        <ele>91</ele>
        <time>2019-04-26T19:00:49.678Z</time>
      </trkpt>
      <trkpt lat="43.52237" lon="6.59463">
        <ele>90</ele>
        <time>2019-04-26T19:00:50.678Z</time>
      </trkpt>
      <trkpt lat="43.52236" lon="6.59453">
        <ele>90</ele>
        <time>2019-04-26T19:00:51.678Z</time>
      </trkpt>
      <trkpt lat="43.52235" lon="6.59444">
        <ele>89</ele>
        <time>2019-04-26T19:00:52.678Z</time>
      </trkpt>
      <trkpt lat="43.52234" lon="6.59436">
        <ele>89</ele>
        <time>2019-04-26T19:00:53.678Z</time>
      </trkpt>
      <trkpt lat="43.52233" lon="6.59431">
        <ele>89</ele>
        <time>2019-04-26T19:00:54.678Z</time>
      </trkpt>
      <trkpt lat="43.52233" lon="6.59424">
        <ele>89</ele>
        <time>2019-04-26T19:00:55.678Z</time>
      </trkpt>
      <trkpt lat="43.52232" lon="6.59417">
        <ele>88</ele>
        <time>2019-04-26T19:00:56.678Z</time>
      </trkpt>
      <trkpt lat="43.52231" lon="6.59408">
        <ele>88</ele>
        <time>2019-04-26T19:00:57.678Z</time>
      </trkpt>
      <trkpt lat="43.52232" lon="6.5939">
        <ele>88</ele>
        <time>2019-04-26T19:00:58.678Z</time>
      </trkpt>
      <trkpt lat="43.52233" lon="6.59381">
        <ele>87</ele>
        <time>2019-04-26T19:00:59.678Z</time>
      </trkpt>
      <trkpt lat="43.52236" lon="6.59373">
        <ele>88</ele>
        <time>2019-04-26T19:01:00.678Z</time>
      </trkpt>
      <trkpt lat="43.5224" lon="6.59366">
        <ele>88</ele>
        <time>2019-04-26T19:01:01.678Z</time>
      </trkpt>
      <trkpt lat="43.52241" lon="6.59358">
        <ele>88</ele>
        <time>2019-04-26T19:01:02.678Z</time>
      </trkpt>
      <trkpt lat="43.5224" lon="6.59349">
        <ele>87</ele>
        <time>2019-04-26T19:01:03.678Z</time>
      </trkpt>
      <trkpt lat="43.52236" lon="6.59343">
        <ele>87</ele>
        <time>2019-04-26T19:01:04.678Z</time>
      </trkpt>
      <trkpt lat="43.52227" lon="6.59339">
        <ele>86</ele>
        <time>2019-04-26T19:01:05.678Z</time>
      </trkpt>
      <trkpt lat="43.52224" lon="6.59339">
        <ele>86</ele>
        <time>2019-04-26T19:01:06.678Z</time>
      </trkpt>
      <trkpt lat="43.5222" lon="6.59338">
        <ele>86</ele>
        <time>2019-04-26T19:01:07.678Z</time>
      </trkpt>
      <trkpt lat="43.52216" lon="6.59336">
        <ele>85</ele>
        <time>2019-04-26T19:01:08.678Z</time>
      </trkpt>
      <trkpt lat="43.52211" lon="6.59334">
        <ele>85</ele>
        <time>2019-04-26T19:01:09.678Z</time>
      </trkpt>
      <trkpt lat="43.52202" lon="6.59328">
        <ele>85</ele>
        <time>2019-04-26T19:01:10.678Z</time>
      </trkpt>
      <trkpt lat="43.52195" lon="6.59317">
        <ele>85</ele>
        <time>2019-04-26T19:01:11.678Z</time>
      </trkpt>
      <trkpt lat="43.52191" lon="6.59306">
        <ele>85</ele>
        <time>2019-04-26T19:01:12.678Z</time>
      </trkpt>
      <trkpt lat="43.52188" lon="6.59294">
        <ele>86</ele>
        <time>2019-04-26T19:01:13.678Z</time>
      </trkpt>
      <trkpt lat="43.52186" lon="6.59281">
        <ele>86</ele>
        <time>2019-04-26T19:01:14.678Z</time>
      </trkpt>
      <trkpt lat="43.52185" lon="6.59274">
        <ele>86</ele>
        <time>2019-04-26T19:01:15.678Z</time>
      </trkpt>
      <trkpt lat="43.52184" lon="6.59267">
        <ele>87</ele>
        <time>2019-04-26T19:01:16.678Z</time>
      </trkpt>
      <trkpt lat="43.52182" lon="6.59251">
        <ele>87</ele>
        <time>2019-04-26T19:01:17.678Z</time>
      </trkpt>
      <trkpt lat="43.52182" lon="6.59243">
        <ele>88</ele>
        <time>2019-04-26T19:01:18.678Z</time>
      </trkpt>
      <trkpt lat="43.52181" lon="6.59236">
        <ele>88</ele>
        <time>2019-04-26T19:01:19.678Z</time>
      </trkpt>
      <trkpt lat="43.52181" lon="6.59227">
        <ele>88</ele>
        <time>2019-04-26T19:01:20.678Z</time>
      </trkpt>
      <trkpt lat="43.52182" lon="6.5922">
        <ele>88</ele>
        <time>2019-04-26T19:01:21.678Z</time>
      </trkpt>
      <trkpt lat="43.52183" lon="6.59204">
        <ele>89</ele>
        <time>2019-04-26T19:01:22.678Z</time>
      </trkpt>
      <trkpt lat="43.52184" lon="6.59189">
        <ele>90</ele>
        <time>2019-04-26T19:01:23.678Z</time>
      </trkpt>
      <trkpt lat="43.52183" lon="6.59183">
        <ele>90</ele>
        <time>2019-04-26T19:01:24.678Z</time>
      </trkpt>
      <trkpt lat="43.52182" lon="6.59176">
        <ele>90</ele>
        <time>2019-04-26T19:01:25.678Z</time>
      </trkpt>
      <trkpt lat="43.5218" lon="6.59164">
        <ele>90</ele>
        <time>2019-04-26T19:01:26.678Z</time>
      </trkpt>
      <trkpt lat="43.52179" lon="6.59159">
        <ele>90</ele>
        <time>2019-04-26T19:01:27.678Z</time>
      </trkpt>
      <trkpt lat="43.52178" lon="6.59154">
        <ele>91</ele>
        <time>2019-04-26T19:01:28.678Z</time>
      </trkpt>
      <trkpt lat="43.52175" lon="6.59145">
        <ele>91</ele>
        <time>2019-04-26T19:01:29.678Z</time>
      </trkpt>
      <trkpt lat="43.52175" lon="6.59141">
        <ele>91</ele>
        <time>2019-04-26T19:01:30.678Z</time>
      </trkpt>
      <trkpt lat="43.52173" lon="6.59137">
        <ele>91</ele>
        <time>2019-04-26T19:01:31.678Z</time>
      </trkpt>
      <trkpt lat="43.52172" lon="6.59127">
        <ele>91</ele>
        <time>2019-04-26T19:01:32.678Z</time>
      </trkpt>
      <trkpt lat="43.52172" lon="6.59122">
        <ele>92</ele>
        <time>2019-04-26T19:01:33.678Z</time>
      </trkpt>
      <trkpt lat="43.52172" lon="6.59117">
        <ele>92</ele>
        <time>2019-04-26T19:01:34.678Z</time>
      </trkpt>
      <trkpt lat="43.52174" lon="6.59107">
        <ele>93</ele>
        <time>2019-04-26T19:01:35.678Z</time>
      </trkpt>
      <trkpt lat="43.52174" lon="6.59103">
        <ele>93</ele>
        <time>2019-04-26T19:01:36.678Z</time>
      </trkpt>
      <trkpt lat="43.52174" lon="6.59099">
        <ele>93</ele>
        <time>2019-04-26T19:01:37.678Z</time>
      </trkpt>
      <trkpt lat="43.52175" lon="6.59091">
        <ele>94</ele>
        <time>2019-04-26T19:01:38.678Z</time>
      </trkpt>
      <trkpt lat="43.52178" lon="6.5908">
        <ele>94</ele>
        <time>2019-04-26T19:01:39.678Z</time>
      </trkpt>
      <trkpt lat="43.52178" lon="6.59073">
        <ele>94</ele>
        <time>2019-04-26T19:01:40.678Z</time>
      </trkpt>
      <trkpt lat="43.5218" lon="6.59065">
        <ele>94</ele>
        <time>2019-04-26T19:01:41.678Z</time>
      </trkpt>
      <trkpt lat="43.52182" lon="6.59048">
        <ele>93</ele>
        <time>2019-04-26T19:01:42.678Z</time>
      </trkpt>
      <trkpt lat="43.52183" lon="6.5903">
        <ele>93</ele>
        <time>2019-04-26T19:01:43.678Z</time>
      </trkpt>
      <trkpt lat="43.52186" lon="6.59012">
        <ele>92</ele>
        <time>2019-04-26T19:01:44.678Z</time>
      </trkpt>
      <trkpt lat="43.52187" lon="6.58992">
        <ele>91</ele>
        <time>2019-04-26T19:01:45.678Z</time>
      </trkpt>
      <trkpt lat="43.52188" lon="6.5897">
        <ele>90</ele>
        <time>2019-04-26T19:01:46.678Z</time>
      </trkpt>
      <trkpt lat="43.52189" lon="6.58959">
        <ele>90</ele>
        <time>2019-04-26T19:01:47.678Z</time>
      </trkpt>
      <trkpt lat="43.52188" lon="6.58949">
        <ele>89</ele>
        <time>2019-04-26T19:01:48.678Z</time>
      </trkpt>
      <trkpt lat="43.52184" lon="6.58938">
        <ele>88</ele>
        <time>2019-04-26T19:01:49.678Z</time>
      </trkpt>
      <trkpt lat="43.5218" lon="6.58928">
        <ele>86</ele>
        <time>2019-04-26T19:01:50.678Z</time>
      </trkpt>
      <trkpt lat="43.52175" lon="6.58919">
        <ele>85</ele>
        <time>2019-04-26T19:01:51.678Z</time>
      </trkpt>
      <trkpt lat="43.52171" lon="6.58909">
        <ele>83</ele>
        <time>2019-04-26T19:01:52.678Z</time>
      </trkpt>
      <trkpt lat="43.52166" lon="6.58899">
        <ele>82</ele>
        <time>2019-04-26T19:01:53.678Z</time>
      </trkpt>
      <trkpt lat="43.5216" lon="6.58888">
        <ele>82</ele>
        <time>2019-04-26T19:01:54.678Z</time>
      </trkpt>
      <trkpt lat="43.5215" lon="6.58867">
        <ele>81</ele>
        <time>2019-04-26T19:01:55.678Z</time>
      </trkpt>
      <trkpt lat="43.52139" lon="6.58845">
        <ele>79</ele>
        <time>2019-04-26T19:01:56.678Z</time>
      </trkpt>
      <trkpt lat="43.52134" lon="6.58834">
        <ele>78</ele>
        <time>2019-04-26T19:01:57.678Z</time>
      </trkpt>
      <trkpt lat="43.52129" lon="6.58822">
        <ele>78</ele>
        <time>2019-04-26T19:01:58.678Z</time>
      </trkpt>
      <trkpt lat="43.52122" lon="6.588">
        <ele>78</ele>
        <time>2019-04-26T19:01:59.678Z</time>
      </trkpt>
      <trkpt lat="43.52119" lon="6.58778">
        <ele>78</ele>
        <time>2019-04-26T19:02:00.678Z</time>
      </trkpt>
      <trkpt lat="43.52116" lon="6.58759">
        <ele>78</ele>
        <time>2019-04-26T19:02:01.678Z</time>
      </trkpt>
      <trkpt lat="43.52113" lon="6.58742">
        <ele>77</ele>
        <time>2019-04-26T19:02:02.678Z</time>
      </trkpt>
      <trkpt lat="43.52112" lon="6.58733">
        <ele>77</ele>
        <time>2019-04-26T19:02:03.678Z</time>
      </trkpt>
      <trkpt lat="43.52111" lon="6.58724">
        <ele>77</ele>
        <time>2019-04-26T19:02:04.678Z</time>
      </trkpt>
      <trkpt lat="43.52108" lon="6.58705">
        <ele>76</ele>
        <time>2019-04-26T19:02:05.678Z</time>
      </trkpt>
      <trkpt lat="43.52102" lon="6.58686">
        <ele>76</ele>
        <time>2019-04-26T19:02:06.678Z</time>
      </trkpt>
      <trkpt lat="43.52093" lon="6.58668">
        <ele>75</ele>
        <time>2019-04-26T19:02:07.678Z</time>
      </trkpt>
      <trkpt lat="43.52088" lon="6.5866">
        <ele>74</ele>
        <time>2019-04-26T19:02:08.678Z</time>
      </trkpt>
      <trkpt lat="43.52083" lon="6.58651">
        <ele>74</ele>
        <time>2019-04-26T19:02:09.678Z</time>
      </trkpt>
      <trkpt lat="43.52078" lon="6.58641">
        <ele>73</ele>
        <time>2019-04-26T19:02:10.678Z</time>
      </trkpt>
      <trkpt lat="43.52077" lon="6.58632">
        <ele>73</ele>
        <time>2019-04-26T19:02:11.678Z</time>
      </trkpt>
      <trkpt lat="43.52077" lon="6.58623">
        <ele>73</ele>
        <time>2019-04-26T19:02:12.678Z</time>
      </trkpt>
      <trkpt lat="43.52079" lon="6.58614">
        <ele>72</ele>
        <time>2019-04-26T19:02:13.678Z</time>
      </trkpt>
      <trkpt lat="43.52085" lon="6.58598">
        <ele>73</ele>
        <time>2019-04-26T19:02:14.678Z</time>
      </trkpt>
      <trkpt lat="43.52086" lon="6.5859">
        <ele>72</ele>
        <time>2019-04-26T19:02:15.678Z</time>
      </trkpt>
      <trkpt lat="43.52085" lon="6.58582">
        <ele>72</ele>
        <time>2019-04-26T19:02:16.678Z</time>
      </trkpt>
      <trkpt lat="43.52083" lon="6.58575">
        <ele>72</ele>
        <time>2019-04-26T19:02:17.678Z</time>
      </trkpt>
      <trkpt lat="43.52078" lon="6.5857">
        <ele>72</ele>
        <time>2019-04-26T19:02:18.678Z</time>
      </trkpt>
      <trkpt lat="43.52068" lon="6.58563">
        <ele>72</ele>
        <time>2019-04-26T19:02:19.678Z</time>
      </trkpt>
      <trkpt lat="43.52062" lon="6.58551">
        <ele>72</ele>
        <time>2019-04-26T19:02:20.678Z</time>
      </trkpt>
      <trkpt lat="43.52062" lon="6.58544">
        <ele>72</ele>
        <time>2019-04-26T19:02:21.678Z</time>
      </trkpt>
      <trkpt lat="43.52064" lon="6.58538">
        <ele>72</ele>
        <time>2019-04-26T19:02:22.678Z</time>
      </trkpt>
      <trkpt lat="43.52065" lon="6.58532">
        <ele>72</ele>
        <time>2019-04-26T19:02:23.678Z</time>
      </trkpt>
      <trkpt lat="43.52067" lon="6.58526">
        <ele>73</ele>
        <time>2019-04-26T19:02:24.678Z</time>
      </trkpt>
      <trkpt lat="43.52071" lon="6.58517">
        <ele>73</ele>
        <time>2019-04-26T19:02:25.678Z</time>
      </trkpt>
      <trkpt lat="43.52076" lon="6.58511">
        <ele>74</ele>
        <time>2019-04-26T19:02:26.678Z</time>
      </trkpt>
      <trkpt lat="43.52076" lon="6.58506">
        <ele>74</ele>
        <time>2019-04-26T19:02:27.678Z</time>
      </trkpt>
      <trkpt lat="43.52077" lon="6.58501">
        <ele>74</ele>
        <time>2019-04-26T19:02:28.678Z</time>
      </trkpt>
      <trkpt lat="43.52078" lon="6.58494">
        <ele>74</ele>
        <time>2019-04-26T19:02:29.678Z</time>
      </trkpt>
      <trkpt lat="43.52079" lon="6.58488">
        <ele>74</ele>
        <time>2019-04-26T19:02:30.678Z</time>
      </trkpt>
      <trkpt lat="43.52082" lon="6.58477">
        <ele>73</ele>
        <time>2019-04-26T19:02:31.678Z</time>
      </trkpt>
      <trkpt lat="43.52087" lon="6.58468">
        <ele>73</ele>
        <time>2019-04-26T19:02:32.678Z</time>
      </trkpt>
      <trkpt lat="43.52093" lon="6.58457">
        <ele>74</ele>
        <time>2019-04-26T19:02:33.678Z</time>
      </trkpt>
      <trkpt lat="43.52102" lon="6.58446">
        <ele>74</ele>
        <time>2019-04-26T19:02:34.678Z</time>
      </trkpt>
      <trkpt lat="43.52112" lon="6.58437">
        <ele>75</ele>
        <time>2019-04-26T19:02:35.678Z</time>
      </trkpt>
      <trkpt lat="43.52117" lon="6.58422">
        <ele>75</ele>
        <time>2019-04-26T19:02:36.678Z</time>
      </trkpt>
      <trkpt lat="43.52119" lon="6.58415">
        <ele>74</ele>
        <time>2019-04-26T19:02:37.678Z</time>
      </trkpt>
      <trkpt lat="43.52122" lon="6.58408">
        <ele>74</ele>
        <time>2019-04-26T19:02:38.678Z</time>
      </trkpt>
      <trkpt lat="43.52128" lon="6.58395">
        <ele>74</ele>
        <time>2019-04-26T19:02:39.678Z</time>
      </trkpt>
      <trkpt lat="43.52136" lon="6.58383">
        <ele>73</ele>
        <time>2019-04-26T19:02:40.678Z</time>
      </trkpt>
      <trkpt lat="43.52145" lon="6.58368">
        <ele>73</ele>
        <time>2019-04-26T19:02:41.678Z</time>
      </trkpt>
      <trkpt lat="43.52155" lon="6.58354">
        <ele>72</ele>
        <time>2019-04-26T19:02:42.678Z</time>
      </trkpt>
      <trkpt lat="43.5216" lon="6.58346">
        <ele>72</ele>
        <time>2019-04-26T19:02:43.678Z</time>
      </trkpt>
      <trkpt lat="43.52166" lon="6.58338">
        <ele>71</ele>
        <time>2019-04-26T19:02:44.678Z</time>
      </trkpt>
      <trkpt lat="43.52171" lon="6.5833">
        <ele>71</ele>
        <time>2019-04-26T19:02:45.678Z</time>
      </trkpt>
      <trkpt lat="43.52176" lon="6.58322">
        <ele>71</ele>
        <time>2019-04-26T19:02:46.678Z</time>
      </trkpt>
      <trkpt lat="43.52187" lon="6.58304">
        <ele>70</ele>
        <time>2019-04-26T19:02:47.678Z</time>
      </trkpt>
      <trkpt lat="43.52191" lon="6.58295">
        <ele>69</ele>
        <time>2019-04-26T19:02:48.678Z</time>
      </trkpt>
      <trkpt lat="43.52193" lon="6.58283">
        <ele>68</ele>
        <time>2019-04-26T19:02:49.678Z</time>
      </trkpt>
      <trkpt lat="43.52194" lon="6.5826">
        <ele>65</ele>
        <time>2019-04-26T19:02:50.678Z</time>
      </trkpt>
      <trkpt lat="43.52198" lon="6.58236">
        <ele>64</ele>
        <time>2019-04-26T19:02:51.678Z</time>
      </trkpt>
      <trkpt lat="43.52199" lon="6.58223">
        <ele>63</ele>
        <time>2019-04-26T19:02:52.678Z</time>
      </trkpt>
      <trkpt lat="43.52201" lon="6.58211">
        <ele>63</ele>
        <time>2019-04-26T19:02:53.678Z</time>
      </trkpt>
      <trkpt lat="43.52203" lon="6.582">
        <ele>62</ele>
        <time>2019-04-26T19:02:54.678Z</time>
      </trkpt>
      <trkpt lat="43.52204" lon="6.58191">
        <ele>62</ele>
        <time>2019-04-26T19:02:55.678Z</time>
      </trkpt>
      <trkpt lat="43.52205" lon="6.58181">
        <ele>62</ele>
        <time>2019-04-26T19:02:56.678Z</time>
      </trkpt>
      <trkpt lat="43.52203" lon="6.58173">
        <ele>61</ele>
        <time>2019-04-26T19:02:57.678Z</time>
      </trkpt>
      <trkpt lat="43.52195" lon="6.58161">
        <ele>60</ele>
        <time>2019-04-26T19:02:58.678Z</time>
      </trkpt>
      <trkpt lat="43.52191" lon="6.58158">
        <ele>60</ele>
        <time>2019-04-26T19:02:59.678Z</time>
      </trkpt>
      <trkpt lat="43.52186" lon="6.58157">
        <ele>60</ele>
        <time>2019-04-26T19:03:00.678Z</time>
      </trkpt>
      <trkpt lat="43.52171" lon="6.58162">
        <ele>59</ele>
        <time>2019-04-26T19:03:01.678Z</time>
      </trkpt>
      <trkpt lat="43.52164" lon="6.58164">
        <ele>59</ele>
        <time>2019-04-26T19:03:02.678Z</time>
      </trkpt>
      <trkpt lat="43.52156" lon="6.58167">
        <ele>59</ele>
        <time>2019-04-26T19:03:03.678Z</time>
      </trkpt>
      <trkpt lat="43.52149" lon="6.58172">
        <ele>58</ele>
        <time>2019-04-26T19:03:04.678Z</time>
      </trkpt>
      <trkpt lat="43.52142" lon="6.58179">
        <ele>58</ele>
        <time>2019-04-26T19:03:05.678Z</time>
      </trkpt>
      <trkpt lat="43.52129" lon="6.58195">
        <ele>58</ele>
        <time>2019-04-26T19:03:06.678Z</time>
      </trkpt>
      <trkpt lat="43.52122" lon="6.58203">
        <ele>58</ele>
        <time>2019-04-26T19:03:07.678Z</time>
      </trkpt>
      <trkpt lat="43.52115" lon="6.58212">
        <ele>58</ele>
        <time>2019-04-26T19:03:08.678Z</time>
      </trkpt>
      <trkpt lat="43.52102" lon="6.58227">
        <ele>58</ele>
        <time>2019-04-26T19:03:09.678Z</time>
      </trkpt>
      <trkpt lat="43.52096" lon="6.58232">
        <ele>57</ele>
        <time>2019-04-26T19:03:10.678Z</time>
      </trkpt>
      <trkpt lat="43.52089" lon="6.58236">
        <ele>57</ele>
        <time>2019-04-26T19:03:11.678Z</time>
      </trkpt>
      <trkpt lat="43.52082" lon="6.5824">
        <ele>57</ele>
        <time>2019-04-26T19:03:12.678Z</time>
      </trkpt>
      <trkpt lat="43.52075" lon="6.58245">
        <ele>56</ele>
        <time>2019-04-26T19:03:13.678Z</time>
      </trkpt>
      <trkpt lat="43.52063" lon="6.58259">
        <ele>56</ele>
        <time>2019-04-26T19:03:14.678Z</time>
      </trkpt>
      <trkpt lat="43.52058" lon="6.58266">
        <ele>56</ele>
        <time>2019-04-26T19:03:15.678Z</time>
      </trkpt>
      <trkpt lat="43.52052" lon="6.58273">
        <ele>57</ele>
        <time>2019-04-26T19:03:16.678Z</time>
      </trkpt>
      <trkpt lat="43.52045" lon="6.58277">
        <ele>56</ele>
        <time>2019-04-26T19:03:17.678Z</time>
      </trkpt>
      <trkpt lat="43.52038" lon="6.58278">
        <ele>56</ele>
        <time>2019-04-26T19:03:18.678Z</time>
      </trkpt>
      <trkpt lat="43.52026" lon="6.58281">
        <ele>55</ele>
        <time>2019-04-26T19:03:19.678Z</time>
      </trkpt>
      <trkpt lat="43.52019" lon="6.58283">
        <ele>55</ele>
        <time>2019-04-26T19:03:20.678Z</time>
      </trkpt>
      <trkpt lat="43.52011" lon="6.58284">
        <ele>55</ele>
        <time>2019-04-26T19:03:21.678Z</time>
      </trkpt>
      <trkpt lat="43.51997" lon="6.58287">
        <ele>54</ele>
        <time>2019-04-26T19:03:22.678Z</time>
      </trkpt>
      <trkpt lat="43.51982" lon="6.58295">
        <ele>53</ele>
        <time>2019-04-26T19:03:23.678Z</time>
      </trkpt>
      <trkpt lat="43.51976" lon="6.58302">
        <ele>53</ele>
        <time>2019-04-26T19:03:24.678Z</time>
      </trkpt>
      <trkpt lat="43.51969" lon="6.58307">
        <ele>53</ele>
        <time>2019-04-26T19:03:25.678Z</time>
      </trkpt>
      <trkpt lat="43.51957" lon="6.58318">
        <ele>53</ele>
        <time>2019-04-26T19:03:26.678Z</time>
      </trkpt>
      <trkpt lat="43.51946" lon="6.58332">
        <ele>52</ele>
        <time>2019-04-26T19:03:27.678Z</time>
      </trkpt>
      <trkpt lat="43.5194" lon="6.5835">
        <ele>52</ele>
        <time>2019-04-26T19:03:28.678Z</time>
      </trkpt>
      <trkpt lat="43.51939" lon="6.58358">
        <ele>52</ele>
        <time>2019-04-26T19:03:29.678Z</time>
      </trkpt>
      <trkpt lat="43.51937" lon="6.58366">
        <ele>53</ele>
        <time>2019-04-26T19:03:30.678Z</time>
      </trkpt>
      <trkpt lat="43.51937" lon="6.58383">
        <ele>53</ele>
        <time>2019-04-26T19:03:31.678Z</time>
      </trkpt>
      <trkpt lat="43.51936" lon="6.58399">
        <ele>53</ele>
        <time>2019-04-26T19:03:32.678Z</time>
      </trkpt>
      <trkpt lat="43.51936" lon="6.58407">
        <ele>53</ele>
        <time>2019-04-26T19:03:33.678Z</time>
      </trkpt>
      <trkpt lat="43.51936" lon="6.58414">
        <ele>53</ele>
        <time>2019-04-26T19:03:34.678Z</time>
      </trkpt>
      <trkpt lat="43.51934" lon="6.58427">
        <ele>54</ele>
        <time>2019-04-26T19:03:35.678Z</time>
      </trkpt>
      <trkpt lat="43.51934" lon="6.58433">
        <ele>55</ele>
        <time>2019-04-26T19:03:36.678Z</time>
      </trkpt>
      <trkpt lat="43.51933" lon="6.58439">
        <ele>55</ele>
        <time>2019-04-26T19:03:37.678Z</time>
      </trkpt>
      <trkpt lat="43.51932" lon="6.58445">
        <ele>56</ele>
        <time>2019-04-26T19:03:38.678Z</time>
      </trkpt>
      <trkpt lat="43.5193" lon="6.5845">
        <ele>56</ele>
        <time>2019-04-26T19:03:39.678Z</time>
      </trkpt>
      <trkpt lat="43.51922" lon="6.58456">
        <ele>56</ele>
        <time>2019-04-26T19:03:40.678Z</time>
      </trkpt>
      <trkpt lat="43.51918" lon="6.58459">
        <ele>56</ele>
        <time>2019-04-26T19:03:41.678Z</time>
      </trkpt>
      <trkpt lat="43.51913" lon="6.58461">
        <ele>55</ele>
        <time>2019-04-26T19:03:42.678Z</time>
      </trkpt>
      <trkpt lat="43.51906" lon="6.58463">
        <ele>55</ele>
        <time>2019-04-26T19:03:43.678Z</time>
      </trkpt>
      <trkpt lat="43.51902" lon="6.58464">
        <ele>54</ele>
        <time>2019-04-26T19:03:44.678Z</time>
      </trkpt>
      <trkpt lat="43.51898" lon="6.58465">
        <ele>54</ele>
        <time>2019-04-26T19:03:45.678Z</time>
      </trkpt>
      <trkpt lat="43.51894" lon="6.58467">
        <ele>54</ele>
        <time>2019-04-26T19:03:46.678Z</time>
      </trkpt>
      <trkpt lat="43.51891" lon="6.58469">
        <ele>54</ele>
        <time>2019-04-26T19:03:47.678Z</time>
      </trkpt>
      <trkpt lat="43.51885" lon="6.58474">
        <ele>53</ele>
        <time>2019-04-26T19:03:48.678Z</time>
      </trkpt>
      <trkpt lat="43.51879" lon="6.58479">
        <ele>53</ele>
        <time>2019-04-26T19:03:49.678Z</time>
      </trkpt>
      <trkpt lat="43.51873" lon="6.58486">
        <ele>53</ele>
        <time>2019-04-26T19:03:50.678Z</time>
      </trkpt>
      <trkpt lat="43.51868" lon="6.58493">
        <ele>53</ele>
        <time>2019-04-26T19:03:51.678Z</time>
      </trkpt>
      <trkpt lat="43.51864" lon="6.58501">
        <ele>53</ele>
        <time>2019-04-26T19:03:52.678Z</time>
      </trkpt>
      <trkpt lat="43.51859" lon="6.58508">
        <ele>53</ele>
        <time>2019-04-26T19:03:53.678Z</time>
      </trkpt>
      <trkpt lat="43.51854" lon="6.58516">
        <ele>54</ele>
        <time>2019-04-26T19:03:54.678Z</time>
      </trkpt>
      <trkpt lat="43.51848" lon="6.58524">
        <ele>54</ele>
        <time>2019-04-26T19:03:55.678Z</time>
      </trkpt>
      <trkpt lat="43.51845" lon="6.58527">
        <ele>54</ele>
        <time>2019-04-26T19:03:56.678Z</time>
      </trkpt>
      <trkpt lat="43.51842" lon="6.58531">
        <ele>54</ele>
        <time>2019-04-26T19:03:57.678Z</time>
      </trkpt>
      <trkpt lat="43.51836" lon="6.58538">
        <ele>55</ele>
        <time>2019-04-26T19:03:58.678Z</time>
      </trkpt>
      <trkpt lat="43.51831" lon="6.58543">
        <ele>55</ele>
        <time>2019-04-26T19:03:59.678Z</time>
      </trkpt>
      <trkpt lat="43.51828" lon="6.58545">
        <ele>55</ele>
        <time>2019-04-26T19:04:00.678Z</time>
      </trkpt>
      <trkpt lat="43.51825" lon="6.58548">
        <ele>55</ele>
        <time>2019-04-26T19:04:01.678Z</time>
      </trkpt>
      <trkpt lat="43.51819" lon="6.58552">
        <ele>55</ele>
        <time>2019-04-26T19:04:02.678Z</time>
      </trkpt>
      <trkpt lat="43.51817" lon="6.58554">
        <ele>55</ele>
        <time>2019-04-26T19:04:03.678Z</time>
      </trkpt>
      <trkpt lat="43.51814" lon="6.58555">
        <ele>55</ele>
        <time>2019-04-26T19:04:04.678Z</time>
      </trkpt>
      <trkpt lat="43.51811" lon="6.58557">
        <ele>55</ele>
        <time>2019-04-26T19:04:05.678Z</time>
      </trkpt>
      <trkpt lat="43.51808" lon="6.58559">
        <ele>55</ele>
        <time>2019-04-26T19:04:06.678Z</time>
      </trkpt>
      <trkpt lat="43.51803" lon="6.58564">
        <ele>56</ele>
        <time>2019-04-26T19:04:07.678Z</time>
      </trkpt>
      <trkpt lat="43.51799" lon="6.58571">
        <ele>56</ele>
        <time>2019-04-26T19:04:08.678Z</time>
      </trkpt>
      <trkpt lat="43.51796" lon="6.58574">
        <ele>57</ele>
        <time>2019-04-26T19:04:09.678Z</time>
      </trkpt>
      <trkpt lat="43.51793" lon="6.58577">
        <ele>57</ele>
        <time>2019-04-26T19:04:10.678Z</time>
      </trkpt>
      <trkpt lat="43.51788" lon="6.58578">
        <ele>56</ele>
        <time>2019-04-26T19:04:11.678Z</time>
      </trkpt>
      <trkpt lat="43.51784" lon="6.58577">
        <ele>56</ele>
        <time>2019-04-26T19:04:12.678Z</time>
      </trkpt>
      <trkpt lat="43.5178" lon="6.58576">
        <ele>56</ele>
        <time>2019-04-26T19:04:13.678Z</time>
      </trkpt>
      <trkpt lat="43.51775" lon="6.58576">
        <ele>55</ele>
        <time>2019-04-26T19:04:14.678Z</time>
      </trkpt>
      <trkpt lat="43.51765" lon="6.58576">
        <ele>54</ele>
        <time>2019-04-26T19:04:15.678Z</time>
      </trkpt>
      <trkpt lat="43.51755" lon="6.58576">
        <ele>53</ele>
        <time>2019-04-26T19:04:16.678Z</time>
      </trkpt>
      <trkpt lat="43.51744" lon="6.58576">
        <ele>53</ele>
        <time>2019-04-26T19:04:17.678Z</time>
      </trkpt>
      <trkpt lat="43.51732" lon="6.58576">
        <ele>53</ele>
        <time>2019-04-26T19:04:18.678Z</time>
      </trkpt>
      <trkpt lat="43.51725" lon="6.58575">
        <ele>52</ele>
        <time>2019-04-26T19:04:19.678Z</time>
      </trkpt>
      <trkpt lat="43.51719" lon="6.58575">
        <ele>52</ele>
        <time>2019-04-26T19:04:20.678Z</time>
      </trkpt>
      <trkpt lat="43.51712" lon="6.58574">
        <ele>52</ele>
        <time>2019-04-26T19:04:21.678Z</time>
      </trkpt>
      <trkpt lat="43.51704" lon="6.58573">
        <ele>52</ele>
        <time>2019-04-26T19:04:22.678Z</time>
      </trkpt>
      <trkpt lat="43.5169" lon="6.58569">
        <ele>51</ele>
        <time>2019-04-26T19:04:23.678Z</time>
      </trkpt>
      <trkpt lat="43.51682" lon="6.58567">
        <ele>51</ele>
        <time>2019-04-26T19:04:24.678Z</time>
      </trkpt>
      <trkpt lat="43.51675" lon="6.58565">
        <ele>50</ele>
        <time>2019-04-26T19:04:25.678Z</time>
      </trkpt>
      <trkpt lat="43.51668" lon="6.58563">
        <ele>50</ele>
        <time>2019-04-26T19:04:26.678Z</time>
      </trkpt>
      <trkpt lat="43.5166" lon="6.58562">
        <ele>49</ele>
        <time>2019-04-26T19:04:27.678Z</time>
      </trkpt>
      <trkpt lat="43.51652" lon="6.58563">
        <ele>49</ele>
        <time>2019-04-26T19:04:28.678Z</time>
      </trkpt>
      <trkpt lat="43.51644" lon="6.58564">
        <ele>49</ele>
        <time>2019-04-26T19:04:29.678Z</time>
      </trkpt>
      <trkpt lat="43.51636" lon="6.58567">
        <ele>49</ele>
        <time>2019-04-26T19:04:30.678Z</time>
      </trkpt>
      <trkpt lat="43.51628" lon="6.58569">
        <ele>49</ele>
        <time>2019-04-26T19:04:31.678Z</time>
      </trkpt>
      <trkpt lat="43.51621" lon="6.58572">
        <ele>48</ele>
        <time>2019-04-26T19:04:32.678Z</time>
      </trkpt>
      <trkpt lat="43.51614" lon="6.58575">
        <ele>48</ele>
        <time>2019-04-26T19:04:33.678Z</time>
      </trkpt>
      <trkpt lat="43.51608" lon="6.5858">
        <ele>48</ele>
        <time>2019-04-26T19:04:34.678Z</time>
      </trkpt>
      <trkpt lat="43.51602" lon="6.58587">
        <ele>48</ele>
        <time>2019-04-26T19:04:35.678Z</time>
      </trkpt>
      <trkpt lat="43.51594" lon="6.58602">
        <ele>49</ele>
        <time>2019-04-26T19:04:36.678Z</time>
      </trkpt>
      <trkpt lat="43.51593" lon="6.5862">
        <ele>51</ele>
        <time>2019-04-26T19:04:37.678Z</time>
      </trkpt>
      <trkpt lat="43.51593" lon="6.58629">
        <ele>51</ele>
        <time>2019-04-26T19:04:38.678Z</time>
      </trkpt>
      <trkpt lat="43.51591" lon="6.58636">
        <ele>52</ele>
        <time>2019-04-26T19:04:39.678Z</time>
      </trkpt>
      <trkpt lat="43.51583" lon="6.58641">
        <ele>52</ele>
        <time>2019-04-26T19:04:40.678Z</time>
      </trkpt>
      <trkpt lat="43.51571" lon="6.58635">
        <ele>51</ele>
        <time>2019-04-26T19:04:41.678Z</time>
      </trkpt>
      <trkpt lat="43.51566" lon="6.58631">
        <ele>51</ele>
        <time>2019-04-26T19:04:42.678Z</time>
      </trkpt>
      <trkpt lat="43.5156" lon="6.58628">
        <ele>50</ele>
        <time>2019-04-26T19:04:43.678Z</time>
      </trkpt>
      <trkpt lat="43.51547" lon="6.58624">
        <ele>49</ele>
        <time>2019-04-26T19:04:44.678Z</time>
      </trkpt>
      <trkpt lat="43.51534" lon="6.58624">
        <ele>49</ele>
        <time>2019-04-26T19:04:45.678Z</time>
      </trkpt>
      <trkpt lat="43.51521" lon="6.58627">
        <ele>49</ele>
        <time>2019-04-26T19:04:46.678Z</time>
      </trkpt>
      <trkpt lat="43.51507" lon="6.58629">
        <ele>49</ele>
        <time>2019-04-26T19:04:47.678Z</time>
      </trkpt>
      <trkpt lat="43.515" lon="6.58631">
        <ele>49</ele>
        <time>2019-04-26T19:04:48.678Z</time>
      </trkpt>
      <trkpt lat="43.51493" lon="6.58632">
        <ele>48</ele>
        <time>2019-04-26T19:04:49.678Z</time>
      </trkpt>
      <trkpt lat="43.51479" lon="6.58634">
        <ele>47</ele>
        <time>2019-04-26T19:04:50.678Z</time>
      </trkpt>
      <trkpt lat="43.51465" lon="6.58637">
        <ele>46</ele>
        <time>2019-04-26T19:04:51.678Z</time>
      </trkpt>
      <trkpt lat="43.51451" lon="6.58641">
        <ele>46</ele>
        <time>2019-04-26T19:04:52.678Z</time>
      </trkpt>
      <trkpt lat="43.51445" lon="6.58644">
        <ele>45</ele>
        <time>2019-04-26T19:04:53.678Z</time>
      </trkpt>
      <trkpt lat="43.51442" lon="6.58652">
        <ele>46</ele>
        <time>2019-04-26T19:04:54.678Z</time>
      </trkpt>
      <trkpt lat="43.5144" lon="6.58662">
        <ele>46</ele>
        <time>2019-04-26T19:04:55.678Z</time>
      </trkpt>
      <trkpt lat="43.51441" lon="6.58673">
        <ele>46</ele>
        <time>2019-04-26T19:04:56.678Z</time>
      </trkpt>
      <trkpt lat="43.51447" lon="6.5869">
        <ele>47</ele>
        <time>2019-04-26T19:04:57.678Z</time>
      </trkpt>
      <trkpt lat="43.51455" lon="6.58705">
        <ele>47</ele>
        <time>2019-04-26T19:04:58.678Z</time>
      </trkpt>
      <trkpt lat="43.5146" lon="6.58711">
        <ele>48</ele>
        <time>2019-04-26T19:04:59.678Z</time>
      </trkpt>
      <trkpt lat="43.51465" lon="6.58719">
        <ele>48</ele>
        <time>2019-04-26T19:05:00.678Z</time>
      </trkpt>
      <trkpt lat="43.51467" lon="6.58728">
        <ele>48</ele>
        <time>2019-04-26T19:05:01.678Z</time>
      </trkpt>
      <trkpt lat="43.51466" lon="6.58739">
        <ele>48</ele>
        <time>2019-04-26T19:05:02.678Z</time>
      </trkpt>
      <trkpt lat="43.51463" lon="6.58747">
        <ele>48</ele>
        <time>2019-04-26T19:05:03.678Z</time>
      </trkpt>
      <trkpt lat="43.51458" lon="6.58753">
        <ele>47</ele>
        <time>2019-04-26T19:05:04.678Z</time>
      </trkpt>
      <trkpt lat="43.51452" lon="6.58755">
        <ele>47</ele>
        <time>2019-04-26T19:05:05.678Z</time>
      </trkpt>
      <trkpt lat="43.51447" lon="6.58758">
        <ele>47</ele>
        <time>2019-04-26T19:05:06.678Z</time>
      </trkpt>
      <trkpt lat="43.51441" lon="6.5876">
        <ele>47</ele>
        <time>2019-04-26T19:05:07.678Z</time>
      </trkpt>
      <trkpt lat="43.51436" lon="6.58763">
        <ele>46</ele>
        <time>2019-04-26T19:05:08.678Z</time>
      </trkpt>
      <trkpt lat="43.51425" lon="6.58768">
        <ele>46</ele>
        <time>2019-04-26T19:05:09.678Z</time>
      </trkpt>
      <trkpt lat="43.51413" lon="6.58773">
        <ele>46</ele>
        <time>2019-04-26T19:05:10.678Z</time>
      </trkpt>
      <trkpt lat="43.51407" lon="6.58775">
        <ele>46</ele>
        <time>2019-04-26T19:05:11.678Z</time>
      </trkpt>
      <trkpt lat="43.51402" lon="6.58776">
        <ele>46</ele>
        <time>2019-04-26T19:05:12.678Z</time>
      </trkpt>
      <trkpt lat="43.51396" lon="6.58776">
        <ele>46</ele>
        <time>2019-04-26T19:05:13.678Z</time>
      </trkpt>
      <trkpt lat="43.51389" lon="6.58775">
        <ele>47</ele>
        <time>2019-04-26T19:05:14.678Z</time>
      </trkpt>
      <trkpt lat="43.5138" lon="6.58764">
        <ele>46</ele>
        <time>2019-04-26T19:05:15.678Z</time>
      </trkpt>
      <trkpt lat="43.51372" lon="6.58754">
        <ele>46</ele>
        <time>2019-04-26T19:05:16.678Z</time>
      </trkpt>
      <trkpt lat="43.51366" lon="6.58746">
        <ele>46</ele>
        <time>2019-04-26T19:05:17.678Z</time>
      </trkpt>
      <trkpt lat="43.51363" lon="6.58742">
        <ele>46</ele>
        <time>2019-04-26T19:05:18.678Z</time>
      </trkpt>
      <trkpt lat="43.51359" lon="6.5874">
        <ele>46</ele>
        <time>2019-04-26T19:05:19.678Z</time>
      </trkpt>
      <trkpt lat="43.51351" lon="6.58742">
        <ele>46</ele>
        <time>2019-04-26T19:05:20.678Z</time>
      </trkpt>
      <trkpt lat="43.51347" lon="6.58743">
        <ele>46</ele>
        <time>2019-04-26T19:05:21.678Z</time>
      </trkpt>
      <trkpt lat="43.51344" lon="6.58746">
        <ele>46</ele>
        <time>2019-04-26T19:05:22.678Z</time>
      </trkpt>
      <trkpt lat="43.51339" lon="6.58754">
        <ele>47</ele>
        <time>2019-04-26T19:05:23.678Z</time>
      </trkpt>
      <trkpt lat="43.51335" lon="6.58757">
        <ele>47</ele>
        <time>2019-04-26T19:05:24.678Z</time>
      </trkpt>
      <trkpt lat="43.51331" lon="6.58759">
        <ele>47</ele>
        <time>2019-04-26T19:05:25.678Z</time>
      </trkpt>
      <trkpt lat="43.51324" lon="6.58764">
        <ele>47</ele>
        <time>2019-04-26T19:05:26.678Z</time>
      </trkpt>
      <trkpt lat="43.51316" lon="6.58769">
        <ele>47</ele>
        <time>2019-04-26T19:05:27.678Z</time>
      </trkpt>
      <trkpt lat="43.51312" lon="6.58772">
        <ele>48</ele>
        <time>2019-04-26T19:05:28.678Z</time>
      </trkpt>
      <trkpt lat="43.51309" lon="6.58775">
        <ele>48</ele>
        <time>2019-04-26T19:05:29.678Z</time>
      </trkpt>
      <trkpt lat="43.51302" lon="6.58781">
        <ele>48</ele>
        <time>2019-04-26T19:05:30.678Z</time>
      </trkpt>
      <trkpt lat="43.51294" lon="6.58786">
        <ele>48</ele>
        <time>2019-04-26T19:05:31.678Z</time>
      </trkpt>
      <trkpt lat="43.51291" lon="6.58787">
        <ele>48</ele>
        <time>2019-04-26T19:05:32.678Z</time>
      </trkpt>
      <trkpt lat="43.51287" lon="6.58789">
        <ele>48</ele>
        <time>2019-04-26T19:05:33.678Z</time>
      </trkpt>
      <trkpt lat="43.51281" lon="6.58793">
        <ele>48</ele>
        <time>2019-04-26T19:05:34.678Z</time>
      </trkpt>
      <trkpt lat="43.51273" lon="6.58796">
        <ele>48</ele>
        <time>2019-04-26T19:05:35.678Z</time>
      </trkpt>
      <trkpt lat="43.5127" lon="6.58796">
        <ele>48</ele>
        <time>2019-04-26T19:05:36.678Z</time>
      </trkpt>
      <trkpt lat="43.51266" lon="6.58797">
        <ele>48</ele>
        <time>2019-04-26T19:05:37.678Z</time>
      </trkpt>
      <trkpt lat="43.51258" lon="6.58795">
        <ele>48</ele>
        <time>2019-04-26T19:05:38.678Z</time>
      </trkpt>
      <trkpt lat="43.51254" lon="6.58794">
        <ele>48</ele>
        <time>2019-04-26T19:05:39.678Z</time>
      </trkpt>
      <trkpt lat="43.5125" lon="6.58792">
        <ele>47</ele>
        <time>2019-04-26T19:05:40.678Z</time>
      </trkpt>
      <trkpt lat="43.51242" lon="6.58788">
        <ele>47</ele>
        <time>2019-04-26T19:05:41.678Z</time>
      </trkpt>
      <trkpt lat="43.51235" lon="6.58785">
        <ele>46</ele>
        <time>2019-04-26T19:05:42.678Z</time>
      </trkpt>
      <trkpt lat="43.51228" lon="6.58783">
        <ele>45</ele>
        <time>2019-04-26T19:05:43.678Z</time>
      </trkpt>
      <trkpt lat="43.51221" lon="6.58784">
        <ele>45</ele>
        <time>2019-04-26T19:05:44.678Z</time>
      </trkpt>
      <trkpt lat="43.51218" lon="6.58785">
        <ele>45</ele>
        <time>2019-04-26T19:05:45.678Z</time>
      </trkpt>
      <trkpt lat="43.51215" lon="6.58788">
        <ele>45</ele>
        <time>2019-04-26T19:05:46.678Z</time>
      </trkpt>
      <trkpt lat="43.51213" lon="6.58796">
        <ele>46</ele>
        <time>2019-04-26T19:05:47.678Z</time>
      </trkpt>
      <trkpt lat="43.51215" lon="6.58804">
        <ele>46</ele>
        <time>2019-04-26T19:05:48.678Z</time>
      </trkpt>
      <trkpt lat="43.51217" lon="6.58807">
        <ele>47</ele>
        <time>2019-04-26T19:05:49.678Z</time>
      </trkpt>
      <trkpt lat="43.51218" lon="6.5881">
        <ele>47</ele>
        <time>2019-04-26T19:05:50.678Z</time>
      </trkpt>
      <trkpt lat="43.51223" lon="6.58813">
        <ele>48</ele>
        <time>2019-04-26T19:05:51.678Z</time>
      </trkpt>
      <trkpt lat="43.51227" lon="6.58817">
        <ele>48</ele>
        <time>2019-04-26T19:05:52.678Z</time>
      </trkpt>
      <trkpt lat="43.5123" lon="6.58821">
        <ele>49</ele>
        <time>2019-04-26T19:05:53.678Z</time>
      </trkpt>
      <trkpt lat="43.51231" lon="6.58821">
        <ele>49</ele>
        <time>2019-04-26T19:05:54.678Z</time>
      </trkpt>
      <trkpt lat="43.51232" lon="6.58819">
        <ele>49</ele>
        <time>2019-04-26T19:05:55.678Z</time>
      </trkpt>
      <trkpt lat="43.51231" lon="6.58817">
        <ele>49</ele>
        <time>2019-04-26T19:05:56.678Z</time>
      </trkpt>
      <trkpt lat="43.51226" lon="6.58815">
        <ele>48</ele>
        <time>2019-04-26T19:05:57.678Z</time>
      </trkpt>
      <trkpt lat="43.51222" lon="6.58812">
        <ele>48</ele>
        <time>2019-04-26T19:05:58.678Z</time>
      </trkpt>
      <trkpt lat="43.51219" lon="6.58808">
        <ele>47</ele>
        <time>2019-04-26T19:05:59.678Z</time>
      </trkpt>
      <trkpt lat="43.51217" lon="6.58806">
        <ele>47</ele>
        <time>2019-04-26T19:06:00.678Z</time>
      </trkpt>
      <trkpt lat="43.51216" lon="6.58804">
        <ele>47</ele>
        <time>2019-04-26T19:06:01.678Z</time>
      </trkpt>
      <trkpt lat="43.51214" lon="6.58801">
        <ele>46</ele>
        <time>2019-04-26T19:06:02.678Z</time>
      </trkpt>
      <trkpt lat="43.51213" lon="6.58798">
        <ele>46</ele>
        <time>2019-04-26T19:06:03.678Z</time>
      </trkpt>
      <trkpt lat="43.51212" lon="6.58795">
        <ele>45</ele>
        <time>2019-04-26T19:06:04.678Z</time>
      </trkpt>
      <trkpt lat="43.51211" lon="6.58791">
        <ele>45</ele>
        <time>2019-04-26T19:06:05.678Z</time>
      </trkpt>
      <trkpt lat="43.51212" lon="6.5879">
        <ele>45</ele>
        <time>2019-04-26T19:06:06.678Z</time>
      </trkpt>
      <trkpt lat="43.51214" lon="6.5879">
        <ele>45</ele>
        <time>2019-04-26T19:06:07.678Z</time>
      </trkpt>
      <trkpt lat="43.51216" lon="6.58793">
        <ele>46</ele>
        <time>2019-04-26T19:06:08.678Z</time>
      </trkpt>
      <trkpt lat="43.51216" lon="6.58803">
        <ele>46</ele>
        <time>2019-04-26T19:06:09.678Z</time>
      </trkpt>
      <trkpt lat="43.51217" lon="6.58806">
        <ele>47</ele>
        <time>2019-04-26T19:06:10.678Z</time>
      </trkpt>
      <trkpt lat="43.51218" lon="6.58809">
        <ele>47</ele>
        <time>2019-04-26T19:06:11.678Z</time>
      </trkpt>
      <trkpt lat="43.5122" lon="6.58812">
        <ele>48</ele>
        <time>2019-04-26T19:06:12.678Z</time>
      </trkpt>
      <trkpt lat="43.51222" lon="6.58814">
        <ele>48</ele>
        <time>2019-04-26T19:06:13.678Z</time>
      </trkpt>
      <trkpt lat="43.51228" lon="6.58818">
        <ele>49</ele>
        <time>2019-04-26T19:06:14.678Z</time>
      </trkpt>
      <trkpt lat="43.51231" lon="6.58821">
        <ele>49</ele>
        <time>2019-04-26T19:06:15.678Z</time>
      </trkpt>
      <trkpt lat="43.51235" lon="6.58824">
        <ele>50</ele>
        <time>2019-04-26T19:06:16.678Z</time>
      </trkpt>
      <trkpt lat="43.51241" lon="6.5883">
        <ele>51</ele>
        <time>2019-04-26T19:06:17.678Z</time>
      </trkpt>
      <trkpt lat="43.51248" lon="6.58836">
        <ele>52</ele>
        <time>2019-04-26T19:06:18.678Z</time>
      </trkpt>
      <trkpt lat="43.51251" lon="6.58839">
        <ele>52</ele>
        <time>2019-04-26T19:06:19.678Z</time>
      </trkpt>
      <trkpt lat="43.51254" lon="6.58842">
        <ele>52</ele>
        <time>2019-04-26T19:06:20.678Z</time>
      </trkpt>
      <trkpt lat="43.51259" lon="6.58849">
        <ele>53</ele>
        <time>2019-04-26T19:06:21.678Z</time>
      </trkpt>
      <trkpt lat="43.51264" lon="6.58855">
        <ele>53</ele>
        <time>2019-04-26T19:06:22.678Z</time>
      </trkpt>
      <trkpt lat="43.51268" lon="6.58863">
        <ele>53</ele>
        <time>2019-04-26T19:06:23.678Z</time>
      </trkpt>
      <trkpt lat="43.51269" lon="6.58867">
        <ele>53</ele>
        <time>2019-04-26T19:06:24.678Z</time>
      </trkpt>
      <trkpt lat="43.5127" lon="6.58871">
        <ele>54</ele>
        <time>2019-04-26T19:06:25.678Z</time>
      </trkpt>
      <trkpt lat="43.5127" lon="6.5888">
        <ele>54</ele>
        <time>2019-04-26T19:06:26.678Z</time>
      </trkpt>
      <trkpt lat="43.51271" lon="6.58888">
        <ele>54</ele>
        <time>2019-04-26T19:06:27.678Z</time>
      </trkpt>
      <trkpt lat="43.51272" lon="6.58896">
        <ele>55</ele>
        <time>2019-04-26T19:06:28.678Z</time>
      </trkpt>
      <trkpt lat="43.51273" lon="6.58905">
        <ele>55</ele>
        <time>2019-04-26T19:06:29.678Z</time>
      </trkpt>
      <trkpt lat="43.51273" lon="6.58909">
        <ele>55</ele>
        <time>2019-04-26T19:06:30.678Z</time>
      </trkpt>
      <trkpt lat="43.51273" lon="6.58914">
        <ele>55</ele>
        <time>2019-04-26T19:06:31.678Z</time>
      </trkpt>
      <trkpt lat="43.51274" lon="6.58924">
        <ele>56</ele>
        <time>2019-04-26T19:06:32.678Z</time>
      </trkpt>
      <trkpt lat="43.51276" lon="6.58934">
        <ele>57</ele>
        <time>2019-04-26T19:06:33.678Z</time>
      </trkpt>
      <trkpt lat="43.51279" lon="6.58942">
        <ele>57</ele>
        <time>2019-04-26T19:06:34.678Z</time>
      </trkpt>
      <trkpt lat="43.51281" lon="6.58947">
        <ele>57</ele>
        <time>2019-04-26T19:06:35.678Z</time>
      </trkpt>
      <trkpt lat="43.51283" lon="6.58951">
        <ele>58</ele>
        <time>2019-04-26T19:06:36.678Z</time>
      </trkpt>
      <trkpt lat="43.51288" lon="6.5896">
        <ele>58</ele>
        <time>2019-04-26T19:06:37.678Z</time>
      </trkpt>
      <trkpt lat="43.51289" lon="6.58965">
        <ele>59</ele>
        <time>2019-04-26T19:06:38.678Z</time>
      </trkpt>
      <trkpt lat="43.5129" lon="6.5897">
        <ele>59</ele>
        <time>2019-04-26T19:06:39.678Z</time>
      </trkpt>
      <trkpt lat="43.51291" lon="6.58975">
        <ele>59</ele>
        <time>2019-04-26T19:06:40.678Z</time>
      </trkpt>
      <trkpt lat="43.51291" lon="6.5898">
        <ele>59</ele>
        <time>2019-04-26T19:06:41.678Z</time>
      </trkpt>
      <trkpt lat="43.51291" lon="6.58991">
        <ele>60</ele>
        <time>2019-04-26T19:06:42.678Z</time>
      </trkpt>
      <trkpt lat="43.51289" lon="6.59001">
        <ele>60</ele>
        <time>2019-04-26T19:06:43.678Z</time>
      </trkpt>
      <trkpt lat="43.51288" lon="6.59005">
        <ele>61</ele>
        <time>2019-04-26T19:06:44.678Z</time>
      </trkpt>
      <trkpt lat="43.51286" lon="6.5901">
        <ele>61</ele>
        <time>2019-04-26T19:06:45.678Z</time>
      </trkpt>
      <trkpt lat="43.51284" lon="6.59021">
        <ele>61</ele>
        <time>2019-04-26T19:06:46.678Z</time>
      </trkpt>
      <trkpt lat="43.51282" lon="6.59031">
        <ele>62</ele>
        <time>2019-04-26T19:06:47.678Z</time>
      </trkpt>
      <trkpt lat="43.51279" lon="6.59041">
        <ele>62</ele>
        <time>2019-04-26T19:06:48.678Z</time>
      </trkpt>
      <trkpt lat="43.51277" lon="6.59046">
        <ele>63</ele>
        <time>2019-04-26T19:06:49.678Z</time>
      </trkpt>
      <trkpt lat="43.51274" lon="6.59051">
        <ele>63</ele>
        <time>2019-04-26T19:06:50.678Z</time>
      </trkpt>
      <trkpt lat="43.51269" lon="6.59059">
        <ele>63</ele>
        <time>2019-04-26T19:06:51.678Z</time>
      </trkpt>
      <trkpt lat="43.51262" lon="6.59065">
        <ele>63</ele>
        <time>2019-04-26T19:06:52.678Z</time>
      </trkpt>
      <trkpt lat="43.51254" lon="6.5907">
        <ele>63</ele>
        <time>2019-04-26T19:06:53.678Z</time>
      </trkpt>
      <trkpt lat="43.51249" lon="6.59072">
        <ele>63</ele>
        <time>2019-04-26T19:06:54.678Z</time>
      </trkpt>
      <trkpt lat="43.51244" lon="6.59071">
        <ele>63</ele>
        <time>2019-04-26T19:06:55.678Z</time>
      </trkpt>
      <trkpt lat="43.5124" lon="6.59068">
        <ele>63</ele>
        <time>2019-04-26T19:06:56.678Z</time>
      </trkpt>
      <trkpt lat="43.51235" lon="6.59063">
        <ele>63</ele>
        <time>2019-04-26T19:06:57.678Z</time>
      </trkpt>
      <trkpt lat="43.5123" lon="6.59051">
        <ele>62</ele>
        <time>2019-04-26T19:06:58.678Z</time>
      </trkpt>
      <trkpt lat="43.51227" lon="6.5904">
        <ele>61</ele>
        <time>2019-04-26T19:06:59.678Z</time>
      </trkpt>
      <trkpt lat="43.51225" lon="6.59035">
        <ele>61</ele>
        <time>2019-04-26T19:07:00.678Z</time>
      </trkpt>
      <trkpt lat="43.51222" lon="6.59032">
        <ele>61</ele>
        <time>2019-04-26T19:07:01.678Z</time>
      </trkpt>
      <trkpt lat="43.51213" lon="6.5903">
        <ele>60</ele>
        <time>2019-04-26T19:07:02.678Z</time>
      </trkpt>
      <trkpt lat="43.51208" lon="6.59032">
        <ele>60</ele>
        <time>2019-04-26T19:07:03.678Z</time>
      </trkpt>
      <trkpt lat="43.51204" lon="6.59034">
        <ele>60</ele>
        <time>2019-04-26T19:07:04.678Z</time>
      </trkpt>
      <trkpt lat="43.512" lon="6.59038">
        <ele>60</ele>
        <time>2019-04-26T19:07:05.678Z</time>
      </trkpt>
      <trkpt lat="43.51196" lon="6.59043">
        <ele>60</ele>
        <time>2019-04-26T19:07:06.678Z</time>
      </trkpt>
      <trkpt lat="43.51191" lon="6.59054">
        <ele>61</ele>
        <time>2019-04-26T19:07:07.678Z</time>
      </trkpt>
      <trkpt lat="43.51188" lon="6.59065">
        <ele>61</ele>
        <time>2019-04-26T19:07:08.678Z</time>
      </trkpt>
      <trkpt lat="43.51185" lon="6.59076">
        <ele>62</ele>
        <time>2019-04-26T19:07:09.678Z</time>
      </trkpt>
      <trkpt lat="43.51184" lon="6.59082">
        <ele>62</ele>
        <time>2019-04-26T19:07:10.678Z</time>
      </trkpt>
      <trkpt lat="43.51184" lon="6.59088">
        <ele>63</ele>
        <time>2019-04-26T19:07:11.678Z</time>
      </trkpt>
      <trkpt lat="43.51185" lon="6.59093">
        <ele>63</ele>
        <time>2019-04-26T19:07:12.678Z</time>
      </trkpt>
      <trkpt lat="43.51185" lon="6.59098">
        <ele>63</ele>
        <time>2019-04-26T19:07:13.678Z</time>
      </trkpt>
      <trkpt lat="43.51188" lon="6.59109">
        <ele>63</ele>
        <time>2019-04-26T19:07:14.678Z</time>
      </trkpt>
      <trkpt lat="43.51191" lon="6.59121">
        <ele>64</ele>
        <time>2019-04-26T19:07:15.678Z</time>
      </trkpt>
      <trkpt lat="43.51193" lon="6.59133">
        <ele>64</ele>
        <time>2019-04-26T19:07:16.678Z</time>
      </trkpt>
      <trkpt lat="43.51192" lon="6.59145">
        <ele>64</ele>
        <time>2019-04-26T19:07:17.678Z</time>
      </trkpt>
      <trkpt lat="43.5119" lon="6.59155">
        <ele>65</ele>
        <time>2019-04-26T19:07:18.678Z</time>
      </trkpt>
      <trkpt lat="43.51187" lon="6.59164">
        <ele>65</ele>
        <time>2019-04-26T19:07:19.678Z</time>
      </trkpt>
      <trkpt lat="43.51185" lon="6.59169">
        <ele>65</ele>
        <time>2019-04-26T19:07:20.678Z</time>
      </trkpt>
      <trkpt lat="43.51184" lon="6.59173">
        <ele>65</ele>
        <time>2019-04-26T19:07:21.678Z</time>
      </trkpt>
      <trkpt lat="43.5118" lon="6.59182">
        <ele>65</ele>
        <time>2019-04-26T19:07:22.678Z</time>
      </trkpt>
      <trkpt lat="43.51176" lon="6.59192">
        <ele>64</ele>
        <time>2019-04-26T19:07:23.678Z</time>
      </trkpt>
      <trkpt lat="43.51172" lon="6.59202">
        <ele>64</ele>
        <time>2019-04-26T19:07:24.678Z</time>
      </trkpt>
      <trkpt lat="43.51166" lon="6.59212">
        <ele>64</ele>
        <time>2019-04-26T19:07:25.678Z</time>
      </trkpt>
      <trkpt lat="43.5116" lon="6.59222">
        <ele>64</ele>
        <time>2019-04-26T19:07:26.678Z</time>
      </trkpt>
      <trkpt lat="43.51153" lon="6.59231">
        <ele>63</ele>
        <time>2019-04-26T19:07:27.678Z</time>
      </trkpt>
      <trkpt lat="43.51148" lon="6.59242">
        <ele>63</ele>
        <time>2019-04-26T19:07:28.678Z</time>
      </trkpt>
      <trkpt lat="43.51141" lon="6.59251">
        <ele>62</ele>
        <time>2019-04-26T19:07:29.678Z</time>
      </trkpt>
      <trkpt lat="43.51138" lon="6.59256">
        <ele>62</ele>
        <time>2019-04-26T19:07:30.678Z</time>
      </trkpt>
      <trkpt lat="43.51136" lon="6.59261">
        <ele>62</ele>
        <time>2019-04-26T19:07:31.678Z</time>
      </trkpt>
      <trkpt lat="43.51135" lon="6.59267">
        <ele>61</ele>
        <time>2019-04-26T19:07:32.678Z</time>
      </trkpt>
      <trkpt lat="43.51134" lon="6.59273">
        <ele>61</ele>
        <time>2019-04-26T19:07:33.678Z</time>
      </trkpt>
      <trkpt lat="43.51135" lon="6.59286">
        <ele>61</ele>
        <time>2019-04-26T19:07:34.678Z</time>
      </trkpt>
      <trkpt lat="43.51137" lon="6.59292">
        <ele>61</ele>
        <time>2019-04-26T19:07:35.678Z</time>
      </trkpt>
      <trkpt lat="43.51139" lon="6.59298">
        <ele>61</ele>
        <time>2019-04-26T19:07:36.678Z</time>
      </trkpt>
      <trkpt lat="43.51144" lon="6.5931">
        <ele>61</ele>
        <time>2019-04-26T19:07:37.678Z</time>
      </trkpt>
      <trkpt lat="43.5115" lon="6.59322">
        <ele>61</ele>
        <time>2019-04-26T19:07:38.678Z</time>
      </trkpt>
      <trkpt lat="43.51153" lon="6.59329">
        <ele>61</ele>
        <time>2019-04-26T19:07:39.678Z</time>
      </trkpt>
      <trkpt lat="43.51154" lon="6.59336">
        <ele>61</ele>
        <time>2019-04-26T19:07:40.678Z</time>
      </trkpt>
      <trkpt lat="43.51154" lon="6.59344">
        <ele>61</ele>
        <time>2019-04-26T19:07:41.678Z</time>
      </trkpt>
      <trkpt lat="43.51151" lon="6.5935">
        <ele>60</ele>
        <time>2019-04-26T19:07:42.678Z</time>
      </trkpt>
      <trkpt lat="43.51148" lon="6.59355">
        <ele>59</ele>
        <time>2019-04-26T19:07:43.678Z</time>
      </trkpt>
      <trkpt lat="43.51143" lon="6.59361">
        <ele>59</ele>
        <time>2019-04-26T19:07:44.678Z</time>
      </trkpt>
      <trkpt lat="43.51138" lon="6.59366">
        <ele>58</ele>
        <time>2019-04-26T19:07:45.678Z</time>
      </trkpt>
      <trkpt lat="43.51134" lon="6.59372">
        <ele>58</ele>
        <time>2019-04-26T19:07:46.678Z</time>
      </trkpt>
      <trkpt lat="43.51128" lon="6.59387">
        <ele>57</ele>
        <time>2019-04-26T19:07:47.678Z</time>
      </trkpt>
      <trkpt lat="43.5113" lon="6.59402">
        <ele>56</ele>
        <time>2019-04-26T19:07:48.678Z</time>
      </trkpt>
      <trkpt lat="43.51134" lon="6.59409">
        <ele>56</ele>
        <time>2019-04-26T19:07:49.678Z</time>
      </trkpt>
      <trkpt lat="43.51138" lon="6.59415">
        <ele>56</ele>
        <time>2019-04-26T19:07:50.678Z</time>
      </trkpt>
      <trkpt lat="43.51148" lon="6.59425">
        <ele>56</ele>
        <time>2019-04-26T19:07:51.678Z</time>
      </trkpt>
      <trkpt lat="43.51153" lon="6.59429">
        <ele>57</ele>
        <time>2019-04-26T19:07:52.678Z</time>
      </trkpt>
      <trkpt lat="43.51159" lon="6.59434">
        <ele>57</ele>
        <time>2019-04-26T19:07:53.678Z</time>
      </trkpt>
      <trkpt lat="43.51169" lon="6.59447">
        <ele>59</ele>
        <time>2019-04-26T19:07:54.678Z</time>
      </trkpt>
      <trkpt lat="43.51173" lon="6.59454">
        <ele>59</ele>
        <time>2019-04-26T19:07:55.678Z</time>
      </trkpt>
      <trkpt lat="43.51177" lon="6.59462">
        <ele>60</ele>
        <time>2019-04-26T19:07:56.678Z</time>
      </trkpt>
      <trkpt lat="43.5118" lon="6.59478">
        <ele>60</ele>
        <time>2019-04-26T19:07:57.678Z</time>
      </trkpt>
      <trkpt lat="43.51179" lon="6.59494">
        <ele>61</ele>
        <time>2019-04-26T19:07:58.678Z</time>
      </trkpt>
      <trkpt lat="43.51176" lon="6.59499">
        <ele>61</ele>
        <time>2019-04-26T19:07:59.678Z</time>
      </trkpt>
      <trkpt lat="43.51172" lon="6.59503">
        <ele>61</ele>
        <time>2019-04-26T19:08:00.678Z</time>
      </trkpt>
      <trkpt lat="43.51163" lon="6.59507">
        <ele>61</ele>
        <time>2019-04-26T19:08:01.678Z</time>
      </trkpt>
      <trkpt lat="43.51154" lon="6.59507">
        <ele>61</ele>
        <time>2019-04-26T19:08:02.678Z</time>
      </trkpt>
      <trkpt lat="43.51144" lon="6.59506">
        <ele>60</ele>
        <time>2019-04-26T19:08:03.678Z</time>
      </trkpt>
      <trkpt lat="43.5114" lon="6.59507">
        <ele>60</ele>
        <time>2019-04-26T19:08:04.678Z</time>
      </trkpt>
      <trkpt lat="43.51136" lon="6.59507">
        <ele>60</ele>
        <time>2019-04-26T19:08:05.678Z</time>
      </trkpt>
      <trkpt lat="43.51127" lon="6.59509">
        <ele>60</ele>
        <time>2019-04-26T19:08:06.678Z</time>
      </trkpt>
      <trkpt lat="43.51122" lon="6.59509">
        <ele>60</ele>
        <time>2019-04-26T19:08:07.678Z</time>
      </trkpt>
      <trkpt lat="43.51118" lon="6.59511">
        <ele>59</ele>
        <time>2019-04-26T19:08:08.678Z</time>
      </trkpt>
      <trkpt lat="43.51111" lon="6.59519">
        <ele>60</ele>
        <time>2019-04-26T19:08:09.678Z</time>
      </trkpt>
      <trkpt lat="43.5111" lon="6.5953">
        <ele>60</ele>
        <time>2019-04-26T19:08:10.678Z</time>
      </trkpt>
      <trkpt lat="43.51111" lon="6.59536">
        <ele>61</ele>
        <time>2019-04-26T19:08:11.678Z</time>
      </trkpt>
      <trkpt lat="43.51112" lon="6.59542">
        <ele>61</ele>
        <time>2019-04-26T19:08:12.678Z</time>
      </trkpt>
      <trkpt lat="43.51112" lon="6.59554">
        <ele>62</ele>
        <time>2019-04-26T19:08:13.678Z</time>
      </trkpt>
      <trkpt lat="43.51112" lon="6.5956">
        <ele>63</ele>
        <time>2019-04-26T19:08:14.678Z</time>
      </trkpt>
      <trkpt lat="43.5111" lon="6.59565">
        <ele>63</ele>
        <time>2019-04-26T19:08:15.678Z</time>
      </trkpt>
      <trkpt lat="43.51102" lon="6.59572">
        <ele>63</ele>
        <time>2019-04-26T19:08:16.678Z</time>
      </trkpt>
      <trkpt lat="43.51098" lon="6.59571">
        <ele>63</ele>
        <time>2019-04-26T19:08:17.678Z</time>
      </trkpt>
      <trkpt lat="43.51094" lon="6.59568">
        <ele>62</ele>
        <time>2019-04-26T19:08:18.678Z</time>
      </trkpt>
      <trkpt lat="43.51088" lon="6.59561">
        <ele>62</ele>
        <time>2019-04-26T19:08:19.678Z</time>
      </trkpt>
      <trkpt lat="43.51084" lon="6.59557">
        <ele>61</ele>
        <time>2019-04-26T19:08:20.678Z</time>
      </trkpt>
      <trkpt lat="43.5108" lon="6.59552">
        <ele>61</ele>
        <time>2019-04-26T19:08:21.678Z</time>
      </trkpt>
      <trkpt lat="43.51075" lon="6.59541">
        <ele>60</ele>
        <time>2019-04-26T19:08:22.678Z</time>
      </trkpt>
      <trkpt lat="43.51073" lon="6.59536">
        <ele>60</ele>
        <time>2019-04-26T19:08:23.678Z</time>
      </trkpt>
      <trkpt lat="43.5107" lon="6.5953">
        <ele>60</ele>
        <time>2019-04-26T19:08:24.678Z</time>
      </trkpt>
      <trkpt lat="43.51064" lon="6.59521">
        <ele>59</ele>
        <time>2019-04-26T19:08:25.678Z</time>
      </trkpt>
      <trkpt lat="43.5106" lon="6.59519">
        <ele>59</ele>
        <time>2019-04-26T19:08:26.678Z</time>
      </trkpt>
      <trkpt lat="43.51055" lon="6.59517">
        <ele>59</ele>
        <time>2019-04-26T19:08:27.678Z</time>
      </trkpt>
      <trkpt lat="43.51046" lon="6.59515">
        <ele>60</ele>
        <time>2019-04-26T19:08:28.678Z</time>
      </trkpt>
      <trkpt lat="43.51041" lon="6.59513">
        <ele>60</ele>
        <time>2019-04-26T19:08:29.678Z</time>
      </trkpt>
      <trkpt lat="43.51036" lon="6.59511">
        <ele>60</ele>
        <time>2019-04-26T19:08:30.678Z</time>
      </trkpt>
      <trkpt lat="43.51027" lon="6.59508">
        <ele>60</ele>
        <time>2019-04-26T19:08:31.678Z</time>
      </trkpt>
      <trkpt lat="43.51017" lon="6.59503">
        <ele>60</ele>
        <time>2019-04-26T19:08:32.678Z</time>
      </trkpt>
      <trkpt lat="43.51013" lon="6.595">
        <ele>60</ele>
        <time>2019-04-26T19:08:33.678Z</time>
      </trkpt>
      <trkpt lat="43.51009" lon="6.59496">
        <ele>60</ele>
        <time>2019-04-26T19:08:34.678Z</time>
      </trkpt>
      <trkpt lat="43.51005" lon="6.59492">
        <ele>60</ele>
        <time>2019-04-26T19:08:35.678Z</time>
      </trkpt>
      <trkpt lat="43.51002" lon="6.59487">
        <ele>60</ele>
        <time>2019-04-26T19:08:36.678Z</time>
      </trkpt>
      <trkpt lat="43.50995" lon="6.59478">
        <ele>59</ele>
        <time>2019-04-26T19:08:37.678Z</time>
      </trkpt>
      <trkpt lat="43.50987" lon="6.5947">
        <ele>59</ele>
        <time>2019-04-26T19:08:38.678Z</time>
      </trkpt>
      <trkpt lat="43.50979" lon="6.59466">
        <ele>58</ele>
        <time>2019-04-26T19:08:39.678Z</time>
      </trkpt>
      <trkpt lat="43.5097" lon="6.59468">
        <ele>58</ele>
        <time>2019-04-26T19:08:40.678Z</time>
      </trkpt>
      <trkpt lat="43.50964" lon="6.59475">
        <ele>58</ele>
        <time>2019-04-26T19:08:41.678Z</time>
      </trkpt>
      <trkpt lat="43.5096" lon="6.59487">
        <ele>59</ele>
        <time>2019-04-26T19:08:42.678Z</time>
      </trkpt>
      <trkpt lat="43.50959" lon="6.59499">
        <ele>59</ele>
        <time>2019-04-26T19:08:43.678Z</time>
      </trkpt>
      <trkpt lat="43.50959" lon="6.59505">
        <ele>59</ele>
        <time>2019-04-26T19:08:44.678Z</time>
      </trkpt>
      <trkpt lat="43.50959" lon="6.59512">
        <ele>59</ele>
        <time>2019-04-26T19:08:45.678Z</time>
      </trkpt>
      <trkpt lat="43.5096" lon="6.59525">
        <ele>60</ele>
        <time>2019-04-26T19:08:46.678Z</time>
      </trkpt>
      <trkpt lat="43.50963" lon="6.59537">
        <ele>60</ele>
        <time>2019-04-26T19:08:47.678Z</time>
      </trkpt>
      <trkpt lat="43.50965" lon="6.59549">
        <ele>60</ele>
        <time>2019-04-26T19:08:48.678Z</time>
      </trkpt>
      <trkpt lat="43.50967" lon="6.59555">
        <ele>60</ele>
        <time>2019-04-26T19:08:49.678Z</time>
      </trkpt>
      <trkpt lat="43.50968" lon="6.59561">
        <ele>61</ele>
        <time>2019-04-26T19:08:50.678Z</time>
      </trkpt>
      <trkpt lat="43.50972" lon="6.59572">
        <ele>61</ele>
        <time>2019-04-26T19:08:51.678Z</time>
      </trkpt>
      <trkpt lat="43.50975" lon="6.59585">
        <ele>62</ele>
        <time>2019-04-26T19:08:52.678Z</time>
      </trkpt>
      <trkpt lat="43.50977" lon="6.59598">
        <ele>62</ele>
        <time>2019-04-26T19:08:53.678Z</time>
      </trkpt>
      <trkpt lat="43.50978" lon="6.59611">
        <ele>63</ele>
        <time>2019-04-26T19:08:54.678Z</time>
      </trkpt>
      <trkpt lat="43.50976" lon="6.59624">
        <ele>63</ele>
        <time>2019-04-26T19:08:55.678Z</time>
      </trkpt>
      <trkpt lat="43.50971" lon="6.59635">
        <ele>63</ele>
        <time>2019-04-26T19:08:56.678Z</time>
      </trkpt>
      <trkpt lat="43.50968" lon="6.59641">
        <ele>63</ele>
        <time>2019-04-26T19:08:57.678Z</time>
      </trkpt>
      <trkpt lat="43.50965" lon="6.59646">
        <ele>63</ele>
        <time>2019-04-26T19:08:58.678Z</time>
      </trkpt>
      <trkpt lat="43.50959" lon="6.59656">
        <ele>62</ele>
        <time>2019-04-26T19:08:59.678Z</time>
      </trkpt>
      <trkpt lat="43.50956" lon="6.59661">
        <ele>62</ele>
        <time>2019-04-26T19:09:00.678Z</time>
      </trkpt>
      <trkpt lat="43.50954" lon="6.59666">
        <ele>62</ele>
        <time>2019-04-26T19:09:01.678Z</time>
      </trkpt>
      <trkpt lat="43.50952" lon="6.59679">
        <ele>62</ele>
        <time>2019-04-26T19:09:02.678Z</time>
      </trkpt>
      <trkpt lat="43.50954" lon="6.59691">
        <ele>63</ele>
        <time>2019-04-26T19:09:03.678Z</time>
      </trkpt>
      <trkpt lat="43.50958" lon="6.59701">
        <ele>64</ele>
        <time>2019-04-26T19:09:04.678Z</time>
      </trkpt>
      <trkpt lat="43.50961" lon="6.59706">
        <ele>64</ele>
        <time>2019-04-26T19:09:05.678Z</time>
      </trkpt>
      <trkpt lat="43.50963" lon="6.59712">
        <ele>65</ele>
        <time>2019-04-26T19:09:06.678Z</time>
      </trkpt>
      <trkpt lat="43.50966" lon="6.59717">
        <ele>65</ele>
        <time>2019-04-26T19:09:07.678Z</time>
      </trkpt>
      <trkpt lat="43.50969" lon="6.59722">
        <ele>66</ele>
        <time>2019-04-26T19:09:08.678Z</time>
      </trkpt>
      <trkpt lat="43.50975" lon="6.59732">
        <ele>66</ele>
        <time>2019-04-26T19:09:09.678Z</time>
      </trkpt>
      <trkpt lat="43.50978" lon="6.59743">
        <ele>67</ele>
        <time>2019-04-26T19:09:10.678Z</time>
      </trkpt>
      <trkpt lat="43.50978" lon="6.59749">
        <ele>67</ele>
        <time>2019-04-26T19:09:11.678Z</time>
      </trkpt>
      <trkpt lat="43.50977" lon="6.59755">
        <ele>67</ele>
        <time>2019-04-26T19:09:12.678Z</time>
      </trkpt>
      <trkpt lat="43.50973" lon="6.59766">
        <ele>67</ele>
        <time>2019-04-26T19:09:13.678Z</time>
      </trkpt>
      <trkpt lat="43.50971" lon="6.59771">
        <ele>67</ele>
        <time>2019-04-26T19:09:14.678Z</time>
      </trkpt>
      <trkpt lat="43.5097" lon="6.59777">
        <ele>67</ele>
        <time>2019-04-26T19:09:15.678Z</time>
      </trkpt>
      <trkpt lat="43.50969" lon="6.59788">
        <ele>67</ele>
        <time>2019-04-26T19:09:16.678Z</time>
      </trkpt>
      <trkpt lat="43.50969" lon="6.59793">
        <ele>67</ele>
        <time>2019-04-26T19:09:17.678Z</time>
      </trkpt>
      <trkpt lat="43.50969" lon="6.59798">
        <ele>67</ele>
        <time>2019-04-26T19:09:18.678Z</time>
      </trkpt>
      <trkpt lat="43.50969" lon="6.59808">
        <ele>67</ele>
        <time>2019-04-26T19:09:19.678Z</time>
      </trkpt>
      <trkpt lat="43.5097" lon="6.59818">
        <ele>67</ele>
        <time>2019-04-26T19:09:20.678Z</time>
      </trkpt>
      <trkpt lat="43.50971" lon="6.59827">
        <ele>68</ele>
        <time>2019-04-26T19:09:21.678Z</time>
      </trkpt>
      <trkpt lat="43.50971" lon="6.59836">
        <ele>68</ele>
        <time>2019-04-26T19:09:22.678Z</time>
      </trkpt>
      <trkpt lat="43.50971" lon="6.59846">
        <ele>68</ele>
        <time>2019-04-26T19:09:23.678Z</time>
      </trkpt>
      <trkpt lat="43.50971" lon="6.5985">
        <ele>68</ele>
        <time>2019-04-26T19:09:24.678Z</time>
      </trkpt>
      <trkpt lat="43.50972" lon="6.59854">
        <ele>68</ele>
        <time>2019-04-26T19:09:25.678Z</time>
      </trkpt>
      <trkpt lat="43.50975" lon="6.59863">
        <ele>68</ele>
        <time>2019-04-26T19:09:26.678Z</time>
      </trkpt>
      <trkpt lat="43.5098" lon="6.5987">
        <ele>68</ele>
        <time>2019-04-26T19:09:27.678Z</time>
      </trkpt>
      <trkpt lat="43.50982" lon="6.59875">
        <ele>68</ele>
        <time>2019-04-26T19:09:28.678Z</time>
      </trkpt>
      <trkpt lat="43.50984" lon="6.59879">
        <ele>69</ele>
        <time>2019-04-26T19:09:29.678Z</time>
      </trkpt>
      <trkpt lat="43.50987" lon="6.59886">
        <ele>69</ele>
        <time>2019-04-26T19:09:30.678Z</time>
      </trkpt>
      <trkpt lat="43.5099" lon="6.59888">
        <ele>69</ele>
        <time>2019-04-26T19:09:31.678Z</time>
      </trkpt>
      <trkpt lat="43.50992" lon="6.5989">
        <ele>69</ele>
        <time>2019-04-26T19:09:32.678Z</time>
      </trkpt>
      <trkpt lat="43.50999" lon="6.59892">
        <ele>69</ele>
        <time>2019-04-26T19:09:33.678Z</time>
      </trkpt>
      <trkpt lat="43.51004" lon="6.59894">
        <ele>69</ele>
        <time>2019-04-26T19:09:34.678Z</time>
      </trkpt>
      <trkpt lat="43.5101" lon="6.59895">
        <ele>70</ele>
        <time>2019-04-26T19:09:35.678Z</time>
      </trkpt>
      <trkpt lat="43.51015" lon="6.59893">
        <ele>70</ele>
        <time>2019-04-26T19:09:36.678Z</time>
      </trkpt>
      <trkpt lat="43.51018" lon="6.59893">
        <ele>71</ele>
        <time>2019-04-26T19:09:37.678Z</time>
      </trkpt>
      <trkpt lat="43.51021" lon="6.59893">
        <ele>71</ele>
        <time>2019-04-26T19:09:38.678Z</time>
      </trkpt>
      <trkpt lat="43.51024" lon="6.59892">
        <ele>71</ele>
        <time>2019-04-26T19:09:39.678Z</time>
      </trkpt>
      <trkpt lat="43.51027" lon="6.59891">
        <ele>71</ele>
        <time>2019-04-26T19:09:40.678Z</time>
      </trkpt>
      <trkpt lat="43.51033" lon="6.59889">
        <ele>72</ele>
        <time>2019-04-26T19:09:41.678Z</time>
      </trkpt>
      <trkpt lat="43.51036" lon="6.59889">
        <ele>72</ele>
        <time>2019-04-26T19:09:42.678Z</time>
      </trkpt>
      <trkpt lat="43.51039" lon="6.59888">
        <ele>72</ele>
        <time>2019-04-26T19:09:43.678Z</time>
      </trkpt>
      <trkpt lat="43.51044" lon="6.59889">
        <ele>73</ele>
        <time>2019-04-26T19:09:44.678Z</time>
      </trkpt>
      <trkpt lat="43.5105" lon="6.59891">
        <ele>73</ele>
        <time>2019-04-26T19:09:45.678Z</time>
      </trkpt>
      <trkpt lat="43.51052" lon="6.59892">
        <ele>74</ele>
        <time>2019-04-26T19:09:46.678Z</time>
      </trkpt>
      <trkpt lat="43.51055" lon="6.59894">
        <ele>74</ele>
        <time>2019-04-26T19:09:47.678Z</time>
      </trkpt>
      <trkpt lat="43.51056" lon="6.59897">
        <ele>74</ele>
        <time>2019-04-26T19:09:48.678Z</time>
      </trkpt>
      <trkpt lat="43.51058" lon="6.599">
        <ele>74</ele>
        <time>2019-04-26T19:09:49.678Z</time>
      </trkpt>
      <trkpt lat="43.51062" lon="6.59907">
        <ele>74</ele>
        <time>2019-04-26T19:09:50.678Z</time>
      </trkpt>
      <trkpt lat="43.51066" lon="6.59915">
        <ele>75</ele>
        <time>2019-04-26T19:09:51.678Z</time>
      </trkpt>
      <trkpt lat="43.51068" lon="6.59923">
        <ele>75</ele>
        <time>2019-04-26T19:09:52.678Z</time>
      </trkpt>
      <trkpt lat="43.51068" lon="6.59927">
        <ele>75</ele>
        <time>2019-04-26T19:09:53.678Z</time>
      </trkpt>
      <trkpt lat="43.51069" lon="6.59932">
        <ele>75</ele>
        <time>2019-04-26T19:09:54.678Z</time>
      </trkpt>
      <trkpt lat="43.51069" lon="6.59942">
        <ele>75</ele>
        <time>2019-04-26T19:09:55.678Z</time>
      </trkpt>
      <trkpt lat="43.51069" lon="6.59953">
        <ele>75</ele>
        <time>2019-04-26T19:09:56.678Z</time>
      </trkpt>
      <trkpt lat="43.51068" lon="6.59964">
        <ele>75</ele>
        <time>2019-04-26T19:09:57.678Z</time>
      </trkpt>
      <trkpt lat="43.51067" lon="6.59969">
        <ele>75</ele>
        <time>2019-04-26T19:09:58.678Z</time>
      </trkpt>
      <trkpt lat="43.51066" lon="6.59975">
        <ele>74</ele>
        <time>2019-04-26T19:09:59.678Z</time>
      </trkpt>
      <trkpt lat="43.51064" lon="6.59986">
        <ele>74</ele>
        <time>2019-04-26T19:10:00.678Z</time>
      </trkpt>
      <trkpt lat="43.51061" lon="6.59997">
        <ele>74</ele>
        <time>2019-04-26T19:10:01.678Z</time>
      </trkpt>
      <trkpt lat="43.51058" lon="6.60008">
        <ele>74</ele>
        <time>2019-04-26T19:10:02.678Z</time>
      </trkpt>
      <trkpt lat="43.51054" lon="6.60019">
        <ele>74</ele>
        <time>2019-04-26T19:10:03.678Z</time>
      </trkpt>
      <trkpt lat="43.51048" lon="6.60028">
        <ele>74</ele>
        <time>2019-04-26T19:10:04.678Z</time>
      </trkpt>
      <trkpt lat="43.51046" lon="6.60032">
        <ele>74</ele>
        <time>2019-04-26T19:10:05.678Z</time>
      </trkpt>
      <trkpt lat="43.51043" lon="6.60037">
        <ele>74</ele>
        <time>2019-04-26T19:10:06.678Z</time>
      </trkpt>
      <trkpt lat="43.51036" lon="6.60044">
        <ele>74</ele>
        <time>2019-04-26T19:10:07.678Z</time>
      </trkpt>
      <trkpt lat="43.5103" lon="6.60051">
        <ele>74</ele>
        <time>2019-04-26T19:10:08.678Z</time>
      </trkpt>
      <trkpt lat="43.51027" lon="6.60054">
        <ele>74</ele>
        <time>2019-04-26T19:10:09.678Z</time>
      </trkpt>
      <trkpt lat="43.51025" lon="6.60057">
        <ele>74</ele>
        <time>2019-04-26T19:10:10.678Z</time>
      </trkpt>
      <trkpt lat="43.51019" lon="6.60062">
        <ele>74</ele>
        <time>2019-04-26T19:10:11.678Z</time>
      </trkpt>
      <trkpt lat="43.51014" lon="6.60068">
        <ele>74</ele>
        <time>2019-04-26T19:10:12.678Z</time>
      </trkpt>
      <trkpt lat="43.51012" lon="6.6007">
        <ele>74</ele>
        <time>2019-04-26T19:10:13.678Z</time>
      </trkpt>
      <trkpt lat="43.51009" lon="6.60073">
        <ele>74</ele>
        <time>2019-04-26T19:10:14.678Z</time>
      </trkpt>
      <trkpt lat="43.51007" lon="6.60076">
        <ele>74</ele>
        <time>2019-04-26T19:10:15.678Z</time>
      </trkpt>
      <trkpt lat="43.51005" lon="6.60078">
        <ele>74</ele>
        <time>2019-04-26T19:10:16.678Z</time>
      </trkpt>
      <trkpt lat="43.51" lon="6.60084">
        <ele>74</ele>
        <time>2019-04-26T19:10:17.678Z</time>
      </trkpt>
      <trkpt lat="43.50994" lon="6.60089">
        <ele>74</ele>
        <time>2019-04-26T19:10:18.678Z</time>
      </trkpt>
      <trkpt lat="43.50991" lon="6.60091">
        <ele>74</ele>
        <time>2019-04-26T19:10:19.678Z</time>
      </trkpt>
      <trkpt lat="43.50989" lon="6.60094">
        <ele>74</ele>
        <time>2019-04-26T19:10:20.678Z</time>
      </trkpt>
      <trkpt lat="43.50986" lon="6.60097">
        <ele>75</ele>
        <time>2019-04-26T19:10:21.678Z</time>
      </trkpt>
      <trkpt lat="43.50984" lon="6.601">
        <ele>75</ele>
        <time>2019-04-26T19:10:22.678Z</time>
      </trkpt>
      <trkpt lat="43.5098" lon="6.60104">
        <ele>75</ele>
        <time>2019-04-26T19:10:23.678Z</time>
      </trkpt>
      <trkpt lat="43.50978" lon="6.60107">
        <ele>75</ele>
        <time>2019-04-26T19:10:24.678Z</time>
      </trkpt>
      <trkpt lat="43.50976" lon="6.6011">
        <ele>75</ele>
        <time>2019-04-26T19:10:25.678Z</time>
      </trkpt>
      <trkpt lat="43.50974" lon="6.60112">
        <ele>75</ele>
        <time>2019-04-26T19:10:26.678Z</time>
      </trkpt>
      <trkpt lat="43.50972" lon="6.60111">
        <ele>75</ele>
        <time>2019-04-26T19:10:27.678Z</time>
      </trkpt>
      <trkpt lat="43.50969" lon="6.60108">
        <ele>75</ele>
        <time>2019-04-26T19:10:28.678Z</time>
      </trkpt>
      <trkpt lat="43.50968" lon="6.60104">
        <ele>75</ele>
        <time>2019-04-26T19:10:29.678Z</time>
      </trkpt>
      <trkpt lat="43.50966" lon="6.60099">
        <ele>75</ele>
        <time>2019-04-26T19:10:30.678Z</time>
      </trkpt>
      <trkpt lat="43.50965" lon="6.60093">
        <ele>74</ele>
        <time>2019-04-26T19:10:31.678Z</time>
      </trkpt>
      <trkpt lat="43.50963" lon="6.60086">
        <ele>74</ele>
        <time>2019-04-26T19:10:32.678Z</time>
      </trkpt>
      <trkpt lat="43.50961" lon="6.60079">
        <ele>74</ele>
        <time>2019-04-26T19:10:33.678Z</time>
      </trkpt>
      <trkpt lat="43.50957" lon="6.60063">
        <ele>73</ele>
        <time>2019-04-26T19:10:34.678Z</time>
      </trkpt>
      <trkpt lat="43.50954" lon="6.60055">
        <ele>73</ele>
        <time>2019-04-26T19:10:35.678Z</time>
      </trkpt>
      <trkpt lat="43.50951" lon="6.60048">
        <ele>73</ele>
        <time>2019-04-26T19:10:36.678Z</time>
      </trkpt>
      <trkpt lat="43.50941" lon="6.60035">
        <ele>72</ele>
        <time>2019-04-26T19:10:37.678Z</time>
      </trkpt>
      <trkpt lat="43.50935" lon="6.60031">
        <ele>72</ele>
        <time>2019-04-26T19:10:38.678Z</time>
      </trkpt>
      <trkpt lat="43.50929" lon="6.60027">
        <ele>72</ele>
        <time>2019-04-26T19:10:39.678Z</time>
      </trkpt>
      <trkpt lat="43.50923" lon="6.60025">
        <ele>72</ele>
        <time>2019-04-26T19:10:40.678Z</time>
      </trkpt>
      <trkpt lat="43.50917" lon="6.60023">
        <ele>72</ele>
        <time>2019-04-26T19:10:41.678Z</time>
      </trkpt>
      <trkpt lat="43.50912" lon="6.60022">
        <ele>72</ele>
        <time>2019-04-26T19:10:42.678Z</time>
      </trkpt>
      <trkpt lat="43.50906" lon="6.60022">
        <ele>72</ele>
        <time>2019-04-26T19:10:43.678Z</time>
      </trkpt>
      <trkpt lat="43.50901" lon="6.60021">
        <ele>72</ele>
        <time>2019-04-26T19:10:44.678Z</time>
      </trkpt>
      <trkpt lat="43.50896" lon="6.6002">
        <ele>73</ele>
        <time>2019-04-26T19:10:45.678Z</time>
      </trkpt>
      <trkpt lat="43.50888" lon="6.60018">
        <ele>73</ele>
        <time>2019-04-26T19:10:46.678Z</time>
      </trkpt>
      <trkpt lat="43.50885" lon="6.60017">
        <ele>73</ele>
        <time>2019-04-26T19:10:47.678Z</time>
      </trkpt>
      <trkpt lat="43.50881" lon="6.60016">
        <ele>73</ele>
        <time>2019-04-26T19:10:48.678Z</time>
      </trkpt>
      <trkpt lat="43.50874" lon="6.60012">
        <ele>73</ele>
        <time>2019-04-26T19:10:49.678Z</time>
      </trkpt>
      <trkpt lat="43.50866" lon="6.60008">
        <ele>74</ele>
        <time>2019-04-26T19:10:50.678Z</time>
      </trkpt>
      <trkpt lat="43.50863" lon="6.60005">
        <ele>74</ele>
        <time>2019-04-26T19:10:51.678Z</time>
      </trkpt>
      <trkpt lat="43.50859" lon="6.60003">
        <ele>74</ele>
        <time>2019-04-26T19:10:52.678Z</time>
      </trkpt>
      <trkpt lat="43.50852" lon="6.59998">
        <ele>74</ele>
        <time>2019-04-26T19:10:53.678Z</time>
      </trkpt>
      <trkpt lat="43.50846" lon="6.59992">
        <ele>74</ele>
        <time>2019-04-26T19:10:54.678Z</time>
      </trkpt>
      <trkpt lat="43.50844" lon="6.59989">
        <ele>74</ele>
        <time>2019-04-26T19:10:55.678Z</time>
      </trkpt>
      <trkpt lat="43.50841" lon="6.59986">
        <ele>74</ele>
        <time>2019-04-26T19:10:56.678Z</time>
      </trkpt>
      <trkpt lat="43.50838" lon="6.59985">
        <ele>74</ele>
        <time>2019-04-26T19:10:57.678Z</time>
      </trkpt>
      <trkpt lat="43.50836" lon="6.59985">
        <ele>74</ele>
        <time>2019-04-26T19:10:58.678Z</time>
      </trkpt>
      <trkpt lat="43.50833" lon="6.59986">
        <ele>74</ele>
        <time>2019-04-26T19:10:59.678Z</time>
      </trkpt>
      <trkpt lat="43.5083" lon="6.59986">
        <ele>74</ele>
        <time>2019-04-26T19:11:00.678Z</time>
      </trkpt>
      <trkpt lat="43.50822" lon="6.59987">
        <ele>74</ele>
        <time>2019-04-26T19:11:01.678Z</time>
      </trkpt>
      <trkpt lat="43.50817" lon="6.59987">
        <ele>74</ele>
        <time>2019-04-26T19:11:02.678Z</time>
      </trkpt>
      <trkpt lat="43.50812" lon="6.59987">
        <ele>74</ele>
        <time>2019-04-26T19:11:03.678Z</time>
      </trkpt>
      <trkpt lat="43.50802" lon="6.59986">
        <ele>74</ele>
        <time>2019-04-26T19:11:04.678Z</time>
      </trkpt>
      <trkpt lat="43.5079" lon="6.59984">
        <ele>73</ele>
        <time>2019-04-26T19:11:05.678Z</time>
      </trkpt>
      <trkpt lat="43.50785" lon="6.59982">
        <ele>73</ele>
        <time>2019-04-26T19:11:06.678Z</time>
      </trkpt>
      <trkpt lat="43.50779" lon="6.59981">
        <ele>73</ele>
        <time>2019-04-26T19:11:07.678Z</time>
      </trkpt>
      <trkpt lat="43.50767" lon="6.5998">
        <ele>72</ele>
        <time>2019-04-26T19:11:08.678Z</time>
      </trkpt>
      <trkpt lat="43.5076" lon="6.59979">
        <ele>72</ele>
        <time>2019-04-26T19:11:09.678Z</time>
      </trkpt>
      <trkpt lat="43.50754" lon="6.59977">
        <ele>72</ele>
        <time>2019-04-26T19:11:10.678Z</time>
      </trkpt>
      <trkpt lat="43.50742" lon="6.59975">
        <ele>72</ele>
        <time>2019-04-26T19:11:11.678Z</time>
      </trkpt>
      <trkpt lat="43.50736" lon="6.59975">
        <ele>72</ele>
        <time>2019-04-26T19:11:12.678Z</time>
      </trkpt>
      <trkpt lat="43.5073" lon="6.59974">
        <ele>72</ele>
        <time>2019-04-26T19:11:13.678Z</time>
      </trkpt>
      <trkpt lat="43.50719" lon="6.59973">
        <ele>72</ele>
        <time>2019-04-26T19:11:14.678Z</time>
      </trkpt>
      <trkpt lat="43.50713" lon="6.59972">
        <ele>72</ele>
        <time>2019-04-26T19:11:15.678Z</time>
      </trkpt>
      <trkpt lat="43.50708" lon="6.59971">
        <ele>72</ele>
        <time>2019-04-26T19:11:16.678Z</time>
      </trkpt>
      <trkpt lat="43.50703" lon="6.5997">
        <ele>72</ele>
        <time>2019-04-26T19:11:17.678Z</time>
      </trkpt>
      <trkpt lat="43.50699" lon="6.5997">
        <ele>73</ele>
        <time>2019-04-26T19:11:18.678Z</time>
      </trkpt>
      <trkpt lat="43.50695" lon="6.59971">
        <ele>73</ele>
        <time>2019-04-26T19:11:19.678Z</time>
      </trkpt>
      <trkpt lat="43.50693" lon="6.59974">
        <ele>73</ele>
        <time>2019-04-26T19:11:20.678Z</time>
      </trkpt>
      <trkpt lat="43.50691" lon="6.59977">
        <ele>73</ele>
        <time>2019-04-26T19:11:21.678Z</time>
      </trkpt>
      <trkpt lat="43.50687" lon="6.59982">
        <ele>73</ele>
        <time>2019-04-26T19:11:22.678Z</time>
      </trkpt>
      <trkpt lat="43.50682" lon="6.59987">
        <ele>74</ele>
        <time>2019-04-26T19:11:23.678Z</time>
      </trkpt>
      <trkpt lat="43.50677" lon="6.59992">
        <ele>74</ele>
        <time>2019-04-26T19:11:24.678Z</time>
      </trkpt>
      <trkpt lat="43.50676" lon="6.59995">
        <ele>74</ele>
        <time>2019-04-26T19:11:25.678Z</time>
      </trkpt>
      <trkpt lat="43.50674" lon="6.59998">
        <ele>75</ele>
        <time>2019-04-26T19:11:26.678Z</time>
      </trkpt>
      <trkpt lat="43.5067" lon="6.60005">
        <ele>75</ele>
        <time>2019-04-26T19:11:27.678Z</time>
      </trkpt>
      <trkpt lat="43.50666" lon="6.60011">
        <ele>75</ele>
        <time>2019-04-26T19:11:28.678Z</time>
      </trkpt>
      <trkpt lat="43.50662" lon="6.60017">
        <ele>75</ele>
        <time>2019-04-26T19:11:29.678Z</time>
      </trkpt>
      <trkpt lat="43.5066" lon="6.6002">
        <ele>76</ele>
        <time>2019-04-26T19:11:30.678Z</time>
      </trkpt>
      <trkpt lat="43.50659" lon="6.60023">
        <ele>76</ele>
        <time>2019-04-26T19:11:31.678Z</time>
      </trkpt>
      <trkpt lat="43.50655" lon="6.6003">
        <ele>76</ele>
        <time>2019-04-26T19:11:32.678Z</time>
      </trkpt>
      <trkpt lat="43.50652" lon="6.60037">
        <ele>76</ele>
        <time>2019-04-26T19:11:33.678Z</time>
      </trkpt>
      <trkpt lat="43.5065" lon="6.6004">
        <ele>76</ele>
        <time>2019-04-26T19:11:34.678Z</time>
      </trkpt>
      <trkpt lat="43.50648" lon="6.60042">
        <ele>76</ele>
        <time>2019-04-26T19:11:35.678Z</time>
      </trkpt>
      <trkpt lat="43.50644" lon="6.60048">
        <ele>76</ele>
        <time>2019-04-26T19:11:36.678Z</time>
      </trkpt>
      <trkpt lat="43.50639" lon="6.60054">
        <ele>76</ele>
        <time>2019-04-26T19:11:37.678Z</time>
      </trkpt>
      <trkpt lat="43.50637" lon="6.60056">
        <ele>77</ele>
        <time>2019-04-26T19:11:38.678Z</time>
      </trkpt>
      <trkpt lat="43.50635" lon="6.60059">
        <ele>77</ele>
        <time>2019-04-26T19:11:39.678Z</time>
      </trkpt>
      <trkpt lat="43.50632" lon="6.60066">
        <ele>77</ele>
        <time>2019-04-26T19:11:40.678Z</time>
      </trkpt>
      <trkpt lat="43.50628" lon="6.60072">
        <ele>77</ele>
        <time>2019-04-26T19:11:41.678Z</time>
      </trkpt>
      <trkpt lat="43.50627" lon="6.60076">
        <ele>77</ele>
        <time>2019-04-26T19:11:42.678Z</time>
      </trkpt>
      <trkpt lat="43.50625" lon="6.60079">
        <ele>77</ele>
        <time>2019-04-26T19:11:43.678Z</time>
      </trkpt>
      <trkpt lat="43.50622" lon="6.60086">
        <ele>77</ele>
        <time>2019-04-26T19:11:44.678Z</time>
      </trkpt>
      <trkpt lat="43.50618" lon="6.60092">
        <ele>78</ele>
        <time>2019-04-26T19:11:45.678Z</time>
      </trkpt>
      <trkpt lat="43.50616" lon="6.60096">
        <ele>78</ele>
        <time>2019-04-26T19:11:46.678Z</time>
      </trkpt>
      <trkpt lat="43.50614" lon="6.60098">
        <ele>78</ele>
        <time>2019-04-26T19:11:47.678Z</time>
      </trkpt>
      <trkpt lat="43.50612" lon="6.60101">
        <ele>78</ele>
        <time>2019-04-26T19:11:48.678Z</time>
      </trkpt>
      <trkpt lat="43.5061" lon="6.60104">
        <ele>78</ele>
        <time>2019-04-26T19:11:49.678Z</time>
      </trkpt>
      <trkpt lat="43.50605" lon="6.60109">
        <ele>78</ele>
        <time>2019-04-26T19:11:50.678Z</time>
      </trkpt>
      <trkpt lat="43.506" lon="6.60115">
        <ele>78</ele>
        <time>2019-04-26T19:11:51.678Z</time>
      </trkpt>
      <trkpt lat="43.50596" lon="6.6012">
        <ele>78</ele>
        <time>2019-04-26T19:11:52.678Z</time>
      </trkpt>
      <trkpt lat="43.50593" lon="6.60122">
        <ele>78</ele>
        <time>2019-04-26T19:11:53.678Z</time>
      </trkpt>
      <trkpt lat="43.50591" lon="6.60125">
        <ele>78</ele>
        <time>2019-04-26T19:11:54.678Z</time>
      </trkpt>
      <trkpt lat="43.50586" lon="6.60133">
        <ele>79</ele>
        <time>2019-04-26T19:11:55.678Z</time>
      </trkpt>
      <trkpt lat="43.5058" lon="6.60142">
        <ele>79</ele>
        <time>2019-04-26T19:11:56.678Z</time>
      </trkpt>
      <trkpt lat="43.50575" lon="6.60153">
        <ele>79</ele>
        <time>2019-04-26T19:11:57.678Z</time>
      </trkpt>
      <trkpt lat="43.5057" lon="6.60163">
        <ele>80</ele>
        <time>2019-04-26T19:11:58.678Z</time>
      </trkpt>
      <trkpt lat="43.50568" lon="6.60169">
        <ele>80</ele>
        <time>2019-04-26T19:11:59.678Z</time>
      </trkpt>
      <trkpt lat="43.50566" lon="6.60175">
        <ele>79</ele>
        <time>2019-04-26T19:12:00.678Z</time>
      </trkpt>
      <trkpt lat="43.50564" lon="6.60181">
        <ele>79</ele>
        <time>2019-04-26T19:12:01.678Z</time>
      </trkpt>
      <trkpt lat="43.50561" lon="6.60186">
        <ele>79</ele>
        <time>2019-04-26T19:12:02.678Z</time>
      </trkpt>
      <trkpt lat="43.50554" lon="6.60196">
        <ele>79</ele>
        <time>2019-04-26T19:12:03.678Z</time>
      </trkpt>
      <trkpt lat="43.50548" lon="6.60207">
        <ele>79</ele>
        <time>2019-04-26T19:12:04.678Z</time>
      </trkpt>
      <trkpt lat="43.50547" lon="6.60214">
        <ele>78</ele>
        <time>2019-04-26T19:12:05.678Z</time>
      </trkpt>
      <trkpt lat="43.50545" lon="6.60221">
        <ele>78</ele>
        <time>2019-04-26T19:12:06.678Z</time>
      </trkpt>
      <trkpt lat="43.50544" lon="6.60229">
        <ele>78</ele>
        <time>2019-04-26T19:12:07.678Z</time>
      </trkpt>
      <trkpt lat="43.50541" lon="6.60236">
        <ele>78</ele>
        <time>2019-04-26T19:12:08.678Z</time>
      </trkpt>
      <trkpt lat="43.50534" lon="6.60249">
        <ele>78</ele>
        <time>2019-04-26T19:12:09.678Z</time>
      </trkpt>
      <trkpt lat="43.50528" lon="6.60262">
        <ele>78</ele>
        <time>2019-04-26T19:12:10.678Z</time>
      </trkpt>
      <trkpt lat="43.50522" lon="6.60275">
        <ele>77</ele>
        <time>2019-04-26T19:12:11.678Z</time>
      </trkpt>
      <trkpt lat="43.50519" lon="6.60281">
        <ele>77</ele>
        <time>2019-04-26T19:12:12.678Z</time>
      </trkpt>
      <trkpt lat="43.50515" lon="6.60287">
        <ele>77</ele>
        <time>2019-04-26T19:12:13.678Z</time>
      </trkpt>
      <trkpt lat="43.50509" lon="6.60297">
        <ele>76</ele>
        <time>2019-04-26T19:12:14.678Z</time>
      </trkpt>
      <trkpt lat="43.50504" lon="6.60308">
        <ele>76</ele>
        <time>2019-04-26T19:12:15.678Z</time>
      </trkpt>
      <trkpt lat="43.50501" lon="6.60314">
        <ele>76</ele>
        <time>2019-04-26T19:12:16.678Z</time>
      </trkpt>
      <trkpt lat="43.50497" lon="6.60319">
        <ele>76</ele>
        <time>2019-04-26T19:12:17.678Z</time>
      </trkpt>
      <trkpt lat="43.50491" lon="6.60329">
        <ele>75</ele>
        <time>2019-04-26T19:12:18.678Z</time>
      </trkpt>
      <trkpt lat="43.50486" lon="6.6034">
        <ele>75</ele>
        <time>2019-04-26T19:12:19.678Z</time>
      </trkpt>
      <trkpt lat="43.50484" lon="6.60346">
        <ele>75</ele>
        <time>2019-04-26T19:12:20.678Z</time>
      </trkpt>
      <trkpt lat="43.50482" lon="6.60352">
        <ele>75</ele>
        <time>2019-04-26T19:12:21.678Z</time>
      </trkpt>
      <trkpt lat="43.5048" lon="6.60365">
        <ele>75</ele>
        <time>2019-04-26T19:12:22.678Z</time>
      </trkpt>
      <trkpt lat="43.50479" lon="6.60371">
        <ele>75</ele>
        <time>2019-04-26T19:12:23.678Z</time>
      </trkpt>
      <trkpt lat="43.50477" lon="6.60378">
        <ele>75</ele>
        <time>2019-04-26T19:12:24.678Z</time>
      </trkpt>
      <trkpt lat="43.50473" lon="6.60392">
        <ele>75</ele>
        <time>2019-04-26T19:12:25.678Z</time>
      </trkpt>
      <trkpt lat="43.50469" lon="6.60397">
        <ele>75</ele>
        <time>2019-04-26T19:12:26.678Z</time>
      </trkpt>
      <trkpt lat="43.50464" lon="6.60402">
        <ele>75</ele>
        <time>2019-04-26T19:12:27.678Z</time>
      </trkpt>
      <trkpt lat="43.50455" lon="6.60412">
        <ele>75</ele>
        <time>2019-04-26T19:12:28.678Z</time>
      </trkpt>
      <trkpt lat="43.50446" lon="6.60426">
        <ele>75</ele>
        <time>2019-04-26T19:12:29.678Z</time>
      </trkpt>
      <trkpt lat="43.50442" lon="6.60432">
        <ele>75</ele>
        <time>2019-04-26T19:12:30.678Z</time>
      </trkpt>
      <trkpt lat="43.50437" lon="6.60437">
        <ele>75</ele>
        <time>2019-04-26T19:12:31.678Z</time>
      </trkpt>
      <trkpt lat="43.50432" lon="6.60443">
        <ele>75</ele>
        <time>2019-04-26T19:12:32.678Z</time>
      </trkpt>
      <trkpt lat="43.50427" lon="6.60447">
        <ele>75</ele>
        <time>2019-04-26T19:12:33.678Z</time>
      </trkpt>
      <trkpt lat="43.50417" lon="6.60458">
        <ele>75</ele>
        <time>2019-04-26T19:12:34.678Z</time>
      </trkpt>
      <trkpt lat="43.5041" lon="6.60472">
        <ele>74</ele>
        <time>2019-04-26T19:12:35.678Z</time>
      </trkpt>
      <trkpt lat="43.50404" lon="6.60487">
        <ele>74</ele>
        <time>2019-04-26T19:12:36.678Z</time>
      </trkpt>
      <trkpt lat="43.50401" lon="6.60494">
        <ele>74</ele>
        <time>2019-04-26T19:12:37.678Z</time>
      </trkpt>
      <trkpt lat="43.50398" lon="6.60499">
        <ele>74</ele>
        <time>2019-04-26T19:12:38.678Z</time>
      </trkpt>
      <trkpt lat="43.50394" lon="6.60504">
        <ele>73</ele>
        <time>2019-04-26T19:12:39.678Z</time>
      </trkpt>
      <trkpt lat="43.5039" lon="6.6051">
        <ele>73</ele>
        <time>2019-04-26T19:12:40.678Z</time>
      </trkpt>
      <trkpt lat="43.50384" lon="6.60524">
        <ele>73</ele>
        <time>2019-04-26T19:12:41.678Z</time>
      </trkpt>
      <trkpt lat="43.50382" lon="6.60532">
        <ele>73</ele>
        <time>2019-04-26T19:12:42.678Z</time>
      </trkpt>
      <trkpt lat="43.50381" lon="6.6054">
        <ele>73</ele>
        <time>2019-04-26T19:12:43.678Z</time>
      </trkpt>
      <trkpt lat="43.50379" lon="6.60549">
        <ele>73</ele>
        <time>2019-04-26T19:12:44.678Z</time>
      </trkpt>
      <trkpt lat="43.50377" lon="6.60556">
        <ele>72</ele>
        <time>2019-04-26T19:12:45.678Z</time>
      </trkpt>
      <trkpt lat="43.50371" lon="6.6057">
        <ele>72</ele>
        <time>2019-04-26T19:12:46.678Z</time>
      </trkpt>
      <trkpt lat="43.50369" lon="6.60578">
        <ele>72</ele>
        <time>2019-04-26T19:12:47.678Z</time>
      </trkpt>
      <trkpt lat="43.50368" lon="6.60587">
        <ele>72</ele>
        <time>2019-04-26T19:12:48.678Z</time>
      </trkpt>
      <trkpt lat="43.50368" lon="6.60596">
        <ele>71</ele>
        <time>2019-04-26T19:12:49.678Z</time>
      </trkpt>
      <trkpt lat="43.5037" lon="6.60604">
        <ele>71</ele>
        <time>2019-04-26T19:12:50.678Z</time>
      </trkpt>
      <trkpt lat="43.50375" lon="6.60619">
        <ele>71</ele>
        <time>2019-04-26T19:12:51.678Z</time>
      </trkpt>
      <trkpt lat="43.50375" lon="6.60636">
        <ele>70</ele>
        <time>2019-04-26T19:12:52.678Z</time>
      </trkpt>
      <trkpt lat="43.50373" lon="6.60644">
        <ele>70</ele>
        <time>2019-04-26T19:12:53.678Z</time>
      </trkpt>
      <trkpt lat="43.50371" lon="6.60653">
        <ele>70</ele>
        <time>2019-04-26T19:12:54.678Z</time>
      </trkpt>
      <trkpt lat="43.50368" lon="6.60672">
        <ele>69</ele>
        <time>2019-04-26T19:12:55.678Z</time>
      </trkpt>
      <trkpt lat="43.50367" lon="6.60682">
        <ele>69</ele>
        <time>2019-04-26T19:12:56.678Z</time>
      </trkpt>
      <trkpt lat="43.50365" lon="6.60693">
        <ele>69</ele>
        <time>2019-04-26T19:12:57.678Z</time>
      </trkpt>
      <trkpt lat="43.50365" lon="6.60712">
        <ele>68</ele>
        <time>2019-04-26T19:12:58.678Z</time>
      </trkpt>
      <trkpt lat="43.50367" lon="6.60722">
        <ele>68</ele>
        <time>2019-04-26T19:12:59.678Z</time>
      </trkpt>
      <trkpt lat="43.50367" lon="6.60732">
        <ele>67</ele>
        <time>2019-04-26T19:13:00.678Z</time>
      </trkpt>
      <trkpt lat="43.50367" lon="6.60753">
        <ele>67</ele>
        <time>2019-04-26T19:13:01.678Z</time>
      </trkpt>
      <trkpt lat="43.50366" lon="6.60772">
        <ele>66</ele>
        <time>2019-04-26T19:13:02.678Z</time>
      </trkpt>
      <trkpt lat="43.50364" lon="6.60792">
        <ele>66</ele>
        <time>2019-04-26T19:13:03.678Z</time>
      </trkpt>
      <trkpt lat="43.50359" lon="6.6081">
        <ele>65</ele>
        <time>2019-04-26T19:13:04.678Z</time>
      </trkpt>
      <trkpt lat="43.50356" lon="6.60828">
        <ele>65</ele>
        <time>2019-04-26T19:13:05.678Z</time>
      </trkpt>
      <trkpt lat="43.50356" lon="6.60848">
        <ele>65</ele>
        <time>2019-04-26T19:13:06.678Z</time>
      </trkpt>
      <trkpt lat="43.50357" lon="6.60867">
        <ele>65</ele>
        <time>2019-04-26T19:13:07.678Z</time>
      </trkpt>
      <trkpt lat="43.50357" lon="6.60886">
        <ele>65</ele>
        <time>2019-04-26T19:13:08.678Z</time>
      </trkpt>
      <trkpt lat="43.50357" lon="6.60894">
        <ele>65</ele>
        <time>2019-04-26T19:13:09.678Z</time>
      </trkpt>
      <trkpt lat="43.50356" lon="6.60902">
        <ele>65</ele>
        <time>2019-04-26T19:13:10.678Z</time>
      </trkpt>
      <trkpt lat="43.50355" lon="6.60908">
        <ele>65</ele>
        <time>2019-04-26T19:13:11.678Z</time>
      </trkpt>
      <trkpt lat="43.50354" lon="6.60912">
        <ele>65</ele>
        <time>2019-04-26T19:13:12.678Z</time>
      </trkpt>
      <trkpt lat="43.5035" lon="6.60916">
        <ele>65</ele>
        <time>2019-04-26T19:13:13.678Z</time>
      </trkpt>
      <trkpt lat="43.50348" lon="6.60916">
        <ele>65</ele>
        <time>2019-04-26T19:13:14.678Z</time>
      </trkpt>
      <trkpt lat="43.50346" lon="6.60913">
        <ele>65</ele>
        <time>2019-04-26T19:13:15.678Z</time>
      </trkpt>
      <trkpt lat="43.50344" lon="6.60911">
        <ele>65</ele>
        <time>2019-04-26T19:13:16.678Z</time>
      </trkpt>
      <trkpt lat="43.50342" lon="6.60909">
        <ele>65</ele>
        <time>2019-04-26T19:13:17.678Z</time>
      </trkpt>
      <trkpt lat="43.50338" lon="6.60905">
        <ele>65</ele>
        <time>2019-04-26T19:13:18.678Z</time>
      </trkpt>
      <trkpt lat="43.50334" lon="6.60902">
        <ele>65</ele>
        <time>2019-04-26T19:13:19.678Z</time>
      </trkpt>
      <trkpt lat="43.50333" lon="6.60901">
        <ele>65</ele>
        <time>2019-04-26T19:13:20.678Z</time>
      </trkpt>
      <trkpt lat="43.50331" lon="6.609">
        <ele>65</ele>
        <time>2019-04-26T19:13:21.678Z</time>
      </trkpt>
      <trkpt lat="43.50327" lon="6.60897">
        <ele>65</ele>
        <time>2019-04-26T19:13:22.678Z</time>
      </trkpt>
      <trkpt lat="43.50321" lon="6.60893">
        <ele>65</ele>
        <time>2019-04-26T19:13:23.678Z</time>
      </trkpt>
      <trkpt lat="43.50314" lon="6.6089">
        <ele>64</ele>
        <time>2019-04-26T19:13:24.678Z</time>
      </trkpt>
      <trkpt lat="43.50307" lon="6.60886">
        <ele>64</ele>
        <time>2019-04-26T19:13:25.678Z</time>
      </trkpt>
      <trkpt lat="43.50299" lon="6.60881">
        <ele>64</ele>
        <time>2019-04-26T19:13:26.678Z</time>
      </trkpt>
      <trkpt lat="43.50291" lon="6.60876">
        <ele>63</ele>
        <time>2019-04-26T19:13:27.678Z</time>
      </trkpt>
      <trkpt lat="43.50282" lon="6.6087">
        <ele>63</ele>
        <time>2019-04-26T19:13:28.678Z</time>
      </trkpt>
      <trkpt lat="43.50275" lon="6.60863">
        <ele>63</ele>
        <time>2019-04-26T19:13:29.678Z</time>
      </trkpt>
      <trkpt lat="43.50271" lon="6.6086">
        <ele>63</ele>
        <time>2019-04-26T19:13:30.678Z</time>
      </trkpt>
      <trkpt lat="43.5027" lon="6.6086">
        <ele>63</ele>
        <time>2019-04-26T19:13:31.678Z</time>
      </trkpt>
      <trkpt lat="43.50269" lon="6.60862">
        <ele>63</ele>
        <time>2019-04-26T19:13:32.678Z</time>
      </trkpt>
      <trkpt lat="43.50271" lon="6.60863">
        <ele>63</ele>
        <time>2019-04-26T19:13:33.678Z</time>
      </trkpt>
      <trkpt lat="43.50273" lon="6.60865">
        <ele>63</ele>
        <time>2019-04-26T19:13:34.678Z</time>
      </trkpt>
      <trkpt lat="43.50277" lon="6.60868">
        <ele>63</ele>
        <time>2019-04-26T19:13:35.678Z</time>
      </trkpt>
      <trkpt lat="43.50283" lon="6.60873">
        <ele>63</ele>
        <time>2019-04-26T19:13:36.678Z</time>
      </trkpt>
      <trkpt lat="43.50285" lon="6.60874">
        <ele>63</ele>
        <time>2019-04-26T19:13:37.678Z</time>
      </trkpt>
      <trkpt lat="43.50288" lon="6.60876">
        <ele>63</ele>
        <time>2019-04-26T19:13:38.678Z</time>
      </trkpt>
      <trkpt lat="43.50291" lon="6.60878">
        <ele>63</ele>
        <time>2019-04-26T19:13:39.678Z</time>
      </trkpt>
      <trkpt lat="43.50294" lon="6.6088">
        <ele>64</ele>
        <time>2019-04-26T19:13:40.678Z</time>
      </trkpt>
      <trkpt lat="43.50297" lon="6.60881">
        <ele>64</ele>
        <time>2019-04-26T19:13:41.678Z</time>
      </trkpt>
      <trkpt lat="43.503" lon="6.60883">
        <ele>64</ele>
        <time>2019-04-26T19:13:42.678Z</time>
      </trkpt>
      <trkpt lat="43.50306" lon="6.60888">
        <ele>64</ele>
        <time>2019-04-26T19:13:43.678Z</time>
      </trkpt>
      <trkpt lat="43.50313" lon="6.60891">
        <ele>64</ele>
        <time>2019-04-26T19:13:44.678Z</time>
      </trkpt>
      <trkpt lat="43.5032" lon="6.60896">
        <ele>65</ele>
        <time>2019-04-26T19:13:45.678Z</time>
      </trkpt>
      <trkpt lat="43.50327" lon="6.609">
        <ele>65</ele>
        <time>2019-04-26T19:13:46.678Z</time>
      </trkpt>
      <trkpt lat="43.50334" lon="6.60905">
        <ele>65</ele>
        <time>2019-04-26T19:13:47.678Z</time>
      </trkpt>
      <trkpt lat="43.50341" lon="6.6091">
        <ele>65</ele>
        <time>2019-04-26T19:13:48.678Z</time>
      </trkpt>
      <trkpt lat="43.50347" lon="6.60916">
        <ele>65</ele>
        <time>2019-04-26T19:13:49.678Z</time>
      </trkpt>
      <trkpt lat="43.50349" lon="6.60925">
        <ele>64</ele>
        <time>2019-04-26T19:13:50.678Z</time>
      </trkpt>
      <trkpt lat="43.5035" lon="6.60936">
        <ele>64</ele>
        <time>2019-04-26T19:13:51.678Z</time>
      </trkpt>
      <trkpt lat="43.50349" lon="6.60941">
        <ele>64</ele>
        <time>2019-04-26T19:13:52.678Z</time>
      </trkpt>
      <trkpt lat="43.50347" lon="6.60946">
        <ele>64</ele>
        <time>2019-04-26T19:13:53.678Z</time>
      </trkpt>
      <trkpt lat="43.50341" lon="6.60954">
        <ele>64</ele>
        <time>2019-04-26T19:13:54.678Z</time>
      </trkpt>
      <trkpt lat="43.50336" lon="6.60962">
        <ele>64</ele>
        <time>2019-04-26T19:13:55.678Z</time>
      </trkpt>
      <trkpt lat="43.50334" lon="6.60966">
        <ele>64</ele>
        <time>2019-04-26T19:13:56.678Z</time>
      </trkpt>
      <trkpt lat="43.50331" lon="6.6097">
        <ele>64</ele>
        <time>2019-04-26T19:13:57.678Z</time>
      </trkpt>
      <trkpt lat="43.50328" lon="6.60974">
        <ele>64</ele>
        <time>2019-04-26T19:13:58.678Z</time>
      </trkpt>
      <trkpt lat="43.50326" lon="6.60979">
        <ele>64</ele>
        <time>2019-04-26T19:13:59.678Z</time>
      </trkpt>
      <trkpt lat="43.50322" lon="6.60988">
        <ele>64</ele>
        <time>2019-04-26T19:14:00.678Z</time>
      </trkpt>
      <trkpt lat="43.50319" lon="6.60997">
        <ele>64</ele>
        <time>2019-04-26T19:14:01.678Z</time>
      </trkpt>
      <trkpt lat="43.50316" lon="6.61007">
        <ele>64</ele>
        <time>2019-04-26T19:14:02.678Z</time>
      </trkpt>
      <trkpt lat="43.50314" lon="6.61012">
        <ele>64</ele>
        <time>2019-04-26T19:14:03.678Z</time>
      </trkpt>
      <trkpt lat="43.50313" lon="6.61017">
        <ele>64</ele>
        <time>2019-04-26T19:14:04.678Z</time>
      </trkpt>
      <trkpt lat="43.50311" lon="6.61027">
        <ele>64</ele>
        <time>2019-04-26T19:14:05.678Z</time>
      </trkpt>
      <trkpt lat="43.50308" lon="6.61036">
        <ele>64</ele>
        <time>2019-04-26T19:14:06.678Z</time>
      </trkpt>
      <trkpt lat="43.50306" lon="6.61045">
        <ele>64</ele>
        <time>2019-04-26T19:14:07.678Z</time>
      </trkpt>
      <trkpt lat="43.50301" lon="6.61053">
        <ele>64</ele>
        <time>2019-04-26T19:14:08.678Z</time>
      </trkpt>
      <trkpt lat="43.50296" lon="6.61061">
        <ele>65</ele>
        <time>2019-04-26T19:14:09.678Z</time>
      </trkpt>
      <trkpt lat="43.50294" lon="6.61066">
        <ele>65</ele>
        <time>2019-04-26T19:14:10.678Z</time>
      </trkpt>
      <trkpt lat="43.50292" lon="6.61071">
        <ele>65</ele>
        <time>2019-04-26T19:14:11.678Z</time>
      </trkpt>
      <trkpt lat="43.50289" lon="6.61075">
        <ele>65</ele>
        <time>2019-04-26T19:14:12.678Z</time>
      </trkpt>
      <trkpt lat="43.50287" lon="6.61079">
        <ele>65</ele>
        <time>2019-04-26T19:14:13.678Z</time>
      </trkpt>
      <trkpt lat="43.50282" lon="6.61089">
        <ele>65</ele>
        <time>2019-04-26T19:14:14.678Z</time>
      </trkpt>
      <trkpt lat="43.50281" lon="6.61095">
        <ele>65</ele>
        <time>2019-04-26T19:14:15.678Z</time>
      </trkpt>
      <trkpt lat="43.50279" lon="6.611">
        <ele>65</ele>
        <time>2019-04-26T19:14:16.678Z</time>
      </trkpt>
      <trkpt lat="43.50276" lon="6.6111">
        <ele>65</ele>
        <time>2019-04-26T19:14:17.678Z</time>
      </trkpt>
      <trkpt lat="43.50271" lon="6.61121">
        <ele>65</ele>
        <time>2019-04-26T19:14:18.678Z</time>
      </trkpt>
      <trkpt lat="43.50268" lon="6.61127">
        <ele>65</ele>
        <time>2019-04-26T19:14:19.678Z</time>
      </trkpt>
      <trkpt lat="43.50265" lon="6.61133">
        <ele>65</ele>
        <time>2019-04-26T19:14:20.678Z</time>
      </trkpt>
      <trkpt lat="43.50257" lon="6.61145">
        <ele>65</ele>
        <time>2019-04-26T19:14:21.678Z</time>
      </trkpt>
      <trkpt lat="43.50253" lon="6.61152">
        <ele>65</ele>
        <time>2019-04-26T19:14:22.678Z</time>
      </trkpt>
      <trkpt lat="43.5025" lon="6.6116">
        <ele>65</ele>
        <time>2019-04-26T19:14:23.678Z</time>
      </trkpt>
      <trkpt lat="43.50243" lon="6.61173">
        <ele>64</ele>
        <time>2019-04-26T19:14:24.678Z</time>
      </trkpt>
      <trkpt lat="43.50239" lon="6.61179">
        <ele>64</ele>
        <time>2019-04-26T19:14:25.678Z</time>
      </trkpt>
      <trkpt lat="43.50235" lon="6.61186">
        <ele>64</ele>
        <time>2019-04-26T19:14:26.678Z</time>
      </trkpt>
      <trkpt lat="43.50227" lon="6.61202">
        <ele>63</ele>
        <time>2019-04-26T19:14:27.678Z</time>
      </trkpt>
      <trkpt lat="43.50223" lon="6.61209">
        <ele>63</ele>
        <time>2019-04-26T19:14:28.678Z</time>
      </trkpt>
      <trkpt lat="43.50218" lon="6.61217">
        <ele>63</ele>
        <time>2019-04-26T19:14:29.678Z</time>
      </trkpt>
      <trkpt lat="43.50214" lon="6.61223">
        <ele>63</ele>
        <time>2019-04-26T19:14:30.678Z</time>
      </trkpt>
      <trkpt lat="43.50211" lon="6.61229">
        <ele>63</ele>
        <time>2019-04-26T19:14:31.678Z</time>
      </trkpt>
      <trkpt lat="43.50205" lon="6.61239">
        <ele>63</ele>
        <time>2019-04-26T19:14:32.678Z</time>
      </trkpt>
      <trkpt lat="43.502" lon="6.61247">
        <ele>63</ele>
        <time>2019-04-26T19:14:33.678Z</time>
      </trkpt>
      <trkpt lat="43.50196" lon="6.61255">
        <ele>64</ele>
        <time>2019-04-26T19:14:34.678Z</time>
      </trkpt>
      <trkpt lat="43.50192" lon="6.61262">
        <ele>64</ele>
        <time>2019-04-26T19:14:35.678Z</time>
      </trkpt>
      <trkpt lat="43.50191" lon="6.61266">
        <ele>64</ele>
        <time>2019-04-26T19:14:36.678Z</time>
      </trkpt>
      <trkpt lat="43.50189" lon="6.61269">
        <ele>64</ele>
        <time>2019-04-26T19:14:37.678Z</time>
      </trkpt>
      <trkpt lat="43.50185" lon="6.61275">
        <ele>64</ele>
        <time>2019-04-26T19:14:38.678Z</time>
      </trkpt>
      <trkpt lat="43.50182" lon="6.61282">
        <ele>65</ele>
        <time>2019-04-26T19:14:39.678Z</time>
      </trkpt>
      <trkpt lat="43.50179" lon="6.61285">
        <ele>65</ele>
        <time>2019-04-26T19:14:40.678Z</time>
      </trkpt>
      <trkpt lat="43.50177" lon="6.61288">
        <ele>65</ele>
        <time>2019-04-26T19:14:41.678Z</time>
      </trkpt>
      <trkpt lat="43.50175" lon="6.6129">
        <ele>65</ele>
        <time>2019-04-26T19:14:42.678Z</time>
      </trkpt>
      <trkpt lat="43.50173" lon="6.61293">
        <ele>66</ele>
        <time>2019-04-26T19:14:43.678Z</time>
      </trkpt>
      <trkpt lat="43.50168" lon="6.61298">
        <ele>66</ele>
        <time>2019-04-26T19:14:44.678Z</time>
      </trkpt>
      <trkpt lat="43.50165" lon="6.613">
        <ele>66</ele>
        <time>2019-04-26T19:14:45.678Z</time>
      </trkpt>
      <trkpt lat="43.50162" lon="6.61303">
        <ele>66</ele>
        <time>2019-04-26T19:14:46.678Z</time>
      </trkpt>
      <trkpt lat="43.50156" lon="6.61308">
        <ele>66</ele>
        <time>2019-04-26T19:14:47.678Z</time>
      </trkpt>
      <trkpt lat="43.5015" lon="6.61314">
        <ele>66</ele>
        <time>2019-04-26T19:14:48.678Z</time>
      </trkpt>
      <trkpt lat="43.50147" lon="6.61317">
        <ele>66</ele>
        <time>2019-04-26T19:14:49.678Z</time>
      </trkpt>
      <trkpt lat="43.50144" lon="6.6132">
        <ele>66</ele>
        <time>2019-04-26T19:14:50.678Z</time>
      </trkpt>
      <trkpt lat="43.50137" lon="6.61326">
        <ele>66</ele>
        <time>2019-04-26T19:14:51.678Z</time>
      </trkpt>
      <trkpt lat="43.50131" lon="6.61333">
        <ele>66</ele>
        <time>2019-04-26T19:14:52.678Z</time>
      </trkpt>
      <trkpt lat="43.50123" lon="6.61339">
        <ele>66</ele>
        <time>2019-04-26T19:14:53.678Z</time>
      </trkpt>
      <trkpt lat="43.50115" lon="6.61345">
        <ele>65</ele>
        <time>2019-04-26T19:14:54.678Z</time>
      </trkpt>
      <trkpt lat="43.50107" lon="6.61352">
        <ele>65</ele>
        <time>2019-04-26T19:14:55.678Z</time>
      </trkpt>
      <trkpt lat="43.50099" lon="6.61358">
        <ele>65</ele>
        <time>2019-04-26T19:14:56.678Z</time>
      </trkpt>
      <trkpt lat="43.50091" lon="6.61365">
        <ele>65</ele>
        <time>2019-04-26T19:14:57.678Z</time>
      </trkpt>
      <trkpt lat="43.50083" lon="6.61372">
        <ele>65</ele>
        <time>2019-04-26T19:14:58.678Z</time>
      </trkpt>
      <trkpt lat="43.50079" lon="6.61377">
        <ele>64</ele>
        <time>2019-04-26T19:14:59.678Z</time>
      </trkpt>
      <trkpt lat="43.50075" lon="6.61381">
        <ele>64</ele>
        <time>2019-04-26T19:15:00.678Z</time>
      </trkpt>
      <trkpt lat="43.50071" lon="6.61386">
        <ele>63</ele>
        <time>2019-04-26T19:15:01.678Z</time>
      </trkpt>
      <trkpt lat="43.50066" lon="6.6139">
        <ele>63</ele>
        <time>2019-04-26T19:15:02.678Z</time>
      </trkpt>
      <trkpt lat="43.50057" lon="6.61401">
        <ele>63</ele>
        <time>2019-04-26T19:15:03.678Z</time>
      </trkpt>
      <trkpt lat="43.50048" lon="6.61413">
        <ele>62</ele>
        <time>2019-04-26T19:15:04.678Z</time>
      </trkpt>
      <trkpt lat="43.50044" lon="6.6142">
        <ele>62</ele>
        <time>2019-04-26T19:15:05.678Z</time>
      </trkpt>
      <trkpt lat="43.5004" lon="6.61427">
        <ele>61</ele>
        <time>2019-04-26T19:15:06.678Z</time>
      </trkpt>
      <trkpt lat="43.50032" lon="6.61441">
        <ele>60</ele>
        <time>2019-04-26T19:15:07.678Z</time>
      </trkpt>
      <trkpt lat="43.50023" lon="6.61456">
        <ele>60</ele>
        <time>2019-04-26T19:15:08.678Z</time>
      </trkpt>
      <trkpt lat="43.50015" lon="6.6147">
        <ele>59</ele>
        <time>2019-04-26T19:15:09.678Z</time>
      </trkpt>
      <trkpt lat="43.50007" lon="6.61485">
        <ele>59</ele>
        <time>2019-04-26T19:15:10.678Z</time>
      </trkpt>
      <trkpt lat="43.50003" lon="6.61492">
        <ele>59</ele>
        <time>2019-04-26T19:15:11.678Z</time>
      </trkpt>
      <trkpt lat="43.49999" lon="6.61499">
        <ele>59</ele>
        <time>2019-04-26T19:15:12.678Z</time>
      </trkpt>
      <trkpt lat="43.4999" lon="6.61514">
        <ele>58</ele>
        <time>2019-04-26T19:15:13.678Z</time>
      </trkpt>
      <trkpt lat="43.49982" lon="6.61528">
        <ele>57</ele>
        <time>2019-04-26T19:15:14.678Z</time>
      </trkpt>
      <trkpt lat="43.49973" lon="6.61542">
        <ele>57</ele>
        <time>2019-04-26T19:15:15.678Z</time>
      </trkpt>
      <trkpt lat="43.49968" lon="6.61549">
        <ele>57</ele>
        <time>2019-04-26T19:15:16.678Z</time>
      </trkpt>
      <trkpt lat="43.49963" lon="6.61555">
        <ele>57</ele>
        <time>2019-04-26T19:15:17.678Z</time>
      </trkpt>
      <trkpt lat="43.49953" lon="6.61568">
        <ele>57</ele>
        <time>2019-04-26T19:15:18.678Z</time>
      </trkpt>
      <trkpt lat="43.49947" lon="6.61573">
        <ele>57</ele>
        <time>2019-04-26T19:15:19.678Z</time>
      </trkpt>
      <trkpt lat="43.49941" lon="6.61579">
        <ele>57</ele>
        <time>2019-04-26T19:15:20.678Z</time>
      </trkpt>
      <trkpt lat="43.49928" lon="6.6159">
        <ele>57</ele>
        <time>2019-04-26T19:15:21.678Z</time>
      </trkpt>
      <trkpt lat="43.49923" lon="6.61596">
        <ele>56</ele>
        <time>2019-04-26T19:15:22.678Z</time>
      </trkpt>
      <trkpt lat="43.49917" lon="6.61602">
        <ele>56</ele>
        <time>2019-04-26T19:15:23.678Z</time>
      </trkpt>
      <trkpt lat="43.49908" lon="6.61616">
        <ele>55</ele>
        <time>2019-04-26T19:15:24.678Z</time>
      </trkpt>
      <trkpt lat="43.49903" lon="6.61623">
        <ele>55</ele>
        <time>2019-04-26T19:15:25.678Z</time>
      </trkpt>
      <trkpt lat="43.49899" lon="6.6163">
        <ele>54</ele>
        <time>2019-04-26T19:15:26.678Z</time>
      </trkpt>
      <trkpt lat="43.49894" lon="6.61642">
        <ele>54</ele>
        <time>2019-04-26T19:15:27.678Z</time>
      </trkpt>
      <trkpt lat="43.49891" lon="6.61647">
        <ele>53</ele>
        <time>2019-04-26T19:15:28.678Z</time>
      </trkpt>
      <trkpt lat="43.4989" lon="6.61652">
        <ele>53</ele>
        <time>2019-04-26T19:15:29.678Z</time>
      </trkpt>
      <trkpt lat="43.49888" lon="6.61656">
        <ele>53</ele>
        <time>2019-04-26T19:15:30.678Z</time>
      </trkpt>
      <trkpt lat="43.49887" lon="6.6166">
        <ele>53</ele>
        <time>2019-04-26T19:15:31.678Z</time>
      </trkpt>
      <trkpt lat="43.49886" lon="6.61666">
        <ele>53</ele>
        <time>2019-04-26T19:15:32.678Z</time>
      </trkpt>
      <trkpt lat="43.49884" lon="6.61672">
        <ele>52</ele>
        <time>2019-04-26T19:15:33.678Z</time>
      </trkpt>
      <trkpt lat="43.49884" lon="6.61679">
        <ele>52</ele>
        <time>2019-04-26T19:15:34.678Z</time>
      </trkpt>
      <trkpt lat="43.49883" lon="6.61687">
        <ele>52</ele>
        <time>2019-04-26T19:15:35.678Z</time>
      </trkpt>
      <trkpt lat="43.49881" lon="6.61696">
        <ele>51</ele>
        <time>2019-04-26T19:15:36.678Z</time>
      </trkpt>
      <trkpt lat="43.49878" lon="6.61702">
        <ele>51</ele>
        <time>2019-04-26T19:15:37.678Z</time>
      </trkpt>
      <trkpt lat="43.49875" lon="6.61706">
        <ele>51</ele>
        <time>2019-04-26T19:15:38.678Z</time>
      </trkpt>
      <trkpt lat="43.4987" lon="6.61706">
        <ele>50</ele>
        <time>2019-04-26T19:15:39.678Z</time>
      </trkpt>
      <trkpt lat="43.49866" lon="6.61705">
        <ele>50</ele>
        <time>2019-04-26T19:15:40.678Z</time>
      </trkpt>
      <trkpt lat="43.49863" lon="6.61705">
        <ele>50</ele>
        <time>2019-04-26T19:15:41.678Z</time>
      </trkpt>
      <trkpt lat="43.4986" lon="6.61704">
        <ele>50</ele>
        <time>2019-04-26T19:15:42.678Z</time>
      </trkpt>
      <trkpt lat="43.49856" lon="6.61703">
        <ele>50</ele>
        <time>2019-04-26T19:15:43.678Z</time>
      </trkpt>
      <trkpt lat="43.4985" lon="6.61702">
        <ele>50</ele>
        <time>2019-04-26T19:15:44.678Z</time>
      </trkpt>
      <trkpt lat="43.49845" lon="6.61701">
        <ele>50</ele>
        <time>2019-04-26T19:15:45.678Z</time>
      </trkpt>
      <trkpt lat="43.4984" lon="6.61699">
        <ele>49</ele>
        <time>2019-04-26T19:15:46.678Z</time>
      </trkpt>
      <trkpt lat="43.49835" lon="6.61699">
        <ele>49</ele>
        <time>2019-04-26T19:15:47.678Z</time>
      </trkpt>
      <trkpt lat="43.49831" lon="6.61699">
        <ele>49</ele>
        <time>2019-04-26T19:15:48.678Z</time>
      </trkpt>
      <trkpt lat="43.49824" lon="6.61702">
        <ele>49</ele>
        <time>2019-04-26T19:15:49.678Z</time>
      </trkpt>
      <trkpt lat="43.49822" lon="6.61705">
        <ele>49</ele>
        <time>2019-04-26T19:15:50.678Z</time>
      </trkpt>
      <trkpt lat="43.4982" lon="6.6171">
        <ele>49</ele>
        <time>2019-04-26T19:15:51.678Z</time>
      </trkpt>
      <trkpt lat="43.49818" lon="6.61714">
        <ele>49</ele>
        <time>2019-04-26T19:15:52.678Z</time>
      </trkpt>
      <trkpt lat="43.49816" lon="6.61717">
        <ele>49</ele>
        <time>2019-04-26T19:15:53.678Z</time>
      </trkpt>
      <trkpt lat="43.49814" lon="6.61721">
        <ele>49</ele>
        <time>2019-04-26T19:15:54.678Z</time>
      </trkpt>
      <trkpt lat="43.49812" lon="6.61726">
        <ele>49</ele>
        <time>2019-04-26T19:15:55.678Z</time>
      </trkpt>
      <trkpt lat="43.49809" lon="6.61734">
        <ele>49</ele>
        <time>2019-04-26T19:15:56.678Z</time>
      </trkpt>
      <trkpt lat="43.49806" lon="6.61737">
        <ele>49</ele>
        <time>2019-04-26T19:15:57.678Z</time>
      </trkpt>
      <trkpt lat="43.49803" lon="6.6174">
        <ele>49</ele>
        <time>2019-04-26T19:15:58.678Z</time>
      </trkpt>
      <trkpt lat="43.49798" lon="6.61747">
        <ele>48</ele>
        <time>2019-04-26T19:15:59.678Z</time>
      </trkpt>
      <trkpt lat="43.49794" lon="6.61756">
        <ele>48</ele>
        <time>2019-04-26T19:16:00.678Z</time>
      </trkpt>
      <trkpt lat="43.49793" lon="6.61762">
        <ele>48</ele>
        <time>2019-04-26T19:16:01.678Z</time>
      </trkpt>
      <trkpt lat="43.49793" lon="6.61767">
        <ele>48</ele>
        <time>2019-04-26T19:16:02.678Z</time>
      </trkpt>
      <trkpt lat="43.49792" lon="6.61779">
        <ele>48</ele>
        <time>2019-04-26T19:16:03.678Z</time>
      </trkpt>
      <trkpt lat="43.49792" lon="6.61791">
        <ele>48</ele>
        <time>2019-04-26T19:16:04.678Z</time>
      </trkpt>
      <trkpt lat="43.4979" lon="6.618">
        <ele>48</ele>
        <time>2019-04-26T19:16:05.678Z</time>
      </trkpt>
      <trkpt lat="43.49789" lon="6.61804">
        <ele>48</ele>
        <time>2019-04-26T19:16:06.678Z</time>
      </trkpt>
      <trkpt lat="43.49788" lon="6.61809">
        <ele>48</ele>
        <time>2019-04-26T19:16:07.678Z</time>
      </trkpt>
      <trkpt lat="43.49788" lon="6.61819">
        <ele>48</ele>
        <time>2019-04-26T19:16:08.678Z</time>
      </trkpt>
      <trkpt lat="43.49788" lon="6.6183">
        <ele>48</ele>
        <time>2019-04-26T19:16:09.678Z</time>
      </trkpt>
      <trkpt lat="43.49787" lon="6.61835">
        <ele>48</ele>
        <time>2019-04-26T19:16:10.678Z</time>
      </trkpt>
      <trkpt lat="43.49786" lon="6.61839">
        <ele>48</ele>
        <time>2019-04-26T19:16:11.678Z</time>
      </trkpt>
      <trkpt lat="43.49785" lon="6.61841">
        <ele>48</ele>
        <time>2019-04-26T19:16:12.678Z</time>
      </trkpt>
      <trkpt lat="43.49783" lon="6.61861">
        <ele>48</ele>
        <time>2019-04-26T19:16:13.678Z</time>
      </trkpt>
      <trkpt lat="43.49785" lon="6.61862">
        <ele>48</ele>
        <time>2019-04-26T19:16:14.678Z</time>
      </trkpt>
      <trkpt lat="43.4979" lon="6.6187">
        <ele>48</ele>
        <time>2019-04-26T19:16:15.678Z</time>
      </trkpt>
      <trkpt lat="43.49791" lon="6.61871">
        <ele>48</ele>
        <time>2019-04-26T19:16:16.678Z</time>
      </trkpt>
      <trkpt lat="43.49791" lon="6.61882">
        <ele>48</ele>
        <time>2019-04-26T19:16:17.678Z</time>
      </trkpt>
      <trkpt lat="43.49789" lon="6.61884">
        <ele>48</ele>
        <time>2019-04-26T19:16:18.678Z</time>
      </trkpt>
      <trkpt lat="43.49788" lon="6.61896">
        <ele>48</ele>
        <time>2019-04-26T19:16:19.678Z</time>
      </trkpt>
      <trkpt lat="43.49787" lon="6.61898">
        <ele>48</ele>
        <time>2019-04-26T19:16:20.678Z</time>
      </trkpt>
      <trkpt lat="43.49786" lon="6.61901">
        <ele>48</ele>
        <time>2019-04-26T19:16:21.678Z</time>
      </trkpt>
      <trkpt lat="43.49784" lon="6.61907">
        <ele>48</ele>
        <time>2019-04-26T19:16:22.678Z</time>
      </trkpt>
      <trkpt lat="43.49781" lon="6.61914">
        <ele>48</ele>
        <time>2019-04-26T19:16:23.678Z</time>
      </trkpt>
      <trkpt lat="43.49778" lon="6.61922">
        <ele>48</ele>
        <time>2019-04-26T19:16:24.678Z</time>
      </trkpt>
      <trkpt lat="43.49775" lon="6.61927">
        <ele>48</ele>
        <time>2019-04-26T19:16:25.678Z</time>
      </trkpt>
      <trkpt lat="43.49773" lon="6.61931">
        <ele>48</ele>
        <time>2019-04-26T19:16:26.678Z</time>
      </trkpt>
      <trkpt lat="43.49771" lon="6.61936">
        <ele>48</ele>
        <time>2019-04-26T19:16:27.678Z</time>
      </trkpt>
      <trkpt lat="43.49767" lon="6.6194">
        <ele>48</ele>
        <time>2019-04-26T19:16:28.678Z</time>
      </trkpt>
      <trkpt lat="43.49764" lon="6.61945">
        <ele>48</ele>
        <time>2019-04-26T19:16:29.678Z</time>
      </trkpt>
      <trkpt lat="43.49761" lon="6.6195">
        <ele>48</ele>
        <time>2019-04-26T19:16:30.678Z</time>
      </trkpt>
      <trkpt lat="43.49759" lon="6.61954">
        <ele>48</ele>
        <time>2019-04-26T19:16:31.678Z</time>
      </trkpt>
      <trkpt lat="43.49757" lon="6.61957">
        <ele>48</ele>
        <time>2019-04-26T19:16:32.678Z</time>
      </trkpt>
      <trkpt lat="43.49755" lon="6.61964">
        <ele>48</ele>
        <time>2019-04-26T19:16:33.678Z</time>
      </trkpt>
      <trkpt lat="43.49752" lon="6.61971">
        <ele>48</ele>
        <time>2019-04-26T19:16:34.678Z</time>
      </trkpt>
      <trkpt lat="43.4975" lon="6.61977">
        <ele>48</ele>
        <time>2019-04-26T19:16:35.678Z</time>
      </trkpt>
      <trkpt lat="43.49748" lon="6.6198">
        <ele>48</ele>
        <time>2019-04-26T19:16:36.678Z</time>
      </trkpt>
      <trkpt lat="43.49746" lon="6.61983">
        <ele>48</ele>
        <time>2019-04-26T19:16:37.678Z</time>
      </trkpt>
      <trkpt lat="43.49742" lon="6.61986">
        <ele>48</ele>
        <time>2019-04-26T19:16:38.678Z</time>
      </trkpt>
      <trkpt lat="43.49737" lon="6.61987">
        <ele>48</ele>
        <time>2019-04-26T19:16:39.678Z</time>
      </trkpt>
      <trkpt lat="43.49731" lon="6.61986">
        <ele>49</ele>
        <time>2019-04-26T19:16:40.678Z</time>
      </trkpt>
      <trkpt lat="43.49728" lon="6.61986">
        <ele>49</ele>
        <time>2019-04-26T19:16:41.678Z</time>
      </trkpt>
      <trkpt lat="43.49726" lon="6.61985">
        <ele>49</ele>
        <time>2019-04-26T19:16:42.678Z</time>
      </trkpt>
      <trkpt lat="43.4972" lon="6.61984">
        <ele>49</ele>
        <time>2019-04-26T19:16:43.678Z</time>
      </trkpt>
      <trkpt lat="43.49715" lon="6.61982">
        <ele>49</ele>
        <time>2019-04-26T19:16:44.678Z</time>
      </trkpt>
      <trkpt lat="43.49711" lon="6.61981">
        <ele>49</ele>
        <time>2019-04-26T19:16:45.678Z</time>
      </trkpt>
      <trkpt lat="43.49708" lon="6.6198">
        <ele>49</ele>
        <time>2019-04-26T19:16:46.678Z</time>
      </trkpt>
      <trkpt lat="43.49706" lon="6.61979">
        <ele>49</ele>
        <time>2019-04-26T19:16:47.678Z</time>
      </trkpt>
      <trkpt lat="43.49704" lon="6.61979">
        <ele>50</ele>
        <time>2019-04-26T19:16:48.678Z</time>
      </trkpt>
      <trkpt lat="43.49701" lon="6.61978">
        <ele>50</ele>
        <time>2019-04-26T19:16:49.678Z</time>
      </trkpt>
      <trkpt lat="43.49696" lon="6.61977">
        <ele>50</ele>
        <time>2019-04-26T19:16:50.678Z</time>
      </trkpt>
      <trkpt lat="43.49694" lon="6.61978">
        <ele>50</ele>
        <time>2019-04-26T19:16:51.678Z</time>
      </trkpt>
      <trkpt lat="43.49692" lon="6.6198">
        <ele>50</ele>
        <time>2019-04-26T19:16:52.678Z</time>
      </trkpt>
      <trkpt lat="43.49687" lon="6.61983">
        <ele>50</ele>
        <time>2019-04-26T19:16:53.678Z</time>
      </trkpt>
      <trkpt lat="43.49684" lon="6.61988">
        <ele>50</ele>
        <time>2019-04-26T19:16:54.678Z</time>
      </trkpt>
      <trkpt lat="43.49683" lon="6.61991">
        <ele>50</ele>
        <time>2019-04-26T19:16:55.678Z</time>
      </trkpt>
      <trkpt lat="43.49682" lon="6.61994">
        <ele>50</ele>
        <time>2019-04-26T19:16:56.678Z</time>
      </trkpt>
      <trkpt lat="43.4968" lon="6.61997">
        <ele>50</ele>
        <time>2019-04-26T19:16:57.678Z</time>
      </trkpt>
      <trkpt lat="43.49679" lon="6.61999">
        <ele>51</ele>
        <time>2019-04-26T19:16:58.678Z</time>
      </trkpt>
      <trkpt lat="43.49676" lon="6.62004">
        <ele>51</ele>
        <time>2019-04-26T19:16:59.678Z</time>
      </trkpt>
      <trkpt lat="43.49674" lon="6.62007">
        <ele>51</ele>
        <time>2019-04-26T19:17:00.678Z</time>
      </trkpt>
      <trkpt lat="43.49672" lon="6.62009">
        <ele>51</ele>
        <time>2019-04-26T19:17:01.678Z</time>
      </trkpt>
      <trkpt lat="43.49667" lon="6.62012">
        <ele>51</ele>
        <time>2019-04-26T19:17:02.678Z</time>
      </trkpt>
      <trkpt lat="43.49662" lon="6.62014">
        <ele>51</ele>
        <time>2019-04-26T19:17:03.678Z</time>
      </trkpt>
      <trkpt lat="43.4966" lon="6.62015">
        <ele>51</ele>
        <time>2019-04-26T19:17:04.678Z</time>
      </trkpt>
      <trkpt lat="43.49658" lon="6.62016">
        <ele>52</ele>
        <time>2019-04-26T19:17:05.678Z</time>
      </trkpt>
      <trkpt lat="43.49653" lon="6.62017">
        <ele>52</ele>
        <time>2019-04-26T19:17:06.678Z</time>
      </trkpt>
      <trkpt lat="43.49648" lon="6.62017">
        <ele>52</ele>
        <time>2019-04-26T19:17:07.678Z</time>
      </trkpt>
      <trkpt lat="43.49643" lon="6.62018">
        <ele>52</ele>
        <time>2019-04-26T19:17:08.678Z</time>
      </trkpt>
      <trkpt lat="43.4964" lon="6.62018">
        <ele>52</ele>
        <time>2019-04-26T19:17:09.678Z</time>
      </trkpt>
      <trkpt lat="43.49638" lon="6.62018">
        <ele>53</ele>
        <time>2019-04-26T19:17:10.678Z</time>
      </trkpt>
      <trkpt lat="43.49633" lon="6.62018">
        <ele>53</ele>
        <time>2019-04-26T19:17:11.678Z</time>
      </trkpt>
      <trkpt lat="43.49627" lon="6.62016">
        <ele>53</ele>
        <time>2019-04-26T19:17:12.678Z</time>
      </trkpt>
      <trkpt lat="43.49622" lon="6.62015">
        <ele>53</ele>
        <time>2019-04-26T19:17:13.678Z</time>
      </trkpt>
      <trkpt lat="43.49616" lon="6.62014">
        <ele>53</ele>
        <time>2019-04-26T19:17:14.678Z</time>
      </trkpt>
      <trkpt lat="43.4961" lon="6.62013">
        <ele>54</ele>
        <time>2019-04-26T19:17:15.678Z</time>
      </trkpt>
      <trkpt lat="43.49604" lon="6.6201">
        <ele>54</ele>
        <time>2019-04-26T19:17:16.678Z</time>
      </trkpt>
      <trkpt lat="43.49599" lon="6.62009">
        <ele>54</ele>
        <time>2019-04-26T19:17:17.678Z</time>
      </trkpt>
      <trkpt lat="43.49593" lon="6.62007">
        <ele>55</ele>
        <time>2019-04-26T19:17:18.678Z</time>
      </trkpt>
      <trkpt lat="43.49586" lon="6.62005">
        <ele>55</ele>
        <time>2019-04-26T19:17:19.678Z</time>
      </trkpt>
      <trkpt lat="43.49579" lon="6.62001">
        <ele>55</ele>
        <time>2019-04-26T19:17:20.678Z</time>
      </trkpt>
      <trkpt lat="43.49572" lon="6.61996">
        <ele>55</ele>
        <time>2019-04-26T19:17:21.678Z</time>
      </trkpt>
      <trkpt lat="43.49564" lon="6.61992">
        <ele>54</ele>
        <time>2019-04-26T19:17:22.678Z</time>
      </trkpt>
      <trkpt lat="43.49559" lon="6.61989">
        <ele>54</ele>
        <time>2019-04-26T19:17:23.678Z</time>
      </trkpt>
      <trkpt lat="43.49555" lon="6.61986">
        <ele>54</ele>
        <time>2019-04-26T19:17:24.678Z</time>
      </trkpt>
      <trkpt lat="43.49547" lon="6.61981">
        <ele>54</ele>
        <time>2019-04-26T19:17:25.678Z</time>
      </trkpt>
      <trkpt lat="43.49538" lon="6.61975">
        <ele>54</ele>
        <time>2019-04-26T19:17:26.678Z</time>
      </trkpt>
      <trkpt lat="43.49528" lon="6.61969">
        <ele>54</ele>
        <time>2019-04-26T19:17:27.678Z</time>
      </trkpt>
      <trkpt lat="43.49523" lon="6.61965">
        <ele>54</ele>
        <time>2019-04-26T19:17:28.678Z</time>
      </trkpt>
      <trkpt lat="43.49519" lon="6.6196">
        <ele>54</ele>
        <time>2019-04-26T19:17:29.678Z</time>
      </trkpt>
      <trkpt lat="43.49514" lon="6.61956">
        <ele>54</ele>
        <time>2019-04-26T19:17:30.678Z</time>
      </trkpt>
      <trkpt lat="43.49509" lon="6.61951">
        <ele>54</ele>
        <time>2019-04-26T19:17:31.678Z</time>
      </trkpt>
      <trkpt lat="43.49498" lon="6.61943">
        <ele>54</ele>
        <time>2019-04-26T19:17:32.678Z</time>
      </trkpt>
      <trkpt lat="43.49493" lon="6.61938">
        <ele>54</ele>
        <time>2019-04-26T19:17:33.678Z</time>
      </trkpt>
      <trkpt lat="43.49487" lon="6.61934">
        <ele>54</ele>
        <time>2019-04-26T19:17:34.678Z</time>
      </trkpt>
      <trkpt lat="43.49475" lon="6.61926">
        <ele>54</ele>
        <time>2019-04-26T19:17:35.678Z</time>
      </trkpt>
      <trkpt lat="43.49465" lon="6.61919">
        <ele>54</ele>
        <time>2019-04-26T19:17:36.678Z</time>
      </trkpt>
      <trkpt lat="43.49455" lon="6.61912">
        <ele>54</ele>
        <time>2019-04-26T19:17:37.678Z</time>
      </trkpt>
      <trkpt lat="43.49451" lon="6.61909">
        <ele>54</ele>
        <time>2019-04-26T19:17:38.678Z</time>
      </trkpt>
      <trkpt lat="43.49447" lon="6.61906">
        <ele>54</ele>
        <time>2019-04-26T19:17:39.678Z</time>
      </trkpt>
      <trkpt lat="43.49439" lon="6.61903">
        <ele>54</ele>
        <time>2019-04-26T19:17:40.678Z</time>
      </trkpt>
      <trkpt lat="43.49435" lon="6.61902">
        <ele>54</ele>
        <time>2019-04-26T19:17:41.678Z</time>
      </trkpt>
      <trkpt lat="43.49431" lon="6.619">
        <ele>54</ele>
        <time>2019-04-26T19:17:42.678Z</time>
      </trkpt>
      <trkpt lat="43.49423" lon="6.61897">
        <ele>53</ele>
        <time>2019-04-26T19:17:43.678Z</time>
      </trkpt>
      <trkpt lat="43.49415" lon="6.61894">
        <ele>53</ele>
        <time>2019-04-26T19:17:44.678Z</time>
      </trkpt>
      <trkpt lat="43.49411" lon="6.61891">
        <ele>53</ele>
        <time>2019-04-26T19:17:45.678Z</time>
      </trkpt>
      <trkpt lat="43.49408" lon="6.61887">
        <ele>53</ele>
        <time>2019-04-26T19:17:46.678Z</time>
      </trkpt>
      <trkpt lat="43.494" lon="6.61879">
        <ele>53</ele>
        <time>2019-04-26T19:17:47.678Z</time>
      </trkpt>
      <trkpt lat="43.49396" lon="6.61875">
        <ele>53</ele>
        <time>2019-04-26T19:17:48.678Z</time>
      </trkpt>
      <trkpt lat="43.49391" lon="6.61868">
        <ele>53</ele>
        <time>2019-04-26T19:17:49.678Z</time>
      </trkpt>
      <trkpt lat="43.49387" lon="6.61861">
        <ele>53</ele>
        <time>2019-04-26T19:17:50.678Z</time>
      </trkpt>
      <trkpt lat="43.49382" lon="6.61852">
        <ele>53</ele>
        <time>2019-04-26T19:17:51.678Z</time>
      </trkpt>
      <trkpt lat="43.49378" lon="6.61843">
        <ele>53</ele>
        <time>2019-04-26T19:17:52.678Z</time>
      </trkpt>
      <trkpt lat="43.49376" lon="6.61833">
        <ele>54</ele>
        <time>2019-04-26T19:17:53.678Z</time>
      </trkpt>
      <trkpt lat="43.49372" lon="6.61825">
        <ele>54</ele>
        <time>2019-04-26T19:17:54.678Z</time>
      </trkpt>
      <trkpt lat="43.49367" lon="6.61821">
        <ele>54</ele>
        <time>2019-04-26T19:17:55.678Z</time>
      </trkpt>
      <trkpt lat="43.49357" lon="6.61814">
        <ele>54</ele>
        <time>2019-04-26T19:17:56.678Z</time>
      </trkpt>
      <trkpt lat="43.49345" lon="6.61815">
        <ele>54</ele>
        <time>2019-04-26T19:17:57.678Z</time>
      </trkpt>
      <trkpt lat="43.4934" lon="6.61818">
        <ele>53</ele>
        <time>2019-04-26T19:17:58.678Z</time>
      </trkpt>
      <trkpt lat="43.49334" lon="6.61819">
        <ele>53</ele>
        <time>2019-04-26T19:17:59.678Z</time>
      </trkpt>
      <trkpt lat="43.49322" lon="6.61822">
        <ele>54</ele>
        <time>2019-04-26T19:18:00.678Z</time>
      </trkpt>
      <trkpt lat="43.49317" lon="6.61824">
        <ele>54</ele>
        <time>2019-04-26T19:18:01.678Z</time>
      </trkpt>
      <trkpt lat="43.49311" lon="6.61827">
        <ele>54</ele>
        <time>2019-04-26T19:18:02.678Z</time>
      </trkpt>
      <trkpt lat="43.49299" lon="6.61832">
        <ele>54</ele>
        <time>2019-04-26T19:18:03.678Z</time>
      </trkpt>
      <trkpt lat="43.49289" lon="6.61838">
        <ele>54</ele>
        <time>2019-04-26T19:18:04.678Z</time>
      </trkpt>
      <trkpt lat="43.49284" lon="6.61841">
        <ele>55</ele>
        <time>2019-04-26T19:18:05.678Z</time>
      </trkpt>
      <trkpt lat="43.49279" lon="6.61843">
        <ele>55</ele>
        <time>2019-04-26T19:18:06.678Z</time>
      </trkpt>
      <trkpt lat="43.4927" lon="6.61848">
        <ele>55</ele>
        <time>2019-04-26T19:18:07.678Z</time>
      </trkpt>
      <trkpt lat="43.49261" lon="6.61852">
        <ele>55</ele>
        <time>2019-04-26T19:18:08.678Z</time>
      </trkpt>
      <trkpt lat="43.49253" lon="6.61858">
        <ele>55</ele>
        <time>2019-04-26T19:18:09.678Z</time>
      </trkpt>
      <trkpt lat="43.49245" lon="6.61865">
        <ele>55</ele>
        <time>2019-04-26T19:18:10.678Z</time>
      </trkpt>
      <trkpt lat="43.49239" lon="6.61871">
        <ele>55</ele>
        <time>2019-04-26T19:18:11.678Z</time>
      </trkpt>
      <trkpt lat="43.49235" lon="6.61873">
        <ele>55</ele>
        <time>2019-04-26T19:18:12.678Z</time>
      </trkpt>
      <trkpt lat="43.49232" lon="6.61875">
        <ele>55</ele>
        <time>2019-04-26T19:18:13.678Z</time>
      </trkpt>
      <trkpt lat="43.49225" lon="6.61878">
        <ele>56</ele>
        <time>2019-04-26T19:18:14.678Z</time>
      </trkpt>
      <trkpt lat="43.49218" lon="6.61882">
        <ele>56</ele>
        <time>2019-04-26T19:18:15.678Z</time>
      </trkpt>
      <trkpt lat="43.49214" lon="6.61883">
        <ele>56</ele>
        <time>2019-04-26T19:18:16.678Z</time>
      </trkpt>
      <trkpt lat="43.49211" lon="6.61885">
        <ele>56</ele>
        <time>2019-04-26T19:18:17.678Z</time>
      </trkpt>
      <trkpt lat="43.49205" lon="6.6189">
        <ele>56</ele>
        <time>2019-04-26T19:18:18.678Z</time>
      </trkpt>
      <trkpt lat="43.49198" lon="6.61895">
        <ele>56</ele>
        <time>2019-04-26T19:18:19.678Z</time>
      </trkpt>
      <trkpt lat="43.49191" lon="6.61898">
        <ele>57</ele>
        <time>2019-04-26T19:18:20.678Z</time>
      </trkpt>
      <trkpt lat="43.49185" lon="6.61902">
        <ele>57</ele>
        <time>2019-04-26T19:18:21.678Z</time>
      </trkpt>
      <trkpt lat="43.49181" lon="6.61903">
        <ele>57</ele>
        <time>2019-04-26T19:18:22.678Z</time>
      </trkpt>
      <trkpt lat="43.49178" lon="6.61904">
        <ele>57</ele>
        <time>2019-04-26T19:18:23.678Z</time>
      </trkpt>
      <trkpt lat="43.49171" lon="6.61905">
        <ele>58</ele>
        <time>2019-04-26T19:18:24.678Z</time>
      </trkpt>
      <trkpt lat="43.49165" lon="6.61908">
        <ele>58</ele>
        <time>2019-04-26T19:18:25.678Z</time>
      </trkpt>
      <trkpt lat="43.49162" lon="6.61909">
        <ele>58</ele>
        <time>2019-04-26T19:18:26.678Z</time>
      </trkpt>
      <trkpt lat="43.49159" lon="6.6191">
        <ele>57</ele>
        <time>2019-04-26T19:18:27.678Z</time>
      </trkpt>
      <trkpt lat="43.49156" lon="6.61912">
        <ele>57</ele>
        <time>2019-04-26T19:18:28.678Z</time>
      </trkpt>
      <trkpt lat="43.49152" lon="6.61915">
        <ele>57</ele>
        <time>2019-04-26T19:18:29.678Z</time>
      </trkpt>
      <trkpt lat="43.49151" lon="6.61917">
        <ele>57</ele>
        <time>2019-04-26T19:18:30.678Z</time>
      </trkpt>
      <trkpt lat="43.49151" lon="6.61917">
        <ele>57</ele>
        <time>2019-04-26T19:18:31.678Z</time>
      </trkpt>
      <trkpt lat="43.49158" lon="6.61915">
        <ele>58</ele>
        <time>2019-04-26T19:18:32.678Z</time>
      </trkpt>
      <trkpt lat="43.49159" lon="6.61912">
        <ele>58</ele>
        <time>2019-04-26T19:18:33.678Z</time>
      </trkpt>
      <trkpt lat="43.49157" lon="6.61908">
        <ele>57</ele>
        <time>2019-04-26T19:18:34.678Z</time>
      </trkpt>
      <trkpt lat="43.49155" lon="6.61906">
        <ele>57</ele>
        <time>2019-04-26T19:18:35.678Z</time>
      </trkpt>
      <trkpt lat="43.49153" lon="6.61905">
        <ele>57</ele>
        <time>2019-04-26T19:18:36.678Z</time>
      </trkpt>
      <trkpt lat="43.4915" lon="6.61905">
        <ele>57</ele>
        <time>2019-04-26T19:18:37.678Z</time>
      </trkpt>
      <trkpt lat="43.49147" lon="6.61904">
        <ele>57</ele>
        <time>2019-04-26T19:18:38.678Z</time>
      </trkpt>
      <trkpt lat="43.49141" lon="6.61902">
        <ele>56</ele>
        <time>2019-04-26T19:18:39.678Z</time>
      </trkpt>
      <trkpt lat="43.49131" lon="6.61902">
        <ele>56</ele>
        <time>2019-04-26T19:18:40.678Z</time>
      </trkpt>
      <trkpt lat="43.49126" lon="6.61901">
        <ele>56</ele>
        <time>2019-04-26T19:18:41.678Z</time>
      </trkpt>
      <trkpt lat="43.49121" lon="6.61901">
        <ele>55</ele>
        <time>2019-04-26T19:18:42.678Z</time>
      </trkpt>
      <trkpt lat="43.49115" lon="6.61901">
        <ele>55</ele>
        <time>2019-04-26T19:18:43.678Z</time>
      </trkpt>
      <trkpt lat="43.4911" lon="6.61901">
        <ele>55</ele>
        <time>2019-04-26T19:18:44.678Z</time>
      </trkpt>
      <trkpt lat="43.49099" lon="6.61902">
        <ele>54</ele>
        <time>2019-04-26T19:18:45.678Z</time>
      </trkpt>
      <trkpt lat="43.4909" lon="6.61902">
        <ele>54</ele>
        <time>2019-04-26T19:18:46.678Z</time>
      </trkpt>
      <trkpt lat="43.49084" lon="6.61902">
        <ele>54</ele>
        <time>2019-04-26T19:18:47.678Z</time>
      </trkpt>
      <trkpt lat="43.49079" lon="6.61904">
        <ele>53</ele>
        <time>2019-04-26T19:18:48.678Z</time>
      </trkpt>
      <trkpt lat="43.49069" lon="6.61908">
        <ele>53</ele>
        <time>2019-04-26T19:18:49.678Z</time>
      </trkpt>
      <trkpt lat="43.49058" lon="6.61916">
        <ele>52</ele>
        <time>2019-04-26T19:18:50.678Z</time>
      </trkpt>
      <trkpt lat="43.49051" lon="6.61919">
        <ele>52</ele>
        <time>2019-04-26T19:18:51.678Z</time>
      </trkpt>
      <trkpt lat="43.49045" lon="6.61922">
        <ele>52</ele>
        <time>2019-04-26T19:18:52.678Z</time>
      </trkpt>
      <trkpt lat="43.49037" lon="6.61924">
        <ele>51</ele>
        <time>2019-04-26T19:18:53.678Z</time>
      </trkpt>
      <trkpt lat="43.49029" lon="6.61925">
        <ele>51</ele>
        <time>2019-04-26T19:18:54.678Z</time>
      </trkpt>
      <trkpt lat="43.49021" lon="6.61926">
        <ele>50</ele>
        <time>2019-04-26T19:18:55.678Z</time>
      </trkpt>
      <trkpt lat="43.49014" lon="6.61927">
        <ele>50</ele>
        <time>2019-04-26T19:18:56.678Z</time>
      </trkpt>
      <trkpt lat="43.49007" lon="6.6193">
        <ele>49</ele>
        <time>2019-04-26T19:18:57.678Z</time>
      </trkpt>
      <trkpt lat="43.49" lon="6.61932">
        <ele>49</ele>
        <time>2019-04-26T19:18:58.678Z</time>
      </trkpt>
      <trkpt lat="43.48995" lon="6.61933">
        <ele>49</ele>
        <time>2019-04-26T19:18:59.678Z</time>
      </trkpt>
      <trkpt lat="43.4899" lon="6.61935">
        <ele>49</ele>
        <time>2019-04-26T19:19:00.678Z</time>
      </trkpt>
      <trkpt lat="43.48985" lon="6.61937">
        <ele>49</ele>
        <time>2019-04-26T19:19:01.678Z</time>
      </trkpt>
      <trkpt lat="43.4898" lon="6.61939">
        <ele>49</ele>
        <time>2019-04-26T19:19:02.678Z</time>
      </trkpt>
      <trkpt lat="43.48971" lon="6.61942">
        <ele>49</ele>
        <time>2019-04-26T19:19:03.678Z</time>
      </trkpt>
      <trkpt lat="43.48963" lon="6.61946">
        <ele>49</ele>
        <time>2019-04-26T19:19:04.678Z</time>
      </trkpt>
      <trkpt lat="43.48955" lon="6.6195">
        <ele>49</ele>
        <time>2019-04-26T19:19:05.678Z</time>
      </trkpt>
      <trkpt lat="43.48948" lon="6.61953">
        <ele>49</ele>
        <time>2019-04-26T19:19:06.678Z</time>
      </trkpt>
      <trkpt lat="43.4894" lon="6.61951">
        <ele>49</ele>
        <time>2019-04-26T19:19:07.678Z</time>
      </trkpt>
      <trkpt lat="43.48933" lon="6.61948">
        <ele>49</ele>
        <time>2019-04-26T19:19:08.678Z</time>
      </trkpt>
      <trkpt lat="43.48926" lon="6.61945">
        <ele>49</ele>
        <time>2019-04-26T19:19:09.678Z</time>
      </trkpt>
      <trkpt lat="43.48919" lon="6.61944">
        <ele>49</ele>
        <time>2019-04-26T19:19:10.678Z</time>
      </trkpt>
      <trkpt lat="43.48914" lon="6.61945">
        <ele>49</ele>
        <time>2019-04-26T19:19:11.678Z</time>
      </trkpt>
      <trkpt lat="43.4891" lon="6.61946">
        <ele>50</ele>
        <time>2019-04-26T19:19:12.678Z</time>
      </trkpt>
      <trkpt lat="43.48906" lon="6.61945">
        <ele>50</ele>
        <time>2019-04-26T19:19:13.678Z</time>
      </trkpt>
      <trkpt lat="43.48902" lon="6.61945">
        <ele>50</ele>
        <time>2019-04-26T19:19:14.678Z</time>
      </trkpt>
      <trkpt lat="43.48899" lon="6.61945">
        <ele>50</ele>
        <time>2019-04-26T19:19:15.678Z</time>
      </trkpt>
      <trkpt lat="43.48895" lon="6.61945">
        <ele>51</ele>
        <time>2019-04-26T19:19:16.678Z</time>
      </trkpt>
      <trkpt lat="43.48888" lon="6.61945">
        <ele>51</ele>
        <time>2019-04-26T19:19:17.678Z</time>
      </trkpt>
      <trkpt lat="43.48881" lon="6.61946">
        <ele>52</ele>
        <time>2019-04-26T19:19:18.678Z</time>
      </trkpt>
      <trkpt lat="43.48878" lon="6.61946">
        <ele>52</ele>
        <time>2019-04-26T19:19:19.678Z</time>
      </trkpt>
      <trkpt lat="43.48876" lon="6.61946">
        <ele>52</ele>
        <time>2019-04-26T19:19:20.678Z</time>
      </trkpt>
      <trkpt lat="43.48871" lon="6.61945">
        <ele>52</ele>
        <time>2019-04-26T19:19:21.678Z</time>
      </trkpt>
      <trkpt lat="43.48866" lon="6.61945">
        <ele>53</ele>
        <time>2019-04-26T19:19:22.678Z</time>
      </trkpt>
      <trkpt lat="43.48861" lon="6.61946">
        <ele>53</ele>
        <time>2019-04-26T19:19:23.678Z</time>
      </trkpt>
      <trkpt lat="43.48856" lon="6.61947">
        <ele>53</ele>
        <time>2019-04-26T19:19:24.678Z</time>
      </trkpt>
      <trkpt lat="43.48854" lon="6.61948">
        <ele>53</ele>
        <time>2019-04-26T19:19:25.678Z</time>
      </trkpt>
      <trkpt lat="43.48852" lon="6.61949">
        <ele>53</ele>
        <time>2019-04-26T19:19:26.678Z</time>
      </trkpt>
      <trkpt lat="43.48848" lon="6.61951">
        <ele>53</ele>
        <time>2019-04-26T19:19:27.678Z</time>
      </trkpt>
      <trkpt lat="43.48846" lon="6.61951">
        <ele>54</ele>
        <time>2019-04-26T19:19:28.678Z</time>
      </trkpt>
      <trkpt lat="43.48843" lon="6.61952">
        <ele>54</ele>
        <time>2019-04-26T19:19:29.678Z</time>
      </trkpt>
      <trkpt lat="43.48841" lon="6.61953">
        <ele>54</ele>
        <time>2019-04-26T19:19:30.678Z</time>
      </trkpt>
      <trkpt lat="43.4884" lon="6.61955">
        <ele>54</ele>
        <time>2019-04-26T19:19:31.678Z</time>
      </trkpt>
      <trkpt lat="43.48836" lon="6.61957">
        <ele>54</ele>
        <time>2019-04-26T19:19:32.678Z</time>
      </trkpt>
      <trkpt lat="43.48834" lon="6.61957">
        <ele>54</ele>
        <time>2019-04-26T19:19:33.678Z</time>
      </trkpt>
      <trkpt lat="43.48832" lon="6.61957">
        <ele>54</ele>
        <time>2019-04-26T19:19:34.678Z</time>
      </trkpt>
      <trkpt lat="43.4883" lon="6.61957">
        <ele>54</ele>
        <time>2019-04-26T19:19:35.678Z</time>
      </trkpt>
      <trkpt lat="43.48829" lon="6.61958">
        <ele>55</ele>
        <time>2019-04-26T19:19:36.678Z</time>
      </trkpt>
      <trkpt lat="43.48825" lon="6.6196">
        <ele>55</ele>
        <time>2019-04-26T19:19:37.678Z</time>
      </trkpt>
      <trkpt lat="43.48823" lon="6.6196">
        <ele>55</ele>
        <time>2019-04-26T19:19:38.678Z</time>
      </trkpt>
      <trkpt lat="43.48821" lon="6.6196">
        <ele>55</ele>
        <time>2019-04-26T19:19:39.678Z</time>
      </trkpt>
      <trkpt lat="43.48818" lon="6.61961">
        <ele>56</ele>
        <time>2019-04-26T19:19:40.678Z</time>
      </trkpt>
      <trkpt lat="43.48816" lon="6.61962">
        <ele>56</ele>
        <time>2019-04-26T19:19:41.678Z</time>
      </trkpt>
      <trkpt lat="43.48814" lon="6.61963">
        <ele>56</ele>
        <time>2019-04-26T19:19:42.678Z</time>
      </trkpt>
      <trkpt lat="43.48811" lon="6.61963">
        <ele>56</ele>
        <time>2019-04-26T19:19:43.678Z</time>
      </trkpt>
      <trkpt lat="43.48808" lon="6.61964">
        <ele>56</ele>
        <time>2019-04-26T19:19:44.678Z</time>
      </trkpt>
      <trkpt lat="43.48804" lon="6.61966">
        <ele>57</ele>
        <time>2019-04-26T19:19:45.678Z</time>
      </trkpt>
      <trkpt lat="43.488" lon="6.61969">
        <ele>57</ele>
        <time>2019-04-26T19:19:46.678Z</time>
      </trkpt>
      <trkpt lat="43.48799" lon="6.6197">
        <ele>57</ele>
        <time>2019-04-26T19:19:47.678Z</time>
      </trkpt>
      <trkpt lat="43.48797" lon="6.6197">
        <ele>57</ele>
        <time>2019-04-26T19:19:48.678Z</time>
      </trkpt>
      <trkpt lat="43.48794" lon="6.61969">
        <ele>58</ele>
        <time>2019-04-26T19:19:49.678Z</time>
      </trkpt>
      <trkpt lat="43.48792" lon="6.61968">
        <ele>58</ele>
        <time>2019-04-26T19:19:50.678Z</time>
      </trkpt>
      <trkpt lat="43.4879" lon="6.61968">
        <ele>58</ele>
        <time>2019-04-26T19:19:51.678Z</time>
      </trkpt>
      <trkpt lat="43.48788" lon="6.61969">
        <ele>58</ele>
        <time>2019-04-26T19:19:52.678Z</time>
      </trkpt>
      <trkpt lat="43.48786" lon="6.61969">
        <ele>58</ele>
        <time>2019-04-26T19:19:53.678Z</time>
      </trkpt>
      <trkpt lat="43.48782" lon="6.61971">
        <ele>59</ele>
        <time>2019-04-26T19:19:54.678Z</time>
      </trkpt>
      <trkpt lat="43.48778" lon="6.61973">
        <ele>59</ele>
        <time>2019-04-26T19:19:55.678Z</time>
      </trkpt>
      <trkpt lat="43.48775" lon="6.61974">
        <ele>59</ele>
        <time>2019-04-26T19:19:56.678Z</time>
      </trkpt>
      <trkpt lat="43.48771" lon="6.61976">
        <ele>59</ele>
        <time>2019-04-26T19:19:57.678Z</time>
      </trkpt>
      <trkpt lat="43.48769" lon="6.61976">
        <ele>59</ele>
        <time>2019-04-26T19:19:58.678Z</time>
      </trkpt>
      <trkpt lat="43.48767" lon="6.61977">
        <ele>60</ele>
        <time>2019-04-26T19:19:59.678Z</time>
      </trkpt>
      <trkpt lat="43.48762" lon="6.6198">
        <ele>60</ele>
        <time>2019-04-26T19:20:00.678Z</time>
      </trkpt>
      <trkpt lat="43.48757" lon="6.61981">
        <ele>60</ele>
        <time>2019-04-26T19:20:01.678Z</time>
      </trkpt>
      <trkpt lat="43.48752" lon="6.61981">
        <ele>61</ele>
        <time>2019-04-26T19:20:02.678Z</time>
      </trkpt>
      <trkpt lat="43.48748" lon="6.61981">
        <ele>61</ele>
        <time>2019-04-26T19:20:03.678Z</time>
      </trkpt>
      <trkpt lat="43.48744" lon="6.6198">
        <ele>61</ele>
        <time>2019-04-26T19:20:04.678Z</time>
      </trkpt>
      <trkpt lat="43.48738" lon="6.61979">
        <ele>61</ele>
        <time>2019-04-26T19:20:05.678Z</time>
      </trkpt>
      <trkpt lat="43.48733" lon="6.61978">
        <ele>62</ele>
        <time>2019-04-26T19:20:06.678Z</time>
      </trkpt>
      <trkpt lat="43.48727" lon="6.61977">
        <ele>62</ele>
        <time>2019-04-26T19:20:07.678Z</time>
      </trkpt>
      <trkpt lat="43.48721" lon="6.61975">
        <ele>62</ele>
        <time>2019-04-26T19:20:08.678Z</time>
      </trkpt>
      <trkpt lat="43.48716" lon="6.61974">
        <ele>62</ele>
        <time>2019-04-26T19:20:09.678Z</time>
      </trkpt>
      <trkpt lat="43.48714" lon="6.61974">
        <ele>62</ele>
        <time>2019-04-26T19:20:10.678Z</time>
      </trkpt>
      <trkpt lat="43.48712" lon="6.61974">
        <ele>62</ele>
        <time>2019-04-26T19:20:11.678Z</time>
      </trkpt>
      <trkpt lat="43.48707" lon="6.61974">
        <ele>63</ele>
        <time>2019-04-26T19:20:12.678Z</time>
      </trkpt>
      <trkpt lat="43.48703" lon="6.61976">
        <ele>63</ele>
        <time>2019-04-26T19:20:13.678Z</time>
      </trkpt>
      <trkpt lat="43.48701" lon="6.61976">
        <ele>63</ele>
        <time>2019-04-26T19:20:14.678Z</time>
      </trkpt>
      <trkpt lat="43.48698" lon="6.61976">
        <ele>63</ele>
        <time>2019-04-26T19:20:15.678Z</time>
      </trkpt>
      <trkpt lat="43.48694" lon="6.61976">
        <ele>63</ele>
        <time>2019-04-26T19:20:16.678Z</time>
      </trkpt>
      <trkpt lat="43.4869" lon="6.61975">
        <ele>63</ele>
        <time>2019-04-26T19:20:17.678Z</time>
      </trkpt>
      <trkpt lat="43.48686" lon="6.61975">
        <ele>63</ele>
        <time>2019-04-26T19:20:18.678Z</time>
      </trkpt>
      <trkpt lat="43.48681" lon="6.61975">
        <ele>63</ele>
        <time>2019-04-26T19:20:19.678Z</time>
      </trkpt>
      <trkpt lat="43.48676" lon="6.61974">
        <ele>63</ele>
        <time>2019-04-26T19:20:20.678Z</time>
      </trkpt>
      <trkpt lat="43.48669" lon="6.61972">
        <ele>64</ele>
        <time>2019-04-26T19:20:21.678Z</time>
      </trkpt>
      <trkpt lat="43.48662" lon="6.6197">
        <ele>64</ele>
        <time>2019-04-26T19:20:22.678Z</time>
      </trkpt>
      <trkpt lat="43.48658" lon="6.61969">
        <ele>63</ele>
        <time>2019-04-26T19:20:23.678Z</time>
      </trkpt>
      <trkpt lat="43.48653" lon="6.61968">
        <ele>63</ele>
        <time>2019-04-26T19:20:24.678Z</time>
      </trkpt>
      <trkpt lat="43.48649" lon="6.61966">
        <ele>63</ele>
        <time>2019-04-26T19:20:25.678Z</time>
      </trkpt>
      <trkpt lat="43.48644" lon="6.61964">
        <ele>63</ele>
        <time>2019-04-26T19:20:26.678Z</time>
      </trkpt>
      <trkpt lat="43.48636" lon="6.61956">
        <ele>63</ele>
        <time>2019-04-26T19:20:27.678Z</time>
      </trkpt>
      <trkpt lat="43.48632" lon="6.6195">
        <ele>63</ele>
        <time>2019-04-26T19:20:28.678Z</time>
      </trkpt>
      <trkpt lat="43.48628" lon="6.61944">
        <ele>63</ele>
        <time>2019-04-26T19:20:29.678Z</time>
      </trkpt>
      <trkpt lat="43.48619" lon="6.61933">
        <ele>63</ele>
        <time>2019-04-26T19:20:30.678Z</time>
      </trkpt>
      <trkpt lat="43.48614" lon="6.61929">
        <ele>63</ele>
        <time>2019-04-26T19:20:31.678Z</time>
      </trkpt>
      <trkpt lat="43.48609" lon="6.61926">
        <ele>63</ele>
        <time>2019-04-26T19:20:32.678Z</time>
      </trkpt>
      <trkpt lat="43.48603" lon="6.61925">
        <ele>63</ele>
        <time>2019-04-26T19:20:33.678Z</time>
      </trkpt>
      <trkpt lat="43.48597" lon="6.61924">
        <ele>62</ele>
        <time>2019-04-26T19:20:34.678Z</time>
      </trkpt>
      <trkpt lat="43.48584" lon="6.61924">
        <ele>62</ele>
        <time>2019-04-26T19:20:35.678Z</time>
      </trkpt>
      <trkpt lat="43.48578" lon="6.61925">
        <ele>62</ele>
        <time>2019-04-26T19:20:36.678Z</time>
      </trkpt>
      <trkpt lat="43.48574" lon="6.61926">
        <ele>62</ele>
        <time>2019-04-26T19:20:37.678Z</time>
      </trkpt>
      <trkpt lat="43.48572" lon="6.61927">
        <ele>62</ele>
        <time>2019-04-26T19:20:38.678Z</time>
      </trkpt>
      <trkpt lat="43.4857" lon="6.61928">
        <ele>62</ele>
        <time>2019-04-26T19:20:39.678Z</time>
      </trkpt>
      <trkpt lat="43.48568" lon="6.6193">
        <ele>62</ele>
        <time>2019-04-26T19:20:40.678Z</time>
      </trkpt>
      <trkpt lat="43.48566" lon="6.61932">
        <ele>62</ele>
        <time>2019-04-26T19:20:41.678Z</time>
      </trkpt>
      <trkpt lat="43.48564" lon="6.61934">
        <ele>62</ele>
        <time>2019-04-26T19:20:42.678Z</time>
      </trkpt>
      <trkpt lat="43.48562" lon="6.61936">
        <ele>62</ele>
        <time>2019-04-26T19:20:43.678Z</time>
      </trkpt>
      <trkpt lat="43.4856" lon="6.61939">
        <ele>62</ele>
        <time>2019-04-26T19:20:44.678Z</time>
      </trkpt>
      <trkpt lat="43.48558" lon="6.6194">
        <ele>62</ele>
        <time>2019-04-26T19:20:45.678Z</time>
      </trkpt>
      <trkpt lat="43.48555" lon="6.61943">
        <ele>63</ele>
        <time>2019-04-26T19:20:46.678Z</time>
      </trkpt>
      <trkpt lat="43.48553" lon="6.61945">
        <ele>63</ele>
        <time>2019-04-26T19:20:47.678Z</time>
      </trkpt>
      <trkpt lat="43.48551" lon="6.61947">
        <ele>63</ele>
        <time>2019-04-26T19:20:48.678Z</time>
      </trkpt>
      <trkpt lat="43.48547" lon="6.61952">
        <ele>63</ele>
        <time>2019-04-26T19:20:49.678Z</time>
      </trkpt>
      <trkpt lat="43.48544" lon="6.61958">
        <ele>63</ele>
        <time>2019-04-26T19:20:50.678Z</time>
      </trkpt>
      <trkpt lat="43.48542" lon="6.6196">
        <ele>63</ele>
        <time>2019-04-26T19:20:51.678Z</time>
      </trkpt>
      <trkpt lat="43.48539" lon="6.61962">
        <ele>63</ele>
        <time>2019-04-26T19:20:52.678Z</time>
      </trkpt>
      <trkpt lat="43.48535" lon="6.61966">
        <ele>63</ele>
        <time>2019-04-26T19:20:53.678Z</time>
      </trkpt>
      <trkpt lat="43.48531" lon="6.61968">
        <ele>63</ele>
        <time>2019-04-26T19:20:54.678Z</time>
      </trkpt>
      <trkpt lat="43.4853" lon="6.61968">
        <ele>63</ele>
        <time>2019-04-26T19:20:55.678Z</time>
      </trkpt>
      <trkpt lat="43.48524" lon="6.61969">
        <ele>63</ele>
        <time>2019-04-26T19:20:56.678Z</time>
      </trkpt>
      <trkpt lat="43.48521" lon="6.6197">
        <ele>64</ele>
        <time>2019-04-26T19:20:57.678Z</time>
      </trkpt>
      <trkpt lat="43.48517" lon="6.61971">
        <ele>64</ele>
        <time>2019-04-26T19:20:58.678Z</time>
      </trkpt>
      <trkpt lat="43.48513" lon="6.61971">
        <ele>64</ele>
        <time>2019-04-26T19:20:59.678Z</time>
      </trkpt>
      <trkpt lat="43.48509" lon="6.61972">
        <ele>64</ele>
        <time>2019-04-26T19:21:00.678Z</time>
      </trkpt>
      <trkpt lat="43.48507" lon="6.61973">
        <ele>64</ele>
        <time>2019-04-26T19:21:01.678Z</time>
      </trkpt>
      <trkpt lat="43.48506" lon="6.61973">
        <ele>65</ele>
        <time>2019-04-26T19:21:02.678Z</time>
      </trkpt>
      <trkpt lat="43.48502" lon="6.61975">
        <ele>65</ele>
        <time>2019-04-26T19:21:03.678Z</time>
      </trkpt>
      <trkpt lat="43.48498" lon="6.61976">
        <ele>65</ele>
        <time>2019-04-26T19:21:04.678Z</time>
      </trkpt>
      <trkpt lat="43.48496" lon="6.61977">
        <ele>65</ele>
        <time>2019-04-26T19:21:05.678Z</time>
      </trkpt>
      <trkpt lat="43.48495" lon="6.61977">
        <ele>65</ele>
        <time>2019-04-26T19:21:06.678Z</time>
      </trkpt>
      <trkpt lat="43.48491" lon="6.61979">
        <ele>66</ele>
        <time>2019-04-26T19:21:07.678Z</time>
      </trkpt>
      <trkpt lat="43.48486" lon="6.6198">
        <ele>66</ele>
        <time>2019-04-26T19:21:08.678Z</time>
      </trkpt>
      <trkpt lat="43.48481" lon="6.61979">
        <ele>66</ele>
        <time>2019-04-26T19:21:09.678Z</time>
      </trkpt>
      <trkpt lat="43.48475" lon="6.61979">
        <ele>67</ele>
        <time>2019-04-26T19:21:10.678Z</time>
      </trkpt>
      <trkpt lat="43.4847" lon="6.61978">
        <ele>67</ele>
        <time>2019-04-26T19:21:11.678Z</time>
      </trkpt>
      <trkpt lat="43.48468" lon="6.61978">
        <ele>67</ele>
        <time>2019-04-26T19:21:12.678Z</time>
      </trkpt>
      <trkpt lat="43.48466" lon="6.61978">
        <ele>68</ele>
        <time>2019-04-26T19:21:13.678Z</time>
      </trkpt>
      <trkpt lat="43.48463" lon="6.61977">
        <ele>68</ele>
        <time>2019-04-26T19:21:14.678Z</time>
      </trkpt>
      <trkpt lat="43.48461" lon="6.61977">
        <ele>68</ele>
        <time>2019-04-26T19:21:15.678Z</time>
      </trkpt>
      <trkpt lat="43.48459" lon="6.61977">
        <ele>68</ele>
        <time>2019-04-26T19:21:16.678Z</time>
      </trkpt>
      <trkpt lat="43.48455" lon="6.61976">
        <ele>68</ele>
        <time>2019-04-26T19:21:17.678Z</time>
      </trkpt>
      <trkpt lat="43.48454" lon="6.61976">
        <ele>69</ele>
        <time>2019-04-26T19:21:18.678Z</time>
      </trkpt>
      <trkpt lat="43.48452" lon="6.61976">
        <ele>69</ele>
        <time>2019-04-26T19:21:19.678Z</time>
      </trkpt>
      <trkpt lat="43.4845" lon="6.61976">
        <ele>69</ele>
        <time>2019-04-26T19:21:20.678Z</time>
      </trkpt>
      <trkpt lat="43.48448" lon="6.61976">
        <ele>69</ele>
        <time>2019-04-26T19:21:21.678Z</time>
      </trkpt>
      <trkpt lat="43.48445" lon="6.61977">
        <ele>69</ele>
        <time>2019-04-26T19:21:22.678Z</time>
      </trkpt>
      <trkpt lat="43.48444" lon="6.61978">
        <ele>69</ele>
        <time>2019-04-26T19:21:23.678Z</time>
      </trkpt>
      <trkpt lat="43.48442" lon="6.61978">
        <ele>69</ele>
        <time>2019-04-26T19:21:24.678Z</time>
      </trkpt>
      <trkpt lat="43.48438" lon="6.61978">
        <ele>70</ele>
        <time>2019-04-26T19:21:25.678Z</time>
      </trkpt>
      <trkpt lat="43.48434" lon="6.61977">
        <ele>70</ele>
        <time>2019-04-26T19:21:26.678Z</time>
      </trkpt>
      <trkpt lat="43.48432" lon="6.61977">
        <ele>70</ele>
        <time>2019-04-26T19:21:27.678Z</time>
      </trkpt>
      <trkpt lat="43.4843" lon="6.61977">
        <ele>70</ele>
        <time>2019-04-26T19:21:28.678Z</time>
      </trkpt>
      <trkpt lat="43.48427" lon="6.61976">
        <ele>71</ele>
        <time>2019-04-26T19:21:29.678Z</time>
      </trkpt>
      <trkpt lat="43.48424" lon="6.61976">
        <ele>71</ele>
        <time>2019-04-26T19:21:30.678Z</time>
      </trkpt>
      <trkpt lat="43.48421" lon="6.61976">
        <ele>71</ele>
        <time>2019-04-26T19:21:31.678Z</time>
      </trkpt>
      <trkpt lat="43.48419" lon="6.61976">
        <ele>71</ele>
        <time>2019-04-26T19:21:32.678Z</time>
      </trkpt>
      <trkpt lat="43.48418" lon="6.61976">
        <ele>72</ele>
        <time>2019-04-26T19:21:33.678Z</time>
      </trkpt>
      <trkpt lat="43.48414" lon="6.61975">
        <ele>72</ele>
        <time>2019-04-26T19:21:34.678Z</time>
      </trkpt>
      <trkpt lat="43.4841" lon="6.61975">
        <ele>72</ele>
        <time>2019-04-26T19:21:35.678Z</time>
      </trkpt>
      <trkpt lat="43.48408" lon="6.61976">
        <ele>72</ele>
        <time>2019-04-26T19:21:36.678Z</time>
      </trkpt>
      <trkpt lat="43.48406" lon="6.61977">
        <ele>72</ele>
        <time>2019-04-26T19:21:37.678Z</time>
      </trkpt>
      <trkpt lat="43.48402" lon="6.61977">
        <ele>72</ele>
        <time>2019-04-26T19:21:38.678Z</time>
      </trkpt>
      <trkpt lat="43.48397" lon="6.61975">
        <ele>72</ele>
        <time>2019-04-26T19:21:39.678Z</time>
      </trkpt>
      <trkpt lat="43.48391" lon="6.61973">
        <ele>72</ele>
        <time>2019-04-26T19:21:40.678Z</time>
      </trkpt>
      <trkpt lat="43.48385" lon="6.61971">
        <ele>72</ele>
        <time>2019-04-26T19:21:41.678Z</time>
      </trkpt>
      <trkpt lat="43.48378" lon="6.61968">
        <ele>72</ele>
        <time>2019-04-26T19:21:42.678Z</time>
      </trkpt>
      <trkpt lat="43.48374" lon="6.61967">
        <ele>72</ele>
        <time>2019-04-26T19:21:43.678Z</time>
      </trkpt>
      <trkpt lat="43.48371" lon="6.61966">
        <ele>72</ele>
        <time>2019-04-26T19:21:44.678Z</time>
      </trkpt>
      <trkpt lat="43.48363" lon="6.61967">
        <ele>72</ele>
        <time>2019-04-26T19:21:45.678Z</time>
      </trkpt>
      <trkpt lat="43.48356" lon="6.61969">
        <ele>72</ele>
        <time>2019-04-26T19:21:46.678Z</time>
      </trkpt>
      <trkpt lat="43.48349" lon="6.61971">
        <ele>72</ele>
        <time>2019-04-26T19:21:47.678Z</time>
      </trkpt>
      <trkpt lat="43.48341" lon="6.61972">
        <ele>72</ele>
        <time>2019-04-26T19:21:48.678Z</time>
      </trkpt>
      <trkpt lat="43.48337" lon="6.61972">
        <ele>72</ele>
        <time>2019-04-26T19:21:49.678Z</time>
      </trkpt>
      <trkpt lat="43.48332" lon="6.61971">
        <ele>72</ele>
        <time>2019-04-26T19:21:50.678Z</time>
      </trkpt>
      <trkpt lat="43.48327" lon="6.6197">
        <ele>72</ele>
        <time>2019-04-26T19:21:51.678Z</time>
      </trkpt>
      <trkpt lat="43.48323" lon="6.61967">
        <ele>72</ele>
        <time>2019-04-26T19:21:52.678Z</time>
      </trkpt>
      <trkpt lat="43.48314" lon="6.61962">
        <ele>71</ele>
        <time>2019-04-26T19:21:53.678Z</time>
      </trkpt>
      <trkpt lat="43.48305" lon="6.61954">
        <ele>71</ele>
        <time>2019-04-26T19:21:54.678Z</time>
      </trkpt>
      <trkpt lat="43.48301" lon="6.61948">
        <ele>71</ele>
        <time>2019-04-26T19:21:55.678Z</time>
      </trkpt>
      <trkpt lat="43.48297" lon="6.61941">
        <ele>71</ele>
        <time>2019-04-26T19:21:56.678Z</time>
      </trkpt>
      <trkpt lat="43.4829" lon="6.6193">
        <ele>71</ele>
        <time>2019-04-26T19:21:57.678Z</time>
      </trkpt>
      <trkpt lat="43.48282" lon="6.61919">
        <ele>71</ele>
        <time>2019-04-26T19:21:58.678Z</time>
      </trkpt>
      <trkpt lat="43.48274" lon="6.61909">
        <ele>71</ele>
        <time>2019-04-26T19:21:59.678Z</time>
      </trkpt>
      <trkpt lat="43.4827" lon="6.61904">
        <ele>71</ele>
        <time>2019-04-26T19:22:00.678Z</time>
      </trkpt>
      <trkpt lat="43.48265" lon="6.619">
        <ele>71</ele>
        <time>2019-04-26T19:22:01.678Z</time>
      </trkpt>
      <trkpt lat="43.4826" lon="6.61897">
        <ele>71</ele>
        <time>2019-04-26T19:22:02.678Z</time>
      </trkpt>
      <trkpt lat="43.48255" lon="6.61893">
        <ele>71</ele>
        <time>2019-04-26T19:22:03.678Z</time>
      </trkpt>
      <trkpt lat="43.4825" lon="6.61889">
        <ele>71</ele>
        <time>2019-04-26T19:22:04.678Z</time>
      </trkpt>
      <trkpt lat="43.48245" lon="6.61887">
        <ele>71</ele>
        <time>2019-04-26T19:22:05.678Z</time>
      </trkpt>
      <trkpt lat="43.48236" lon="6.61891">
        <ele>72</ele>
        <time>2019-04-26T19:22:06.678Z</time>
      </trkpt>
      <trkpt lat="43.4823" lon="6.61898">
        <ele>72</ele>
        <time>2019-04-26T19:22:07.678Z</time>
      </trkpt>
      <trkpt lat="43.48226" lon="6.61905">
        <ele>72</ele>
        <time>2019-04-26T19:22:08.678Z</time>
      </trkpt>
      <trkpt lat="43.48224" lon="6.61913">
        <ele>72</ele>
        <time>2019-04-26T19:22:09.678Z</time>
      </trkpt>
      <trkpt lat="43.48221" lon="6.6192">
        <ele>72</ele>
        <time>2019-04-26T19:22:10.678Z</time>
      </trkpt>
      <trkpt lat="43.48219" lon="6.61923">
        <ele>72</ele>
        <time>2019-04-26T19:22:11.678Z</time>
      </trkpt>
      <trkpt lat="43.48216" lon="6.61926">
        <ele>72</ele>
        <time>2019-04-26T19:22:12.678Z</time>
      </trkpt>
      <trkpt lat="43.48211" lon="6.61929">
        <ele>72</ele>
        <time>2019-04-26T19:22:13.678Z</time>
      </trkpt>
      <trkpt lat="43.48206" lon="6.61931">
        <ele>73</ele>
        <time>2019-04-26T19:22:14.678Z</time>
      </trkpt>
      <trkpt lat="43.482" lon="6.61935">
        <ele>73</ele>
        <time>2019-04-26T19:22:15.678Z</time>
      </trkpt>
      <trkpt lat="43.48197" lon="6.61938">
        <ele>73</ele>
        <time>2019-04-26T19:22:16.678Z</time>
      </trkpt>
      <trkpt lat="43.48195" lon="6.61941">
        <ele>73</ele>
        <time>2019-04-26T19:22:17.678Z</time>
      </trkpt>
      <trkpt lat="43.48191" lon="6.61947">
        <ele>73</ele>
        <time>2019-04-26T19:22:18.678Z</time>
      </trkpt>
      <trkpt lat="43.48187" lon="6.61955">
        <ele>73</ele>
        <time>2019-04-26T19:22:19.678Z</time>
      </trkpt>
      <trkpt lat="43.48184" lon="6.61963">
        <ele>73</ele>
        <time>2019-04-26T19:22:20.678Z</time>
      </trkpt>
      <trkpt lat="43.48182" lon="6.61966">
        <ele>73</ele>
        <time>2019-04-26T19:22:21.678Z</time>
      </trkpt>
      <trkpt lat="43.48179" lon="6.6197">
        <ele>73</ele>
        <time>2019-04-26T19:22:22.678Z</time>
      </trkpt>
      <trkpt lat="43.48177" lon="6.61973">
        <ele>73</ele>
        <time>2019-04-26T19:22:23.678Z</time>
      </trkpt>
      <trkpt lat="43.48174" lon="6.61977">
        <ele>73</ele>
        <time>2019-04-26T19:22:24.678Z</time>
      </trkpt>
      <trkpt lat="43.48169" lon="6.61982">
        <ele>73</ele>
        <time>2019-04-26T19:22:25.678Z</time>
      </trkpt>
      <trkpt lat="43.48163" lon="6.61987">
        <ele>73</ele>
        <time>2019-04-26T19:22:26.678Z</time>
      </trkpt>
      <trkpt lat="43.48161" lon="6.6199">
        <ele>73</ele>
        <time>2019-04-26T19:22:27.678Z</time>
      </trkpt>
      <trkpt lat="43.48158" lon="6.61993">
        <ele>73</ele>
        <time>2019-04-26T19:22:28.678Z</time>
      </trkpt>
      <trkpt lat="43.48154" lon="6.61999">
        <ele>73</ele>
        <time>2019-04-26T19:22:29.678Z</time>
      </trkpt>
      <trkpt lat="43.48152" lon="6.62007">
        <ele>73</ele>
        <time>2019-04-26T19:22:30.678Z</time>
      </trkpt>
      <trkpt lat="43.48151" lon="6.6201">
        <ele>73</ele>
        <time>2019-04-26T19:22:31.678Z</time>
      </trkpt>
      <trkpt lat="43.4815" lon="6.62014">
        <ele>73</ele>
        <time>2019-04-26T19:22:32.678Z</time>
      </trkpt>
      <trkpt lat="43.48147" lon="6.62018">
        <ele>73</ele>
        <time>2019-04-26T19:22:33.678Z</time>
      </trkpt>
      <trkpt lat="43.48142" lon="6.6202">
        <ele>74</ele>
        <time>2019-04-26T19:22:34.678Z</time>
      </trkpt>
      <trkpt lat="43.48138" lon="6.62025">
        <ele>74</ele>
        <time>2019-04-26T19:22:35.678Z</time>
      </trkpt>
      <trkpt lat="43.48133" lon="6.62029">
        <ele>74</ele>
        <time>2019-04-26T19:22:36.678Z</time>
      </trkpt>
      <trkpt lat="43.4813" lon="6.62031">
        <ele>75</ele>
        <time>2019-04-26T19:22:37.678Z</time>
      </trkpt>
      <trkpt lat="43.48127" lon="6.62036">
        <ele>75</ele>
        <time>2019-04-26T19:22:38.678Z</time>
      </trkpt>
      <trkpt lat="43.48126" lon="6.62039">
        <ele>75</ele>
        <time>2019-04-26T19:22:39.678Z</time>
      </trkpt>
      <trkpt lat="43.48125" lon="6.62041">
        <ele>75</ele>
        <time>2019-04-26T19:22:40.678Z</time>
      </trkpt>
      <trkpt lat="43.48121" lon="6.62045">
        <ele>75</ele>
        <time>2019-04-26T19:22:41.678Z</time>
      </trkpt>
      <trkpt lat="43.48119" lon="6.62051">
        <ele>76</ele>
        <time>2019-04-26T19:22:42.678Z</time>
      </trkpt>
      <trkpt lat="43.48118" lon="6.62056">
        <ele>76</ele>
        <time>2019-04-26T19:22:43.678Z</time>
      </trkpt>
      <trkpt lat="43.48116" lon="6.6206">
        <ele>76</ele>
        <time>2019-04-26T19:22:44.678Z</time>
      </trkpt>
      <trkpt lat="43.48115" lon="6.62062">
        <ele>76</ele>
        <time>2019-04-26T19:22:45.678Z</time>
      </trkpt>
      <trkpt lat="43.48114" lon="6.62065">
        <ele>76</ele>
        <time>2019-04-26T19:22:46.678Z</time>
      </trkpt>
      <trkpt lat="43.48113" lon="6.62068">
        <ele>76</ele>
        <time>2019-04-26T19:22:47.678Z</time>
      </trkpt>
      <trkpt lat="43.48111" lon="6.6207">
        <ele>76</ele>
        <time>2019-04-26T19:22:48.678Z</time>
      </trkpt>
      <trkpt lat="43.4811" lon="6.62072">
        <ele>76</ele>
        <time>2019-04-26T19:22:49.678Z</time>
      </trkpt>
      <trkpt lat="43.48109" lon="6.62074">
        <ele>76</ele>
        <time>2019-04-26T19:22:50.678Z</time>
      </trkpt>
      <trkpt lat="43.48108" lon="6.62077">
        <ele>77</ele>
        <time>2019-04-26T19:22:51.678Z</time>
      </trkpt>
      <trkpt lat="43.48106" lon="6.6208">
        <ele>77</ele>
        <time>2019-04-26T19:22:52.678Z</time>
      </trkpt>
      <trkpt lat="43.48104" lon="6.62083">
        <ele>77</ele>
        <time>2019-04-26T19:22:53.678Z</time>
      </trkpt>
      <trkpt lat="43.48103" lon="6.62084">
        <ele>77</ele>
        <time>2019-04-26T19:22:54.678Z</time>
      </trkpt>
      <trkpt lat="43.48102" lon="6.62086">
        <ele>77</ele>
        <time>2019-04-26T19:22:55.678Z</time>
      </trkpt>
      <trkpt lat="43.48099" lon="6.62089">
        <ele>78</ele>
        <time>2019-04-26T19:22:56.678Z</time>
      </trkpt>
      <trkpt lat="43.48096" lon="6.62093">
        <ele>78</ele>
        <time>2019-04-26T19:22:57.678Z</time>
      </trkpt>
      <trkpt lat="43.48092" lon="6.62095">
        <ele>79</ele>
        <time>2019-04-26T19:22:58.678Z</time>
      </trkpt>
      <trkpt lat="43.4809" lon="6.62096">
        <ele>79</ele>
        <time>2019-04-26T19:22:59.678Z</time>
      </trkpt>
      <trkpt lat="43.48089" lon="6.62097">
        <ele>79</ele>
        <time>2019-04-26T19:23:00.678Z</time>
      </trkpt>
      <trkpt lat="43.48085" lon="6.62098">
        <ele>80</ele>
        <time>2019-04-26T19:23:01.678Z</time>
      </trkpt>
      <trkpt lat="43.48081" lon="6.62099">
        <ele>80</ele>
        <time>2019-04-26T19:23:02.678Z</time>
      </trkpt>
      <trkpt lat="43.48077" lon="6.62099">
        <ele>80</ele>
        <time>2019-04-26T19:23:03.678Z</time>
      </trkpt>
      <trkpt lat="43.48074" lon="6.621">
        <ele>80</ele>
        <time>2019-04-26T19:23:04.678Z</time>
      </trkpt>
      <trkpt lat="43.48071" lon="6.62101">
        <ele>80</ele>
        <time>2019-04-26T19:23:05.678Z</time>
      </trkpt>
      <trkpt lat="43.48067" lon="6.62102">
        <ele>80</ele>
        <time>2019-04-26T19:23:06.678Z</time>
      </trkpt>
      <trkpt lat="43.48063" lon="6.62104">
        <ele>80</ele>
        <time>2019-04-26T19:23:07.678Z</time>
      </trkpt>
      <trkpt lat="43.48061" lon="6.62105">
        <ele>80</ele>
        <time>2019-04-26T19:23:08.678Z</time>
      </trkpt>
      <trkpt lat="43.48059" lon="6.62106">
        <ele>81</ele>
        <time>2019-04-26T19:23:09.678Z</time>
      </trkpt>
      <trkpt lat="43.48055" lon="6.62107">
        <ele>81</ele>
        <time>2019-04-26T19:23:10.678Z</time>
      </trkpt>
      <trkpt lat="43.4805" lon="6.62108">
        <ele>81</ele>
        <time>2019-04-26T19:23:11.678Z</time>
      </trkpt>
      <trkpt lat="43.48048" lon="6.62109">
        <ele>81</ele>
        <time>2019-04-26T19:23:12.678Z</time>
      </trkpt>
      <trkpt lat="43.48046" lon="6.62109">
        <ele>81</ele>
        <time>2019-04-26T19:23:13.678Z</time>
      </trkpt>
      <trkpt lat="43.48041" lon="6.6211">
        <ele>81</ele>
        <time>2019-04-26T19:23:14.678Z</time>
      </trkpt>
      <trkpt lat="43.48035" lon="6.62113">
        <ele>81</ele>
        <time>2019-04-26T19:23:15.678Z</time>
      </trkpt>
      <trkpt lat="43.48029" lon="6.62115">
        <ele>81</ele>
        <time>2019-04-26T19:23:16.678Z</time>
      </trkpt>
      <trkpt lat="43.48026" lon="6.62116">
        <ele>81</ele>
        <time>2019-04-26T19:23:17.678Z</time>
      </trkpt>
      <trkpt lat="43.48023" lon="6.62115">
        <ele>82</ele>
        <time>2019-04-26T19:23:18.678Z</time>
      </trkpt>
      <trkpt lat="43.48016" lon="6.62113">
        <ele>82</ele>
        <time>2019-04-26T19:23:19.678Z</time>
      </trkpt>
      <trkpt lat="43.48013" lon="6.62114">
        <ele>82</ele>
        <time>2019-04-26T19:23:20.678Z</time>
      </trkpt>
      <trkpt lat="43.48009" lon="6.62115">
        <ele>82</ele>
        <time>2019-04-26T19:23:21.678Z</time>
      </trkpt>
      <trkpt lat="43.48001" lon="6.62116">
        <ele>82</ele>
        <time>2019-04-26T19:23:22.678Z</time>
      </trkpt>
      <trkpt lat="43.47993" lon="6.62113">
        <ele>82</ele>
        <time>2019-04-26T19:23:23.678Z</time>
      </trkpt>
      <trkpt lat="43.47984" lon="6.6211">
        <ele>81</ele>
        <time>2019-04-26T19:23:24.678Z</time>
      </trkpt>
      <trkpt lat="43.47974" lon="6.62107">
        <ele>80</ele>
        <time>2019-04-26T19:23:25.678Z</time>
      </trkpt>
      <trkpt lat="43.47968" lon="6.62107">
        <ele>80</ele>
        <time>2019-04-26T19:23:26.678Z</time>
      </trkpt>
      <trkpt lat="43.47962" lon="6.62105">
        <ele>80</ele>
        <time>2019-04-26T19:23:27.678Z</time>
      </trkpt>
      <trkpt lat="43.47951" lon="6.62098">
        <ele>79</ele>
        <time>2019-04-26T19:23:28.678Z</time>
      </trkpt>
      <trkpt lat="43.47945" lon="6.62094">
        <ele>78</ele>
        <time>2019-04-26T19:23:29.678Z</time>
      </trkpt>
      <trkpt lat="43.4794" lon="6.62092">
        <ele>78</ele>
        <time>2019-04-26T19:23:30.678Z</time>
      </trkpt>
      <trkpt lat="43.47927" lon="6.6209">
        <ele>77</ele>
        <time>2019-04-26T19:23:31.678Z</time>
      </trkpt>
      <trkpt lat="43.47921" lon="6.62088">
        <ele>76</ele>
        <time>2019-04-26T19:23:32.678Z</time>
      </trkpt>
      <trkpt lat="43.47915" lon="6.62085">
        <ele>76</ele>
        <time>2019-04-26T19:23:33.678Z</time>
      </trkpt>
      <trkpt lat="43.47909" lon="6.62081">
        <ele>75</ele>
        <time>2019-04-26T19:23:34.678Z</time>
      </trkpt>
      <trkpt lat="43.47902" lon="6.62077">
        <ele>75</ele>
        <time>2019-04-26T19:23:35.678Z</time>
      </trkpt>
      <trkpt lat="43.47895" lon="6.62075">
        <ele>74</ele>
        <time>2019-04-26T19:23:36.678Z</time>
      </trkpt>
      <trkpt lat="43.47888" lon="6.62073">
        <ele>74</ele>
        <time>2019-04-26T19:23:37.678Z</time>
      </trkpt>
      <trkpt lat="43.47874" lon="6.62067">
        <ele>73</ele>
        <time>2019-04-26T19:23:38.678Z</time>
      </trkpt>
      <trkpt lat="43.47866" lon="6.62064">
        <ele>72</ele>
        <time>2019-04-26T19:23:39.678Z</time>
      </trkpt>
      <trkpt lat="43.47858" lon="6.62061">
        <ele>72</ele>
        <time>2019-04-26T19:23:40.678Z</time>
      </trkpt>
      <trkpt lat="43.47851" lon="6.62057">
        <ele>72</ele>
        <time>2019-04-26T19:23:41.678Z</time>
      </trkpt>
      <trkpt lat="43.47844" lon="6.62054">
        <ele>71</ele>
        <time>2019-04-26T19:23:42.678Z</time>
      </trkpt>
      <trkpt lat="43.47836" lon="6.62053">
        <ele>71</ele>
        <time>2019-04-26T19:23:43.678Z</time>
      </trkpt>
      <trkpt lat="43.4783" lon="6.62053">
        <ele>70</ele>
        <time>2019-04-26T19:23:44.678Z</time>
      </trkpt>
      <trkpt lat="43.47821" lon="6.62056">
        <ele>70</ele>
        <time>2019-04-26T19:23:45.678Z</time>
      </trkpt>
      <trkpt lat="43.47817" lon="6.62056">
        <ele>70</ele>
        <time>2019-04-26T19:23:46.678Z</time>
      </trkpt>
      <trkpt lat="43.47813" lon="6.62057">
        <ele>70</ele>
        <time>2019-04-26T19:23:47.678Z</time>
      </trkpt>
      <trkpt lat="43.47807" lon="6.62057">
        <ele>70</ele>
        <time>2019-04-26T19:23:48.678Z</time>
      </trkpt>
      <trkpt lat="43.47805" lon="6.62057">
        <ele>71</ele>
        <time>2019-04-26T19:23:49.678Z</time>
      </trkpt>
      <trkpt lat="43.47802" lon="6.62058">
        <ele>71</ele>
        <time>2019-04-26T19:23:50.678Z</time>
      </trkpt>
      <trkpt lat="43.47797" lon="6.6206">
        <ele>71</ele>
        <time>2019-04-26T19:23:51.678Z</time>
      </trkpt>
      <trkpt lat="43.47792" lon="6.6206">
        <ele>71</ele>
        <time>2019-04-26T19:23:52.678Z</time>
      </trkpt>
      <trkpt lat="43.47786" lon="6.62058">
        <ele>71</ele>
        <time>2019-04-26T19:23:53.678Z</time>
      </trkpt>
      <trkpt lat="43.47782" lon="6.62058">
        <ele>71</ele>
        <time>2019-04-26T19:23:54.678Z</time>
      </trkpt>
      <trkpt lat="43.47778" lon="6.62058">
        <ele>71</ele>
        <time>2019-04-26T19:23:55.678Z</time>
      </trkpt>
      <trkpt lat="43.47771" lon="6.62058">
        <ele>71</ele>
        <time>2019-04-26T19:23:56.678Z</time>
      </trkpt>
      <trkpt lat="43.47768" lon="6.62057">
        <ele>71</ele>
        <time>2019-04-26T19:23:57.678Z</time>
      </trkpt>
      <trkpt lat="43.47766" lon="6.62056">
        <ele>71</ele>
        <time>2019-04-26T19:23:58.678Z</time>
      </trkpt>
      <trkpt lat="43.47763" lon="6.62055">
        <ele>71</ele>
        <time>2019-04-26T19:23:59.678Z</time>
      </trkpt>
      <trkpt lat="43.4776" lon="6.62055">
        <ele>71</ele>
        <time>2019-04-26T19:24:00.678Z</time>
      </trkpt>
      <trkpt lat="43.47756" lon="6.62054">
        <ele>71</ele>
        <time>2019-04-26T19:24:01.678Z</time>
      </trkpt>
      <trkpt lat="43.47746" lon="6.62051">
        <ele>71</ele>
        <time>2019-04-26T19:24:02.678Z</time>
      </trkpt>
      <trkpt lat="43.47741" lon="6.62048">
        <ele>70</ele>
        <time>2019-04-26T19:24:03.678Z</time>
      </trkpt>
      <trkpt lat="43.47736" lon="6.62044">
        <ele>70</ele>
        <time>2019-04-26T19:24:04.678Z</time>
      </trkpt>
      <trkpt lat="43.47727" lon="6.62035">
        <ele>69</ele>
        <time>2019-04-26T19:24:05.678Z</time>
      </trkpt>
      <trkpt lat="43.47718" lon="6.62026">
        <ele>69</ele>
        <time>2019-04-26T19:24:06.678Z</time>
      </trkpt>
      <trkpt lat="43.47709" lon="6.62016">
        <ele>68</ele>
        <time>2019-04-26T19:24:07.678Z</time>
      </trkpt>
      <trkpt lat="43.47704" lon="6.6201">
        <ele>68</ele>
        <time>2019-04-26T19:24:08.678Z</time>
      </trkpt>
      <trkpt lat="43.47698" lon="6.62004">
        <ele>68</ele>
        <time>2019-04-26T19:24:09.678Z</time>
      </trkpt>
      <trkpt lat="43.47693" lon="6.61997">
        <ele>68</ele>
        <time>2019-04-26T19:24:10.678Z</time>
      </trkpt>
      <trkpt lat="43.47688" lon="6.61991">
        <ele>68</ele>
        <time>2019-04-26T19:24:11.678Z</time>
      </trkpt>
      <trkpt lat="43.4768" lon="6.61978">
        <ele>67</ele>
        <time>2019-04-26T19:24:12.678Z</time>
      </trkpt>
      <trkpt lat="43.47673" lon="6.61963">
        <ele>68</ele>
        <time>2019-04-26T19:24:13.678Z</time>
      </trkpt>
      <trkpt lat="43.47668" lon="6.61957">
        <ele>68</ele>
        <time>2019-04-26T19:24:14.678Z</time>
      </trkpt>
      <trkpt lat="43.47663" lon="6.61954">
        <ele>68</ele>
        <time>2019-04-26T19:24:15.678Z</time>
      </trkpt>
      <trkpt lat="43.47658" lon="6.61953">
        <ele>68</ele>
        <time>2019-04-26T19:24:16.678Z</time>
      </trkpt>
      <trkpt lat="43.47653" lon="6.61956">
        <ele>68</ele>
        <time>2019-04-26T19:24:17.678Z</time>
      </trkpt>
      <trkpt lat="43.47645" lon="6.61963">
        <ele>68</ele>
        <time>2019-04-26T19:24:18.678Z</time>
      </trkpt>
      <trkpt lat="43.47639" lon="6.61968">
        <ele>67</ele>
        <time>2019-04-26T19:24:19.678Z</time>
      </trkpt>
      <trkpt lat="43.47631" lon="6.61971">
        <ele>67</ele>
        <time>2019-04-26T19:24:20.678Z</time>
      </trkpt>
      <trkpt lat="43.47627" lon="6.61971">
        <ele>68</ele>
        <time>2019-04-26T19:24:21.678Z</time>
      </trkpt>
      <trkpt lat="43.47623" lon="6.61972">
        <ele>68</ele>
        <time>2019-04-26T19:24:22.678Z</time>
      </trkpt>
      <trkpt lat="43.47619" lon="6.61971">
        <ele>68</ele>
        <time>2019-04-26T19:24:23.678Z</time>
      </trkpt>
      <trkpt lat="43.47615" lon="6.61971">
        <ele>68</ele>
        <time>2019-04-26T19:24:24.678Z</time>
      </trkpt>
      <trkpt lat="43.47607" lon="6.61969">
        <ele>68</ele>
        <time>2019-04-26T19:24:25.678Z</time>
      </trkpt>
      <trkpt lat="43.47604" lon="6.6197">
        <ele>68</ele>
        <time>2019-04-26T19:24:26.678Z</time>
      </trkpt>
      <trkpt lat="43.47601" lon="6.6197">
        <ele>68</ele>
        <time>2019-04-26T19:24:27.678Z</time>
      </trkpt>
      <trkpt lat="43.47594" lon="6.6197">
        <ele>68</ele>
        <time>2019-04-26T19:24:28.678Z</time>
      </trkpt>
      <trkpt lat="43.47588" lon="6.61967">
        <ele>68</ele>
        <time>2019-04-26T19:24:29.678Z</time>
      </trkpt>
      <trkpt lat="43.47584" lon="6.61966">
        <ele>68</ele>
        <time>2019-04-26T19:24:30.678Z</time>
      </trkpt>
      <trkpt lat="43.4758" lon="6.61965">
        <ele>68</ele>
        <time>2019-04-26T19:24:31.678Z</time>
      </trkpt>
      <trkpt lat="43.47571" lon="6.61962">
        <ele>69</ele>
        <time>2019-04-26T19:24:32.678Z</time>
      </trkpt>
      <trkpt lat="43.4756" lon="6.6196">
        <ele>69</ele>
        <time>2019-04-26T19:24:33.678Z</time>
      </trkpt>
      <trkpt lat="43.47554" lon="6.6196">
        <ele>69</ele>
        <time>2019-04-26T19:24:34.678Z</time>
      </trkpt>
      <trkpt lat="43.47549" lon="6.6196">
        <ele>69</ele>
        <time>2019-04-26T19:24:35.678Z</time>
      </trkpt>
      <trkpt lat="43.47544" lon="6.61959">
        <ele>69</ele>
        <time>2019-04-26T19:24:36.678Z</time>
      </trkpt>
      <trkpt lat="43.4754" lon="6.61958">
        <ele>70</ele>
        <time>2019-04-26T19:24:37.678Z</time>
      </trkpt>
      <trkpt lat="43.47532" lon="6.61957">
        <ele>70</ele>
        <time>2019-04-26T19:24:38.678Z</time>
      </trkpt>
      <trkpt lat="43.47527" lon="6.61957">
        <ele>70</ele>
        <time>2019-04-26T19:24:39.678Z</time>
      </trkpt>
      <trkpt lat="43.47523" lon="6.61955">
        <ele>70</ele>
        <time>2019-04-26T19:24:40.678Z</time>
      </trkpt>
      <trkpt lat="43.47521" lon="6.61954">
        <ele>70</ele>
        <time>2019-04-26T19:24:41.678Z</time>
      </trkpt>
      <trkpt lat="43.47519" lon="6.61953">
        <ele>70</ele>
        <time>2019-04-26T19:24:42.678Z</time>
      </trkpt>
      <trkpt lat="43.47515" lon="6.61951">
        <ele>70</ele>
        <time>2019-04-26T19:24:43.678Z</time>
      </trkpt>
      <trkpt lat="43.4751" lon="6.61949">
        <ele>70</ele>
        <time>2019-04-26T19:24:44.678Z</time>
      </trkpt>
      <trkpt lat="43.47507" lon="6.61948">
        <ele>70</ele>
        <time>2019-04-26T19:24:45.678Z</time>
      </trkpt>
      <trkpt lat="43.47504" lon="6.61947">
        <ele>70</ele>
        <time>2019-04-26T19:24:46.678Z</time>
      </trkpt>
      <trkpt lat="43.47499" lon="6.61944">
        <ele>70</ele>
        <time>2019-04-26T19:24:47.678Z</time>
      </trkpt>
      <trkpt lat="43.47494" lon="6.61942">
        <ele>70</ele>
        <time>2019-04-26T19:24:48.678Z</time>
      </trkpt>
      <trkpt lat="43.47489" lon="6.6194">
        <ele>70</ele>
        <time>2019-04-26T19:24:49.678Z</time>
      </trkpt>
      <trkpt lat="43.47483" lon="6.61938">
        <ele>70</ele>
        <time>2019-04-26T19:24:50.678Z</time>
      </trkpt>
      <trkpt lat="43.47478" lon="6.61935">
        <ele>69</ele>
        <time>2019-04-26T19:24:51.678Z</time>
      </trkpt>
      <trkpt lat="43.47471" lon="6.61934">
        <ele>69</ele>
        <time>2019-04-26T19:24:52.678Z</time>
      </trkpt>
      <trkpt lat="43.47467" lon="6.61933">
        <ele>69</ele>
        <time>2019-04-26T19:24:53.678Z</time>
      </trkpt>
      <trkpt lat="43.47463" lon="6.6193">
        <ele>69</ele>
        <time>2019-04-26T19:24:54.678Z</time>
      </trkpt>
      <trkpt lat="43.47455" lon="6.61926">
        <ele>68</ele>
        <time>2019-04-26T19:24:55.678Z</time>
      </trkpt>
      <trkpt lat="43.4745" lon="6.61923">
        <ele>68</ele>
        <time>2019-04-26T19:24:56.678Z</time>
      </trkpt>
      <trkpt lat="43.47446" lon="6.61921">
        <ele>68</ele>
        <time>2019-04-26T19:24:57.678Z</time>
      </trkpt>
      <trkpt lat="43.47436" lon="6.61917">
        <ele>68</ele>
        <time>2019-04-26T19:24:58.678Z</time>
      </trkpt>
      <trkpt lat="43.47425" lon="6.61913">
        <ele>67</ele>
        <time>2019-04-26T19:24:59.678Z</time>
      </trkpt>
      <trkpt lat="43.47413" lon="6.6191">
        <ele>67</ele>
        <time>2019-04-26T19:25:00.678Z</time>
      </trkpt>
      <trkpt lat="43.474" lon="6.61903">
        <ele>66</ele>
        <time>2019-04-26T19:25:01.678Z</time>
      </trkpt>
      <trkpt lat="43.47387" lon="6.61895">
        <ele>65</ele>
        <time>2019-04-26T19:25:02.678Z</time>
      </trkpt>
      <trkpt lat="43.4738" lon="6.61892">
        <ele>65</ele>
        <time>2019-04-26T19:25:03.678Z</time>
      </trkpt>
      <trkpt lat="43.47372" lon="6.6189">
        <ele>64</ele>
        <time>2019-04-26T19:25:04.678Z</time>
      </trkpt>
      <trkpt lat="43.47365" lon="6.61887">
        <ele>64</ele>
        <time>2019-04-26T19:25:05.678Z</time>
      </trkpt>
      <trkpt lat="43.47357" lon="6.61883">
        <ele>63</ele>
        <time>2019-04-26T19:25:06.678Z</time>
      </trkpt>
      <trkpt lat="43.47351" lon="6.61878">
        <ele>63</ele>
        <time>2019-04-26T19:25:07.678Z</time>
      </trkpt>
      <trkpt lat="43.47345" lon="6.61874">
        <ele>63</ele>
        <time>2019-04-26T19:25:08.678Z</time>
      </trkpt>
      <trkpt lat="43.47339" lon="6.6187">
        <ele>62</ele>
        <time>2019-04-26T19:25:09.678Z</time>
      </trkpt>
      <trkpt lat="43.47335" lon="6.61866">
        <ele>62</ele>
        <time>2019-04-26T19:25:10.678Z</time>
      </trkpt>
      <trkpt lat="43.47332" lon="6.61865">
        <ele>62</ele>
        <time>2019-04-26T19:25:11.678Z</time>
      </trkpt>
      <trkpt lat="43.4733" lon="6.61866">
        <ele>62</ele>
        <time>2019-04-26T19:25:12.678Z</time>
      </trkpt>
      <trkpt lat="43.47326" lon="6.61874">
        <ele>62</ele>
        <time>2019-04-26T19:25:13.678Z</time>
      </trkpt>
      <trkpt lat="43.47325" lon="6.61884">
        <ele>62</ele>
        <time>2019-04-26T19:25:14.678Z</time>
      </trkpt>
      <trkpt lat="43.47324" lon="6.6189">
        <ele>61</ele>
        <time>2019-04-26T19:25:15.678Z</time>
      </trkpt>
      <trkpt lat="43.47323" lon="6.61895">
        <ele>61</ele>
        <time>2019-04-26T19:25:16.678Z</time>
      </trkpt>
      <trkpt lat="43.47321" lon="6.61906">
        <ele>61</ele>
        <time>2019-04-26T19:25:17.678Z</time>
      </trkpt>
      <trkpt lat="43.47321" lon="6.61912">
        <ele>61</ele>
        <time>2019-04-26T19:25:18.678Z</time>
      </trkpt>
      <trkpt lat="43.4732" lon="6.61917">
        <ele>61</ele>
        <time>2019-04-26T19:25:19.678Z</time>
      </trkpt>
      <trkpt lat="43.47318" lon="6.61928">
        <ele>61</ele>
        <time>2019-04-26T19:25:20.678Z</time>
      </trkpt>
      <trkpt lat="43.47315" lon="6.61938">
        <ele>61</ele>
        <time>2019-04-26T19:25:21.678Z</time>
      </trkpt>
      <trkpt lat="43.47312" lon="6.61948">
        <ele>61</ele>
        <time>2019-04-26T19:25:22.678Z</time>
      </trkpt>
      <trkpt lat="43.47312" lon="6.61954">
        <ele>61</ele>
        <time>2019-04-26T19:25:23.678Z</time>
      </trkpt>
      <trkpt lat="43.47311" lon="6.6196">
        <ele>61</ele>
        <time>2019-04-26T19:25:24.678Z</time>
      </trkpt>
      <trkpt lat="43.47309" lon="6.61971">
        <ele>61</ele>
        <time>2019-04-26T19:25:25.678Z</time>
      </trkpt>
      <trkpt lat="43.47307" lon="6.61982">
        <ele>61</ele>
        <time>2019-04-26T19:25:26.678Z</time>
      </trkpt>
      <trkpt lat="43.47302" lon="6.61991">
        <ele>61</ele>
        <time>2019-04-26T19:25:27.678Z</time>
      </trkpt>
      <trkpt lat="43.47299" lon="6.62002">
        <ele>61</ele>
        <time>2019-04-26T19:25:28.678Z</time>
      </trkpt>
      <trkpt lat="43.47294" lon="6.62013">
        <ele>61</ele>
        <time>2019-04-26T19:25:29.678Z</time>
      </trkpt>
      <trkpt lat="43.47292" lon="6.62018">
        <ele>61</ele>
        <time>2019-04-26T19:25:30.678Z</time>
      </trkpt>
      <trkpt lat="43.47291" lon="6.62023">
        <ele>61</ele>
        <time>2019-04-26T19:25:31.678Z</time>
      </trkpt>
      <trkpt lat="43.47288" lon="6.62034">
        <ele>61</ele>
        <time>2019-04-26T19:25:32.678Z</time>
      </trkpt>
      <trkpt lat="43.47284" lon="6.62045">
        <ele>61</ele>
        <time>2019-04-26T19:25:33.678Z</time>
      </trkpt>
      <trkpt lat="43.47281" lon="6.62056">
        <ele>61</ele>
        <time>2019-04-26T19:25:34.678Z</time>
      </trkpt>
      <trkpt lat="43.47278" lon="6.62067">
        <ele>61</ele>
        <time>2019-04-26T19:25:35.678Z</time>
      </trkpt>
      <trkpt lat="43.47275" lon="6.62079">
        <ele>61</ele>
        <time>2019-04-26T19:25:36.678Z</time>
      </trkpt>
      <trkpt lat="43.47274" lon="6.62085">
        <ele>62</ele>
        <time>2019-04-26T19:25:37.678Z</time>
      </trkpt>
      <trkpt lat="43.47273" lon="6.6209">
        <ele>62</ele>
        <time>2019-04-26T19:25:38.678Z</time>
      </trkpt>
      <trkpt lat="43.4727" lon="6.62101">
        <ele>62</ele>
        <time>2019-04-26T19:25:39.678Z</time>
      </trkpt>
      <trkpt lat="43.47267" lon="6.62111">
        <ele>62</ele>
        <time>2019-04-26T19:25:40.678Z</time>
      </trkpt>
      <trkpt lat="43.47265" lon="6.62117">
        <ele>62</ele>
        <time>2019-04-26T19:25:41.678Z</time>
      </trkpt>
      <trkpt lat="43.47264" lon="6.62122">
        <ele>62</ele>
        <time>2019-04-26T19:25:42.678Z</time>
      </trkpt>
      <trkpt lat="43.4726" lon="6.62134">
        <ele>62</ele>
        <time>2019-04-26T19:25:43.678Z</time>
      </trkpt>
      <trkpt lat="43.47256" lon="6.62145">
        <ele>62</ele>
        <time>2019-04-26T19:25:44.678Z</time>
      </trkpt>
      <trkpt lat="43.47253" lon="6.62157">
        <ele>62</ele>
        <time>2019-04-26T19:25:45.678Z</time>
      </trkpt>
      <trkpt lat="43.4725" lon="6.62169">
        <ele>62</ele>
        <time>2019-04-26T19:25:46.678Z</time>
      </trkpt>
      <trkpt lat="43.47247" lon="6.6218">
        <ele>62</ele>
        <time>2019-04-26T19:25:47.678Z</time>
      </trkpt>
      <trkpt lat="43.47244" lon="6.6219">
        <ele>62</ele>
        <time>2019-04-26T19:25:48.678Z</time>
      </trkpt>
      <trkpt lat="43.47241" lon="6.62192">
        <ele>61</ele>
        <time>2019-04-26T19:25:49.678Z</time>
      </trkpt>
      <trkpt lat="43.47238" lon="6.62191">
        <ele>61</ele>
        <time>2019-04-26T19:25:50.678Z</time>
      </trkpt>
      <trkpt lat="43.47234" lon="6.62183">
        <ele>61</ele>
        <time>2019-04-26T19:25:51.678Z</time>
      </trkpt>
      <trkpt lat="43.47232" lon="6.62172">
        <ele>61</ele>
        <time>2019-04-26T19:25:52.678Z</time>
      </trkpt>
      <trkpt lat="43.47231" lon="6.62166">
        <ele>61</ele>
        <time>2019-04-26T19:25:53.678Z</time>
      </trkpt>
      <trkpt lat="43.4723" lon="6.6216">
        <ele>60</ele>
        <time>2019-04-26T19:25:54.678Z</time>
      </trkpt>
      <trkpt lat="43.47228" lon="6.62148">
        <ele>60</ele>
        <time>2019-04-26T19:25:55.678Z</time>
      </trkpt>
      <trkpt lat="43.47225" lon="6.62136">
        <ele>60</ele>
        <time>2019-04-26T19:25:56.678Z</time>
      </trkpt>
      <trkpt lat="43.47223" lon="6.62123">
        <ele>59</ele>
        <time>2019-04-26T19:25:57.678Z</time>
      </trkpt>
      <trkpt lat="43.47222" lon="6.62117">
        <ele>59</ele>
        <time>2019-04-26T19:25:58.678Z</time>
      </trkpt>
      <trkpt lat="43.4722" lon="6.62112">
        <ele>59</ele>
        <time>2019-04-26T19:25:59.678Z</time>
      </trkpt>
      <trkpt lat="43.47216" lon="6.621">
        <ele>58</ele>
        <time>2019-04-26T19:26:00.678Z</time>
      </trkpt>
      <trkpt lat="43.47214" lon="6.62094">
        <ele>58</ele>
        <time>2019-04-26T19:26:01.678Z</time>
      </trkpt>
      <trkpt lat="43.47211" lon="6.62087">
        <ele>58</ele>
        <time>2019-04-26T19:26:02.678Z</time>
      </trkpt>
      <trkpt lat="43.47209" lon="6.62081">
        <ele>57</ele>
        <time>2019-04-26T19:26:03.678Z</time>
      </trkpt>
      <trkpt lat="43.47207" lon="6.62074">
        <ele>57</ele>
        <time>2019-04-26T19:26:04.678Z</time>
      </trkpt>
      <trkpt lat="43.47203" lon="6.6206">
        <ele>57</ele>
        <time>2019-04-26T19:26:05.678Z</time>
      </trkpt>
      <trkpt lat="43.47202" lon="6.62053">
        <ele>56</ele>
        <time>2019-04-26T19:26:06.678Z</time>
      </trkpt>
      <trkpt lat="43.47201" lon="6.62045">
        <ele>56</ele>
        <time>2019-04-26T19:26:07.678Z</time>
      </trkpt>
      <trkpt lat="43.47199" lon="6.62029">
        <ele>56</ele>
        <time>2019-04-26T19:26:08.678Z</time>
      </trkpt>
      <trkpt lat="43.47197" lon="6.62022">
        <ele>55</ele>
        <time>2019-04-26T19:26:09.678Z</time>
      </trkpt>
      <trkpt lat="43.47195" lon="6.62014">
        <ele>55</ele>
        <time>2019-04-26T19:26:10.678Z</time>
      </trkpt>
      <trkpt lat="43.4719" lon="6.61998">
        <ele>54</ele>
        <time>2019-04-26T19:26:11.678Z</time>
      </trkpt>
      <trkpt lat="43.47188" lon="6.61989">
        <ele>54</ele>
        <time>2019-04-26T19:26:12.678Z</time>
      </trkpt>
      <trkpt lat="43.47187" lon="6.6198">
        <ele>55</ele>
        <time>2019-04-26T19:26:13.678Z</time>
      </trkpt>
      <trkpt lat="43.47186" lon="6.61972">
        <ele>55</ele>
        <time>2019-04-26T19:26:14.678Z</time>
      </trkpt>
      <trkpt lat="43.47186" lon="6.61963">
        <ele>55</ele>
        <time>2019-04-26T19:26:15.678Z</time>
      </trkpt>
      <trkpt lat="43.47187" lon="6.61954">
        <ele>55</ele>
        <time>2019-04-26T19:26:16.678Z</time>
      </trkpt>
      <trkpt lat="43.47186" lon="6.61946">
        <ele>55</ele>
        <time>2019-04-26T19:26:17.678Z</time>
      </trkpt>
      <trkpt lat="43.47181" lon="6.61932">
        <ele>55</ele>
        <time>2019-04-26T19:26:18.678Z</time>
      </trkpt>
      <trkpt lat="43.47174" lon="6.61924">
        <ele>55</ele>
        <time>2019-04-26T19:26:19.678Z</time>
      </trkpt>
      <trkpt lat="43.47169" lon="6.61922">
        <ele>55</ele>
        <time>2019-04-26T19:26:20.678Z</time>
      </trkpt>
      <trkpt lat="43.47165" lon="6.61922">
        <ele>55</ele>
        <time>2019-04-26T19:26:21.678Z</time>
      </trkpt>
      <trkpt lat="43.47161" lon="6.61923">
        <ele>55</ele>
        <time>2019-04-26T19:26:22.678Z</time>
      </trkpt>
      <trkpt lat="43.47156" lon="6.61925">
        <ele>55</ele>
        <time>2019-04-26T19:26:23.678Z</time>
      </trkpt>
      <trkpt lat="43.47152" lon="6.61928">
        <ele>55</ele>
        <time>2019-04-26T19:26:24.678Z</time>
      </trkpt>
      <trkpt lat="43.47148" lon="6.61933">
        <ele>55</ele>
        <time>2019-04-26T19:26:25.678Z</time>
      </trkpt>
      <trkpt lat="43.47144" lon="6.61944">
        <ele>55</ele>
        <time>2019-04-26T19:26:26.678Z</time>
      </trkpt>
      <trkpt lat="43.4714" lon="6.61954">
        <ele>54</ele>
        <time>2019-04-26T19:26:27.678Z</time>
      </trkpt>
      <trkpt lat="43.47134" lon="6.61964">
        <ele>54</ele>
        <time>2019-04-26T19:26:28.678Z</time>
      </trkpt>
      <trkpt lat="43.47131" lon="6.61968">
        <ele>54</ele>
        <time>2019-04-26T19:26:29.678Z</time>
      </trkpt>
      <trkpt lat="43.47128" lon="6.61972">
        <ele>54</ele>
        <time>2019-04-26T19:26:30.678Z</time>
      </trkpt>
      <trkpt lat="43.4712" lon="6.6198">
        <ele>54</ele>
        <time>2019-04-26T19:26:31.678Z</time>
      </trkpt>
      <trkpt lat="43.47109" lon="6.61986">
        <ele>53</ele>
        <time>2019-04-26T19:26:32.678Z</time>
      </trkpt>
      <trkpt lat="43.47098" lon="6.6199">
        <ele>53</ele>
        <time>2019-04-26T19:26:33.678Z</time>
      </trkpt>
      <trkpt lat="43.47087" lon="6.61997">
        <ele>53</ele>
        <time>2019-04-26T19:26:34.678Z</time>
      </trkpt>
      <trkpt lat="43.47081" lon="6.62002">
        <ele>53</ele>
        <time>2019-04-26T19:26:35.678Z</time>
      </trkpt>
      <trkpt lat="43.47076" lon="6.62008">
        <ele>53</ele>
        <time>2019-04-26T19:26:36.678Z</time>
      </trkpt>
      <trkpt lat="43.47068" lon="6.62021">
        <ele>53</ele>
        <time>2019-04-26T19:26:37.678Z</time>
      </trkpt>
      <trkpt lat="43.47065" lon="6.62029">
        <ele>52</ele>
        <time>2019-04-26T19:26:38.678Z</time>
      </trkpt>
      <trkpt lat="43.47063" lon="6.62036">
        <ele>52</ele>
        <time>2019-04-26T19:26:39.678Z</time>
      </trkpt>
      <trkpt lat="43.4706" lon="6.62053">
        <ele>52</ele>
        <time>2019-04-26T19:26:40.678Z</time>
      </trkpt>
      <trkpt lat="43.47059" lon="6.62061">
        <ele>52</ele>
        <time>2019-04-26T19:26:41.678Z</time>
      </trkpt>
      <trkpt lat="43.47058" lon="6.62069">
        <ele>51</ele>
        <time>2019-04-26T19:26:42.678Z</time>
      </trkpt>
      <trkpt lat="43.47056" lon="6.62085">
        <ele>51</ele>
        <time>2019-04-26T19:26:43.678Z</time>
      </trkpt>
      <trkpt lat="43.47054" lon="6.62101">
        <ele>51</ele>
        <time>2019-04-26T19:26:44.678Z</time>
      </trkpt>
      <trkpt lat="43.47053" lon="6.62116">
        <ele>50</ele>
        <time>2019-04-26T19:26:45.678Z</time>
      </trkpt>
      <trkpt lat="43.47053" lon="6.62123">
        <ele>50</ele>
        <time>2019-04-26T19:26:46.678Z</time>
      </trkpt>
      <trkpt lat="43.47053" lon="6.62131">
        <ele>50</ele>
        <time>2019-04-26T19:26:47.678Z</time>
      </trkpt>
      <trkpt lat="43.47052" lon="6.62145">
        <ele>49</ele>
        <time>2019-04-26T19:26:48.678Z</time>
      </trkpt>
      <trkpt lat="43.47051" lon="6.6216">
        <ele>49</ele>
        <time>2019-04-26T19:26:49.678Z</time>
      </trkpt>
      <trkpt lat="43.47048" lon="6.62173">
        <ele>49</ele>
        <time>2019-04-26T19:26:50.678Z</time>
      </trkpt>
      <trkpt lat="43.47042" lon="6.62186">
        <ele>49</ele>
        <time>2019-04-26T19:26:51.678Z</time>
      </trkpt>
      <trkpt lat="43.47034" lon="6.62196">
        <ele>49</ele>
        <time>2019-04-26T19:26:52.678Z</time>
      </trkpt>
      <trkpt lat="43.47026" lon="6.62204">
        <ele>49</ele>
        <time>2019-04-26T19:26:53.678Z</time>
      </trkpt>
      <trkpt lat="43.47018" lon="6.62213">
        <ele>49</ele>
        <time>2019-04-26T19:26:54.678Z</time>
      </trkpt>
      <trkpt lat="43.47009" lon="6.62221">
        <ele>49</ele>
        <time>2019-04-26T19:26:55.678Z</time>
      </trkpt>
      <trkpt lat="43.47001" lon="6.62229">
        <ele>48</ele>
        <time>2019-04-26T19:26:56.678Z</time>
      </trkpt>
      <trkpt lat="43.46992" lon="6.62237">
        <ele>48</ele>
        <time>2019-04-26T19:26:57.678Z</time>
      </trkpt>
      <trkpt lat="43.46981" lon="6.62238">
        <ele>48</ele>
        <time>2019-04-26T19:26:58.678Z</time>
      </trkpt>
      <trkpt lat="43.46971" lon="6.62234">
        <ele>48</ele>
        <time>2019-04-26T19:26:59.678Z</time>
      </trkpt>
      <trkpt lat="43.46961" lon="6.62231">
        <ele>48</ele>
        <time>2019-04-26T19:27:00.678Z</time>
      </trkpt>
      <trkpt lat="43.46951" lon="6.62224">
        <ele>49</ele>
        <time>2019-04-26T19:27:01.678Z</time>
      </trkpt>
      <trkpt lat="43.46946" lon="6.62225">
        <ele>49</ele>
        <time>2019-04-26T19:27:02.678Z</time>
      </trkpt>
      <trkpt lat="43.46942" lon="6.6223">
        <ele>48</ele>
        <time>2019-04-26T19:27:03.678Z</time>
      </trkpt>
      <trkpt lat="43.46936" lon="6.62243">
        <ele>48</ele>
        <time>2019-04-26T19:27:04.678Z</time>
      </trkpt>
      <trkpt lat="43.46933" lon="6.62249">
        <ele>48</ele>
        <time>2019-04-26T19:27:05.678Z</time>
      </trkpt>
      <trkpt lat="43.4693" lon="6.62254">
        <ele>48</ele>
        <time>2019-04-26T19:27:06.678Z</time>
      </trkpt>
      <trkpt lat="43.46922" lon="6.62264">
        <ele>47</ele>
        <time>2019-04-26T19:27:07.678Z</time>
      </trkpt>
      <trkpt lat="43.46913" lon="6.62269">
        <ele>47</ele>
        <time>2019-04-26T19:27:08.678Z</time>
      </trkpt>
      <trkpt lat="43.46905" lon="6.62269">
        <ele>47</ele>
        <time>2019-04-26T19:27:09.678Z</time>
      </trkpt>
      <trkpt lat="43.46897" lon="6.62267">
        <ele>47</ele>
        <time>2019-04-26T19:27:10.678Z</time>
      </trkpt>
      <trkpt lat="43.46888" lon="6.62265">
        <ele>47</ele>
        <time>2019-04-26T19:27:11.678Z</time>
      </trkpt>
      <trkpt lat="43.4688" lon="6.62267">
        <ele>47</ele>
        <time>2019-04-26T19:27:12.678Z</time>
      </trkpt>
      <trkpt lat="43.46876" lon="6.62267">
        <ele>47</ele>
        <time>2019-04-26T19:27:13.678Z</time>
      </trkpt>
      <trkpt lat="43.46871" lon="6.62266">
        <ele>47</ele>
        <time>2019-04-26T19:27:14.678Z</time>
      </trkpt>
      <trkpt lat="43.46862" lon="6.62264">
        <ele>47</ele>
        <time>2019-04-26T19:27:15.678Z</time>
      </trkpt>
      <trkpt lat="43.46858" lon="6.62263">
        <ele>46</ele>
        <time>2019-04-26T19:27:16.678Z</time>
      </trkpt>
      <trkpt lat="43.46853" lon="6.62262">
        <ele>46</ele>
        <time>2019-04-26T19:27:17.678Z</time>
      </trkpt>
      <trkpt lat="43.46845" lon="6.62261">
        <ele>46</ele>
        <time>2019-04-26T19:27:18.678Z</time>
      </trkpt>
      <trkpt lat="43.46836" lon="6.62261">
        <ele>46</ele>
        <time>2019-04-26T19:27:19.678Z</time>
      </trkpt>
      <trkpt lat="43.46831" lon="6.6226">
        <ele>46</ele>
        <time>2019-04-26T19:27:20.678Z</time>
      </trkpt>
      <trkpt lat="43.46826" lon="6.6226">
        <ele>46</ele>
        <time>2019-04-26T19:27:21.678Z</time>
      </trkpt>
      <trkpt lat="43.46821" lon="6.6226">
        <ele>47</ele>
        <time>2019-04-26T19:27:22.678Z</time>
      </trkpt>
      <trkpt lat="43.46817" lon="6.6226">
        <ele>47</ele>
        <time>2019-04-26T19:27:23.678Z</time>
      </trkpt>
      <trkpt lat="43.46808" lon="6.62259">
        <ele>47</ele>
        <time>2019-04-26T19:27:24.678Z</time>
      </trkpt>
      <trkpt lat="43.46799" lon="6.62259">
        <ele>47</ele>
        <time>2019-04-26T19:27:25.678Z</time>
      </trkpt>
      <trkpt lat="43.4679" lon="6.62259">
        <ele>48</ele>
        <time>2019-04-26T19:27:26.678Z</time>
      </trkpt>
      <trkpt lat="43.46785" lon="6.6226">
        <ele>48</ele>
        <time>2019-04-26T19:27:27.678Z</time>
      </trkpt>
      <trkpt lat="43.4678" lon="6.62261">
        <ele>48</ele>
        <time>2019-04-26T19:27:28.678Z</time>
      </trkpt>
      <trkpt lat="43.46771" lon="6.62269">
        <ele>48</ele>
        <time>2019-04-26T19:27:29.678Z</time>
      </trkpt>
      <trkpt lat="43.46767" lon="6.62274">
        <ele>48</ele>
        <time>2019-04-26T19:27:30.678Z</time>
      </trkpt>
      <trkpt lat="43.46763" lon="6.62279">
        <ele>47</ele>
        <time>2019-04-26T19:27:31.678Z</time>
      </trkpt>
      <trkpt lat="43.46755" lon="6.62289">
        <ele>47</ele>
        <time>2019-04-26T19:27:32.678Z</time>
      </trkpt>
      <trkpt lat="43.46748" lon="6.62298">
        <ele>47</ele>
        <time>2019-04-26T19:27:33.678Z</time>
      </trkpt>
      <trkpt lat="43.46742" lon="6.62297">
        <ele>47</ele>
        <time>2019-04-26T19:27:34.678Z</time>
      </trkpt>
      <trkpt lat="43.4674" lon="6.62294">
        <ele>47</ele>
        <time>2019-04-26T19:27:35.678Z</time>
      </trkpt>
      <trkpt lat="43.46738" lon="6.62291">
        <ele>48</ele>
        <time>2019-04-26T19:27:36.678Z</time>
      </trkpt>
      <trkpt lat="43.46738" lon="6.62286">
        <ele>48</ele>
        <time>2019-04-26T19:27:37.678Z</time>
      </trkpt>
      <trkpt lat="43.46737" lon="6.62283">
        <ele>48</ele>
        <time>2019-04-26T19:27:38.678Z</time>
      </trkpt>
      <trkpt lat="43.46737" lon="6.62281">
        <ele>48</ele>
        <time>2019-04-26T19:27:39.678Z</time>
      </trkpt>
      <trkpt lat="43.46738" lon="6.62277">
        <ele>48</ele>
        <time>2019-04-26T19:27:40.678Z</time>
      </trkpt>
      <trkpt lat="43.46739" lon="6.62273">
        <ele>48</ele>
        <time>2019-04-26T19:27:41.678Z</time>
      </trkpt>
      <trkpt lat="43.46739" lon="6.62272">
        <ele>48</ele>
        <time>2019-04-26T19:27:42.678Z</time>
      </trkpt>
      <trkpt lat="43.46739" lon="6.62273">
        <ele>48</ele>
        <time>2019-04-26T19:27:43.678Z</time>
      </trkpt>
      <trkpt lat="43.46739" lon="6.62281">
        <ele>48</ele>
        <time>2019-04-26T19:27:44.678Z</time>
      </trkpt>
      <trkpt lat="43.46739" lon="6.62288">
        <ele>48</ele>
        <time>2019-04-26T19:27:45.678Z</time>
      </trkpt>
      <trkpt lat="43.46739" lon="6.62298">
        <ele>47</ele>
        <time>2019-04-26T19:27:46.678Z</time>
      </trkpt>
      <trkpt lat="43.46738" lon="6.62304">
        <ele>47</ele>
        <time>2019-04-26T19:27:47.678Z</time>
      </trkpt>
      <trkpt lat="43.46738" lon="6.6231">
        <ele>47</ele>
        <time>2019-04-26T19:27:48.678Z</time>
      </trkpt>
      <trkpt lat="43.46738" lon="6.62323">
        <ele>46</ele>
        <time>2019-04-26T19:27:49.678Z</time>
      </trkpt>
      <trkpt lat="43.46737" lon="6.62336">
        <ele>46</ele>
        <time>2019-04-26T19:27:50.678Z</time>
      </trkpt>
      <trkpt lat="43.46736" lon="6.62342">
        <ele>46</ele>
        <time>2019-04-26T19:27:51.678Z</time>
      </trkpt>
      <trkpt lat="43.46737" lon="6.62347">
        <ele>45</ele>
        <time>2019-04-26T19:27:52.678Z</time>
      </trkpt>
      <trkpt lat="43.46737" lon="6.62357">
        <ele>45</ele>
        <time>2019-04-26T19:27:53.678Z</time>
      </trkpt>
      <trkpt lat="43.46736" lon="6.62363">
        <ele>45</ele>
        <time>2019-04-26T19:27:54.678Z</time>
      </trkpt>
      <trkpt lat="43.46735" lon="6.62368">
        <ele>44</ele>
        <time>2019-04-26T19:27:55.678Z</time>
      </trkpt>
      <trkpt lat="43.46733" lon="6.62381">
        <ele>44</ele>
        <time>2019-04-26T19:27:56.678Z</time>
      </trkpt>
      <trkpt lat="43.46732" lon="6.62392">
        <ele>43</ele>
        <time>2019-04-26T19:27:57.678Z</time>
      </trkpt>
      <trkpt lat="43.46731" lon="6.62396">
        <ele>43</ele>
        <time>2019-04-26T19:27:58.678Z</time>
      </trkpt>
      <trkpt lat="43.4673" lon="6.62399">
        <ele>43</ele>
        <time>2019-04-26T19:27:59.678Z</time>
      </trkpt>
      <trkpt lat="43.46731" lon="6.62404">
        <ele>43</ele>
        <time>2019-04-26T19:28:00.678Z</time>
      </trkpt>
      <trkpt lat="43.46731" lon="6.62407">
        <ele>43</ele>
        <time>2019-04-26T19:28:01.678Z</time>
      </trkpt>
      <trkpt lat="43.46731" lon="6.6241">
        <ele>43</ele>
        <time>2019-04-26T19:28:02.678Z</time>
      </trkpt>
      <trkpt lat="43.46733" lon="6.62419">
        <ele>42</ele>
        <time>2019-04-26T19:28:03.678Z</time>
      </trkpt>
      <trkpt lat="43.46736" lon="6.62423">
        <ele>42</ele>
        <time>2019-04-26T19:28:04.678Z</time>
      </trkpt>
      <trkpt lat="43.4674" lon="6.62426">
        <ele>42</ele>
        <time>2019-04-26T19:28:05.678Z</time>
      </trkpt>
      <trkpt lat="43.46748" lon="6.62429">
        <ele>41</ele>
        <time>2019-04-26T19:28:06.678Z</time>
      </trkpt>
      <trkpt lat="43.46752" lon="6.62428">
        <ele>41</ele>
        <time>2019-04-26T19:28:07.678Z</time>
      </trkpt>
      <trkpt lat="43.46755" lon="6.62428">
        <ele>41</ele>
        <time>2019-04-26T19:28:08.678Z</time>
      </trkpt>
      <trkpt lat="43.46762" lon="6.62432">
        <ele>41</ele>
        <time>2019-04-26T19:28:09.678Z</time>
      </trkpt>
      <trkpt lat="43.46766" lon="6.62431">
        <ele>41</ele>
        <time>2019-04-26T19:28:10.678Z</time>
      </trkpt>
      <trkpt lat="43.4677" lon="6.62428">
        <ele>41</ele>
        <time>2019-04-26T19:28:11.678Z</time>
      </trkpt>
      <trkpt lat="43.46773" lon="6.6242">
        <ele>41</ele>
        <time>2019-04-26T19:28:12.678Z</time>
      </trkpt>
      <trkpt lat="43.46775" lon="6.62413">
        <ele>41</ele>
        <time>2019-04-26T19:28:13.678Z</time>
      </trkpt>
      <trkpt lat="43.46776" lon="6.62411">
        <ele>41</ele>
        <time>2019-04-26T19:28:14.678Z</time>
      </trkpt>
      <trkpt lat="43.46777" lon="6.62411">
        <ele>41</ele>
        <time>2019-04-26T19:28:15.678Z</time>
      </trkpt>
      <trkpt lat="43.46779" lon="6.62412">
        <ele>41</ele>
        <time>2019-04-26T19:28:16.678Z</time>
      </trkpt>
      <trkpt lat="43.46781" lon="6.62413">
        <ele>41</ele>
        <time>2019-04-26T19:28:17.678Z</time>
      </trkpt>
      <trkpt lat="43.46785" lon="6.62414">
        <ele>41</ele>
        <time>2019-04-26T19:28:18.678Z</time>
      </trkpt>
      <trkpt lat="43.4679" lon="6.62415">
        <ele>41</ele>
        <time>2019-04-26T19:28:19.678Z</time>
      </trkpt>
      <trkpt lat="43.46792" lon="6.62415">
        <ele>41</ele>
        <time>2019-04-26T19:28:20.678Z</time>
      </trkpt>
      <trkpt lat="43.46794" lon="6.62415">
        <ele>40</ele>
        <time>2019-04-26T19:28:21.678Z</time>
      </trkpt>
      <trkpt lat="43.468" lon="6.62415">
        <ele>40</ele>
        <time>2019-04-26T19:28:22.678Z</time>
      </trkpt>
      <trkpt lat="43.46806" lon="6.62413">
        <ele>40</ele>
        <time>2019-04-26T19:28:23.678Z</time>
      </trkpt>
      <trkpt lat="43.4681" lon="6.62411">
        <ele>40</ele>
        <time>2019-04-26T19:28:24.678Z</time>
      </trkpt>
      <trkpt lat="43.4681" lon="6.62409">
        <ele>40</ele>
        <time>2019-04-26T19:28:25.678Z</time>
      </trkpt>
      <trkpt lat="43.4681" lon="6.62408">
        <ele>40</ele>
        <time>2019-04-26T19:28:26.678Z</time>
      </trkpt>
      <trkpt lat="43.46805" lon="6.62409">
        <ele>40</ele>
        <time>2019-04-26T19:28:27.678Z</time>
      </trkpt>
      <trkpt lat="43.46803" lon="6.62412">
        <ele>40</ele>
        <time>2019-04-26T19:28:28.678Z</time>
      </trkpt>
      <trkpt lat="43.46801" lon="6.62414">
        <ele>40</ele>
        <time>2019-04-26T19:28:29.678Z</time>
      </trkpt>
      <trkpt lat="43.46797" lon="6.62417">
        <ele>40</ele>
        <time>2019-04-26T19:28:30.678Z</time>
      </trkpt>
      <trkpt lat="43.46792" lon="6.62417">
        <ele>40</ele>
        <time>2019-04-26T19:28:31.678Z</time>
      </trkpt>
      <trkpt lat="43.46789" lon="6.62417">
        <ele>41</ele>
        <time>2019-04-26T19:28:32.678Z</time>
      </trkpt>
      <trkpt lat="43.46787" lon="6.62417">
        <ele>41</ele>
        <time>2019-04-26T19:28:33.678Z</time>
      </trkpt>
      <trkpt lat="43.46782" lon="6.62415">
        <ele>41</ele>
        <time>2019-04-26T19:28:34.678Z</time>
      </trkpt>
      <trkpt lat="43.46778" lon="6.62414">
        <ele>41</ele>
        <time>2019-04-26T19:28:35.678Z</time>
      </trkpt>
      <trkpt lat="43.46774" lon="6.62418">
        <ele>41</ele>
        <time>2019-04-26T19:28:36.678Z</time>
      </trkpt>
      <trkpt lat="43.4677" lon="6.62428">
        <ele>41</ele>
        <time>2019-04-26T19:28:37.678Z</time>
      </trkpt>
      <trkpt lat="43.46765" lon="6.62435">
        <ele>40</ele>
        <time>2019-04-26T19:28:38.678Z</time>
      </trkpt>
      <trkpt lat="43.46758" lon="6.62435">
        <ele>41</ele>
        <time>2019-04-26T19:28:39.678Z</time>
      </trkpt>
      <trkpt lat="43.46754" lon="6.62433">
        <ele>41</ele>
        <time>2019-04-26T19:28:40.678Z</time>
      </trkpt>
      <trkpt lat="43.46751" lon="6.62431">
        <ele>41</ele>
        <time>2019-04-26T19:28:41.678Z</time>
      </trkpt>
      <trkpt lat="43.46745" lon="6.6243">
        <ele>41</ele>
        <time>2019-04-26T19:28:42.678Z</time>
      </trkpt>
      <trkpt lat="43.46739" lon="6.6243">
        <ele>41</ele>
        <time>2019-04-26T19:28:43.678Z</time>
      </trkpt>
      <trkpt lat="43.46737" lon="6.62431">
        <ele>41</ele>
        <time>2019-04-26T19:28:44.678Z</time>
      </trkpt>
      <trkpt lat="43.46735" lon="6.62432">
        <ele>41</ele>
        <time>2019-04-26T19:28:45.678Z</time>
      </trkpt>
      <trkpt lat="43.46732" lon="6.62435">
        <ele>41</ele>
        <time>2019-04-26T19:28:46.678Z</time>
      </trkpt>
      <trkpt lat="43.46727" lon="6.6244">
        <ele>41</ele>
        <time>2019-04-26T19:28:47.678Z</time>
      </trkpt>
      <trkpt lat="43.46727" lon="6.62444">
        <ele>41</ele>
        <time>2019-04-26T19:28:48.678Z</time>
      </trkpt>
      <trkpt lat="43.46728" lon="6.62448">
        <ele>41</ele>
        <time>2019-04-26T19:28:49.678Z</time>
      </trkpt>
      <trkpt lat="43.46728" lon="6.62453">
        <ele>40</ele>
        <time>2019-04-26T19:28:50.678Z</time>
      </trkpt>
      <trkpt lat="43.46728" lon="6.62459">
        <ele>40</ele>
        <time>2019-04-26T19:28:51.678Z</time>
      </trkpt>
      <trkpt lat="43.46726" lon="6.62464">
        <ele>40</ele>
        <time>2019-04-26T19:28:52.678Z</time>
      </trkpt>
      <trkpt lat="43.46726" lon="6.62466">
        <ele>40</ele>
        <time>2019-04-26T19:28:53.678Z</time>
      </trkpt>
      <trkpt lat="43.46725" lon="6.62468">
        <ele>40</ele>
        <time>2019-04-26T19:28:54.678Z</time>
      </trkpt>
      <trkpt lat="43.46723" lon="6.62466">
        <ele>40</ele>
        <time>2019-04-26T19:28:55.678Z</time>
      </trkpt>
      <trkpt lat="43.46721" lon="6.62464">
        <ele>40</ele>
        <time>2019-04-26T19:28:56.678Z</time>
      </trkpt>
      <trkpt lat="43.46718" lon="6.62462">
        <ele>40</ele>
        <time>2019-04-26T19:28:57.678Z</time>
      </trkpt>
      <trkpt lat="43.46715" lon="6.6246">
        <ele>41</ele>
        <time>2019-04-26T19:28:58.678Z</time>
      </trkpt>
      <trkpt lat="43.46712" lon="6.6246">
        <ele>41</ele>
        <time>2019-04-26T19:28:59.678Z</time>
      </trkpt>
      <trkpt lat="43.46706" lon="6.62461">
        <ele>41</ele>
        <time>2019-04-26T19:29:00.678Z</time>
      </trkpt>
      <trkpt lat="43.46703" lon="6.62462">
        <ele>41</ele>
        <time>2019-04-26T19:29:01.678Z</time>
      </trkpt>
      <trkpt lat="43.467" lon="6.62464">
        <ele>41</ele>
        <time>2019-04-26T19:29:02.678Z</time>
      </trkpt>
      <trkpt lat="43.46695" lon="6.62468">
        <ele>41</ele>
        <time>2019-04-26T19:29:03.678Z</time>
      </trkpt>
      <trkpt lat="43.46691" lon="6.62474">
        <ele>41</ele>
        <time>2019-04-26T19:29:04.678Z</time>
      </trkpt>
      <trkpt lat="43.4669" lon="6.62478">
        <ele>42</ele>
        <time>2019-04-26T19:29:05.678Z</time>
      </trkpt>
      <trkpt lat="43.46689" lon="6.6248">
        <ele>42</ele>
        <time>2019-04-26T19:29:06.678Z</time>
      </trkpt>
      <trkpt lat="43.46686" lon="6.62488">
        <ele>42</ele>
        <time>2019-04-26T19:29:07.678Z</time>
      </trkpt>
      <trkpt lat="43.46683" lon="6.62494">
        <ele>42</ele>
        <time>2019-04-26T19:29:08.678Z</time>
      </trkpt>
      <trkpt lat="43.46682" lon="6.62499">
        <ele>42</ele>
        <time>2019-04-26T19:29:09.678Z</time>
      </trkpt>
      <trkpt lat="43.46683" lon="6.62506">
        <ele>41</ele>
        <time>2019-04-26T19:29:10.678Z</time>
      </trkpt>
      <trkpt lat="43.46684" lon="6.62509">
        <ele>41</ele>
        <time>2019-04-26T19:29:11.678Z</time>
      </trkpt>
      <trkpt lat="43.46684" lon="6.62514">
        <ele>41</ele>
        <time>2019-04-26T19:29:12.678Z</time>
      </trkpt>
      <trkpt lat="43.46687" lon="6.62527">
        <ele>40</ele>
        <time>2019-04-26T19:29:13.678Z</time>
      </trkpt>
      <trkpt lat="43.46688" lon="6.62533">
        <ele>40</ele>
        <time>2019-04-26T19:29:14.678Z</time>
      </trkpt>
      <trkpt lat="43.46688" lon="6.6254">
        <ele>39</ele>
        <time>2019-04-26T19:29:15.678Z</time>
      </trkpt>
      <trkpt lat="43.46689" lon="6.62546">
        <ele>39</ele>
        <time>2019-04-26T19:29:16.678Z</time>
      </trkpt>
      <trkpt lat="43.46686" lon="6.62555">
        <ele>39</ele>
        <time>2019-04-26T19:29:17.678Z</time>
      </trkpt>
      <trkpt lat="43.46684" lon="6.62563">
        <ele>39</ele>
        <time>2019-04-26T19:29:18.678Z</time>
      </trkpt>
      <trkpt lat="43.46682" lon="6.62569">
        <ele>39</ele>
        <time>2019-04-26T19:29:19.678Z</time>
      </trkpt>
      <trkpt lat="43.4668" lon="6.62574">
        <ele>39</ele>
        <time>2019-04-26T19:29:20.678Z</time>
      </trkpt>
      <trkpt lat="43.4668" lon="6.62578">
        <ele>39</ele>
        <time>2019-04-26T19:29:21.678Z</time>
      </trkpt>
      <trkpt lat="43.4668" lon="6.62581">
        <ele>39</ele>
        <time>2019-04-26T19:29:22.678Z</time>
      </trkpt>
      <trkpt lat="43.46677" lon="6.62586">
        <ele>39</ele>
        <time>2019-04-26T19:29:23.678Z</time>
      </trkpt>
      <trkpt lat="43.46672" lon="6.62596">
        <ele>39</ele>
        <time>2019-04-26T19:29:24.678Z</time>
      </trkpt>
      <trkpt lat="43.4667" lon="6.62601">
        <ele>39</ele>
        <time>2019-04-26T19:29:25.678Z</time>
      </trkpt>
      <trkpt lat="43.46666" lon="6.62606">
        <ele>39</ele>
        <time>2019-04-26T19:29:26.678Z</time>
      </trkpt>
      <trkpt lat="43.46659" lon="6.62615">
        <ele>39</ele>
        <time>2019-04-26T19:29:27.678Z</time>
      </trkpt>
      <trkpt lat="43.46655" lon="6.62618">
        <ele>39</ele>
        <time>2019-04-26T19:29:28.678Z</time>
      </trkpt>
      <trkpt lat="43.46651" lon="6.62623">
        <ele>39</ele>
        <time>2019-04-26T19:29:29.678Z</time>
      </trkpt>
      <trkpt lat="43.46648" lon="6.62628">
        <ele>39</ele>
        <time>2019-04-26T19:29:30.678Z</time>
      </trkpt>
      <trkpt lat="43.46645" lon="6.62633">
        <ele>38</ele>
        <time>2019-04-26T19:29:31.678Z</time>
      </trkpt>
      <trkpt lat="43.46637" lon="6.62639">
        <ele>38</ele>
        <time>2019-04-26T19:29:32.678Z</time>
      </trkpt>
      <trkpt lat="43.46634" lon="6.62643">
        <ele>38</ele>
        <time>2019-04-26T19:29:33.678Z</time>
      </trkpt>
      <trkpt lat="43.4663" lon="6.62646">
        <ele>38</ele>
        <time>2019-04-26T19:29:34.678Z</time>
      </trkpt>
      <trkpt lat="43.46623" lon="6.62653">
        <ele>38</ele>
        <time>2019-04-26T19:29:35.678Z</time>
      </trkpt>
      <trkpt lat="43.4662" lon="6.62652">
        <ele>38</ele>
        <time>2019-04-26T19:29:36.678Z</time>
      </trkpt>
      <trkpt lat="43.46618" lon="6.62652">
        <ele>38</ele>
        <time>2019-04-26T19:29:37.678Z</time>
      </trkpt>
      <trkpt lat="43.46612" lon="6.6265">
        <ele>38</ele>
        <time>2019-04-26T19:29:38.678Z</time>
      </trkpt>
      <trkpt lat="43.46607" lon="6.62645">
        <ele>38</ele>
        <time>2019-04-26T19:29:39.678Z</time>
      </trkpt>
      <trkpt lat="43.46604" lon="6.62642">
        <ele>39</ele>
        <time>2019-04-26T19:29:40.678Z</time>
      </trkpt>
      <trkpt lat="43.46601" lon="6.62639">
        <ele>39</ele>
        <time>2019-04-26T19:29:41.678Z</time>
      </trkpt>
      <trkpt lat="43.46595" lon="6.62632">
        <ele>40</ele>
        <time>2019-04-26T19:29:42.678Z</time>
      </trkpt>
      <trkpt lat="43.46589" lon="6.62631">
        <ele>40</ele>
        <time>2019-04-26T19:29:43.678Z</time>
      </trkpt>
      <trkpt lat="43.46581" lon="6.62633">
        <ele>40</ele>
        <time>2019-04-26T19:29:44.678Z</time>
      </trkpt>
      <trkpt lat="43.46579" lon="6.62631">
        <ele>40</ele>
        <time>2019-04-26T19:29:45.678Z</time>
      </trkpt>
      <trkpt lat="43.46578" lon="6.62631">
        <ele>40</ele>
        <time>2019-04-26T19:29:46.678Z</time>
      </trkpt>
      <trkpt lat="43.46576" lon="6.62629">
        <ele>41</ele>
        <time>2019-04-26T19:29:47.678Z</time>
      </trkpt>
      <trkpt lat="43.46573" lon="6.62628">
        <ele>41</ele>
        <time>2019-04-26T19:29:48.678Z</time>
      </trkpt>
      <trkpt lat="43.46567" lon="6.62627">
        <ele>41</ele>
        <time>2019-04-26T19:29:49.678Z</time>
      </trkpt>
      <trkpt lat="43.46564" lon="6.62628">
        <ele>41</ele>
        <time>2019-04-26T19:29:50.678Z</time>
      </trkpt>
      <trkpt lat="43.4656" lon="6.62631">
        <ele>40</ele>
        <time>2019-04-26T19:29:51.678Z</time>
      </trkpt>
      <trkpt lat="43.46553" lon="6.62633">
        <ele>40</ele>
        <time>2019-04-26T19:29:52.678Z</time>
      </trkpt>
      <trkpt lat="43.4655" lon="6.62635">
        <ele>40</ele>
        <time>2019-04-26T19:29:53.678Z</time>
      </trkpt>
      <trkpt lat="43.46547" lon="6.62636">
        <ele>40</ele>
        <time>2019-04-26T19:29:54.678Z</time>
      </trkpt>
      <trkpt lat="43.46544" lon="6.62638">
        <ele>40</ele>
        <time>2019-04-26T19:29:55.678Z</time>
      </trkpt>
      <trkpt lat="43.46541" lon="6.6264">
        <ele>40</ele>
        <time>2019-04-26T19:29:56.678Z</time>
      </trkpt>
      <trkpt lat="43.46538" lon="6.62648">
        <ele>39</ele>
        <time>2019-04-26T19:29:57.678Z</time>
      </trkpt>
      <trkpt lat="43.46538" lon="6.62653">
        <ele>38</ele>
        <time>2019-04-26T19:29:58.678Z</time>
      </trkpt>
      <trkpt lat="43.46537" lon="6.62658">
        <ele>38</ele>
        <time>2019-04-26T19:29:59.678Z</time>
      </trkpt>
      <trkpt lat="43.46537" lon="6.62672">
        <ele>37</ele>
        <time>2019-04-26T19:30:00.678Z</time>
      </trkpt>
      <trkpt lat="43.46537" lon="6.62681">
        <ele>36</ele>
        <time>2019-04-26T19:30:01.678Z</time>
      </trkpt>
      <trkpt lat="43.46537" lon="6.6269">
        <ele>36</ele>
        <time>2019-04-26T19:30:02.678Z</time>
      </trkpt>
      <trkpt lat="43.46536" lon="6.62698">
        <ele>35</ele>
        <time>2019-04-26T19:30:03.678Z</time>
      </trkpt>
      <trkpt lat="43.46536" lon="6.62704">
        <ele>35</ele>
        <time>2019-04-26T19:30:04.678Z</time>
      </trkpt>
      <trkpt lat="43.46536" lon="6.62715">
        <ele>34</ele>
        <time>2019-04-26T19:30:05.678Z</time>
      </trkpt>
      <trkpt lat="43.46538" lon="6.62723">
        <ele>34</ele>
        <time>2019-04-26T19:30:06.678Z</time>
      </trkpt>
      <trkpt lat="43.46545" lon="6.6273">
        <ele>33</ele>
        <time>2019-04-26T19:30:07.678Z</time>
      </trkpt>
      <trkpt lat="43.46553" lon="6.6273">
        <ele>33</ele>
        <time>2019-04-26T19:30:08.678Z</time>
      </trkpt>
      <trkpt lat="43.46557" lon="6.62732">
        <ele>33</ele>
        <time>2019-04-26T19:30:09.678Z</time>
      </trkpt>
      <trkpt lat="43.46561" lon="6.62736">
        <ele>33</ele>
        <time>2019-04-26T19:30:10.678Z</time>
      </trkpt>
      <trkpt lat="43.46564" lon="6.62746">
        <ele>33</ele>
        <time>2019-04-26T19:30:11.678Z</time>
      </trkpt>
      <trkpt lat="43.46563" lon="6.62751">
        <ele>32</ele>
        <time>2019-04-26T19:30:12.678Z</time>
      </trkpt>
      <trkpt lat="43.46561" lon="6.62755">
        <ele>32</ele>
        <time>2019-04-26T19:30:13.678Z</time>
      </trkpt>
      <trkpt lat="43.46557" lon="6.6276">
        <ele>31</ele>
        <time>2019-04-26T19:30:14.678Z</time>
      </trkpt>
      <trkpt lat="43.46553" lon="6.62765">
        <ele>31</ele>
        <time>2019-04-26T19:30:15.678Z</time>
      </trkpt>
      <trkpt lat="43.46548" lon="6.62771">
        <ele>30</ele>
        <time>2019-04-26T19:30:16.678Z</time>
      </trkpt>
      <trkpt lat="43.46543" lon="6.62777">
        <ele>29</ele>
        <time>2019-04-26T19:30:17.678Z</time>
      </trkpt>
      <trkpt lat="43.46538" lon="6.62783">
        <ele>29</ele>
        <time>2019-04-26T19:30:18.678Z</time>
      </trkpt>
      <trkpt lat="43.46533" lon="6.62789">
        <ele>28</ele>
        <time>2019-04-26T19:30:19.678Z</time>
      </trkpt>
      <trkpt lat="43.46527" lon="6.62795">
        <ele>27</ele>
        <time>2019-04-26T19:30:20.678Z</time>
      </trkpt>
      <trkpt lat="43.46522" lon="6.62802">
        <ele>27</ele>
        <time>2019-04-26T19:30:21.678Z</time>
      </trkpt>
      <trkpt lat="43.46513" lon="6.62818">
        <ele>25</ele>
        <time>2019-04-26T19:30:22.678Z</time>
      </trkpt>
      <trkpt lat="43.4651" lon="6.62827">
        <ele>24</ele>
        <time>2019-04-26T19:30:23.678Z</time>
      </trkpt>
      <trkpt lat="43.46508" lon="6.62836">
        <ele>23</ele>
        <time>2019-04-26T19:30:24.678Z</time>
      </trkpt>
      <trkpt lat="43.46507" lon="6.62855">
        <ele>22</ele>
        <time>2019-04-26T19:30:25.678Z</time>
      </trkpt>
      <trkpt lat="43.46507" lon="6.62865">
        <ele>22</ele>
        <time>2019-04-26T19:30:26.678Z</time>
      </trkpt>
      <trkpt lat="43.46506" lon="6.62874">
        <ele>21</ele>
        <time>2019-04-26T19:30:27.678Z</time>
      </trkpt>
      <trkpt lat="43.46506" lon="6.62892">
        <ele>20</ele>
        <time>2019-04-26T19:30:28.678Z</time>
      </trkpt>
      <trkpt lat="43.46506" lon="6.62901">
        <ele>20</ele>
        <time>2019-04-26T19:30:29.678Z</time>
      </trkpt>
      <trkpt lat="43.46506" lon="6.6291">
        <ele>19</ele>
        <time>2019-04-26T19:30:30.678Z</time>
      </trkpt>
      <trkpt lat="43.46507" lon="6.62929">
        <ele>19</ele>
        <time>2019-04-26T19:30:31.678Z</time>
      </trkpt>
      <trkpt lat="43.46507" lon="6.62938">
        <ele>18</ele>
        <time>2019-04-26T19:30:32.678Z</time>
      </trkpt>
      <trkpt lat="43.46508" lon="6.62947">
        <ele>18</ele>
        <time>2019-04-26T19:30:33.678Z</time>
      </trkpt>
      <trkpt lat="43.4651" lon="6.62966">
        <ele>17</ele>
        <time>2019-04-26T19:30:34.678Z</time>
      </trkpt>
      <trkpt lat="43.46514" lon="6.62985">
        <ele>17</ele>
        <time>2019-04-26T19:30:35.678Z</time>
      </trkpt>
      <trkpt lat="43.46516" lon="6.62994">
        <ele>16</ele>
        <time>2019-04-26T19:30:36.678Z</time>
      </trkpt>
      <trkpt lat="43.46518" lon="6.63003">
        <ele>16</ele>
        <time>2019-04-26T19:30:37.678Z</time>
      </trkpt>
      <trkpt lat="43.46521" lon="6.63022">
        <ele>16</ele>
        <time>2019-04-26T19:30:38.678Z</time>
      </trkpt>
      <trkpt lat="43.46522" lon="6.63032">
        <ele>16</ele>
        <time>2019-04-26T19:30:39.678Z</time>
      </trkpt>
      <trkpt lat="43.46523" lon="6.63042">
        <ele>15</ele>
        <time>2019-04-26T19:30:40.678Z</time>
      </trkpt>
      <trkpt lat="43.46524" lon="6.63062">
        <ele>15</ele>
        <time>2019-04-26T19:30:41.678Z</time>
      </trkpt>
      <trkpt lat="43.46524" lon="6.63072">
        <ele>15</ele>
        <time>2019-04-26T19:30:42.678Z</time>
      </trkpt>
      <trkpt lat="43.46524" lon="6.63082">
        <ele>15</ele>
        <time>2019-04-26T19:30:43.678Z</time>
      </trkpt>
      <trkpt lat="43.46523" lon="6.63092">
        <ele>14</ele>
        <time>2019-04-26T19:30:44.678Z</time>
      </trkpt>
      <trkpt lat="43.46523" lon="6.631">
        <ele>14</ele>
        <time>2019-04-26T19:30:45.678Z</time>
      </trkpt>
      <trkpt lat="43.46522" lon="6.63108">
        <ele>14</ele>
        <time>2019-04-26T19:30:46.678Z</time>
      </trkpt>
      <trkpt lat="43.46521" lon="6.63111">
        <ele>14</ele>
        <time>2019-04-26T19:30:47.678Z</time>
      </trkpt>
      <trkpt lat="43.4652" lon="6.63113">
        <ele>14</ele>
        <time>2019-04-26T19:30:48.678Z</time>
      </trkpt>
      <trkpt lat="43.46519" lon="6.63114">
        <ele>14</ele>
        <time>2019-04-26T19:30:49.678Z</time>
      </trkpt>
      <trkpt lat="43.46518" lon="6.63119">
        <ele>14</ele>
        <time>2019-04-26T19:30:50.678Z</time>
      </trkpt>
      <trkpt lat="43.46516" lon="6.63122">
        <ele>14</ele>
        <time>2019-04-26T19:30:51.678Z</time>
      </trkpt>
      <trkpt lat="43.46514" lon="6.63127">
        <ele>14</ele>
        <time>2019-04-26T19:30:52.678Z</time>
      </trkpt>
      <trkpt lat="43.46514" lon="6.63129">
        <ele>14</ele>
        <time>2019-04-26T19:30:53.678Z</time>
      </trkpt>
      <trkpt lat="43.46513" lon="6.63131">
        <ele>14</ele>
        <time>2019-04-26T19:30:54.678Z</time>
      </trkpt>
      <trkpt lat="43.46512" lon="6.63132">
        <ele>14</ele>
        <time>2019-04-26T19:30:55.678Z</time>
      </trkpt>
      <trkpt lat="43.46503" lon="6.63132">
        <ele>13</ele>
        <time>2019-04-26T19:30:56.678Z</time>
      </trkpt>
      <trkpt lat="43.46499" lon="6.6313">
        <ele>13</ele>
        <time>2019-04-26T19:30:57.678Z</time>
      </trkpt>
      <trkpt lat="43.46494" lon="6.63128">
        <ele>14</ele>
        <time>2019-04-26T19:30:58.678Z</time>
      </trkpt>
      <trkpt lat="43.46489" lon="6.63125">
        <ele>14</ele>
        <time>2019-04-26T19:30:59.678Z</time>
      </trkpt>
      <trkpt lat="43.46482" lon="6.63123">
        <ele>14</ele>
        <time>2019-04-26T19:31:00.678Z</time>
      </trkpt>
      <trkpt lat="43.46479" lon="6.63121">
        <ele>14</ele>
        <time>2019-04-26T19:31:01.678Z</time>
      </trkpt>
      <trkpt lat="43.46476" lon="6.6312">
        <ele>14</ele>
        <time>2019-04-26T19:31:02.678Z</time>
      </trkpt>
      <trkpt lat="43.46468" lon="6.63121">
        <ele>14</ele>
        <time>2019-04-26T19:31:03.678Z</time>
      </trkpt>
      <trkpt lat="43.46465" lon="6.63126">
        <ele>15</ele>
        <time>2019-04-26T19:31:04.678Z</time>
      </trkpt>
      <trkpt lat="43.46462" lon="6.63133">
        <ele>15</ele>
        <time>2019-04-26T19:31:05.678Z</time>
      </trkpt>
      <trkpt lat="43.46461" lon="6.63147">
        <ele>15</ele>
        <time>2019-04-26T19:31:06.678Z</time>
      </trkpt>
      <trkpt lat="43.4646" lon="6.63154">
        <ele>15</ele>
        <time>2019-04-26T19:31:07.678Z</time>
      </trkpt>
      <trkpt lat="43.4646" lon="6.63161">
        <ele>14</ele>
        <time>2019-04-26T19:31:08.678Z</time>
      </trkpt>
      <trkpt lat="43.46461" lon="6.63175">
        <ele>14</ele>
        <time>2019-04-26T19:31:09.678Z</time>
      </trkpt>
      <trkpt lat="43.46461" lon="6.6319">
        <ele>14</ele>
        <time>2019-04-26T19:31:10.678Z</time>
      </trkpt>
      <trkpt lat="43.46461" lon="6.63197">
        <ele>14</ele>
        <time>2019-04-26T19:31:11.678Z</time>
      </trkpt>
      <trkpt lat="43.46461" lon="6.63204">
        <ele>14</ele>
        <time>2019-04-26T19:31:12.678Z</time>
      </trkpt>
      <trkpt lat="43.4646" lon="6.63219">
        <ele>14</ele>
        <time>2019-04-26T19:31:13.678Z</time>
      </trkpt>
      <trkpt lat="43.4646" lon="6.63233">
        <ele>14</ele>
        <time>2019-04-26T19:31:14.678Z</time>
      </trkpt>
      <trkpt lat="43.46461" lon="6.63248">
        <ele>14</ele>
        <time>2019-04-26T19:31:15.678Z</time>
      </trkpt>
      <trkpt lat="43.46461" lon="6.63262">
        <ele>14</ele>
        <time>2019-04-26T19:31:16.678Z</time>
      </trkpt>
      <trkpt lat="43.46461" lon="6.63277">
        <ele>13</ele>
        <time>2019-04-26T19:31:17.678Z</time>
      </trkpt>
      <trkpt lat="43.4646" lon="6.63291">
        <ele>13</ele>
        <time>2019-04-26T19:31:18.678Z</time>
      </trkpt>
      <trkpt lat="43.4646" lon="6.63305">
        <ele>13</ele>
        <time>2019-04-26T19:31:19.678Z</time>
      </trkpt>
      <trkpt lat="43.4646" lon="6.6332">
        <ele>13</ele>
        <time>2019-04-26T19:31:20.678Z</time>
      </trkpt>
      <trkpt lat="43.4646" lon="6.63327">
        <ele>13</ele>
        <time>2019-04-26T19:31:21.678Z</time>
      </trkpt>
      <trkpt lat="43.4646" lon="6.63334">
        <ele>12</ele>
        <time>2019-04-26T19:31:22.678Z</time>
      </trkpt>
      <trkpt lat="43.4646" lon="6.6335">
        <ele>12</ele>
        <time>2019-04-26T19:31:23.678Z</time>
      </trkpt>
      <trkpt lat="43.4646" lon="6.63364">
        <ele>12</ele>
        <time>2019-04-26T19:31:24.678Z</time>
      </trkpt>
      <trkpt lat="43.4646" lon="6.63379">
        <ele>12</ele>
        <time>2019-04-26T19:31:25.678Z</time>
      </trkpt>
      <trkpt lat="43.46459" lon="6.63387">
        <ele>12</ele>
        <time>2019-04-26T19:31:26.678Z</time>
      </trkpt>
      <trkpt lat="43.46459" lon="6.63394">
        <ele>12</ele>
        <time>2019-04-26T19:31:27.678Z</time>
      </trkpt>
      <trkpt lat="43.46459" lon="6.63409">
        <ele>12</ele>
        <time>2019-04-26T19:31:28.678Z</time>
      </trkpt>
      <trkpt lat="43.46458" lon="6.63423">
        <ele>13</ele>
        <time>2019-04-26T19:31:29.678Z</time>
      </trkpt>
      <trkpt lat="43.46458" lon="6.63437">
        <ele>13</ele>
        <time>2019-04-26T19:31:30.678Z</time>
      </trkpt>
      <trkpt lat="43.46458" lon="6.63443">
        <ele>13</ele>
        <time>2019-04-26T19:31:31.678Z</time>
      </trkpt>
      <trkpt lat="43.46458" lon="6.63449">
        <ele>13</ele>
        <time>2019-04-26T19:31:32.678Z</time>
      </trkpt>
      <trkpt lat="43.46458" lon="6.63461">
        <ele>13</ele>
        <time>2019-04-26T19:31:33.678Z</time>
      </trkpt>
      <trkpt lat="43.46458" lon="6.63473">
        <ele>13</ele>
        <time>2019-04-26T19:31:34.678Z</time>
      </trkpt>
      <trkpt lat="43.46457" lon="6.63485">
        <ele>13</ele>
        <time>2019-04-26T19:31:35.678Z</time>
      </trkpt>
      <trkpt lat="43.46457" lon="6.63498">
        <ele>13</ele>
        <time>2019-04-26T19:31:36.678Z</time>
      </trkpt>
      <trkpt lat="43.46457" lon="6.63504">
        <ele>13</ele>
        <time>2019-04-26T19:31:37.678Z</time>
      </trkpt>
      <trkpt lat="43.46457" lon="6.63511">
        <ele>13</ele>
        <time>2019-04-26T19:31:38.678Z</time>
      </trkpt>
      <trkpt lat="43.46456" lon="6.63526">
        <ele>13</ele>
        <time>2019-04-26T19:31:39.678Z</time>
      </trkpt>
      <trkpt lat="43.46456" lon="6.63541">
        <ele>13</ele>
        <time>2019-04-26T19:31:40.678Z</time>
      </trkpt>
      <trkpt lat="43.46457" lon="6.63556">
        <ele>13</ele>
        <time>2019-04-26T19:31:41.678Z</time>
      </trkpt>
      <trkpt lat="43.46457" lon="6.63564">
        <ele>13</ele>
        <time>2019-04-26T19:31:42.678Z</time>
      </trkpt>
      <trkpt lat="43.46457" lon="6.63572">
        <ele>13</ele>
        <time>2019-04-26T19:31:43.678Z</time>
      </trkpt>
      <trkpt lat="43.46458" lon="6.63586">
        <ele>14</ele>
        <time>2019-04-26T19:31:44.678Z</time>
      </trkpt>
      <trkpt lat="43.4646" lon="6.636">
        <ele>14</ele>
        <time>2019-04-26T19:31:45.678Z</time>
      </trkpt>
      <trkpt lat="43.4646" lon="6.63607">
        <ele>14</ele>
        <time>2019-04-26T19:31:46.678Z</time>
      </trkpt>
      <trkpt lat="43.46461" lon="6.63614">
        <ele>14</ele>
        <time>2019-04-26T19:31:47.678Z</time>
      </trkpt>
      <trkpt lat="43.46462" lon="6.63628">
        <ele>15</ele>
        <time>2019-04-26T19:31:48.678Z</time>
      </trkpt>
      <trkpt lat="43.46461" lon="6.63635">
        <ele>15</ele>
        <time>2019-04-26T19:31:49.678Z</time>
      </trkpt>
      <trkpt lat="43.46458" lon="6.6364">
        <ele>15</ele>
        <time>2019-04-26T19:31:50.678Z</time>
      </trkpt>
      <trkpt lat="43.46454" lon="6.63643">
        <ele>15</ele>
        <time>2019-04-26T19:31:51.678Z</time>
      </trkpt>
      <trkpt lat="43.4645" lon="6.63641">
        <ele>15</ele>
        <time>2019-04-26T19:31:52.678Z</time>
      </trkpt>
      <trkpt lat="43.46446" lon="6.6364">
        <ele>15</ele>
        <time>2019-04-26T19:31:53.678Z</time>
      </trkpt>
      <trkpt lat="43.46442" lon="6.63638">
        <ele>15</ele>
        <time>2019-04-26T19:31:54.678Z</time>
      </trkpt>
      <trkpt lat="43.46431" lon="6.63635">
        <ele>14</ele>
        <time>2019-04-26T19:31:55.678Z</time>
      </trkpt>
      <trkpt lat="43.46418" lon="6.63631">
        <ele>14</ele>
        <time>2019-04-26T19:31:56.678Z</time>
      </trkpt>
      <trkpt lat="43.46407" lon="6.63626">
        <ele>13</ele>
        <time>2019-04-26T19:31:57.678Z</time>
      </trkpt>
      <trkpt lat="43.46402" lon="6.63622">
        <ele>13</ele>
        <time>2019-04-26T19:31:58.678Z</time>
      </trkpt>
      <trkpt lat="43.46398" lon="6.63618">
        <ele>13</ele>
        <time>2019-04-26T19:31:59.678Z</time>
      </trkpt>
      <trkpt lat="43.4639" lon="6.63605">
        <ele>13</ele>
        <time>2019-04-26T19:32:00.678Z</time>
      </trkpt>
      <trkpt lat="43.46386" lon="6.63595">
        <ele>13</ele>
        <time>2019-04-26T19:32:01.678Z</time>
      </trkpt>
      <trkpt lat="43.46382" lon="6.63586">
        <ele>13</ele>
        <time>2019-04-26T19:32:02.678Z</time>
      </trkpt>
      <trkpt lat="43.46378" lon="6.63578">
        <ele>13</ele>
        <time>2019-04-26T19:32:03.678Z</time>
      </trkpt>
      <trkpt lat="43.46373" lon="6.63571">
        <ele>13</ele>
        <time>2019-04-26T19:32:04.678Z</time>
      </trkpt>
      <trkpt lat="43.4636" lon="6.63562">
        <ele>13</ele>
        <time>2019-04-26T19:32:05.678Z</time>
      </trkpt>
      <trkpt lat="43.46353" lon="6.6356">
        <ele>13</ele>
        <time>2019-04-26T19:32:06.678Z</time>
      </trkpt>
      <trkpt lat="43.46346" lon="6.63559">
        <ele>13</ele>
        <time>2019-04-26T19:32:07.678Z</time>
      </trkpt>
      <trkpt lat="43.46339" lon="6.6356">
        <ele>13</ele>
        <time>2019-04-26T19:32:08.678Z</time>
      </trkpt>
      <trkpt lat="43.46332" lon="6.63564">
        <ele>13</ele>
        <time>2019-04-26T19:32:09.678Z</time>
      </trkpt>
      <trkpt lat="43.46319" lon="6.63575">
        <ele>13</ele>
        <time>2019-04-26T19:32:10.678Z</time>
      </trkpt>
      <trkpt lat="43.46314" lon="6.63582">
        <ele>13</ele>
        <time>2019-04-26T19:32:11.678Z</time>
      </trkpt>
      <trkpt lat="43.46308" lon="6.63589">
        <ele>12</ele>
        <time>2019-04-26T19:32:12.678Z</time>
      </trkpt>
      <trkpt lat="43.46303" lon="6.63595">
        <ele>12</ele>
        <time>2019-04-26T19:32:13.678Z</time>
      </trkpt>
      <trkpt lat="43.46297" lon="6.636">
        <ele>12</ele>
        <time>2019-04-26T19:32:14.678Z</time>
      </trkpt>
      <trkpt lat="43.4629" lon="6.63604">
        <ele>12</ele>
        <time>2019-04-26T19:32:15.678Z</time>
      </trkpt>
      <trkpt lat="43.46284" lon="6.63607">
        <ele>12</ele>
        <time>2019-04-26T19:32:16.678Z</time>
      </trkpt>
      <trkpt lat="43.4627" lon="6.6361">
        <ele>11</ele>
        <time>2019-04-26T19:32:17.678Z</time>
      </trkpt>
      <trkpt lat="43.46263" lon="6.63612">
        <ele>11</ele>
        <time>2019-04-26T19:32:18.678Z</time>
      </trkpt>
      <trkpt lat="43.46257" lon="6.63613">
        <ele>11</ele>
        <time>2019-04-26T19:32:19.678Z</time>
      </trkpt>
      <trkpt lat="43.46243" lon="6.63614">
        <ele>11</ele>
        <time>2019-04-26T19:32:20.678Z</time>
      </trkpt>
      <trkpt lat="43.46229" lon="6.63615">
        <ele>11</ele>
        <time>2019-04-26T19:32:21.678Z</time>
      </trkpt>
      <trkpt lat="43.46215" lon="6.63616">
        <ele>11</ele>
        <time>2019-04-26T19:32:22.678Z</time>
      </trkpt>
      <trkpt lat="43.46208" lon="6.63617">
        <ele>11</ele>
        <time>2019-04-26T19:32:23.678Z</time>
      </trkpt>
      <trkpt lat="43.46202" lon="6.63617">
        <ele>11</ele>
        <time>2019-04-26T19:32:24.678Z</time>
      </trkpt>
      <trkpt lat="43.46188" lon="6.63618">
        <ele>11</ele>
        <time>2019-04-26T19:32:25.678Z</time>
      </trkpt>
      <trkpt lat="43.46175" lon="6.63619">
        <ele>10</ele>
        <time>2019-04-26T19:32:26.678Z</time>
      </trkpt>
      <trkpt lat="43.46162" lon="6.6362">
        <ele>11</ele>
        <time>2019-04-26T19:32:27.678Z</time>
      </trkpt>
      <trkpt lat="43.46155" lon="6.6362">
        <ele>11</ele>
        <time>2019-04-26T19:32:28.678Z</time>
      </trkpt>
      <trkpt lat="43.46149" lon="6.63621">
        <ele>11</ele>
        <time>2019-04-26T19:32:29.678Z</time>
      </trkpt>
      <trkpt lat="43.46136" lon="6.63622">
        <ele>11</ele>
        <time>2019-04-26T19:32:30.678Z</time>
      </trkpt>
      <trkpt lat="43.46124" lon="6.6362">
        <ele>11</ele>
        <time>2019-04-26T19:32:31.678Z</time>
      </trkpt>
      <trkpt lat="43.46118" lon="6.63617">
        <ele>11</ele>
        <time>2019-04-26T19:32:32.678Z</time>
      </trkpt>
      <trkpt lat="43.46111" lon="6.63615">
        <ele>11</ele>
        <time>2019-04-26T19:32:33.678Z</time>
      </trkpt>
      <trkpt lat="43.46099" lon="6.6362">
        <ele>12</ele>
        <time>2019-04-26T19:32:34.678Z</time>
      </trkpt>
      <trkpt lat="43.46087" lon="6.63624">
        <ele>12</ele>
        <time>2019-04-26T19:32:35.678Z</time>
      </trkpt>
      <trkpt lat="43.46081" lon="6.63624">
        <ele>12</ele>
        <time>2019-04-26T19:32:36.678Z</time>
      </trkpt>
      <trkpt lat="43.46075" lon="6.63623">
        <ele>12</ele>
        <time>2019-04-26T19:32:37.678Z</time>
      </trkpt>
      <trkpt lat="43.46062" lon="6.63624">
        <ele>12</ele>
        <time>2019-04-26T19:32:38.678Z</time>
      </trkpt>
      <trkpt lat="43.46056" lon="6.63624">
        <ele>12</ele>
        <time>2019-04-26T19:32:39.678Z</time>
      </trkpt>
      <trkpt lat="43.46049" lon="6.63623">
        <ele>12</ele>
        <time>2019-04-26T19:32:40.678Z</time>
      </trkpt>
      <trkpt lat="43.46036" lon="6.63621">
        <ele>12</ele>
        <time>2019-04-26T19:32:41.678Z</time>
      </trkpt>
      <trkpt lat="43.46022" lon="6.63617">
        <ele>12</ele>
        <time>2019-04-26T19:32:42.678Z</time>
      </trkpt>
      <trkpt lat="43.4601" lon="6.63611">
        <ele>11</ele>
        <time>2019-04-26T19:32:43.678Z</time>
      </trkpt>
      <trkpt lat="43.45998" lon="6.63604">
        <ele>11</ele>
        <time>2019-04-26T19:32:44.678Z</time>
      </trkpt>
      <trkpt lat="43.45986" lon="6.63596">
        <ele>11</ele>
        <time>2019-04-26T19:32:45.678Z</time>
      </trkpt>
      <trkpt lat="43.45975" lon="6.63588">
        <ele>11</ele>
        <time>2019-04-26T19:32:46.678Z</time>
      </trkpt>
      <trkpt lat="43.45963" lon="6.63579">
        <ele>11</ele>
        <time>2019-04-26T19:32:47.678Z</time>
      </trkpt>
      <trkpt lat="43.45952" lon="6.63571">
        <ele>11</ele>
        <time>2019-04-26T19:32:48.678Z</time>
      </trkpt>
      <trkpt lat="43.4594" lon="6.63563">
        <ele>10</ele>
        <time>2019-04-26T19:32:49.678Z</time>
      </trkpt>
      <trkpt lat="43.45928" lon="6.63554">
        <ele>10</ele>
        <time>2019-04-26T19:32:50.678Z</time>
      </trkpt>
      <trkpt lat="43.45922" lon="6.6355">
        <ele>10</ele>
        <time>2019-04-26T19:32:51.678Z</time>
      </trkpt>
      <trkpt lat="43.45916" lon="6.63546">
        <ele>10</ele>
        <time>2019-04-26T19:32:52.678Z</time>
      </trkpt>
      <trkpt lat="43.45904" lon="6.63539">
        <ele>11</ele>
        <time>2019-04-26T19:32:53.678Z</time>
      </trkpt>
      <trkpt lat="43.45892" lon="6.63532">
        <ele>11</ele>
        <time>2019-04-26T19:32:54.678Z</time>
      </trkpt>
      <trkpt lat="43.4588" lon="6.63525">
        <ele>11</ele>
        <time>2019-04-26T19:32:55.678Z</time>
      </trkpt>
      <trkpt lat="43.45874" lon="6.63522">
        <ele>11</ele>
        <time>2019-04-26T19:32:56.678Z</time>
      </trkpt>
      <trkpt lat="43.45868" lon="6.63518">
        <ele>11</ele>
        <time>2019-04-26T19:32:57.678Z</time>
      </trkpt>
      <trkpt lat="43.45856" lon="6.63511">
        <ele>11</ele>
        <time>2019-04-26T19:32:58.678Z</time>
      </trkpt>
      <trkpt lat="43.45844" lon="6.63504">
        <ele>11</ele>
        <time>2019-04-26T19:32:59.678Z</time>
      </trkpt>
      <trkpt lat="43.45838" lon="6.635">
        <ele>11</ele>
        <time>2019-04-26T19:33:00.678Z</time>
      </trkpt>
      <trkpt lat="43.45833" lon="6.63496">
        <ele>11</ele>
        <time>2019-04-26T19:33:01.678Z</time>
      </trkpt>
      <trkpt lat="43.45821" lon="6.63487">
        <ele>12</ele>
        <time>2019-04-26T19:33:02.678Z</time>
      </trkpt>
      <trkpt lat="43.45808" lon="6.63479">
        <ele>12</ele>
        <time>2019-04-26T19:33:03.678Z</time>
      </trkpt>
      <trkpt lat="43.45796" lon="6.63471">
        <ele>12</ele>
        <time>2019-04-26T19:33:04.678Z</time>
      </trkpt>
      <trkpt lat="43.4579" lon="6.63467">
        <ele>13</ele>
        <time>2019-04-26T19:33:05.678Z</time>
      </trkpt>
      <trkpt lat="43.45784" lon="6.63462">
        <ele>13</ele>
        <time>2019-04-26T19:33:06.678Z</time>
      </trkpt>
      <trkpt lat="43.45773" lon="6.63452">
        <ele>13</ele>
        <time>2019-04-26T19:33:07.678Z</time>
      </trkpt>
      <trkpt lat="43.45762" lon="6.63441">
        <ele>13</ele>
        <time>2019-04-26T19:33:08.678Z</time>
      </trkpt>
      <trkpt lat="43.4575" lon="6.63431">
        <ele>13</ele>
        <time>2019-04-26T19:33:09.678Z</time>
      </trkpt>
      <trkpt lat="43.4574" lon="6.63419">
        <ele>13</ele>
        <time>2019-04-26T19:33:10.678Z</time>
      </trkpt>
      <trkpt lat="43.45729" lon="6.63407">
        <ele>13</ele>
        <time>2019-04-26T19:33:11.678Z</time>
      </trkpt>
      <trkpt lat="43.45718" lon="6.63396">
        <ele>13</ele>
        <time>2019-04-26T19:33:12.678Z</time>
      </trkpt>
      <trkpt lat="43.45707" lon="6.63386">
        <ele>13</ele>
        <time>2019-04-26T19:33:13.678Z</time>
      </trkpt>
      <trkpt lat="43.45695" lon="6.63378">
        <ele>13</ele>
        <time>2019-04-26T19:33:14.678Z</time>
      </trkpt>
      <trkpt lat="43.45689" lon="6.63375">
        <ele>14</ele>
        <time>2019-04-26T19:33:15.678Z</time>
      </trkpt>
      <trkpt lat="43.45683" lon="6.63372">
        <ele>14</ele>
        <time>2019-04-26T19:33:16.678Z</time>
      </trkpt>
      <trkpt lat="43.45676" lon="6.63369">
        <ele>14</ele>
        <time>2019-04-26T19:33:17.678Z</time>
      </trkpt>
      <trkpt lat="43.4567" lon="6.63367">
        <ele>14</ele>
        <time>2019-04-26T19:33:18.678Z</time>
      </trkpt>
      <trkpt lat="43.45657" lon="6.63363">
        <ele>13</ele>
        <time>2019-04-26T19:33:19.678Z</time>
      </trkpt>
      <trkpt lat="43.45644" lon="6.63358">
        <ele>13</ele>
        <time>2019-04-26T19:33:20.678Z</time>
      </trkpt>
      <trkpt lat="43.45631" lon="6.63354">
        <ele>13</ele>
        <time>2019-04-26T19:33:21.678Z</time>
      </trkpt>
      <trkpt lat="43.45618" lon="6.6335">
        <ele>13</ele>
        <time>2019-04-26T19:33:22.678Z</time>
      </trkpt>
      <trkpt lat="43.45605" lon="6.63346">
        <ele>12</ele>
        <time>2019-04-26T19:33:23.678Z</time>
      </trkpt>
      <trkpt lat="43.45591" lon="6.63342">
        <ele>12</ele>
        <time>2019-04-26T19:33:24.678Z</time>
      </trkpt>
      <trkpt lat="43.45577" lon="6.6334">
        <ele>12</ele>
        <time>2019-04-26T19:33:25.678Z</time>
      </trkpt>
      <trkpt lat="43.45564" lon="6.63339">
        <ele>12</ele>
        <time>2019-04-26T19:33:26.678Z</time>
      </trkpt>
      <trkpt lat="43.4555" lon="6.63338">
        <ele>12</ele>
        <time>2019-04-26T19:33:27.678Z</time>
      </trkpt>
      <trkpt lat="43.45536" lon="6.63337">
        <ele>11</ele>
        <time>2019-04-26T19:33:28.678Z</time>
      </trkpt>
      <trkpt lat="43.45522" lon="6.63336">
        <ele>11</ele>
        <time>2019-04-26T19:33:29.678Z</time>
      </trkpt>
      <trkpt lat="43.45508" lon="6.63336">
        <ele>11</ele>
        <time>2019-04-26T19:33:30.678Z</time>
      </trkpt>
      <trkpt lat="43.45495" lon="6.63335">
        <ele>11</ele>
        <time>2019-04-26T19:33:31.678Z</time>
      </trkpt>
      <trkpt lat="43.45481" lon="6.63334">
        <ele>11</ele>
        <time>2019-04-26T19:33:32.678Z</time>
      </trkpt>
      <trkpt lat="43.45468" lon="6.63334">
        <ele>11</ele>
        <time>2019-04-26T19:33:33.678Z</time>
      </trkpt>
      <trkpt lat="43.45454" lon="6.63333">
        <ele>11</ele>
        <time>2019-04-26T19:33:34.678Z</time>
      </trkpt>
      <trkpt lat="43.4544" lon="6.63333">
        <ele>11</ele>
        <time>2019-04-26T19:33:35.678Z</time>
      </trkpt>
      <trkpt lat="43.45426" lon="6.63333">
        <ele>11</ele>
        <time>2019-04-26T19:33:36.678Z</time>
      </trkpt>
      <trkpt lat="43.45412" lon="6.63332">
        <ele>11</ele>
        <time>2019-04-26T19:33:37.678Z</time>
      </trkpt>
      <trkpt lat="43.45398" lon="6.63332">
        <ele>11</ele>
        <time>2019-04-26T19:33:38.678Z</time>
      </trkpt>
      <trkpt lat="43.45385" lon="6.63331">
        <ele>11</ele>
        <time>2019-04-26T19:33:39.678Z</time>
      </trkpt>
      <trkpt lat="43.45371" lon="6.63331">
        <ele>11</ele>
        <time>2019-04-26T19:33:40.678Z</time>
      </trkpt>
      <trkpt lat="43.45364" lon="6.63331">
        <ele>11</ele>
        <time>2019-04-26T19:33:41.678Z</time>
      </trkpt>
      <trkpt lat="43.45357" lon="6.6333">
        <ele>11</ele>
        <time>2019-04-26T19:33:42.678Z</time>
      </trkpt>
      <trkpt lat="43.45343" lon="6.6333">
        <ele>11</ele>
        <time>2019-04-26T19:33:43.678Z</time>
      </trkpt>
      <trkpt lat="43.45329" lon="6.6333">
        <ele>11</ele>
        <time>2019-04-26T19:33:44.678Z</time>
      </trkpt>
      <trkpt lat="43.45315" lon="6.63329">
        <ele>11</ele>
        <time>2019-04-26T19:33:45.678Z</time>
      </trkpt>
      <trkpt lat="43.45301" lon="6.63328">
        <ele>11</ele>
        <time>2019-04-26T19:33:46.678Z</time>
      </trkpt>
      <trkpt lat="43.45294" lon="6.63328">
        <ele>12</ele>
        <time>2019-04-26T19:33:47.678Z</time>
      </trkpt>
      <trkpt lat="43.45287" lon="6.63328">
        <ele>12</ele>
        <time>2019-04-26T19:33:48.678Z</time>
      </trkpt>
      <trkpt lat="43.45272" lon="6.63328">
        <ele>12</ele>
        <time>2019-04-26T19:33:49.678Z</time>
      </trkpt>
      <trkpt lat="43.45258" lon="6.63327">
        <ele>12</ele>
        <time>2019-04-26T19:33:50.678Z</time>
      </trkpt>
      <trkpt lat="43.45243" lon="6.63327">
        <ele>12</ele>
        <time>2019-04-26T19:33:51.678Z</time>
      </trkpt>
      <trkpt lat="43.45229" lon="6.63327">
        <ele>12</ele>
        <time>2019-04-26T19:33:52.678Z</time>
      </trkpt>
      <trkpt lat="43.45215" lon="6.63326">
        <ele>12</ele>
        <time>2019-04-26T19:33:53.678Z</time>
      </trkpt>
      <trkpt lat="43.45202" lon="6.63326">
        <ele>12</ele>
        <time>2019-04-26T19:33:54.678Z</time>
      </trkpt>
      <trkpt lat="43.45189" lon="6.63325">
        <ele>13</ele>
        <time>2019-04-26T19:33:55.678Z</time>
      </trkpt>
      <trkpt lat="43.45176" lon="6.63324">
        <ele>13</ele>
        <time>2019-04-26T19:33:56.678Z</time>
      </trkpt>
      <trkpt lat="43.45169" lon="6.63324">
        <ele>13</ele>
        <time>2019-04-26T19:33:57.678Z</time>
      </trkpt>
      <trkpt lat="43.45163" lon="6.63323">
        <ele>13</ele>
        <time>2019-04-26T19:33:58.678Z</time>
      </trkpt>
      <trkpt lat="43.45151" lon="6.63321">
        <ele>12</ele>
        <time>2019-04-26T19:33:59.678Z</time>
      </trkpt>
      <trkpt lat="43.45139" lon="6.63319">
        <ele>12</ele>
        <time>2019-04-26T19:34:00.678Z</time>
      </trkpt>
      <trkpt lat="43.45127" lon="6.63316">
        <ele>12</ele>
        <time>2019-04-26T19:34:01.678Z</time>
      </trkpt>
      <trkpt lat="43.45115" lon="6.63314">
        <ele>12</ele>
        <time>2019-04-26T19:34:02.678Z</time>
      </trkpt>
      <trkpt lat="43.45103" lon="6.63311">
        <ele>12</ele>
        <time>2019-04-26T19:34:03.678Z</time>
      </trkpt>
      <trkpt lat="43.45092" lon="6.63309">
        <ele>11</ele>
        <time>2019-04-26T19:34:04.678Z</time>
      </trkpt>
      <trkpt lat="43.45081" lon="6.63306">
        <ele>11</ele>
        <time>2019-04-26T19:34:05.678Z</time>
      </trkpt>
      <trkpt lat="43.4507" lon="6.63304">
        <ele>11</ele>
        <time>2019-04-26T19:34:06.678Z</time>
      </trkpt>
      <trkpt lat="43.45064" lon="6.63303">
        <ele>11</ele>
        <time>2019-04-26T19:34:07.678Z</time>
      </trkpt>
      <trkpt lat="43.45058" lon="6.63303">
        <ele>11</ele>
        <time>2019-04-26T19:34:08.678Z</time>
      </trkpt>
      <trkpt lat="43.45047" lon="6.63301">
        <ele>11</ele>
        <time>2019-04-26T19:34:09.678Z</time>
      </trkpt>
      <trkpt lat="43.45036" lon="6.63301">
        <ele>11</ele>
        <time>2019-04-26T19:34:10.678Z</time>
      </trkpt>
      <trkpt lat="43.45024" lon="6.63301">
        <ele>11</ele>
        <time>2019-04-26T19:34:11.678Z</time>
      </trkpt>
      <trkpt lat="43.45013" lon="6.633">
        <ele>11</ele>
        <time>2019-04-26T19:34:12.678Z</time>
      </trkpt>
      <trkpt lat="43.45001" lon="6.633">
        <ele>11</ele>
        <time>2019-04-26T19:34:13.678Z</time>
      </trkpt>
      <trkpt lat="43.44988" lon="6.633">
        <ele>11</ele>
        <time>2019-04-26T19:34:14.678Z</time>
      </trkpt>
      <trkpt lat="43.44976" lon="6.63299">
        <ele>11</ele>
        <time>2019-04-26T19:34:15.678Z</time>
      </trkpt>
      <trkpt lat="43.44962" lon="6.63299">
        <ele>11</ele>
        <time>2019-04-26T19:34:16.678Z</time>
      </trkpt>
      <trkpt lat="43.44949" lon="6.63299">
        <ele>12</ele>
        <time>2019-04-26T19:34:17.678Z</time>
      </trkpt>
      <trkpt lat="43.44935" lon="6.633">
        <ele>12</ele>
        <time>2019-04-26T19:34:18.678Z</time>
      </trkpt>
      <trkpt lat="43.44922" lon="6.633">
        <ele>12</ele>
        <time>2019-04-26T19:34:19.678Z</time>
      </trkpt>
      <trkpt lat="43.44907" lon="6.63302">
        <ele>12</ele>
        <time>2019-04-26T19:34:20.678Z</time>
      </trkpt>
      <trkpt lat="43.44893" lon="6.63305">
        <ele>12</ele>
        <time>2019-04-26T19:34:21.678Z</time>
      </trkpt>
      <trkpt lat="43.44886" lon="6.63307">
        <ele>12</ele>
        <time>2019-04-26T19:34:22.678Z</time>
      </trkpt>
      <trkpt lat="43.44878" lon="6.63308">
        <ele>12</ele>
        <time>2019-04-26T19:34:23.678Z</time>
      </trkpt>
      <trkpt lat="43.44871" lon="6.63309">
        <ele>12</ele>
        <time>2019-04-26T19:34:24.678Z</time>
      </trkpt>
      <trkpt lat="43.44863" lon="6.63311">
        <ele>12</ele>
        <time>2019-04-26T19:34:25.678Z</time>
      </trkpt>
      <trkpt lat="43.44847" lon="6.63314">
        <ele>12</ele>
        <time>2019-04-26T19:34:26.678Z</time>
      </trkpt>
      <trkpt lat="43.44831" lon="6.63316">
        <ele>12</ele>
        <time>2019-04-26T19:34:27.678Z</time>
      </trkpt>
      <trkpt lat="43.44823" lon="6.63317">
        <ele>12</ele>
        <time>2019-04-26T19:34:28.678Z</time>
      </trkpt>
      <trkpt lat="43.44815" lon="6.63318">
        <ele>12</ele>
        <time>2019-04-26T19:34:29.678Z</time>
      </trkpt>
      <trkpt lat="43.44798" lon="6.63318">
        <ele>13</ele>
        <time>2019-04-26T19:34:30.678Z</time>
      </trkpt>
      <trkpt lat="43.44783" lon="6.63318">
        <ele>13</ele>
        <time>2019-04-26T19:34:31.678Z</time>
      </trkpt>
      <trkpt lat="43.44768" lon="6.63319">
        <ele>13</ele>
        <time>2019-04-26T19:34:32.678Z</time>
      </trkpt>
      <trkpt lat="43.44753" lon="6.63322">
        <ele>13</ele>
        <time>2019-04-26T19:34:33.678Z</time>
      </trkpt>
      <trkpt lat="43.4474" lon="6.6333">
        <ele>14</ele>
        <time>2019-04-26T19:34:34.678Z</time>
      </trkpt>
      <trkpt lat="43.44729" lon="6.63342">
        <ele>14</ele>
        <time>2019-04-26T19:34:35.678Z</time>
      </trkpt>
      <trkpt lat="43.4472" lon="6.63355">
        <ele>14</ele>
        <time>2019-04-26T19:34:36.678Z</time>
      </trkpt>
      <trkpt lat="43.44715" lon="6.63362">
        <ele>14</ele>
        <time>2019-04-26T19:34:37.678Z</time>
      </trkpt>
      <trkpt lat="43.44711" lon="6.63369">
        <ele>14</ele>
        <time>2019-04-26T19:34:38.678Z</time>
      </trkpt>
      <trkpt lat="43.44703" lon="6.63383">
        <ele>14</ele>
        <time>2019-04-26T19:34:39.678Z</time>
      </trkpt>
      <trkpt lat="43.44694" lon="6.63398">
        <ele>14</ele>
        <time>2019-04-26T19:34:40.678Z</time>
      </trkpt>
      <trkpt lat="43.44686" lon="6.63411">
        <ele>14</ele>
        <time>2019-04-26T19:34:41.678Z</time>
      </trkpt>
      <trkpt lat="43.44677" lon="6.63425">
        <ele>14</ele>
        <time>2019-04-26T19:34:42.678Z</time>
      </trkpt>
      <trkpt lat="43.44673" lon="6.63432">
        <ele>14</ele>
        <time>2019-04-26T19:34:43.678Z</time>
      </trkpt>
      <trkpt lat="43.44668" lon="6.63439">
        <ele>14</ele>
        <time>2019-04-26T19:34:44.678Z</time>
      </trkpt>
      <trkpt lat="43.44659" lon="6.63454">
        <ele>15</ele>
        <time>2019-04-26T19:34:45.678Z</time>
      </trkpt>
      <trkpt lat="43.4465" lon="6.6347">
        <ele>15</ele>
        <time>2019-04-26T19:34:46.678Z</time>
      </trkpt>
      <trkpt lat="43.4464" lon="6.63486">
        <ele>15</ele>
        <time>2019-04-26T19:34:47.678Z</time>
      </trkpt>
      <trkpt lat="43.4463" lon="6.63503">
        <ele>16</ele>
        <time>2019-04-26T19:34:48.678Z</time>
      </trkpt>
      <trkpt lat="43.4462" lon="6.6352">
        <ele>17</ele>
        <time>2019-04-26T19:34:49.678Z</time>
      </trkpt>
      <trkpt lat="43.44611" lon="6.63538">
        <ele>17</ele>
        <time>2019-04-26T19:34:50.678Z</time>
      </trkpt>
      <trkpt lat="43.44605" lon="6.63556">
        <ele>17</ele>
        <time>2019-04-26T19:34:51.678Z</time>
      </trkpt>
      <trkpt lat="43.44599" lon="6.63574">
        <ele>17</ele>
        <time>2019-04-26T19:34:52.678Z</time>
      </trkpt>
      <trkpt lat="43.44593" lon="6.63591">
        <ele>17</ele>
        <time>2019-04-26T19:34:53.678Z</time>
      </trkpt>
      <trkpt lat="43.44591" lon="6.63599">
        <ele>17</ele>
        <time>2019-04-26T19:34:54.678Z</time>
      </trkpt>
      <trkpt lat="43.44588" lon="6.63606">
        <ele>17</ele>
        <time>2019-04-26T19:34:55.678Z</time>
      </trkpt>
      <trkpt lat="43.44585" lon="6.63618">
        <ele>17</ele>
        <time>2019-04-26T19:34:56.678Z</time>
      </trkpt>
      <trkpt lat="43.44583" lon="6.63624">
        <ele>17</ele>
        <time>2019-04-26T19:34:57.678Z</time>
      </trkpt>
      <trkpt lat="43.44581" lon="6.63631">
        <ele>17</ele>
        <time>2019-04-26T19:34:58.678Z</time>
      </trkpt>
      <trkpt lat="43.44576" lon="6.63646">
        <ele>16</ele>
        <time>2019-04-26T19:34:59.678Z</time>
      </trkpt>
      <trkpt lat="43.44571" lon="6.63661">
        <ele>16</ele>
        <time>2019-04-26T19:35:00.678Z</time>
      </trkpt>
      <trkpt lat="43.44568" lon="6.63669">
        <ele>16</ele>
        <time>2019-04-26T19:35:01.678Z</time>
      </trkpt>
      <trkpt lat="43.44566" lon="6.63677">
        <ele>16</ele>
        <time>2019-04-26T19:35:02.678Z</time>
      </trkpt>
      <trkpt lat="43.4456" lon="6.63692">
        <ele>16</ele>
        <time>2019-04-26T19:35:03.678Z</time>
      </trkpt>
      <trkpt lat="43.44554" lon="6.63708">
        <ele>17</ele>
        <time>2019-04-26T19:35:04.678Z</time>
      </trkpt>
      <trkpt lat="43.4455" lon="6.63724">
        <ele>17</ele>
        <time>2019-04-26T19:35:05.678Z</time>
      </trkpt>
      <trkpt lat="43.44547" lon="6.63732">
        <ele>18</ele>
        <time>2019-04-26T19:35:06.678Z</time>
      </trkpt>
      <trkpt lat="43.44544" lon="6.6374">
        <ele>18</ele>
        <time>2019-04-26T19:35:07.678Z</time>
      </trkpt>
      <trkpt lat="43.44538" lon="6.63755">
        <ele>19</ele>
        <time>2019-04-26T19:35:08.678Z</time>
      </trkpt>
      <trkpt lat="43.44533" lon="6.63769">
        <ele>19</ele>
        <time>2019-04-26T19:35:09.678Z</time>
      </trkpt>
      <trkpt lat="43.44528" lon="6.63781">
        <ele>20</ele>
        <time>2019-04-26T19:35:10.678Z</time>
      </trkpt>
      <trkpt lat="43.44523" lon="6.63793">
        <ele>21</ele>
        <time>2019-04-26T19:35:11.678Z</time>
      </trkpt>
      <trkpt lat="43.4452" lon="6.63798">
        <ele>21</ele>
        <time>2019-04-26T19:35:12.678Z</time>
      </trkpt>
      <trkpt lat="43.44517" lon="6.63803">
        <ele>21</ele>
        <time>2019-04-26T19:35:13.678Z</time>
      </trkpt>
      <trkpt lat="43.44512" lon="6.63813">
        <ele>22</ele>
        <time>2019-04-26T19:35:14.678Z</time>
      </trkpt>
      <trkpt lat="43.4451" lon="6.63817">
        <ele>22</ele>
        <time>2019-04-26T19:35:15.678Z</time>
      </trkpt>
      <trkpt lat="43.44507" lon="6.63822">
        <ele>22</ele>
        <time>2019-04-26T19:35:16.678Z</time>
      </trkpt>
      <trkpt lat="43.44505" lon="6.63827">
        <ele>22</ele>
        <time>2019-04-26T19:35:17.678Z</time>
      </trkpt>
      <trkpt lat="43.44503" lon="6.63832">
        <ele>23</ele>
        <time>2019-04-26T19:35:18.678Z</time>
      </trkpt>
      <trkpt lat="43.44501" lon="6.63838">
        <ele>23</ele>
        <time>2019-04-26T19:35:19.678Z</time>
      </trkpt>
      <trkpt lat="43.44498" lon="6.63844">
        <ele>23</ele>
        <time>2019-04-26T19:35:20.678Z</time>
      </trkpt>
      <trkpt lat="43.44493" lon="6.63858">
        <ele>22</ele>
        <time>2019-04-26T19:35:21.678Z</time>
      </trkpt>
      <trkpt lat="43.44488" lon="6.63872">
        <ele>21</ele>
        <time>2019-04-26T19:35:22.678Z</time>
      </trkpt>
      <trkpt lat="43.44483" lon="6.63887">
        <ele>21</ele>
        <time>2019-04-26T19:35:23.678Z</time>
      </trkpt>
      <trkpt lat="43.44478" lon="6.63903">
        <ele>20</ele>
        <time>2019-04-26T19:35:24.678Z</time>
      </trkpt>
      <trkpt lat="43.44472" lon="6.63919">
        <ele>19</ele>
        <time>2019-04-26T19:35:25.678Z</time>
      </trkpt>
      <trkpt lat="43.44465" lon="6.63936">
        <ele>19</ele>
        <time>2019-04-26T19:35:26.678Z</time>
      </trkpt>
      <trkpt lat="43.44457" lon="6.63952">
        <ele>18</ele>
        <time>2019-04-26T19:35:27.678Z</time>
      </trkpt>
      <trkpt lat="43.44455" lon="6.6397">
        <ele>18</ele>
        <time>2019-04-26T19:35:28.678Z</time>
      </trkpt>
      <trkpt lat="43.44454" lon="6.63989">
        <ele>17</ele>
        <time>2019-04-26T19:35:29.678Z</time>
      </trkpt>
      <trkpt lat="43.44452" lon="6.64007">
        <ele>17</ele>
        <time>2019-04-26T19:35:30.678Z</time>
      </trkpt>
      <trkpt lat="43.44451" lon="6.64024">
        <ele>18</ele>
        <time>2019-04-26T19:35:31.678Z</time>
      </trkpt>
      <trkpt lat="43.4445" lon="6.64031">
        <ele>18</ele>
        <time>2019-04-26T19:35:32.678Z</time>
      </trkpt>
      <trkpt lat="43.44449" lon="6.64039">
        <ele>18</ele>
        <time>2019-04-26T19:35:33.678Z</time>
      </trkpt>
      <trkpt lat="43.4445" lon="6.64046">
        <ele>18</ele>
        <time>2019-04-26T19:35:34.678Z</time>
      </trkpt>
      <trkpt lat="43.44452" lon="6.64052">
        <ele>18</ele>
        <time>2019-04-26T19:35:35.678Z</time>
      </trkpt>
      <trkpt lat="43.44456" lon="6.64055">
        <ele>18</ele>
        <time>2019-04-26T19:35:36.678Z</time>
      </trkpt>
      <trkpt lat="43.4446" lon="6.64058">
        <ele>18</ele>
        <time>2019-04-26T19:35:37.678Z</time>
      </trkpt>
      <trkpt lat="43.44473" lon="6.64059">
        <ele>17</ele>
        <time>2019-04-26T19:35:38.678Z</time>
      </trkpt>
      <trkpt lat="43.4448" lon="6.64058">
        <ele>17</ele>
        <time>2019-04-26T19:35:39.678Z</time>
      </trkpt>
      <trkpt lat="43.44488" lon="6.64055">
        <ele>16</ele>
        <time>2019-04-26T19:35:40.678Z</time>
      </trkpt>
      <trkpt lat="43.44496" lon="6.6405">
        <ele>16</ele>
        <time>2019-04-26T19:35:41.678Z</time>
      </trkpt>
      <trkpt lat="43.44502" lon="6.64044">
        <ele>16</ele>
        <time>2019-04-26T19:35:42.678Z</time>
      </trkpt>
      <trkpt lat="43.44513" lon="6.64029">
        <ele>16</ele>
        <time>2019-04-26T19:35:43.678Z</time>
      </trkpt>
      <trkpt lat="43.44518" lon="6.64022">
        <ele>16</ele>
        <time>2019-04-26T19:35:44.678Z</time>
      </trkpt>
      <trkpt lat="43.44522" lon="6.64014">
        <ele>15</ele>
        <time>2019-04-26T19:35:45.678Z</time>
      </trkpt>
      <trkpt lat="43.44532" lon="6.64">
        <ele>15</ele>
        <time>2019-04-26T19:35:46.678Z</time>
      </trkpt>
      <trkpt lat="43.44537" lon="6.63993">
        <ele>15</ele>
        <time>2019-04-26T19:35:47.678Z</time>
      </trkpt>
      <trkpt lat="43.44542" lon="6.63988">
        <ele>15</ele>
        <time>2019-04-26T19:35:48.678Z</time>
      </trkpt>
      <trkpt lat="43.44555" lon="6.63982">
        <ele>15</ele>
        <time>2019-04-26T19:35:49.678Z</time>
      </trkpt>
      <trkpt lat="43.44562" lon="6.63982">
        <ele>15</ele>
        <time>2019-04-26T19:35:50.678Z</time>
      </trkpt>
      <trkpt lat="43.44569" lon="6.63983">
        <ele>15</ele>
        <time>2019-04-26T19:35:51.678Z</time>
      </trkpt>
      <trkpt lat="43.44583" lon="6.63986">
        <ele>14</ele>
        <time>2019-04-26T19:35:52.678Z</time>
      </trkpt>
      <trkpt lat="43.4459" lon="6.63988">
        <ele>14</ele>
        <time>2019-04-26T19:35:53.678Z</time>
      </trkpt>
      <trkpt lat="43.44597" lon="6.6399">
        <ele>14</ele>
        <time>2019-04-26T19:35:54.678Z</time>
      </trkpt>
      <trkpt lat="43.44604" lon="6.63992">
        <ele>14</ele>
        <time>2019-04-26T19:35:55.678Z</time>
      </trkpt>
      <trkpt lat="43.44611" lon="6.63993">
        <ele>13</ele>
        <time>2019-04-26T19:35:56.678Z</time>
      </trkpt>
      <trkpt lat="43.44625" lon="6.63995">
        <ele>13</ele>
        <time>2019-04-26T19:35:57.678Z</time>
      </trkpt>
      <trkpt lat="43.4464" lon="6.63997">
        <ele>13</ele>
        <time>2019-04-26T19:35:58.678Z</time>
      </trkpt>
      <trkpt lat="43.44647" lon="6.63998">
        <ele>13</ele>
        <time>2019-04-26T19:35:59.678Z</time>
      </trkpt>
      <trkpt lat="43.44654" lon="6.63999">
        <ele>12</ele>
        <time>2019-04-26T19:36:00.678Z</time>
      </trkpt>
      <trkpt lat="43.44668" lon="6.64001">
        <ele>12</ele>
        <time>2019-04-26T19:36:01.678Z</time>
      </trkpt>
      <trkpt lat="43.44682" lon="6.64003">
        <ele>12</ele>
        <time>2019-04-26T19:36:02.678Z</time>
      </trkpt>
      <trkpt lat="43.44696" lon="6.64009">
        <ele>12</ele>
        <time>2019-04-26T19:36:03.678Z</time>
      </trkpt>
      <trkpt lat="43.44704" lon="6.64024">
        <ele>13</ele>
        <time>2019-04-26T19:36:04.678Z</time>
      </trkpt>
      <trkpt lat="43.44704" lon="6.64044">
        <ele>14</ele>
        <time>2019-04-26T19:36:05.678Z</time>
      </trkpt>
      <trkpt lat="43.44703" lon="6.64053">
        <ele>14</ele>
        <time>2019-04-26T19:36:06.678Z</time>
      </trkpt>
      <trkpt lat="43.44702" lon="6.64063">
        <ele>14</ele>
        <time>2019-04-26T19:36:07.678Z</time>
      </trkpt>
      <trkpt lat="43.44702" lon="6.64081">
        <ele>15</ele>
        <time>2019-04-26T19:36:08.678Z</time>
      </trkpt>
      <trkpt lat="43.44703" lon="6.64089">
        <ele>15</ele>
        <time>2019-04-26T19:36:09.678Z</time>
      </trkpt>
      <trkpt lat="43.44705" lon="6.64096">
        <ele>16</ele>
        <time>2019-04-26T19:36:10.678Z</time>
      </trkpt>
      <trkpt lat="43.44711" lon="6.6411">
        <ele>16</ele>
        <time>2019-04-26T19:36:11.678Z</time>
      </trkpt>
      <trkpt lat="43.44715" lon="6.64116">
        <ele>16</ele>
        <time>2019-04-26T19:36:12.678Z</time>
      </trkpt>
      <trkpt lat="43.44718" lon="6.64122">
        <ele>16</ele>
        <time>2019-04-26T19:36:13.678Z</time>
      </trkpt>
      <trkpt lat="43.44721" lon="6.64129">
        <ele>17</ele>
        <time>2019-04-26T19:36:14.678Z</time>
      </trkpt>
      <trkpt lat="43.44723" lon="6.64136">
        <ele>17</ele>
        <time>2019-04-26T19:36:15.678Z</time>
      </trkpt>
      <trkpt lat="43.44726" lon="6.64151">
        <ele>17</ele>
        <time>2019-04-26T19:36:16.678Z</time>
      </trkpt>
      <trkpt lat="43.44729" lon="6.64165">
        <ele>17</ele>
        <time>2019-04-26T19:36:17.678Z</time>
      </trkpt>
      <trkpt lat="43.44733" lon="6.64178">
        <ele>18</ele>
        <time>2019-04-26T19:36:18.678Z</time>
      </trkpt>
      <trkpt lat="43.44735" lon="6.64185">
        <ele>18</ele>
        <time>2019-04-26T19:36:19.678Z</time>
      </trkpt>
      <trkpt lat="43.44737" lon="6.64191">
        <ele>18</ele>
        <time>2019-04-26T19:36:20.678Z</time>
      </trkpt>
      <trkpt lat="43.44741" lon="6.64204">
        <ele>18</ele>
        <time>2019-04-26T19:36:21.678Z</time>
      </trkpt>
      <trkpt lat="43.44745" lon="6.64216">
        <ele>18</ele>
        <time>2019-04-26T19:36:22.678Z</time>
      </trkpt>
      <trkpt lat="43.44748" lon="6.64222">
        <ele>17</ele>
        <time>2019-04-26T19:36:23.678Z</time>
      </trkpt>
      <trkpt lat="43.4475" lon="6.64228">
        <ele>17</ele>
        <time>2019-04-26T19:36:24.678Z</time>
      </trkpt>
      <trkpt lat="43.44754" lon="6.6424">
        <ele>18</ele>
        <time>2019-04-26T19:36:25.678Z</time>
      </trkpt>
      <trkpt lat="43.44755" lon="6.64246">
        <ele>18</ele>
        <time>2019-04-26T19:36:26.678Z</time>
      </trkpt>
      <trkpt lat="43.44756" lon="6.64253">
        <ele>18</ele>
        <time>2019-04-26T19:36:27.678Z</time>
      </trkpt>
      <trkpt lat="43.44757" lon="6.64265">
        <ele>18</ele>
        <time>2019-04-26T19:36:28.678Z</time>
      </trkpt>
      <trkpt lat="43.44757" lon="6.64272">
        <ele>19</ele>
        <time>2019-04-26T19:36:29.678Z</time>
      </trkpt>
      <trkpt lat="43.44756" lon="6.64278">
        <ele>19</ele>
        <time>2019-04-26T19:36:30.678Z</time>
      </trkpt>
      <trkpt lat="43.44755" lon="6.64291">
        <ele>20</ele>
        <time>2019-04-26T19:36:31.678Z</time>
      </trkpt>
      <trkpt lat="43.44753" lon="6.64304">
        <ele>20</ele>
        <time>2019-04-26T19:36:32.678Z</time>
      </trkpt>
      <trkpt lat="43.4475" lon="6.64316">
        <ele>21</ele>
        <time>2019-04-26T19:36:33.678Z</time>
      </trkpt>
      <trkpt lat="43.44745" lon="6.64326">
        <ele>22</ele>
        <time>2019-04-26T19:36:34.678Z</time>
      </trkpt>
      <trkpt lat="43.4474" lon="6.64336">
        <ele>22</ele>
        <time>2019-04-26T19:36:35.678Z</time>
      </trkpt>
      <trkpt lat="43.44735" lon="6.64347">
        <ele>22</ele>
        <time>2019-04-26T19:36:36.678Z</time>
      </trkpt>
      <trkpt lat="43.44728" lon="6.64359">
        <ele>22</ele>
        <time>2019-04-26T19:36:37.678Z</time>
      </trkpt>
      <trkpt lat="43.44725" lon="6.64364">
        <ele>21</ele>
        <time>2019-04-26T19:36:38.678Z</time>
      </trkpt>
      <trkpt lat="43.44721" lon="6.6437">
        <ele>21</ele>
        <time>2019-04-26T19:36:39.678Z</time>
      </trkpt>
      <trkpt lat="43.44714" lon="6.64383">
        <ele>21</ele>
        <time>2019-04-26T19:36:40.678Z</time>
      </trkpt>
      <trkpt lat="43.44706" lon="6.64395">
        <ele>20</ele>
        <time>2019-04-26T19:36:41.678Z</time>
      </trkpt>
      <trkpt lat="43.44698" lon="6.64408">
        <ele>19</ele>
        <time>2019-04-26T19:36:42.678Z</time>
      </trkpt>
      <trkpt lat="43.44693" lon="6.64422">
        <ele>18</ele>
        <time>2019-04-26T19:36:43.678Z</time>
      </trkpt>
      <trkpt lat="43.44689" lon="6.64434">
        <ele>17</ele>
        <time>2019-04-26T19:36:44.678Z</time>
      </trkpt>
      <trkpt lat="43.44687" lon="6.64437">
        <ele>17</ele>
        <time>2019-04-26T19:36:45.678Z</time>
      </trkpt>
      <trkpt lat="43.44685" lon="6.6444">
        <ele>17</ele>
        <time>2019-04-26T19:36:46.678Z</time>
      </trkpt>
      <trkpt lat="43.44688" lon="6.64443">
        <ele>17</ele>
        <time>2019-04-26T19:36:47.678Z</time>
      </trkpt>
      <trkpt lat="43.4469" lon="6.64438">
        <ele>17</ele>
        <time>2019-04-26T19:36:48.678Z</time>
      </trkpt>
      <trkpt lat="43.44691" lon="6.64434">
        <ele>18</ele>
        <time>2019-04-26T19:36:49.678Z</time>
      </trkpt>
    </trkseg>
  </trk>
</gpx>